<?xml version="1.0" encoding="UTF-8" standalone="no" ?>
<gpx xmlns="http://www.topografix.com/GPX/1/1" xmlns:xsi="http://www.w3.org/2001/XMLSchema-instance" xsi:schemaLocation="http://www.topografix.com/GPX/1/1 http://www.topografix.com/GPX/1/1/gpx.xsd" version="1.1" creator="VisuGPX - https://www.visugpx.com">
  <metadata>
    <name>2018-06-13am Bike ride VTT-Ford garage Genay to Amberieux via St Bernard</name>
    <desc><![CDATA[2018-06-13am Bike ride VTT-Ford garage Genay to Amberieux via St Bernard]]></desc>
  </metadata>
  <wpt lat="45.89289" lon="4.82388">
    <ele>173</ele>
    <name><![CDATA[2018-06-13 08:28 (Start)]]></name>
  </wpt>
  <wpt lat="45.92451" lon="4.73703">
    <ele>174</ele>
    <name><![CDATA[2018-06-13 08:28 (End)]]></name>
  </wpt>
  <trk>
    <name><![CDATA[2018-06-13 08:28]]></name>
    <trkseg>
      <trkpt lat="45.89289" lon="4.82388">
        <ele>173</ele>
        <time>2018-06-13T06:28:03.849Z</time>
      </trkpt>
      <trkpt lat="45.89289" lon="4.82388">
        <ele>173</ele>
        <time>2018-06-13T06:28:12Z</time>
      </trkpt>
      <trkpt lat="45.89289" lon="4.82388">
        <ele>173</ele>
        <time>2018-06-13T06:28:13Z</time>
      </trkpt>
      <trkpt lat="45.89288" lon="4.82388">
        <ele>173</ele>
        <time>2018-06-13T06:28:17Z</time>
      </trkpt>
      <trkpt lat="45.89288" lon="4.82389">
        <ele>173</ele>
        <time>2018-06-13T06:28:18Z</time>
      </trkpt>
      <trkpt lat="45.89295" lon="4.82385">
        <ele>173</ele>
        <time>2018-06-13T06:28:32Z</time>
      </trkpt>
      <trkpt lat="45.89297" lon="4.82382">
        <ele>173</ele>
        <time>2018-06-13T06:28:33Z</time>
      </trkpt>
      <trkpt lat="45.89299" lon="4.8238">
        <ele>173</ele>
        <time>2018-06-13T06:28:34Z</time>
      </trkpt>
      <trkpt lat="45.89306" lon="4.82373">
        <ele>173</ele>
        <time>2018-06-13T06:28:35Z</time>
      </trkpt>
      <trkpt lat="45.89313" lon="4.82367">
        <ele>173</ele>
        <time>2018-06-13T06:28:37Z</time>
      </trkpt>
      <trkpt lat="45.89316" lon="4.82363">
        <ele>173</ele>
        <time>2018-06-13T06:28:38Z</time>
      </trkpt>
      <trkpt lat="45.89322" lon="4.82354">
        <ele>173</ele>
        <time>2018-06-13T06:28:40Z</time>
      </trkpt>
      <trkpt lat="45.89325" lon="4.82351">
        <ele>173</ele>
        <time>2018-06-13T06:28:41Z</time>
      </trkpt>
      <trkpt lat="45.89332" lon="4.82343">
        <ele>172</ele>
        <time>2018-06-13T06:28:43Z</time>
      </trkpt>
      <trkpt lat="45.89336" lon="4.82339">
        <ele>172</ele>
        <time>2018-06-13T06:28:44Z</time>
      </trkpt>
      <trkpt lat="45.89339" lon="4.82335">
        <ele>172</ele>
        <time>2018-06-13T06:28:45Z</time>
      </trkpt>
      <trkpt lat="45.89344" lon="4.82331">
        <ele>172</ele>
        <time>2018-06-13T06:28:46Z</time>
      </trkpt>
      <trkpt lat="45.89348" lon="4.82327">
        <ele>172</ele>
        <time>2018-06-13T06:28:47Z</time>
      </trkpt>
      <trkpt lat="45.89353" lon="4.82323">
        <ele>172</ele>
        <time>2018-06-13T06:28:48Z</time>
      </trkpt>
      <trkpt lat="45.89356" lon="4.82319">
        <ele>172</ele>
        <time>2018-06-13T06:28:49Z</time>
      </trkpt>
      <trkpt lat="45.8936" lon="4.82315">
        <ele>172</ele>
        <time>2018-06-13T06:28:50Z</time>
      </trkpt>
      <trkpt lat="45.89367" lon="4.82307">
        <ele>172</ele>
        <time>2018-06-13T06:28:52Z</time>
      </trkpt>
      <trkpt lat="45.89369" lon="4.82302">
        <ele>172</ele>
        <time>2018-06-13T06:28:53Z</time>
      </trkpt>
      <trkpt lat="45.89376" lon="4.82293">
        <ele>172</ele>
        <time>2018-06-13T06:28:55Z</time>
      </trkpt>
      <trkpt lat="45.89381" lon="4.82288">
        <ele>172</ele>
        <time>2018-06-13T06:28:56Z</time>
      </trkpt>
      <trkpt lat="45.89384" lon="4.82284">
        <ele>172</ele>
        <time>2018-06-13T06:28:57Z</time>
      </trkpt>
      <trkpt lat="45.89388" lon="4.82279">
        <ele>172</ele>
        <time>2018-06-13T06:28:58Z</time>
      </trkpt>
      <trkpt lat="45.89395" lon="4.82271">
        <ele>172</ele>
        <time>2018-06-13T06:29:00Z</time>
      </trkpt>
      <trkpt lat="45.89399" lon="4.82267">
        <ele>172</ele>
        <time>2018-06-13T06:29:01Z</time>
      </trkpt>
      <trkpt lat="45.89403" lon="4.82261">
        <ele>172</ele>
        <time>2018-06-13T06:29:02Z</time>
      </trkpt>
      <trkpt lat="45.89406" lon="4.82257">
        <ele>171</ele>
        <time>2018-06-13T06:29:03Z</time>
      </trkpt>
      <trkpt lat="45.89409" lon="4.82253">
        <ele>171</ele>
        <time>2018-06-13T06:29:04Z</time>
      </trkpt>
      <trkpt lat="45.89413" lon="4.82246">
        <ele>171</ele>
        <time>2018-06-13T06:29:05Z</time>
      </trkpt>
      <trkpt lat="45.89416" lon="4.82243">
        <ele>171</ele>
        <time>2018-06-13T06:29:06Z</time>
      </trkpt>
      <trkpt lat="45.8942" lon="4.82238">
        <ele>171</ele>
        <time>2018-06-13T06:29:07Z</time>
      </trkpt>
      <trkpt lat="45.89425" lon="4.82233">
        <ele>171</ele>
        <time>2018-06-13T06:29:08Z</time>
      </trkpt>
      <trkpt lat="45.89429" lon="4.82227">
        <ele>171</ele>
        <time>2018-06-13T06:29:09Z</time>
      </trkpt>
      <trkpt lat="45.89433" lon="4.8222">
        <ele>171</ele>
        <time>2018-06-13T06:29:10Z</time>
      </trkpt>
      <trkpt lat="45.89437" lon="4.82216">
        <ele>171</ele>
        <time>2018-06-13T06:29:11Z</time>
      </trkpt>
      <trkpt lat="45.89441" lon="4.82212">
        <ele>171</ele>
        <time>2018-06-13T06:29:12Z</time>
      </trkpt>
      <trkpt lat="45.89445" lon="4.82206">
        <ele>171</ele>
        <time>2018-06-13T06:29:13Z</time>
      </trkpt>
      <trkpt lat="45.89449" lon="4.82201">
        <ele>171</ele>
        <time>2018-06-13T06:29:14Z</time>
      </trkpt>
      <trkpt lat="45.89453" lon="4.82196">
        <ele>171</ele>
        <time>2018-06-13T06:29:15Z</time>
      </trkpt>
      <trkpt lat="45.89458" lon="4.82193">
        <ele>171</ele>
        <time>2018-06-13T06:29:16Z</time>
      </trkpt>
      <trkpt lat="45.89462" lon="4.8219">
        <ele>171</ele>
        <time>2018-06-13T06:29:17Z</time>
      </trkpt>
      <trkpt lat="45.89467" lon="4.82187">
        <ele>171</ele>
        <time>2018-06-13T06:29:18Z</time>
      </trkpt>
      <trkpt lat="45.89472" lon="4.82184">
        <ele>171</ele>
        <time>2018-06-13T06:29:19Z</time>
      </trkpt>
      <trkpt lat="45.89477" lon="4.8218">
        <ele>171</ele>
        <time>2018-06-13T06:29:20Z</time>
      </trkpt>
      <trkpt lat="45.89482" lon="4.82177">
        <ele>171</ele>
        <time>2018-06-13T06:29:21Z</time>
      </trkpt>
      <trkpt lat="45.89485" lon="4.82172">
        <ele>171</ele>
        <time>2018-06-13T06:29:22Z</time>
      </trkpt>
      <trkpt lat="45.8949" lon="4.82168">
        <ele>171</ele>
        <time>2018-06-13T06:29:23Z</time>
      </trkpt>
      <trkpt lat="45.89494" lon="4.82164">
        <ele>171</ele>
        <time>2018-06-13T06:29:24Z</time>
      </trkpt>
      <trkpt lat="45.89499" lon="4.82161">
        <ele>171</ele>
        <time>2018-06-13T06:29:25Z</time>
      </trkpt>
      <trkpt lat="45.89504" lon="4.82157">
        <ele>172</ele>
        <time>2018-06-13T06:29:26Z</time>
      </trkpt>
      <trkpt lat="45.89507" lon="4.8215">
        <ele>172</ele>
        <time>2018-06-13T06:29:27Z</time>
      </trkpt>
      <trkpt lat="45.89511" lon="4.82147">
        <ele>172</ele>
        <time>2018-06-13T06:29:28Z</time>
      </trkpt>
      <trkpt lat="45.89515" lon="4.82145">
        <ele>172</ele>
        <time>2018-06-13T06:29:29Z</time>
      </trkpt>
      <trkpt lat="45.8952" lon="4.82142">
        <ele>172</ele>
        <time>2018-06-13T06:29:30Z</time>
      </trkpt>
      <trkpt lat="45.89523" lon="4.82138">
        <ele>172</ele>
        <time>2018-06-13T06:29:31Z</time>
      </trkpt>
      <trkpt lat="45.89528" lon="4.82136">
        <ele>172</ele>
        <time>2018-06-13T06:29:32Z</time>
      </trkpt>
      <trkpt lat="45.89533" lon="4.82135">
        <ele>172</ele>
        <time>2018-06-13T06:29:33Z</time>
      </trkpt>
      <trkpt lat="45.89537" lon="4.82134">
        <ele>172</ele>
        <time>2018-06-13T06:29:34Z</time>
      </trkpt>
      <trkpt lat="45.89542" lon="4.82133">
        <ele>172</ele>
        <time>2018-06-13T06:29:35Z</time>
      </trkpt>
      <trkpt lat="45.89546" lon="4.8213">
        <ele>173</ele>
        <time>2018-06-13T06:29:36Z</time>
      </trkpt>
      <trkpt lat="45.8955" lon="4.82127">
        <ele>173</ele>
        <time>2018-06-13T06:29:37Z</time>
      </trkpt>
      <trkpt lat="45.89553" lon="4.82121">
        <ele>173</ele>
        <time>2018-06-13T06:29:38Z</time>
      </trkpt>
      <trkpt lat="45.89556" lon="4.82117">
        <ele>173</ele>
        <time>2018-06-13T06:29:39Z</time>
      </trkpt>
      <trkpt lat="45.89558" lon="4.8211">
        <ele>173</ele>
        <time>2018-06-13T06:29:40Z</time>
      </trkpt>
      <trkpt lat="45.89561" lon="4.82101">
        <ele>173</ele>
        <time>2018-06-13T06:29:41Z</time>
      </trkpt>
      <trkpt lat="45.89564" lon="4.82094">
        <ele>173</ele>
        <time>2018-06-13T06:29:42Z</time>
      </trkpt>
      <trkpt lat="45.89567" lon="4.82089">
        <ele>173</ele>
        <time>2018-06-13T06:29:43Z</time>
      </trkpt>
      <trkpt lat="45.8957" lon="4.82086">
        <ele>173</ele>
        <time>2018-06-13T06:29:44Z</time>
      </trkpt>
      <trkpt lat="45.89575" lon="4.82082">
        <ele>173</ele>
        <time>2018-06-13T06:29:45Z</time>
      </trkpt>
      <trkpt lat="45.89577" lon="4.82077">
        <ele>173</ele>
        <time>2018-06-13T06:29:46Z</time>
      </trkpt>
      <trkpt lat="45.89582" lon="4.82073">
        <ele>173</ele>
        <time>2018-06-13T06:29:47Z</time>
      </trkpt>
      <trkpt lat="45.89586" lon="4.8207">
        <ele>173</ele>
        <time>2018-06-13T06:29:48Z</time>
      </trkpt>
      <trkpt lat="45.8959" lon="4.82066">
        <ele>173</ele>
        <time>2018-06-13T06:29:49Z</time>
      </trkpt>
      <trkpt lat="45.89595" lon="4.82062">
        <ele>173</ele>
        <time>2018-06-13T06:29:50Z</time>
      </trkpt>
      <trkpt lat="45.89599" lon="4.82058">
        <ele>173</ele>
        <time>2018-06-13T06:29:51Z</time>
      </trkpt>
      <trkpt lat="45.89602" lon="4.82054">
        <ele>173</ele>
        <time>2018-06-13T06:29:52Z</time>
      </trkpt>
      <trkpt lat="45.89607" lon="4.8205">
        <ele>173</ele>
        <time>2018-06-13T06:29:53Z</time>
      </trkpt>
      <trkpt lat="45.89615" lon="4.82044">
        <ele>173</ele>
        <time>2018-06-13T06:29:55Z</time>
      </trkpt>
      <trkpt lat="45.89618" lon="4.8204">
        <ele>173</ele>
        <time>2018-06-13T06:29:56Z</time>
      </trkpt>
      <trkpt lat="45.89623" lon="4.82036">
        <ele>173</ele>
        <time>2018-06-13T06:29:57Z</time>
      </trkpt>
      <trkpt lat="45.89627" lon="4.82034">
        <ele>173</ele>
        <time>2018-06-13T06:29:58Z</time>
      </trkpt>
      <trkpt lat="45.8963" lon="4.8203">
        <ele>173</ele>
        <time>2018-06-13T06:29:59Z</time>
      </trkpt>
      <trkpt lat="45.89634" lon="4.82027">
        <ele>173</ele>
        <time>2018-06-13T06:30:00Z</time>
      </trkpt>
      <trkpt lat="45.8964" lon="4.82023">
        <ele>173</ele>
        <time>2018-06-13T06:30:01Z</time>
      </trkpt>
      <trkpt lat="45.89643" lon="4.8202">
        <ele>173</ele>
        <time>2018-06-13T06:30:02Z</time>
      </trkpt>
      <trkpt lat="45.89648" lon="4.82016">
        <ele>173</ele>
        <time>2018-06-13T06:30:03Z</time>
      </trkpt>
      <trkpt lat="45.89652" lon="4.82008">
        <ele>174</ele>
        <time>2018-06-13T06:30:04Z</time>
      </trkpt>
      <trkpt lat="45.89659" lon="4.82002">
        <ele>174</ele>
        <time>2018-06-13T06:30:06Z</time>
      </trkpt>
      <trkpt lat="45.89662" lon="4.81999">
        <ele>174</ele>
        <time>2018-06-13T06:30:07Z</time>
      </trkpt>
      <trkpt lat="45.89669" lon="4.81993">
        <ele>174</ele>
        <time>2018-06-13T06:30:09Z</time>
      </trkpt>
      <trkpt lat="45.89673" lon="4.81989">
        <ele>174</ele>
        <time>2018-06-13T06:30:10Z</time>
      </trkpt>
      <trkpt lat="45.8968" lon="4.81984">
        <ele>173</ele>
        <time>2018-06-13T06:30:12Z</time>
      </trkpt>
      <trkpt lat="45.89685" lon="4.81981">
        <ele>173</ele>
        <time>2018-06-13T06:30:13Z</time>
      </trkpt>
      <trkpt lat="45.89689" lon="4.81975">
        <ele>173</ele>
        <time>2018-06-13T06:30:14Z</time>
      </trkpt>
      <trkpt lat="45.89693" lon="4.81972">
        <ele>173</ele>
        <time>2018-06-13T06:30:15Z</time>
      </trkpt>
      <trkpt lat="45.89698" lon="4.81968">
        <ele>173</ele>
        <time>2018-06-13T06:30:16Z</time>
      </trkpt>
      <trkpt lat="45.89703" lon="4.81965">
        <ele>173</ele>
        <time>2018-06-13T06:30:17Z</time>
      </trkpt>
      <trkpt lat="45.89707" lon="4.81961">
        <ele>173</ele>
        <time>2018-06-13T06:30:18Z</time>
      </trkpt>
      <trkpt lat="45.89711" lon="4.81958">
        <ele>173</ele>
        <time>2018-06-13T06:30:19Z</time>
      </trkpt>
      <trkpt lat="45.89719" lon="4.81952">
        <ele>173</ele>
        <time>2018-06-13T06:30:21Z</time>
      </trkpt>
      <trkpt lat="45.89723" lon="4.81949">
        <ele>173</ele>
        <time>2018-06-13T06:30:22Z</time>
      </trkpt>
      <trkpt lat="45.89728" lon="4.81946">
        <ele>173</ele>
        <time>2018-06-13T06:30:23Z</time>
      </trkpt>
      <trkpt lat="45.89731" lon="4.81942">
        <ele>173</ele>
        <time>2018-06-13T06:30:24Z</time>
      </trkpt>
      <trkpt lat="45.89735" lon="4.81939">
        <ele>173</ele>
        <time>2018-06-13T06:30:25Z</time>
      </trkpt>
      <trkpt lat="45.8974" lon="4.81936">
        <ele>174</ele>
        <time>2018-06-13T06:30:26Z</time>
      </trkpt>
      <trkpt lat="45.89744" lon="4.81933">
        <ele>174</ele>
        <time>2018-06-13T06:30:27Z</time>
      </trkpt>
      <trkpt lat="45.89748" lon="4.81929">
        <ele>174</ele>
        <time>2018-06-13T06:30:28Z</time>
      </trkpt>
      <trkpt lat="45.89752" lon="4.81926">
        <ele>174</ele>
        <time>2018-06-13T06:30:29Z</time>
      </trkpt>
      <trkpt lat="45.89756" lon="4.81923">
        <ele>174</ele>
        <time>2018-06-13T06:30:30Z</time>
      </trkpt>
      <trkpt lat="45.8976" lon="4.81919">
        <ele>174</ele>
        <time>2018-06-13T06:30:31Z</time>
      </trkpt>
      <trkpt lat="45.89765" lon="4.81917">
        <ele>174</ele>
        <time>2018-06-13T06:30:32Z</time>
      </trkpt>
      <trkpt lat="45.89772" lon="4.81911">
        <ele>174</ele>
        <time>2018-06-13T06:30:34Z</time>
      </trkpt>
      <trkpt lat="45.89776" lon="4.81908">
        <ele>174</ele>
        <time>2018-06-13T06:30:35Z</time>
      </trkpt>
      <trkpt lat="45.89781" lon="4.81904">
        <ele>174</ele>
        <time>2018-06-13T06:30:36Z</time>
      </trkpt>
      <trkpt lat="45.89785" lon="4.819">
        <ele>174</ele>
        <time>2018-06-13T06:30:37Z</time>
      </trkpt>
      <trkpt lat="45.89792" lon="4.81893">
        <ele>174</ele>
        <time>2018-06-13T06:30:39Z</time>
      </trkpt>
      <trkpt lat="45.89796" lon="4.8189">
        <ele>174</ele>
        <time>2018-06-13T06:30:40Z</time>
      </trkpt>
      <trkpt lat="45.89803" lon="4.81884">
        <ele>174</ele>
        <time>2018-06-13T06:30:42Z</time>
      </trkpt>
      <trkpt lat="45.89807" lon="4.81881">
        <ele>174</ele>
        <time>2018-06-13T06:30:43Z</time>
      </trkpt>
      <trkpt lat="45.89815" lon="4.81875">
        <ele>174</ele>
        <time>2018-06-13T06:30:45Z</time>
      </trkpt>
      <trkpt lat="45.89819" lon="4.81871">
        <ele>174</ele>
        <time>2018-06-13T06:30:46Z</time>
      </trkpt>
      <trkpt lat="45.89823" lon="4.81865">
        <ele>174</ele>
        <time>2018-06-13T06:30:47Z</time>
      </trkpt>
      <trkpt lat="45.89827" lon="4.81862">
        <ele>174</ele>
        <time>2018-06-13T06:30:48Z</time>
      </trkpt>
      <trkpt lat="45.89831" lon="4.8186">
        <ele>174</ele>
        <time>2018-06-13T06:30:49Z</time>
      </trkpt>
      <trkpt lat="45.89835" lon="4.81856">
        <ele>175</ele>
        <time>2018-06-13T06:30:50Z</time>
      </trkpt>
      <trkpt lat="45.89839" lon="4.81851">
        <ele>175</ele>
        <time>2018-06-13T06:30:51Z</time>
      </trkpt>
      <trkpt lat="45.89842" lon="4.81847">
        <ele>175</ele>
        <time>2018-06-13T06:30:52Z</time>
      </trkpt>
      <trkpt lat="45.89848" lon="4.81844">
        <ele>175</ele>
        <time>2018-06-13T06:30:53Z</time>
      </trkpt>
      <trkpt lat="45.8985" lon="4.8184">
        <ele>175</ele>
        <time>2018-06-13T06:30:54Z</time>
      </trkpt>
      <trkpt lat="45.89855" lon="4.81836">
        <ele>175</ele>
        <time>2018-06-13T06:30:55Z</time>
      </trkpt>
      <trkpt lat="45.89859" lon="4.81831">
        <ele>175</ele>
        <time>2018-06-13T06:30:56Z</time>
      </trkpt>
      <trkpt lat="45.89862" lon="4.81827">
        <ele>175</ele>
        <time>2018-06-13T06:30:57Z</time>
      </trkpt>
      <trkpt lat="45.89867" lon="4.81823">
        <ele>175</ele>
        <time>2018-06-13T06:30:58Z</time>
      </trkpt>
      <trkpt lat="45.89871" lon="4.81816">
        <ele>175</ele>
        <time>2018-06-13T06:30:59Z</time>
      </trkpt>
      <trkpt lat="45.89874" lon="4.81812">
        <ele>175</ele>
        <time>2018-06-13T06:31:00Z</time>
      </trkpt>
      <trkpt lat="45.89881" lon="4.81804">
        <ele>176</ele>
        <time>2018-06-13T06:31:02Z</time>
      </trkpt>
      <trkpt lat="45.89884" lon="4.81801">
        <ele>176</ele>
        <time>2018-06-13T06:31:03Z</time>
      </trkpt>
      <trkpt lat="45.89889" lon="4.81793">
        <ele>176</ele>
        <time>2018-06-13T06:31:05Z</time>
      </trkpt>
      <trkpt lat="45.89892" lon="4.8179">
        <ele>176</ele>
        <time>2018-06-13T06:31:06Z</time>
      </trkpt>
      <trkpt lat="45.89898" lon="4.81784">
        <ele>176</ele>
        <time>2018-06-13T06:31:08Z</time>
      </trkpt>
      <trkpt lat="45.899" lon="4.81783">
        <ele>176</ele>
        <time>2018-06-13T06:31:09Z</time>
      </trkpt>
      <trkpt lat="45.89906" lon="4.81774">
        <ele>176</ele>
        <time>2018-06-13T06:31:11Z</time>
      </trkpt>
      <trkpt lat="45.89908" lon="4.81773">
        <ele>176</ele>
        <time>2018-06-13T06:31:12Z</time>
      </trkpt>
      <trkpt lat="45.8991" lon="4.81771">
        <ele>176</ele>
        <time>2018-06-13T06:31:13Z</time>
      </trkpt>
      <trkpt lat="45.89916" lon="4.81766">
        <ele>176</ele>
        <time>2018-06-13T06:31:14Z</time>
      </trkpt>
      <trkpt lat="45.89923" lon="4.81765">
        <ele>177</ele>
        <time>2018-06-13T06:31:16Z</time>
      </trkpt>
      <trkpt lat="45.89927" lon="4.81765">
        <ele>177</ele>
        <time>2018-06-13T06:31:17Z</time>
      </trkpt>
      <trkpt lat="45.89935" lon="4.81767">
        <ele>177</ele>
        <time>2018-06-13T06:31:19Z</time>
      </trkpt>
      <trkpt lat="45.8994" lon="4.81766">
        <ele>177</ele>
        <time>2018-06-13T06:31:20Z</time>
      </trkpt>
      <trkpt lat="45.89948" lon="4.81762">
        <ele>177</ele>
        <time>2018-06-13T06:31:22Z</time>
      </trkpt>
      <trkpt lat="45.89951" lon="4.81759">
        <ele>177</ele>
        <time>2018-06-13T06:31:23Z</time>
      </trkpt>
      <trkpt lat="45.89955" lon="4.81753">
        <ele>177</ele>
        <time>2018-06-13T06:31:24Z</time>
      </trkpt>
      <trkpt lat="45.89956" lon="4.81748">
        <ele>177</ele>
        <time>2018-06-13T06:31:25Z</time>
      </trkpt>
      <trkpt lat="45.89959" lon="4.8174">
        <ele>176</ele>
        <time>2018-06-13T06:31:26Z</time>
      </trkpt>
      <trkpt lat="45.89961" lon="4.81733">
        <ele>176</ele>
        <time>2018-06-13T06:31:27Z</time>
      </trkpt>
      <trkpt lat="45.89966" lon="4.81724">
        <ele>176</ele>
        <time>2018-06-13T06:31:29Z</time>
      </trkpt>
      <trkpt lat="45.8997" lon="4.8172">
        <ele>176</ele>
        <time>2018-06-13T06:31:30Z</time>
      </trkpt>
      <trkpt lat="45.89975" lon="4.81718">
        <ele>176</ele>
        <time>2018-06-13T06:31:31Z</time>
      </trkpt>
      <trkpt lat="45.89979" lon="4.81715">
        <ele>176</ele>
        <time>2018-06-13T06:31:32Z</time>
      </trkpt>
      <trkpt lat="45.89983" lon="4.81712">
        <ele>176</ele>
        <time>2018-06-13T06:31:33Z</time>
      </trkpt>
      <trkpt lat="45.89988" lon="4.81709">
        <ele>176</ele>
        <time>2018-06-13T06:31:34Z</time>
      </trkpt>
      <trkpt lat="45.89996" lon="4.81705">
        <ele>176</ele>
        <time>2018-06-13T06:31:36Z</time>
      </trkpt>
      <trkpt lat="45.9" lon="4.81703">
        <ele>176</ele>
        <time>2018-06-13T06:31:37Z</time>
      </trkpt>
      <trkpt lat="45.90004" lon="4.817">
        <ele>177</ele>
        <time>2018-06-13T06:31:38Z</time>
      </trkpt>
      <trkpt lat="45.90008" lon="4.81698">
        <ele>177</ele>
        <time>2018-06-13T06:31:39Z</time>
      </trkpt>
      <trkpt lat="45.90017" lon="4.81694">
        <ele>177</ele>
        <time>2018-06-13T06:31:41Z</time>
      </trkpt>
      <trkpt lat="45.90021" lon="4.8169">
        <ele>177</ele>
        <time>2018-06-13T06:31:42Z</time>
      </trkpt>
      <trkpt lat="45.90029" lon="4.81689">
        <ele>178</ele>
        <time>2018-06-13T06:31:44Z</time>
      </trkpt>
      <trkpt lat="45.90033" lon="4.81686">
        <ele>178</ele>
        <time>2018-06-13T06:31:45Z</time>
      </trkpt>
      <trkpt lat="45.90042" lon="4.81683">
        <ele>178</ele>
        <time>2018-06-13T06:31:47Z</time>
      </trkpt>
      <trkpt lat="45.90046" lon="4.81681">
        <ele>178</ele>
        <time>2018-06-13T06:31:48Z</time>
      </trkpt>
      <trkpt lat="45.90054" lon="4.81678">
        <ele>178</ele>
        <time>2018-06-13T06:31:50Z</time>
      </trkpt>
      <trkpt lat="45.90059" lon="4.81676">
        <ele>178</ele>
        <time>2018-06-13T06:31:51Z</time>
      </trkpt>
      <trkpt lat="45.90067" lon="4.81672">
        <ele>178</ele>
        <time>2018-06-13T06:31:53Z</time>
      </trkpt>
      <trkpt lat="45.90071" lon="4.8167">
        <ele>179</ele>
        <time>2018-06-13T06:31:54Z</time>
      </trkpt>
      <trkpt lat="45.90075" lon="4.81669">
        <ele>179</ele>
        <time>2018-06-13T06:31:55Z</time>
      </trkpt>
      <trkpt lat="45.9008" lon="4.81668">
        <ele>179</ele>
        <time>2018-06-13T06:31:56Z</time>
      </trkpt>
      <trkpt lat="45.90084" lon="4.81667">
        <ele>179</ele>
        <time>2018-06-13T06:31:57Z</time>
      </trkpt>
      <trkpt lat="45.90089" lon="4.81665">
        <ele>179</ele>
        <time>2018-06-13T06:31:58Z</time>
      </trkpt>
      <trkpt lat="45.90093" lon="4.81663">
        <ele>179</ele>
        <time>2018-06-13T06:31:59Z</time>
      </trkpt>
      <trkpt lat="45.90098" lon="4.81662">
        <ele>179</ele>
        <time>2018-06-13T06:32:00Z</time>
      </trkpt>
      <trkpt lat="45.90102" lon="4.81662">
        <ele>179</ele>
        <time>2018-06-13T06:32:01Z</time>
      </trkpt>
      <trkpt lat="45.90107" lon="4.8166">
        <ele>179</ele>
        <time>2018-06-13T06:32:02Z</time>
      </trkpt>
      <trkpt lat="45.90112" lon="4.81659">
        <ele>179</ele>
        <time>2018-06-13T06:32:03Z</time>
      </trkpt>
      <trkpt lat="45.90117" lon="4.81658">
        <ele>179</ele>
        <time>2018-06-13T06:32:04Z</time>
      </trkpt>
      <trkpt lat="45.90125" lon="4.81656">
        <ele>179</ele>
        <time>2018-06-13T06:32:06Z</time>
      </trkpt>
      <trkpt lat="45.9013" lon="4.81655">
        <ele>179</ele>
        <time>2018-06-13T06:32:07Z</time>
      </trkpt>
      <trkpt lat="45.90134" lon="4.81654">
        <ele>179</ele>
        <time>2018-06-13T06:32:08Z</time>
      </trkpt>
      <trkpt lat="45.90139" lon="4.81653">
        <ele>179</ele>
        <time>2018-06-13T06:32:09Z</time>
      </trkpt>
      <trkpt lat="45.90147" lon="4.81652">
        <ele>179</ele>
        <time>2018-06-13T06:32:11Z</time>
      </trkpt>
      <trkpt lat="45.90152" lon="4.81651">
        <ele>179</ele>
        <time>2018-06-13T06:32:12Z</time>
      </trkpt>
      <trkpt lat="45.90157" lon="4.8165">
        <ele>179</ele>
        <time>2018-06-13T06:32:13Z</time>
      </trkpt>
      <trkpt lat="45.90161" lon="4.8165">
        <ele>179</ele>
        <time>2018-06-13T06:32:14Z</time>
      </trkpt>
      <trkpt lat="45.90166" lon="4.81649">
        <ele>179</ele>
        <time>2018-06-13T06:32:15Z</time>
      </trkpt>
      <trkpt lat="45.9017" lon="4.81649">
        <ele>180</ele>
        <time>2018-06-13T06:32:16Z</time>
      </trkpt>
      <trkpt lat="45.90179" lon="4.81649">
        <ele>180</ele>
        <time>2018-06-13T06:32:18Z</time>
      </trkpt>
      <trkpt lat="45.90184" lon="4.81648">
        <ele>180</ele>
        <time>2018-06-13T06:32:19Z</time>
      </trkpt>
      <trkpt lat="45.90188" lon="4.81647">
        <ele>180</ele>
        <time>2018-06-13T06:32:20Z</time>
      </trkpt>
      <trkpt lat="45.90193" lon="4.81646">
        <ele>180</ele>
        <time>2018-06-13T06:32:21Z</time>
      </trkpt>
      <trkpt lat="45.90198" lon="4.81645">
        <ele>180</ele>
        <time>2018-06-13T06:32:22Z</time>
      </trkpt>
      <trkpt lat="45.90203" lon="4.81644">
        <ele>180</ele>
        <time>2018-06-13T06:32:23Z</time>
      </trkpt>
      <trkpt lat="45.90209" lon="4.81643">
        <ele>180</ele>
        <time>2018-06-13T06:32:24Z</time>
      </trkpt>
      <trkpt lat="45.90214" lon="4.81646">
        <ele>180</ele>
        <time>2018-06-13T06:32:25Z</time>
      </trkpt>
      <trkpt lat="45.90218" lon="4.81646">
        <ele>180</ele>
        <time>2018-06-13T06:32:26Z</time>
      </trkpt>
      <trkpt lat="45.90223" lon="4.81646">
        <ele>180</ele>
        <time>2018-06-13T06:32:27Z</time>
      </trkpt>
      <trkpt lat="45.90229" lon="4.81646">
        <ele>181</ele>
        <time>2018-06-13T06:32:28Z</time>
      </trkpt>
      <trkpt lat="45.90233" lon="4.81644">
        <ele>181</ele>
        <time>2018-06-13T06:32:29Z</time>
      </trkpt>
      <trkpt lat="45.90238" lon="4.81644">
        <ele>181</ele>
        <time>2018-06-13T06:32:30Z</time>
      </trkpt>
      <trkpt lat="45.90242" lon="4.81644">
        <ele>181</ele>
        <time>2018-06-13T06:32:31Z</time>
      </trkpt>
      <trkpt lat="45.90249" lon="4.81643">
        <ele>181</ele>
        <time>2018-06-13T06:32:32Z</time>
      </trkpt>
      <trkpt lat="45.90253" lon="4.81643">
        <ele>182</ele>
        <time>2018-06-13T06:32:33Z</time>
      </trkpt>
      <trkpt lat="45.90261" lon="4.81646">
        <ele>182</ele>
        <time>2018-06-13T06:32:35Z</time>
      </trkpt>
      <trkpt lat="45.90265" lon="4.81648">
        <ele>182</ele>
        <time>2018-06-13T06:32:36Z</time>
      </trkpt>
      <trkpt lat="45.90273" lon="4.81654">
        <ele>182</ele>
        <time>2018-06-13T06:32:38Z</time>
      </trkpt>
      <trkpt lat="45.90277" lon="4.81656">
        <ele>182</ele>
        <time>2018-06-13T06:32:39Z</time>
      </trkpt>
      <trkpt lat="45.90282" lon="4.81658">
        <ele>182</ele>
        <time>2018-06-13T06:32:40Z</time>
      </trkpt>
      <trkpt lat="45.90287" lon="4.81658">
        <ele>182</ele>
        <time>2018-06-13T06:32:41Z</time>
      </trkpt>
      <trkpt lat="45.90292" lon="4.81655">
        <ele>182</ele>
        <time>2018-06-13T06:32:42Z</time>
      </trkpt>
      <trkpt lat="45.90296" lon="4.8165">
        <ele>182</ele>
        <time>2018-06-13T06:32:43Z</time>
      </trkpt>
      <trkpt lat="45.903" lon="4.81645">
        <ele>182</ele>
        <time>2018-06-13T06:32:44Z</time>
      </trkpt>
      <trkpt lat="45.90301" lon="4.8164">
        <ele>182</ele>
        <time>2018-06-13T06:32:45Z</time>
      </trkpt>
      <trkpt lat="45.90298" lon="4.81628">
        <ele>182</ele>
        <time>2018-06-13T06:32:47Z</time>
      </trkpt>
      <trkpt lat="45.90296" lon="4.81622">
        <ele>182</ele>
        <time>2018-06-13T06:32:48Z</time>
      </trkpt>
      <trkpt lat="45.90292" lon="4.81617">
        <ele>182</ele>
        <time>2018-06-13T06:32:49Z</time>
      </trkpt>
      <trkpt lat="45.90289" lon="4.81613">
        <ele>182</ele>
        <time>2018-06-13T06:32:50Z</time>
      </trkpt>
      <trkpt lat="45.90282" lon="4.81608">
        <ele>181</ele>
        <time>2018-06-13T06:32:54Z</time>
      </trkpt>
      <trkpt lat="45.90281" lon="4.81608">
        <ele>181</ele>
        <time>2018-06-13T06:32:55Z</time>
      </trkpt>
      <trkpt lat="45.90274" lon="4.81612">
        <ele>181</ele>
        <time>2018-06-13T06:32:59Z</time>
      </trkpt>
      <trkpt lat="45.90272" lon="4.81614">
        <ele>181</ele>
        <time>2018-06-13T06:33:00Z</time>
      </trkpt>
      <trkpt lat="45.90267" lon="4.81622">
        <ele>182</ele>
        <time>2018-06-13T06:33:03Z</time>
      </trkpt>
      <trkpt lat="45.90263" lon="4.81633">
        <ele>182</ele>
        <time>2018-06-13T06:33:04Z</time>
      </trkpt>
      <trkpt lat="45.90264" lon="4.81645">
        <ele>182</ele>
        <time>2018-06-13T06:33:06Z</time>
      </trkpt>
      <trkpt lat="45.90266" lon="4.81651">
        <ele>182</ele>
        <time>2018-06-13T06:33:07Z</time>
      </trkpt>
      <trkpt lat="45.90269" lon="4.81656">
        <ele>182</ele>
        <time>2018-06-13T06:33:08Z</time>
      </trkpt>
      <trkpt lat="45.90277" lon="4.81659">
        <ele>182</ele>
        <time>2018-06-13T06:33:09Z</time>
      </trkpt>
      <trkpt lat="45.90282" lon="4.81661">
        <ele>182</ele>
        <time>2018-06-13T06:33:10Z</time>
      </trkpt>
      <trkpt lat="45.90287" lon="4.81659">
        <ele>182</ele>
        <time>2018-06-13T06:33:11Z</time>
      </trkpt>
      <trkpt lat="45.90291" lon="4.81655">
        <ele>182</ele>
        <time>2018-06-13T06:33:12Z</time>
      </trkpt>
      <trkpt lat="45.90295" lon="4.81651">
        <ele>182</ele>
        <time>2018-06-13T06:33:13Z</time>
      </trkpt>
      <trkpt lat="45.90299" lon="4.81646">
        <ele>182</ele>
        <time>2018-06-13T06:33:14Z</time>
      </trkpt>
      <trkpt lat="45.90302" lon="4.81642">
        <ele>182</ele>
        <time>2018-06-13T06:33:15Z</time>
      </trkpt>
      <trkpt lat="45.90307" lon="4.81639">
        <ele>182</ele>
        <time>2018-06-13T06:33:16Z</time>
      </trkpt>
      <trkpt lat="45.90311" lon="4.81636">
        <ele>182</ele>
        <time>2018-06-13T06:33:17Z</time>
      </trkpt>
      <trkpt lat="45.90316" lon="4.81634">
        <ele>182</ele>
        <time>2018-06-13T06:33:18Z</time>
      </trkpt>
      <trkpt lat="45.90321" lon="4.81632">
        <ele>182</ele>
        <time>2018-06-13T06:33:19Z</time>
      </trkpt>
      <trkpt lat="45.90325" lon="4.81631">
        <ele>182</ele>
        <time>2018-06-13T06:33:20Z</time>
      </trkpt>
      <trkpt lat="45.9033" lon="4.8163">
        <ele>182</ele>
        <time>2018-06-13T06:33:21Z</time>
      </trkpt>
      <trkpt lat="45.90335" lon="4.81629">
        <ele>183</ele>
        <time>2018-06-13T06:33:22Z</time>
      </trkpt>
      <trkpt lat="45.9034" lon="4.81627">
        <ele>183</ele>
        <time>2018-06-13T06:33:23Z</time>
      </trkpt>
      <trkpt lat="45.90349" lon="4.81626">
        <ele>183</ele>
        <time>2018-06-13T06:33:25Z</time>
      </trkpt>
      <trkpt lat="45.90353" lon="4.81624">
        <ele>182</ele>
        <time>2018-06-13T06:33:26Z</time>
      </trkpt>
      <trkpt lat="45.9036" lon="4.81623">
        <ele>182</ele>
        <time>2018-06-13T06:33:27Z</time>
      </trkpt>
      <trkpt lat="45.90366" lon="4.81622">
        <ele>182</ele>
        <time>2018-06-13T06:33:28Z</time>
      </trkpt>
      <trkpt lat="45.90371" lon="4.81621">
        <ele>182</ele>
        <time>2018-06-13T06:33:29Z</time>
      </trkpt>
      <trkpt lat="45.90376" lon="4.81619">
        <ele>182</ele>
        <time>2018-06-13T06:33:30Z</time>
      </trkpt>
      <trkpt lat="45.90381" lon="4.81617">
        <ele>182</ele>
        <time>2018-06-13T06:33:31Z</time>
      </trkpt>
      <trkpt lat="45.90386" lon="4.81615">
        <ele>182</ele>
        <time>2018-06-13T06:33:32Z</time>
      </trkpt>
      <trkpt lat="45.90391" lon="4.81614">
        <ele>182</ele>
        <time>2018-06-13T06:33:33Z</time>
      </trkpt>
      <trkpt lat="45.90396" lon="4.81612">
        <ele>182</ele>
        <time>2018-06-13T06:33:34Z</time>
      </trkpt>
      <trkpt lat="45.90403" lon="4.81611">
        <ele>182</ele>
        <time>2018-06-13T06:33:35Z</time>
      </trkpt>
      <trkpt lat="45.90408" lon="4.81611">
        <ele>182</ele>
        <time>2018-06-13T06:33:36Z</time>
      </trkpt>
      <trkpt lat="45.90413" lon="4.8161">
        <ele>182</ele>
        <time>2018-06-13T06:33:37Z</time>
      </trkpt>
      <trkpt lat="45.90419" lon="4.81608">
        <ele>182</ele>
        <time>2018-06-13T06:33:38Z</time>
      </trkpt>
      <trkpt lat="45.90424" lon="4.81608">
        <ele>182</ele>
        <time>2018-06-13T06:33:39Z</time>
      </trkpt>
      <trkpt lat="45.90429" lon="4.81607">
        <ele>182</ele>
        <time>2018-06-13T06:33:40Z</time>
      </trkpt>
      <trkpt lat="45.90434" lon="4.81608">
        <ele>182</ele>
        <time>2018-06-13T06:33:41Z</time>
      </trkpt>
      <trkpt lat="45.90439" lon="4.81609">
        <ele>182</ele>
        <time>2018-06-13T06:33:42Z</time>
      </trkpt>
      <trkpt lat="45.90444" lon="4.81609">
        <ele>182</ele>
        <time>2018-06-13T06:33:43Z</time>
      </trkpt>
      <trkpt lat="45.90449" lon="4.81609">
        <ele>182</ele>
        <time>2018-06-13T06:33:44Z</time>
      </trkpt>
      <trkpt lat="45.90454" lon="4.81608">
        <ele>182</ele>
        <time>2018-06-13T06:33:45Z</time>
      </trkpt>
      <trkpt lat="45.90459" lon="4.81608">
        <ele>182</ele>
        <time>2018-06-13T06:33:46Z</time>
      </trkpt>
      <trkpt lat="45.90464" lon="4.81607">
        <ele>182</ele>
        <time>2018-06-13T06:33:47Z</time>
      </trkpt>
      <trkpt lat="45.90469" lon="4.81606">
        <ele>182</ele>
        <time>2018-06-13T06:33:48Z</time>
      </trkpt>
      <trkpt lat="45.90474" lon="4.81605">
        <ele>182</ele>
        <time>2018-06-13T06:33:49Z</time>
      </trkpt>
      <trkpt lat="45.9048" lon="4.81604">
        <ele>182</ele>
        <time>2018-06-13T06:33:50Z</time>
      </trkpt>
      <trkpt lat="45.90488" lon="4.81604">
        <ele>182</ele>
        <time>2018-06-13T06:33:52Z</time>
      </trkpt>
      <trkpt lat="45.90494" lon="4.81604">
        <ele>182</ele>
        <time>2018-06-13T06:33:53Z</time>
      </trkpt>
      <trkpt lat="45.905" lon="4.81604">
        <ele>182</ele>
        <time>2018-06-13T06:33:54Z</time>
      </trkpt>
      <trkpt lat="45.90505" lon="4.81604">
        <ele>182</ele>
        <time>2018-06-13T06:33:55Z</time>
      </trkpt>
      <trkpt lat="45.90509" lon="4.81604">
        <ele>182</ele>
        <time>2018-06-13T06:33:56Z</time>
      </trkpt>
      <trkpt lat="45.90514" lon="4.81602">
        <ele>182</ele>
        <time>2018-06-13T06:33:57Z</time>
      </trkpt>
      <trkpt lat="45.90522" lon="4.81602">
        <ele>182</ele>
        <time>2018-06-13T06:33:59Z</time>
      </trkpt>
      <trkpt lat="45.90527" lon="4.81602">
        <ele>182</ele>
        <time>2018-06-13T06:34:00Z</time>
      </trkpt>
      <trkpt lat="45.90532" lon="4.81602">
        <ele>182</ele>
        <time>2018-06-13T06:34:01Z</time>
      </trkpt>
      <trkpt lat="45.90536" lon="4.81602">
        <ele>182</ele>
        <time>2018-06-13T06:34:02Z</time>
      </trkpt>
      <trkpt lat="45.90541" lon="4.81601">
        <ele>182</ele>
        <time>2018-06-13T06:34:03Z</time>
      </trkpt>
      <trkpt lat="45.90546" lon="4.81601">
        <ele>182</ele>
        <time>2018-06-13T06:34:04Z</time>
      </trkpt>
      <trkpt lat="45.90551" lon="4.816">
        <ele>182</ele>
        <time>2018-06-13T06:34:05Z</time>
      </trkpt>
      <trkpt lat="45.90556" lon="4.816">
        <ele>182</ele>
        <time>2018-06-13T06:34:06Z</time>
      </trkpt>
      <trkpt lat="45.90561" lon="4.816">
        <ele>182</ele>
        <time>2018-06-13T06:34:07Z</time>
      </trkpt>
      <trkpt lat="45.90566" lon="4.81598">
        <ele>182</ele>
        <time>2018-06-13T06:34:08Z</time>
      </trkpt>
      <trkpt lat="45.90574" lon="4.81597">
        <ele>182</ele>
        <time>2018-06-13T06:34:10Z</time>
      </trkpt>
      <trkpt lat="45.90579" lon="4.81596">
        <ele>182</ele>
        <time>2018-06-13T06:34:11Z</time>
      </trkpt>
      <trkpt lat="45.90584" lon="4.81595">
        <ele>182</ele>
        <time>2018-06-13T06:34:12Z</time>
      </trkpt>
      <trkpt lat="45.90589" lon="4.81595">
        <ele>182</ele>
        <time>2018-06-13T06:34:13Z</time>
      </trkpt>
      <trkpt lat="45.90594" lon="4.81595">
        <ele>182</ele>
        <time>2018-06-13T06:34:14Z</time>
      </trkpt>
      <trkpt lat="45.906" lon="4.81595">
        <ele>182</ele>
        <time>2018-06-13T06:34:15Z</time>
      </trkpt>
      <trkpt lat="45.90605" lon="4.81594">
        <ele>182</ele>
        <time>2018-06-13T06:34:16Z</time>
      </trkpt>
      <trkpt lat="45.90611" lon="4.81594">
        <ele>182</ele>
        <time>2018-06-13T06:34:17Z</time>
      </trkpt>
      <trkpt lat="45.90616" lon="4.81594">
        <ele>182</ele>
        <time>2018-06-13T06:34:18Z</time>
      </trkpt>
      <trkpt lat="45.90622" lon="4.81594">
        <ele>181</ele>
        <time>2018-06-13T06:34:19Z</time>
      </trkpt>
      <trkpt lat="45.90628" lon="4.81593">
        <ele>181</ele>
        <time>2018-06-13T06:34:20Z</time>
      </trkpt>
      <trkpt lat="45.90634" lon="4.81591">
        <ele>181</ele>
        <time>2018-06-13T06:34:21Z</time>
      </trkpt>
      <trkpt lat="45.9064" lon="4.81591">
        <ele>181</ele>
        <time>2018-06-13T06:34:22Z</time>
      </trkpt>
      <trkpt lat="45.90646" lon="4.81591">
        <ele>181</ele>
        <time>2018-06-13T06:34:23Z</time>
      </trkpt>
      <trkpt lat="45.90651" lon="4.81592">
        <ele>180</ele>
        <time>2018-06-13T06:34:24Z</time>
      </trkpt>
      <trkpt lat="45.90658" lon="4.8159">
        <ele>180</ele>
        <time>2018-06-13T06:34:25Z</time>
      </trkpt>
      <trkpt lat="45.90665" lon="4.81589">
        <ele>180</ele>
        <time>2018-06-13T06:34:26Z</time>
      </trkpt>
      <trkpt lat="45.90671" lon="4.81589">
        <ele>179</ele>
        <time>2018-06-13T06:34:27Z</time>
      </trkpt>
      <trkpt lat="45.90677" lon="4.81589">
        <ele>179</ele>
        <time>2018-06-13T06:34:28Z</time>
      </trkpt>
      <trkpt lat="45.90684" lon="4.81588">
        <ele>179</ele>
        <time>2018-06-13T06:34:29Z</time>
      </trkpt>
      <trkpt lat="45.9069" lon="4.81588">
        <ele>178</ele>
        <time>2018-06-13T06:34:30Z</time>
      </trkpt>
      <trkpt lat="45.90697" lon="4.81587">
        <ele>178</ele>
        <time>2018-06-13T06:34:31Z</time>
      </trkpt>
      <trkpt lat="45.90703" lon="4.81588">
        <ele>178</ele>
        <time>2018-06-13T06:34:32Z</time>
      </trkpt>
      <trkpt lat="45.9071" lon="4.81589">
        <ele>178</ele>
        <time>2018-06-13T06:34:33Z</time>
      </trkpt>
      <trkpt lat="45.90717" lon="4.81589">
        <ele>177</ele>
        <time>2018-06-13T06:34:34Z</time>
      </trkpt>
      <trkpt lat="45.90724" lon="4.81589">
        <ele>177</ele>
        <time>2018-06-13T06:34:35Z</time>
      </trkpt>
      <trkpt lat="45.90731" lon="4.81589">
        <ele>176</ele>
        <time>2018-06-13T06:34:36Z</time>
      </trkpt>
      <trkpt lat="45.90739" lon="4.81589">
        <ele>176</ele>
        <time>2018-06-13T06:34:37Z</time>
      </trkpt>
      <trkpt lat="45.90746" lon="4.81588">
        <ele>175</ele>
        <time>2018-06-13T06:34:38Z</time>
      </trkpt>
      <trkpt lat="45.90753" lon="4.81587">
        <ele>174</ele>
        <time>2018-06-13T06:34:39Z</time>
      </trkpt>
      <trkpt lat="45.9076" lon="4.81587">
        <ele>174</ele>
        <time>2018-06-13T06:34:40Z</time>
      </trkpt>
      <trkpt lat="45.90767" lon="4.81587">
        <ele>175</ele>
        <time>2018-06-13T06:34:41Z</time>
      </trkpt>
      <trkpt lat="45.90774" lon="4.81586">
        <ele>175</ele>
        <time>2018-06-13T06:34:42Z</time>
      </trkpt>
      <trkpt lat="45.90781" lon="4.81586">
        <ele>175</ele>
        <time>2018-06-13T06:34:43Z</time>
      </trkpt>
      <trkpt lat="45.90787" lon="4.81587">
        <ele>175</ele>
        <time>2018-06-13T06:34:44Z</time>
      </trkpt>
      <trkpt lat="45.90793" lon="4.81587">
        <ele>175</ele>
        <time>2018-06-13T06:34:45Z</time>
      </trkpt>
      <trkpt lat="45.90799" lon="4.81587">
        <ele>175</ele>
        <time>2018-06-13T06:34:46Z</time>
      </trkpt>
      <trkpt lat="45.90804" lon="4.81587">
        <ele>174</ele>
        <time>2018-06-13T06:34:47Z</time>
      </trkpt>
      <trkpt lat="45.9081" lon="4.81586">
        <ele>174</ele>
        <time>2018-06-13T06:34:48Z</time>
      </trkpt>
      <trkpt lat="45.90817" lon="4.81587">
        <ele>174</ele>
        <time>2018-06-13T06:34:49Z</time>
      </trkpt>
      <trkpt lat="45.90822" lon="4.81586">
        <ele>174</ele>
        <time>2018-06-13T06:34:50Z</time>
      </trkpt>
      <trkpt lat="45.90828" lon="4.81586">
        <ele>173</ele>
        <time>2018-06-13T06:34:51Z</time>
      </trkpt>
      <trkpt lat="45.90833" lon="4.81586">
        <ele>173</ele>
        <time>2018-06-13T06:34:52Z</time>
      </trkpt>
      <trkpt lat="45.90838" lon="4.81585">
        <ele>173</ele>
        <time>2018-06-13T06:34:53Z</time>
      </trkpt>
      <trkpt lat="45.90842" lon="4.81585">
        <ele>173</ele>
        <time>2018-06-13T06:34:54Z</time>
      </trkpt>
      <trkpt lat="45.90847" lon="4.81587">
        <ele>173</ele>
        <time>2018-06-13T06:34:55Z</time>
      </trkpt>
      <trkpt lat="45.90855" lon="4.81587">
        <ele>172</ele>
        <time>2018-06-13T06:34:59Z</time>
      </trkpt>
      <trkpt lat="45.90856" lon="4.81587">
        <ele>172</ele>
        <time>2018-06-13T06:35:00Z</time>
      </trkpt>
      <trkpt lat="45.90864" lon="4.81588">
        <ele>172</ele>
        <time>2018-06-13T06:35:06Z</time>
      </trkpt>
      <trkpt lat="45.90865" lon="4.81588">
        <ele>172</ele>
        <time>2018-06-13T06:35:07Z</time>
      </trkpt>
      <trkpt lat="45.90874" lon="4.81586">
        <ele>172</ele>
        <time>2018-06-13T06:35:16Z</time>
      </trkpt>
      <trkpt lat="45.90881" lon="4.81587">
        <ele>172</ele>
        <time>2018-06-13T06:35:17Z</time>
      </trkpt>
      <trkpt lat="45.90888" lon="4.81587">
        <ele>171</ele>
        <time>2018-06-13T06:35:19Z</time>
      </trkpt>
      <trkpt lat="45.90892" lon="4.81587">
        <ele>171</ele>
        <time>2018-06-13T06:35:20Z</time>
      </trkpt>
      <trkpt lat="45.90897" lon="4.81588">
        <ele>171</ele>
        <time>2018-06-13T06:35:21Z</time>
      </trkpt>
      <trkpt lat="45.90903" lon="4.81587">
        <ele>171</ele>
        <time>2018-06-13T06:35:22Z</time>
      </trkpt>
      <trkpt lat="45.90908" lon="4.81588">
        <ele>171</ele>
        <time>2018-06-13T06:35:23Z</time>
      </trkpt>
      <trkpt lat="45.90912" lon="4.81589">
        <ele>170</ele>
        <time>2018-06-13T06:35:24Z</time>
      </trkpt>
      <trkpt lat="45.90918" lon="4.81588">
        <ele>170</ele>
        <time>2018-06-13T06:35:25Z</time>
      </trkpt>
      <trkpt lat="45.90923" lon="4.81589">
        <ele>170</ele>
        <time>2018-06-13T06:35:26Z</time>
      </trkpt>
      <trkpt lat="45.90928" lon="4.8159">
        <ele>170</ele>
        <time>2018-06-13T06:35:27Z</time>
      </trkpt>
      <trkpt lat="45.90934" lon="4.81591">
        <ele>170</ele>
        <time>2018-06-13T06:35:28Z</time>
      </trkpt>
      <trkpt lat="45.90939" lon="4.81592">
        <ele>170</ele>
        <time>2018-06-13T06:35:29Z</time>
      </trkpt>
      <trkpt lat="45.90944" lon="4.81594">
        <ele>169</ele>
        <time>2018-06-13T06:35:30Z</time>
      </trkpt>
      <trkpt lat="45.9095" lon="4.81595">
        <ele>169</ele>
        <time>2018-06-13T06:35:31Z</time>
      </trkpt>
      <trkpt lat="45.90954" lon="4.81595">
        <ele>169</ele>
        <time>2018-06-13T06:35:32Z</time>
      </trkpt>
      <trkpt lat="45.90959" lon="4.81595">
        <ele>169</ele>
        <time>2018-06-13T06:35:33Z</time>
      </trkpt>
      <trkpt lat="45.90964" lon="4.81596">
        <ele>169</ele>
        <time>2018-06-13T06:35:34Z</time>
      </trkpt>
      <trkpt lat="45.9097" lon="4.81597">
        <ele>169</ele>
        <time>2018-06-13T06:35:35Z</time>
      </trkpt>
      <trkpt lat="45.90975" lon="4.81599">
        <ele>169</ele>
        <time>2018-06-13T06:35:36Z</time>
      </trkpt>
      <trkpt lat="45.90983" lon="4.81599">
        <ele>169</ele>
        <time>2018-06-13T06:35:38Z</time>
      </trkpt>
      <trkpt lat="45.90988" lon="4.81599">
        <ele>169</ele>
        <time>2018-06-13T06:35:39Z</time>
      </trkpt>
      <trkpt lat="45.90992" lon="4.816">
        <ele>169</ele>
        <time>2018-06-13T06:35:40Z</time>
      </trkpt>
      <trkpt lat="45.90997" lon="4.81601">
        <ele>169</ele>
        <time>2018-06-13T06:35:41Z</time>
      </trkpt>
      <trkpt lat="45.91002" lon="4.81602">
        <ele>169</ele>
        <time>2018-06-13T06:35:42Z</time>
      </trkpt>
      <trkpt lat="45.91007" lon="4.81603">
        <ele>169</ele>
        <time>2018-06-13T06:35:43Z</time>
      </trkpt>
      <trkpt lat="45.91011" lon="4.81605">
        <ele>169</ele>
        <time>2018-06-13T06:35:44Z</time>
      </trkpt>
      <trkpt lat="45.91016" lon="4.81606">
        <ele>169</ele>
        <time>2018-06-13T06:35:45Z</time>
      </trkpt>
      <trkpt lat="45.91025" lon="4.81608">
        <ele>169</ele>
        <time>2018-06-13T06:35:47Z</time>
      </trkpt>
      <trkpt lat="45.91029" lon="4.81608">
        <ele>169</ele>
        <time>2018-06-13T06:35:48Z</time>
      </trkpt>
      <trkpt lat="45.91037" lon="4.81608">
        <ele>169</ele>
        <time>2018-06-13T06:35:51Z</time>
      </trkpt>
      <trkpt lat="45.91038" lon="4.81608">
        <ele>169</ele>
        <time>2018-06-13T06:35:52Z</time>
      </trkpt>
      <trkpt lat="45.91042" lon="4.81598">
        <ele>169</ele>
        <time>2018-06-13T06:35:56Z</time>
      </trkpt>
      <trkpt lat="45.9104" lon="4.81587">
        <ele>169</ele>
        <time>2018-06-13T06:35:57Z</time>
      </trkpt>
      <trkpt lat="45.91039" lon="4.81581">
        <ele>169</ele>
        <time>2018-06-13T06:35:58Z</time>
      </trkpt>
      <trkpt lat="45.9104" lon="4.81574">
        <ele>169</ele>
        <time>2018-06-13T06:35:59Z</time>
      </trkpt>
      <trkpt lat="45.91039" lon="4.81568">
        <ele>169</ele>
        <time>2018-06-13T06:36:00Z</time>
      </trkpt>
      <trkpt lat="45.91038" lon="4.81561">
        <ele>169</ele>
        <time>2018-06-13T06:36:01Z</time>
      </trkpt>
      <trkpt lat="45.91038" lon="4.81553">
        <ele>169</ele>
        <time>2018-06-13T06:36:02Z</time>
      </trkpt>
      <trkpt lat="45.91037" lon="4.81545">
        <ele>169</ele>
        <time>2018-06-13T06:36:03Z</time>
      </trkpt>
      <trkpt lat="45.91036" lon="4.81538">
        <ele>169</ele>
        <time>2018-06-13T06:36:04Z</time>
      </trkpt>
      <trkpt lat="45.91035" lon="4.81531">
        <ele>169</ele>
        <time>2018-06-13T06:36:05Z</time>
      </trkpt>
      <trkpt lat="45.91034" lon="4.81524">
        <ele>169</ele>
        <time>2018-06-13T06:36:06Z</time>
      </trkpt>
      <trkpt lat="45.91033" lon="4.81517">
        <ele>169</ele>
        <time>2018-06-13T06:36:07Z</time>
      </trkpt>
      <trkpt lat="45.91033" lon="4.81511">
        <ele>169</ele>
        <time>2018-06-13T06:36:08Z</time>
      </trkpt>
      <trkpt lat="45.91032" lon="4.81504">
        <ele>169</ele>
        <time>2018-06-13T06:36:09Z</time>
      </trkpt>
      <trkpt lat="45.91031" lon="4.81492">
        <ele>169</ele>
        <time>2018-06-13T06:36:11Z</time>
      </trkpt>
      <trkpt lat="45.91031" lon="4.81485">
        <ele>169</ele>
        <time>2018-06-13T06:36:12Z</time>
      </trkpt>
      <trkpt lat="45.9103" lon="4.81478">
        <ele>169</ele>
        <time>2018-06-13T06:36:13Z</time>
      </trkpt>
      <trkpt lat="45.91031" lon="4.8147">
        <ele>169</ele>
        <time>2018-06-13T06:36:14Z</time>
      </trkpt>
      <trkpt lat="45.9103" lon="4.81464">
        <ele>169</ele>
        <time>2018-06-13T06:36:15Z</time>
      </trkpt>
      <trkpt lat="45.91029" lon="4.81456">
        <ele>168</ele>
        <time>2018-06-13T06:36:16Z</time>
      </trkpt>
      <trkpt lat="45.91028" lon="4.81449">
        <ele>168</ele>
        <time>2018-06-13T06:36:17Z</time>
      </trkpt>
      <trkpt lat="45.91027" lon="4.81443">
        <ele>168</ele>
        <time>2018-06-13T06:36:18Z</time>
      </trkpt>
      <trkpt lat="45.91025" lon="4.81431">
        <ele>168</ele>
        <time>2018-06-13T06:36:20Z</time>
      </trkpt>
      <trkpt lat="45.91024" lon="4.81426">
        <ele>168</ele>
        <time>2018-06-13T06:36:21Z</time>
      </trkpt>
      <trkpt lat="45.91023" lon="4.81414">
        <ele>168</ele>
        <time>2018-06-13T06:36:23Z</time>
      </trkpt>
      <trkpt lat="45.91022" lon="4.81409">
        <ele>168</ele>
        <time>2018-06-13T06:36:24Z</time>
      </trkpt>
      <trkpt lat="45.91021" lon="4.81399">
        <ele>168</ele>
        <time>2018-06-13T06:36:26Z</time>
      </trkpt>
      <trkpt lat="45.9102" lon="4.81393">
        <ele>168</ele>
        <time>2018-06-13T06:36:27Z</time>
      </trkpt>
      <trkpt lat="45.91019" lon="4.81382">
        <ele>168</ele>
        <time>2018-06-13T06:36:30Z</time>
      </trkpt>
      <trkpt lat="45.91018" lon="4.81378">
        <ele>168</ele>
        <time>2018-06-13T06:36:31Z</time>
      </trkpt>
      <trkpt lat="45.91018" lon="4.81366">
        <ele>168</ele>
        <time>2018-06-13T06:36:34Z</time>
      </trkpt>
      <trkpt lat="45.91018" lon="4.81352">
        <ele>168</ele>
        <time>2018-06-13T06:36:35Z</time>
      </trkpt>
      <trkpt lat="45.91015" lon="4.81342">
        <ele>168</ele>
        <time>2018-06-13T06:36:37Z</time>
      </trkpt>
      <trkpt lat="45.91012" lon="4.81336">
        <ele>168</ele>
        <time>2018-06-13T06:36:38Z</time>
      </trkpt>
      <trkpt lat="45.9101" lon="4.81326">
        <ele>168</ele>
        <time>2018-06-13T06:36:40Z</time>
      </trkpt>
      <trkpt lat="45.9101" lon="4.8132">
        <ele>168</ele>
        <time>2018-06-13T06:36:41Z</time>
      </trkpt>
      <trkpt lat="45.9101" lon="4.81314">
        <ele>168</ele>
        <time>2018-06-13T06:36:42Z</time>
      </trkpt>
      <trkpt lat="45.91009" lon="4.81307">
        <ele>168</ele>
        <time>2018-06-13T06:36:43Z</time>
      </trkpt>
      <trkpt lat="45.91008" lon="4.81296">
        <ele>168</ele>
        <time>2018-06-13T06:36:45Z</time>
      </trkpt>
      <trkpt lat="45.91007" lon="4.8129">
        <ele>169</ele>
        <time>2018-06-13T06:36:46Z</time>
      </trkpt>
      <trkpt lat="45.91006" lon="4.81282">
        <ele>169</ele>
        <time>2018-06-13T06:36:48Z</time>
      </trkpt>
      <trkpt lat="45.91005" lon="4.81274">
        <ele>169</ele>
        <time>2018-06-13T06:36:49Z</time>
      </trkpt>
      <trkpt lat="45.91004" lon="4.81263">
        <ele>169</ele>
        <time>2018-06-13T06:36:51Z</time>
      </trkpt>
      <trkpt lat="45.91004" lon="4.81258">
        <ele>169</ele>
        <time>2018-06-13T06:36:52Z</time>
      </trkpt>
      <trkpt lat="45.91007" lon="4.81247">
        <ele>169</ele>
        <time>2018-06-13T06:36:54Z</time>
      </trkpt>
      <trkpt lat="45.91009" lon="4.81243">
        <ele>169</ele>
        <time>2018-06-13T06:36:55Z</time>
      </trkpt>
      <trkpt lat="45.91014" lon="4.81237">
        <ele>169</ele>
        <time>2018-06-13T06:36:57Z</time>
      </trkpt>
      <trkpt lat="45.91018" lon="4.81232">
        <ele>169</ele>
        <time>2018-06-13T06:36:58Z</time>
      </trkpt>
      <trkpt lat="45.91024" lon="4.81225">
        <ele>169</ele>
        <time>2018-06-13T06:37:00Z</time>
      </trkpt>
      <trkpt lat="45.91025" lon="4.81223">
        <ele>169</ele>
        <time>2018-06-13T06:37:01Z</time>
      </trkpt>
      <trkpt lat="45.91031" lon="4.81218">
        <ele>169</ele>
        <time>2018-06-13T06:37:04Z</time>
      </trkpt>
      <trkpt lat="45.91033" lon="4.81216">
        <ele>169</ele>
        <time>2018-06-13T06:37:05Z</time>
      </trkpt>
      <trkpt lat="45.91038" lon="4.81209">
        <ele>169</ele>
        <time>2018-06-13T06:37:08Z</time>
      </trkpt>
      <trkpt lat="45.91039" lon="4.81206">
        <ele>169</ele>
        <time>2018-06-13T06:37:09Z</time>
      </trkpt>
      <trkpt lat="45.91043" lon="4.81198">
        <ele>169</ele>
        <time>2018-06-13T06:37:12Z</time>
      </trkpt>
      <trkpt lat="45.91045" lon="4.81195">
        <ele>169</ele>
        <time>2018-06-13T06:37:13Z</time>
      </trkpt>
      <trkpt lat="45.91052" lon="4.81189">
        <ele>169</ele>
        <time>2018-06-13T06:37:16Z</time>
      </trkpt>
      <trkpt lat="45.91055" lon="4.81187">
        <ele>169</ele>
        <time>2018-06-13T06:37:17Z</time>
      </trkpt>
      <trkpt lat="45.91062" lon="4.81185">
        <ele>169</ele>
        <time>2018-06-13T06:37:19Z</time>
      </trkpt>
      <trkpt lat="45.91065" lon="4.81183">
        <ele>169</ele>
        <time>2018-06-13T06:37:20Z</time>
      </trkpt>
      <trkpt lat="45.91068" lon="4.81182">
        <ele>169</ele>
        <time>2018-06-13T06:37:21Z</time>
      </trkpt>
      <trkpt lat="45.91077" lon="4.81177">
        <ele>169</ele>
        <time>2018-06-13T06:37:22Z</time>
      </trkpt>
      <trkpt lat="45.91085" lon="4.81174">
        <ele>169</ele>
        <time>2018-06-13T06:37:24Z</time>
      </trkpt>
      <trkpt lat="45.91089" lon="4.81174">
        <ele>169</ele>
        <time>2018-06-13T06:37:25Z</time>
      </trkpt>
      <trkpt lat="45.91096" lon="4.81173">
        <ele>169</ele>
        <time>2018-06-13T06:37:27Z</time>
      </trkpt>
      <trkpt lat="45.911" lon="4.81173">
        <ele>169</ele>
        <time>2018-06-13T06:37:28Z</time>
      </trkpt>
      <trkpt lat="45.91107" lon="4.81173">
        <ele>169</ele>
        <time>2018-06-13T06:37:31Z</time>
      </trkpt>
      <trkpt lat="45.91114" lon="4.81173">
        <ele>169</ele>
        <time>2018-06-13T06:37:32Z</time>
      </trkpt>
      <trkpt lat="45.91123" lon="4.81173">
        <ele>169</ele>
        <time>2018-06-13T06:37:35Z</time>
      </trkpt>
      <trkpt lat="45.91128" lon="4.81173">
        <ele>169</ele>
        <time>2018-06-13T06:37:36Z</time>
      </trkpt>
      <trkpt lat="45.91135" lon="4.81172">
        <ele>169</ele>
        <time>2018-06-13T06:37:38Z</time>
      </trkpt>
      <trkpt lat="45.91139" lon="4.81171">
        <ele>169</ele>
        <time>2018-06-13T06:37:39Z</time>
      </trkpt>
      <trkpt lat="45.91147" lon="4.81169">
        <ele>169</ele>
        <time>2018-06-13T06:37:41Z</time>
      </trkpt>
      <trkpt lat="45.91152" lon="4.81169">
        <ele>169</ele>
        <time>2018-06-13T06:37:42Z</time>
      </trkpt>
      <trkpt lat="45.9116" lon="4.81168">
        <ele>169</ele>
        <time>2018-06-13T06:37:44Z</time>
      </trkpt>
      <trkpt lat="45.91164" lon="4.81168">
        <ele>169</ele>
        <time>2018-06-13T06:37:45Z</time>
      </trkpt>
      <trkpt lat="45.91172" lon="4.81167">
        <ele>169</ele>
        <time>2018-06-13T06:37:47Z</time>
      </trkpt>
      <trkpt lat="45.91176" lon="4.81167">
        <ele>169</ele>
        <time>2018-06-13T06:37:48Z</time>
      </trkpt>
      <trkpt lat="45.91183" lon="4.81166">
        <ele>168</ele>
        <time>2018-06-13T06:37:51Z</time>
      </trkpt>
      <trkpt lat="45.91186" lon="4.81165">
        <ele>168</ele>
        <time>2018-06-13T06:37:52Z</time>
      </trkpt>
      <trkpt lat="45.91194" lon="4.81164">
        <ele>167</ele>
        <time>2018-06-13T06:37:55Z</time>
      </trkpt>
      <trkpt lat="45.91197" lon="4.81163">
        <ele>167</ele>
        <time>2018-06-13T06:37:56Z</time>
      </trkpt>
      <trkpt lat="45.91204" lon="4.81162">
        <ele>167</ele>
        <time>2018-06-13T06:37:58Z</time>
      </trkpt>
      <trkpt lat="45.91207" lon="4.81161">
        <ele>167</ele>
        <time>2018-06-13T06:37:59Z</time>
      </trkpt>
      <trkpt lat="45.9121" lon="4.8116">
        <ele>167</ele>
        <time>2018-06-13T06:38:00Z</time>
      </trkpt>
      <trkpt lat="45.9122" lon="4.81159">
        <ele>167</ele>
        <time>2018-06-13T06:38:01Z</time>
      </trkpt>
      <trkpt lat="45.91227" lon="4.81158">
        <ele>167</ele>
        <time>2018-06-13T06:38:03Z</time>
      </trkpt>
      <trkpt lat="45.91231" lon="4.81158">
        <ele>167</ele>
        <time>2018-06-13T06:38:04Z</time>
      </trkpt>
      <trkpt lat="45.91238" lon="4.81159">
        <ele>167</ele>
        <time>2018-06-13T06:38:06Z</time>
      </trkpt>
      <trkpt lat="45.91242" lon="4.81159">
        <ele>167</ele>
        <time>2018-06-13T06:38:07Z</time>
      </trkpt>
      <trkpt lat="45.91249" lon="4.8116">
        <ele>167</ele>
        <time>2018-06-13T06:38:09Z</time>
      </trkpt>
      <trkpt lat="45.91253" lon="4.8116">
        <ele>167</ele>
        <time>2018-06-13T06:38:10Z</time>
      </trkpt>
      <trkpt lat="45.91261" lon="4.81161">
        <ele>166</ele>
        <time>2018-06-13T06:38:12Z</time>
      </trkpt>
      <trkpt lat="45.91264" lon="4.81161">
        <ele>166</ele>
        <time>2018-06-13T06:38:13Z</time>
      </trkpt>
      <trkpt lat="45.91272" lon="4.81162">
        <ele>166</ele>
        <time>2018-06-13T06:38:15Z</time>
      </trkpt>
      <trkpt lat="45.91276" lon="4.81163">
        <ele>166</ele>
        <time>2018-06-13T06:38:16Z</time>
      </trkpt>
      <trkpt lat="45.91283" lon="4.81163">
        <ele>166</ele>
        <time>2018-06-13T06:38:19Z</time>
      </trkpt>
      <trkpt lat="45.91286" lon="4.81163">
        <ele>166</ele>
        <time>2018-06-13T06:38:20Z</time>
      </trkpt>
      <trkpt lat="45.91292" lon="4.81164">
        <ele>166</ele>
        <time>2018-06-13T06:38:22Z</time>
      </trkpt>
      <trkpt lat="45.91301" lon="4.81165">
        <ele>166</ele>
        <time>2018-06-13T06:38:23Z</time>
      </trkpt>
      <trkpt lat="45.91308" lon="4.81165">
        <ele>166</ele>
        <time>2018-06-13T06:38:25Z</time>
      </trkpt>
      <trkpt lat="45.91312" lon="4.81165">
        <ele>166</ele>
        <time>2018-06-13T06:38:26Z</time>
      </trkpt>
      <trkpt lat="45.9132" lon="4.81164">
        <ele>166</ele>
        <time>2018-06-13T06:38:28Z</time>
      </trkpt>
      <trkpt lat="45.91324" lon="4.81163">
        <ele>166</ele>
        <time>2018-06-13T06:38:29Z</time>
      </trkpt>
      <trkpt lat="45.91331" lon="4.81162">
        <ele>166</ele>
        <time>2018-06-13T06:38:31Z</time>
      </trkpt>
      <trkpt lat="45.91335" lon="4.81162">
        <ele>166</ele>
        <time>2018-06-13T06:38:32Z</time>
      </trkpt>
      <trkpt lat="45.91343" lon="4.81161">
        <ele>166</ele>
        <time>2018-06-13T06:38:34Z</time>
      </trkpt>
      <trkpt lat="45.91347" lon="4.81161">
        <ele>166</ele>
        <time>2018-06-13T06:38:35Z</time>
      </trkpt>
      <trkpt lat="45.91355" lon="4.81162">
        <ele>166</ele>
        <time>2018-06-13T06:38:37Z</time>
      </trkpt>
      <trkpt lat="45.91359" lon="4.81162">
        <ele>166</ele>
        <time>2018-06-13T06:38:38Z</time>
      </trkpt>
      <trkpt lat="45.91368" lon="4.81162">
        <ele>166</ele>
        <time>2018-06-13T06:38:40Z</time>
      </trkpt>
      <trkpt lat="45.91372" lon="4.81163">
        <ele>166</ele>
        <time>2018-06-13T06:38:41Z</time>
      </trkpt>
      <trkpt lat="45.91379" lon="4.81165">
        <ele>166</ele>
        <time>2018-06-13T06:38:43Z</time>
      </trkpt>
      <trkpt lat="45.91384" lon="4.81167">
        <ele>166</ele>
        <time>2018-06-13T06:38:44Z</time>
      </trkpt>
      <trkpt lat="45.91388" lon="4.81168">
        <ele>167</ele>
        <time>2018-06-13T06:38:45Z</time>
      </trkpt>
      <trkpt lat="45.91392" lon="4.8117">
        <ele>167</ele>
        <time>2018-06-13T06:38:46Z</time>
      </trkpt>
      <trkpt lat="45.914" lon="4.81174">
        <ele>167</ele>
        <time>2018-06-13T06:38:48Z</time>
      </trkpt>
      <trkpt lat="45.91404" lon="4.81176">
        <ele>167</ele>
        <time>2018-06-13T06:38:49Z</time>
      </trkpt>
      <trkpt lat="45.91412" lon="4.8118">
        <ele>167</ele>
        <time>2018-06-13T06:38:53Z</time>
      </trkpt>
      <trkpt lat="45.91414" lon="4.81182">
        <ele>167</ele>
        <time>2018-06-13T06:38:54Z</time>
      </trkpt>
      <trkpt lat="45.91421" lon="4.8119">
        <ele>168</ele>
        <time>2018-06-13T06:39:00Z</time>
      </trkpt>
      <trkpt lat="45.91423" lon="4.81191">
        <ele>168</ele>
        <time>2018-06-13T06:39:01Z</time>
      </trkpt>
      <trkpt lat="45.91431" lon="4.81196">
        <ele>168</ele>
        <time>2018-06-13T06:39:04Z</time>
      </trkpt>
      <trkpt lat="45.91439" lon="4.81202">
        <ele>168</ele>
        <time>2018-06-13T06:39:05Z</time>
      </trkpt>
      <trkpt lat="45.91447" lon="4.81208">
        <ele>169</ele>
        <time>2018-06-13T06:39:08Z</time>
      </trkpt>
      <trkpt lat="45.91449" lon="4.81208">
        <ele>169</ele>
        <time>2018-06-13T06:39:09Z</time>
      </trkpt>
      <trkpt lat="45.91457" lon="4.81211">
        <ele>169</ele>
        <time>2018-06-13T06:39:12Z</time>
      </trkpt>
      <trkpt lat="45.9146" lon="4.81212">
        <ele>169</ele>
        <time>2018-06-13T06:39:13Z</time>
      </trkpt>
      <trkpt lat="45.91467" lon="4.81214">
        <ele>169</ele>
        <time>2018-06-13T06:39:15Z</time>
      </trkpt>
      <trkpt lat="45.9147" lon="4.81215">
        <ele>169</ele>
        <time>2018-06-13T06:39:16Z</time>
      </trkpt>
      <trkpt lat="45.91473" lon="4.81215">
        <ele>169</ele>
        <time>2018-06-13T06:39:17Z</time>
      </trkpt>
      <trkpt lat="45.91482" lon="4.81215">
        <ele>170</ele>
        <time>2018-06-13T06:39:18Z</time>
      </trkpt>
      <trkpt lat="45.9149" lon="4.81216">
        <ele>170</ele>
        <time>2018-06-13T06:39:20Z</time>
      </trkpt>
      <trkpt lat="45.91493" lon="4.81216">
        <ele>170</ele>
        <time>2018-06-13T06:39:21Z</time>
      </trkpt>
      <trkpt lat="45.915" lon="4.81215">
        <ele>170</ele>
        <time>2018-06-13T06:39:24Z</time>
      </trkpt>
      <trkpt lat="45.91503" lon="4.81215">
        <ele>171</ele>
        <time>2018-06-13T06:39:25Z</time>
      </trkpt>
      <trkpt lat="45.91511" lon="4.81215">
        <ele>170</ele>
        <time>2018-06-13T06:39:26Z</time>
      </trkpt>
      <trkpt lat="45.91513" lon="4.81215">
        <ele>170</ele>
        <time>2018-06-13T06:39:27Z</time>
      </trkpt>
      <trkpt lat="45.91521" lon="4.81215">
        <ele>170</ele>
        <time>2018-06-13T06:39:30Z</time>
      </trkpt>
      <trkpt lat="45.91524" lon="4.81215">
        <ele>170</ele>
        <time>2018-06-13T06:39:31Z</time>
      </trkpt>
      <trkpt lat="45.91531" lon="4.81215">
        <ele>170</ele>
        <time>2018-06-13T06:39:33Z</time>
      </trkpt>
      <trkpt lat="45.9154" lon="4.81215">
        <ele>170</ele>
        <time>2018-06-13T06:39:34Z</time>
      </trkpt>
      <trkpt lat="45.91548" lon="4.81215">
        <ele>170</ele>
        <time>2018-06-13T06:39:36Z</time>
      </trkpt>
      <trkpt lat="45.91552" lon="4.81215">
        <ele>170</ele>
        <time>2018-06-13T06:39:37Z</time>
      </trkpt>
      <trkpt lat="45.9156" lon="4.81215">
        <ele>170</ele>
        <time>2018-06-13T06:39:39Z</time>
      </trkpt>
      <trkpt lat="45.91564" lon="4.81215">
        <ele>170</ele>
        <time>2018-06-13T06:39:40Z</time>
      </trkpt>
      <trkpt lat="45.9157" lon="4.81214">
        <ele>170</ele>
        <time>2018-06-13T06:39:42Z</time>
      </trkpt>
      <trkpt lat="45.91576" lon="4.81214">
        <ele>170</ele>
        <time>2018-06-13T06:39:43Z</time>
      </trkpt>
      <trkpt lat="45.91584" lon="4.81214">
        <ele>171</ele>
        <time>2018-06-13T06:39:45Z</time>
      </trkpt>
      <trkpt lat="45.91589" lon="4.81213">
        <ele>171</ele>
        <time>2018-06-13T06:39:46Z</time>
      </trkpt>
      <trkpt lat="45.91593" lon="4.81213">
        <ele>171</ele>
        <time>2018-06-13T06:39:47Z</time>
      </trkpt>
      <trkpt lat="45.91599" lon="4.81214">
        <ele>171</ele>
        <time>2018-06-13T06:39:48Z</time>
      </trkpt>
      <trkpt lat="45.91604" lon="4.81213">
        <ele>171</ele>
        <time>2018-06-13T06:39:49Z</time>
      </trkpt>
      <trkpt lat="45.91609" lon="4.81213">
        <ele>171</ele>
        <time>2018-06-13T06:39:50Z</time>
      </trkpt>
      <trkpt lat="45.91617" lon="4.81212">
        <ele>171</ele>
        <time>2018-06-13T06:39:52Z</time>
      </trkpt>
      <trkpt lat="45.91622" lon="4.81211">
        <ele>171</ele>
        <time>2018-06-13T06:39:53Z</time>
      </trkpt>
      <trkpt lat="45.91627" lon="4.81212">
        <ele>171</ele>
        <time>2018-06-13T06:39:55Z</time>
      </trkpt>
      <trkpt lat="45.91631" lon="4.81212">
        <ele>171</ele>
        <time>2018-06-13T06:39:56Z</time>
      </trkpt>
      <trkpt lat="45.91638" lon="4.81212">
        <ele>171</ele>
        <time>2018-06-13T06:39:58Z</time>
      </trkpt>
      <trkpt lat="45.91641" lon="4.81212">
        <ele>171</ele>
        <time>2018-06-13T06:39:59Z</time>
      </trkpt>
      <trkpt lat="45.91647" lon="4.81212">
        <ele>172</ele>
        <time>2018-06-13T06:40:01Z</time>
      </trkpt>
      <trkpt lat="45.91651" lon="4.81212">
        <ele>172</ele>
        <time>2018-06-13T06:40:02Z</time>
      </trkpt>
      <trkpt lat="45.9166" lon="4.81212">
        <ele>172</ele>
        <time>2018-06-13T06:40:04Z</time>
      </trkpt>
      <trkpt lat="45.91664" lon="4.81211">
        <ele>172</ele>
        <time>2018-06-13T06:40:05Z</time>
      </trkpt>
      <trkpt lat="45.9167" lon="4.8121">
        <ele>171</ele>
        <time>2018-06-13T06:40:08Z</time>
      </trkpt>
      <trkpt lat="45.91673" lon="4.81209">
        <ele>171</ele>
        <time>2018-06-13T06:40:09Z</time>
      </trkpt>
      <trkpt lat="45.91675" lon="4.81208">
        <ele>171</ele>
        <time>2018-06-13T06:40:10Z</time>
      </trkpt>
      <trkpt lat="45.91683" lon="4.81206">
        <ele>171</ele>
        <time>2018-06-13T06:40:11Z</time>
      </trkpt>
      <trkpt lat="45.91692" lon="4.81206">
        <ele>171</ele>
        <time>2018-06-13T06:40:15Z</time>
      </trkpt>
      <trkpt lat="45.91694" lon="4.81206">
        <ele>170</ele>
        <time>2018-06-13T06:40:16Z</time>
      </trkpt>
      <trkpt lat="45.91703" lon="4.81203">
        <ele>170</ele>
        <time>2018-06-13T06:40:19Z</time>
      </trkpt>
      <trkpt lat="45.91706" lon="4.81202">
        <ele>170</ele>
        <time>2018-06-13T06:40:20Z</time>
      </trkpt>
      <trkpt lat="45.91713" lon="4.81201">
        <ele>170</ele>
        <time>2018-06-13T06:40:22Z</time>
      </trkpt>
      <trkpt lat="45.91717" lon="4.812">
        <ele>170</ele>
        <time>2018-06-13T06:40:23Z</time>
      </trkpt>
      <trkpt lat="45.91726" lon="4.812">
        <ele>169</ele>
        <time>2018-06-13T06:40:24Z</time>
      </trkpt>
      <trkpt lat="45.91734" lon="4.81199">
        <ele>169</ele>
        <time>2018-06-13T06:40:26Z</time>
      </trkpt>
      <trkpt lat="45.91739" lon="4.81198">
        <ele>169</ele>
        <time>2018-06-13T06:40:27Z</time>
      </trkpt>
      <trkpt lat="45.91747" lon="4.81197">
        <ele>169</ele>
        <time>2018-06-13T06:40:29Z</time>
      </trkpt>
      <trkpt lat="45.91751" lon="4.81196">
        <ele>167</ele>
        <time>2018-06-13T06:40:30Z</time>
      </trkpt>
      <trkpt lat="45.91759" lon="4.81194">
        <ele>167</ele>
        <time>2018-06-13T06:40:34Z</time>
      </trkpt>
      <trkpt lat="45.91767" lon="4.81194">
        <ele>167</ele>
        <time>2018-06-13T06:40:35Z</time>
      </trkpt>
      <trkpt lat="45.91775" lon="4.81191">
        <ele>167</ele>
        <time>2018-06-13T06:40:37Z</time>
      </trkpt>
      <trkpt lat="45.91779" lon="4.8119">
        <ele>167</ele>
        <time>2018-06-13T06:40:38Z</time>
      </trkpt>
      <trkpt lat="45.91788" lon="4.81188">
        <ele>167</ele>
        <time>2018-06-13T06:40:40Z</time>
      </trkpt>
      <trkpt lat="45.91792" lon="4.81187">
        <ele>167</ele>
        <time>2018-06-13T06:40:41Z</time>
      </trkpt>
      <trkpt lat="45.91797" lon="4.81186">
        <ele>167</ele>
        <time>2018-06-13T06:40:42Z</time>
      </trkpt>
      <trkpt lat="45.91802" lon="4.81185">
        <ele>167</ele>
        <time>2018-06-13T06:40:43Z</time>
      </trkpt>
      <trkpt lat="45.91809" lon="4.81184">
        <ele>168</ele>
        <time>2018-06-13T06:40:46Z</time>
      </trkpt>
      <trkpt lat="45.91817" lon="4.81183">
        <ele>168</ele>
        <time>2018-06-13T06:40:47Z</time>
      </trkpt>
      <trkpt lat="45.91823" lon="4.81182">
        <ele>168</ele>
        <time>2018-06-13T06:40:49Z</time>
      </trkpt>
      <trkpt lat="45.91828" lon="4.81181">
        <ele>168</ele>
        <time>2018-06-13T06:40:50Z</time>
      </trkpt>
      <trkpt lat="45.91837" lon="4.81179">
        <ele>168</ele>
        <time>2018-06-13T06:40:52Z</time>
      </trkpt>
      <trkpt lat="45.91839" lon="4.81179">
        <ele>168</ele>
        <time>2018-06-13T06:40:53Z</time>
      </trkpt>
      <trkpt lat="45.91845" lon="4.81178">
        <ele>168</ele>
        <time>2018-06-13T06:40:54Z</time>
      </trkpt>
      <trkpt lat="45.91849" lon="4.81177">
        <ele>168</ele>
        <time>2018-06-13T06:40:55Z</time>
      </trkpt>
      <trkpt lat="45.91856" lon="4.81176">
        <ele>168</ele>
        <time>2018-06-13T06:40:57Z</time>
      </trkpt>
      <trkpt lat="45.91861" lon="4.81175">
        <ele>168</ele>
        <time>2018-06-13T06:40:58Z</time>
      </trkpt>
      <trkpt lat="45.91869" lon="4.81173">
        <ele>168</ele>
        <time>2018-06-13T06:41:00Z</time>
      </trkpt>
      <trkpt lat="45.91873" lon="4.81172">
        <ele>168</ele>
        <time>2018-06-13T06:41:01Z</time>
      </trkpt>
      <trkpt lat="45.91881" lon="4.8117">
        <ele>167</ele>
        <time>2018-06-13T06:41:04Z</time>
      </trkpt>
      <trkpt lat="45.91883" lon="4.81169">
        <ele>167</ele>
        <time>2018-06-13T06:41:05Z</time>
      </trkpt>
      <trkpt lat="45.91891" lon="4.81166">
        <ele>167</ele>
        <time>2018-06-13T06:41:08Z</time>
      </trkpt>
      <trkpt lat="45.91893" lon="4.81165">
        <ele>167</ele>
        <time>2018-06-13T06:41:09Z</time>
      </trkpt>
      <trkpt lat="45.91901" lon="4.81164">
        <ele>167</ele>
        <time>2018-06-13T06:41:14Z</time>
      </trkpt>
      <trkpt lat="45.91903" lon="4.81164">
        <ele>167</ele>
        <time>2018-06-13T06:41:15Z</time>
      </trkpt>
      <trkpt lat="45.91907" lon="4.81164">
        <ele>167</ele>
        <time>2018-06-13T06:41:18Z</time>
      </trkpt>
      <trkpt lat="45.91914" lon="4.81162">
        <ele>167</ele>
        <time>2018-06-13T06:41:19Z</time>
      </trkpt>
      <trkpt lat="45.91922" lon="4.81159">
        <ele>167</ele>
        <time>2018-06-13T06:41:21Z</time>
      </trkpt>
      <trkpt lat="45.91924" lon="4.81158">
        <ele>167</ele>
        <time>2018-06-13T06:41:22Z</time>
      </trkpt>
      <trkpt lat="45.91931" lon="4.81157">
        <ele>167</ele>
        <time>2018-06-13T06:41:25Z</time>
      </trkpt>
      <trkpt lat="45.91934" lon="4.81156">
        <ele>167</ele>
        <time>2018-06-13T06:41:26Z</time>
      </trkpt>
      <trkpt lat="45.91941" lon="4.81154">
        <ele>167</ele>
        <time>2018-06-13T06:41:28Z</time>
      </trkpt>
      <trkpt lat="45.91944" lon="4.81152">
        <ele>168</ele>
        <time>2018-06-13T06:41:29Z</time>
      </trkpt>
      <trkpt lat="45.9195" lon="4.81149">
        <ele>168</ele>
        <time>2018-06-13T06:41:31Z</time>
      </trkpt>
      <trkpt lat="45.9196" lon="4.81143">
        <ele>168</ele>
        <time>2018-06-13T06:41:32Z</time>
      </trkpt>
      <trkpt lat="45.91964" lon="4.8114">
        <ele>168</ele>
        <time>2018-06-13T06:41:33Z</time>
      </trkpt>
      <trkpt lat="45.91969" lon="4.81137">
        <ele>168</ele>
        <time>2018-06-13T06:41:34Z</time>
      </trkpt>
      <trkpt lat="45.91977" lon="4.81132">
        <ele>168</ele>
        <time>2018-06-13T06:41:36Z</time>
      </trkpt>
      <trkpt lat="45.91981" lon="4.81129">
        <ele>168</ele>
        <time>2018-06-13T06:41:37Z</time>
      </trkpt>
      <trkpt lat="45.91988" lon="4.81124">
        <ele>168</ele>
        <time>2018-06-13T06:41:40Z</time>
      </trkpt>
      <trkpt lat="45.9199" lon="4.81122">
        <ele>168</ele>
        <time>2018-06-13T06:41:41Z</time>
      </trkpt>
      <trkpt lat="45.91999" lon="4.81116">
        <ele>169</ele>
        <time>2018-06-13T06:41:42Z</time>
      </trkpt>
      <trkpt lat="45.92004" lon="4.81113">
        <ele>169</ele>
        <time>2018-06-13T06:41:43Z</time>
      </trkpt>
      <trkpt lat="45.92009" lon="4.81111">
        <ele>169</ele>
        <time>2018-06-13T06:41:44Z</time>
      </trkpt>
      <trkpt lat="45.92016" lon="4.81108">
        <ele>169</ele>
        <time>2018-06-13T06:41:46Z</time>
      </trkpt>
      <trkpt lat="45.92018" lon="4.81106">
        <ele>169</ele>
        <time>2018-06-13T06:41:47Z</time>
      </trkpt>
      <trkpt lat="45.92022" lon="4.81101">
        <ele>169</ele>
        <time>2018-06-13T06:41:57Z</time>
      </trkpt>
      <trkpt lat="45.92022" lon="4.811">
        <ele>169</ele>
        <time>2018-06-13T06:41:58Z</time>
      </trkpt>
      <trkpt lat="45.92019" lon="4.81101">
        <ele>169</ele>
        <time>2018-06-13T06:42:10Z</time>
      </trkpt>
      <trkpt lat="45.92019" lon="4.81101">
        <ele>169</ele>
        <time>2018-06-13T06:42:11Z</time>
      </trkpt>
      <trkpt lat="45.92025" lon="4.81095">
        <ele>169</ele>
        <time>2018-06-13T06:42:17Z</time>
      </trkpt>
      <trkpt lat="45.92027" lon="4.81092">
        <ele>169</ele>
        <time>2018-06-13T06:42:18Z</time>
      </trkpt>
      <trkpt lat="45.92032" lon="4.81087">
        <ele>169</ele>
        <time>2018-06-13T06:42:20Z</time>
      </trkpt>
      <trkpt lat="45.92035" lon="4.81084">
        <ele>169</ele>
        <time>2018-06-13T06:42:21Z</time>
      </trkpt>
      <trkpt lat="45.9204" lon="4.81078">
        <ele>168</ele>
        <time>2018-06-13T06:42:23Z</time>
      </trkpt>
      <trkpt lat="45.92043" lon="4.81076">
        <ele>168</ele>
        <time>2018-06-13T06:42:24Z</time>
      </trkpt>
      <trkpt lat="45.92045" lon="4.81074">
        <ele>168</ele>
        <time>2018-06-13T06:42:25Z</time>
      </trkpt>
      <trkpt lat="45.92053" lon="4.81066">
        <ele>167</ele>
        <time>2018-06-13T06:42:26Z</time>
      </trkpt>
      <trkpt lat="45.92059" lon="4.8106">
        <ele>167</ele>
        <time>2018-06-13T06:42:28Z</time>
      </trkpt>
      <trkpt lat="45.92062" lon="4.81057">
        <ele>167</ele>
        <time>2018-06-13T06:42:29Z</time>
      </trkpt>
      <trkpt lat="45.92069" lon="4.81051">
        <ele>167</ele>
        <time>2018-06-13T06:42:31Z</time>
      </trkpt>
      <trkpt lat="45.92072" lon="4.81049">
        <ele>167</ele>
        <time>2018-06-13T06:42:32Z</time>
      </trkpt>
      <trkpt lat="45.92079" lon="4.81045">
        <ele>167</ele>
        <time>2018-06-13T06:42:35Z</time>
      </trkpt>
      <trkpt lat="45.92086" lon="4.8104">
        <ele>168</ele>
        <time>2018-06-13T06:42:36Z</time>
      </trkpt>
      <trkpt lat="45.92094" lon="4.81034">
        <ele>168</ele>
        <time>2018-06-13T06:42:38Z</time>
      </trkpt>
      <trkpt lat="45.92095" lon="4.81033">
        <ele>168</ele>
        <time>2018-06-13T06:42:39Z</time>
      </trkpt>
      <trkpt lat="45.92102" lon="4.8103">
        <ele>168</ele>
        <time>2018-06-13T06:42:40Z</time>
      </trkpt>
      <trkpt lat="45.92106" lon="4.81027">
        <ele>168</ele>
        <time>2018-06-13T06:42:41Z</time>
      </trkpt>
      <trkpt lat="45.92108" lon="4.81025">
        <ele>168</ele>
        <time>2018-06-13T06:42:42Z</time>
      </trkpt>
      <trkpt lat="45.92115" lon="4.8102">
        <ele>168</ele>
        <time>2018-06-13T06:42:43Z</time>
      </trkpt>
      <trkpt lat="45.92122" lon="4.81012">
        <ele>169</ele>
        <time>2018-06-13T06:42:44Z</time>
      </trkpt>
      <trkpt lat="45.92126" lon="4.81005">
        <ele>169</ele>
        <time>2018-06-13T06:42:45Z</time>
      </trkpt>
      <trkpt lat="45.92129" lon="4.81002">
        <ele>169</ele>
        <time>2018-06-13T06:42:46Z</time>
      </trkpt>
      <trkpt lat="45.92134" lon="4.80992">
        <ele>169</ele>
        <time>2018-06-13T06:42:48Z</time>
      </trkpt>
      <trkpt lat="45.92138" lon="4.80986">
        <ele>170</ele>
        <time>2018-06-13T06:42:49Z</time>
      </trkpt>
      <trkpt lat="45.92141" lon="4.80982">
        <ele>170</ele>
        <time>2018-06-13T06:42:50Z</time>
      </trkpt>
      <trkpt lat="45.92148" lon="4.80979">
        <ele>170</ele>
        <time>2018-06-13T06:42:51Z</time>
      </trkpt>
      <trkpt lat="45.92152" lon="4.80976">
        <ele>170</ele>
        <time>2018-06-13T06:42:52Z</time>
      </trkpt>
      <trkpt lat="45.92157" lon="4.80972">
        <ele>170</ele>
        <time>2018-06-13T06:42:53Z</time>
      </trkpt>
      <trkpt lat="45.92162" lon="4.80965">
        <ele>170</ele>
        <time>2018-06-13T06:42:55Z</time>
      </trkpt>
      <trkpt lat="45.92166" lon="4.80961">
        <ele>170</ele>
        <time>2018-06-13T06:42:56Z</time>
      </trkpt>
      <trkpt lat="45.9217" lon="4.80955">
        <ele>172</ele>
        <time>2018-06-13T06:42:57Z</time>
      </trkpt>
      <trkpt lat="45.92174" lon="4.80949">
        <ele>172</ele>
        <time>2018-06-13T06:42:58Z</time>
      </trkpt>
      <trkpt lat="45.92177" lon="4.80942">
        <ele>172</ele>
        <time>2018-06-13T06:42:59Z</time>
      </trkpt>
      <trkpt lat="45.9218" lon="4.80936">
        <ele>172</ele>
        <time>2018-06-13T06:43:00Z</time>
      </trkpt>
      <trkpt lat="45.92184" lon="4.80926">
        <ele>172</ele>
        <time>2018-06-13T06:43:02Z</time>
      </trkpt>
      <trkpt lat="45.92187" lon="4.80919">
        <ele>172</ele>
        <time>2018-06-13T06:43:03Z</time>
      </trkpt>
      <trkpt lat="45.92192" lon="4.80908">
        <ele>170</ele>
        <time>2018-06-13T06:43:05Z</time>
      </trkpt>
      <trkpt lat="45.92195" lon="4.80904">
        <ele>170</ele>
        <time>2018-06-13T06:43:06Z</time>
      </trkpt>
      <trkpt lat="45.92201" lon="4.809">
        <ele>170</ele>
        <time>2018-06-13T06:43:08Z</time>
      </trkpt>
      <trkpt lat="45.92204" lon="4.80895">
        <ele>170</ele>
        <time>2018-06-13T06:43:09Z</time>
      </trkpt>
      <trkpt lat="45.9221" lon="4.80887">
        <ele>170</ele>
        <time>2018-06-13T06:43:11Z</time>
      </trkpt>
      <trkpt lat="45.92213" lon="4.80883">
        <ele>170</ele>
        <time>2018-06-13T06:43:12Z</time>
      </trkpt>
      <trkpt lat="45.92218" lon="4.80875">
        <ele>170</ele>
        <time>2018-06-13T06:43:14Z</time>
      </trkpt>
      <trkpt lat="45.92219" lon="4.80873">
        <ele>170</ele>
        <time>2018-06-13T06:43:15Z</time>
      </trkpt>
      <trkpt lat="45.92225" lon="4.80863">
        <ele>169</ele>
        <time>2018-06-13T06:43:19Z</time>
      </trkpt>
      <trkpt lat="45.9223" lon="4.80853">
        <ele>169</ele>
        <time>2018-06-13T06:43:20Z</time>
      </trkpt>
      <trkpt lat="45.92234" lon="4.80844">
        <ele>169</ele>
        <time>2018-06-13T06:43:22Z</time>
      </trkpt>
      <trkpt lat="45.92237" lon="4.80839">
        <ele>169</ele>
        <time>2018-06-13T06:43:23Z</time>
      </trkpt>
      <trkpt lat="45.92242" lon="4.80832">
        <ele>169</ele>
        <time>2018-06-13T06:43:26Z</time>
      </trkpt>
      <trkpt lat="45.92247" lon="4.80824">
        <ele>169</ele>
        <time>2018-06-13T06:43:27Z</time>
      </trkpt>
      <trkpt lat="45.92252" lon="4.80815">
        <ele>169</ele>
        <time>2018-06-13T06:43:29Z</time>
      </trkpt>
      <trkpt lat="45.92255" lon="4.8081">
        <ele>169</ele>
        <time>2018-06-13T06:43:30Z</time>
      </trkpt>
      <trkpt lat="45.92258" lon="4.80805">
        <ele>169</ele>
        <time>2018-06-13T06:43:32Z</time>
      </trkpt>
      <trkpt lat="45.92262" lon="4.80796">
        <ele>170</ele>
        <time>2018-06-13T06:43:33Z</time>
      </trkpt>
      <trkpt lat="45.92265" lon="4.80787">
        <ele>170</ele>
        <time>2018-06-13T06:43:36Z</time>
      </trkpt>
      <trkpt lat="45.92268" lon="4.80777">
        <ele>170</ele>
        <time>2018-06-13T06:43:37Z</time>
      </trkpt>
      <trkpt lat="45.9227" lon="4.80772">
        <ele>170</ele>
        <time>2018-06-13T06:43:39Z</time>
      </trkpt>
      <trkpt lat="45.92272" lon="4.80764">
        <ele>170</ele>
        <time>2018-06-13T06:43:40Z</time>
      </trkpt>
      <trkpt lat="45.92275" lon="4.80755">
        <ele>170</ele>
        <time>2018-06-13T06:43:43Z</time>
      </trkpt>
      <trkpt lat="45.92276" lon="4.80751">
        <ele>170</ele>
        <time>2018-06-13T06:43:44Z</time>
      </trkpt>
      <trkpt lat="45.9228" lon="4.80739">
        <ele>170</ele>
        <time>2018-06-13T06:43:47Z</time>
      </trkpt>
      <trkpt lat="45.92281" lon="4.80735">
        <ele>170</ele>
        <time>2018-06-13T06:43:48Z</time>
      </trkpt>
      <trkpt lat="45.92285" lon="4.80721">
        <ele>170</ele>
        <time>2018-06-13T06:43:49Z</time>
      </trkpt>
      <trkpt lat="45.92286" lon="4.80709">
        <ele>169</ele>
        <time>2018-06-13T06:43:52Z</time>
      </trkpt>
      <trkpt lat="45.92287" lon="4.80706">
        <ele>169</ele>
        <time>2018-06-13T06:43:53Z</time>
      </trkpt>
      <trkpt lat="45.92289" lon="4.80699">
        <ele>169</ele>
        <time>2018-06-13T06:43:55Z</time>
      </trkpt>
      <trkpt lat="45.92293" lon="4.80688">
        <ele>169</ele>
        <time>2018-06-13T06:43:56Z</time>
      </trkpt>
      <trkpt lat="45.92294" lon="4.80678">
        <ele>169</ele>
        <time>2018-06-13T06:43:59Z</time>
      </trkpt>
      <trkpt lat="45.92295" lon="4.80668">
        <ele>169</ele>
        <time>2018-06-13T06:44:00Z</time>
      </trkpt>
      <trkpt lat="45.92297" lon="4.80659">
        <ele>169</ele>
        <time>2018-06-13T06:44:02Z</time>
      </trkpt>
      <trkpt lat="45.923" lon="4.80648">
        <ele>169</ele>
        <time>2018-06-13T06:44:03Z</time>
      </trkpt>
      <trkpt lat="45.92301" lon="4.80636">
        <ele>169</ele>
        <time>2018-06-13T06:44:06Z</time>
      </trkpt>
      <trkpt lat="45.92302" lon="4.80633">
        <ele>169</ele>
        <time>2018-06-13T06:44:07Z</time>
      </trkpt>
      <trkpt lat="45.92304" lon="4.80622">
        <ele>169</ele>
        <time>2018-06-13T06:44:10Z</time>
      </trkpt>
      <trkpt lat="45.92305" lon="4.80618">
        <ele>169</ele>
        <time>2018-06-13T06:44:11Z</time>
      </trkpt>
      <trkpt lat="45.92306" lon="4.80609">
        <ele>168</ele>
        <time>2018-06-13T06:44:13Z</time>
      </trkpt>
      <trkpt lat="45.92309" lon="4.80594">
        <ele>168</ele>
        <time>2018-06-13T06:44:14Z</time>
      </trkpt>
      <trkpt lat="45.9231" lon="4.80582">
        <ele>168</ele>
        <time>2018-06-13T06:44:16Z</time>
      </trkpt>
      <trkpt lat="45.9231" lon="4.80576">
        <ele>168</ele>
        <time>2018-06-13T06:44:17Z</time>
      </trkpt>
      <trkpt lat="45.92311" lon="4.80564">
        <ele>168</ele>
        <time>2018-06-13T06:44:19Z</time>
      </trkpt>
      <trkpt lat="45.92312" lon="4.80558">
        <ele>168</ele>
        <time>2018-06-13T06:44:20Z</time>
      </trkpt>
      <trkpt lat="45.92314" lon="4.80551">
        <ele>168</ele>
        <time>2018-06-13T06:44:21Z</time>
      </trkpt>
      <trkpt lat="45.92315" lon="4.80545">
        <ele>168</ele>
        <time>2018-06-13T06:44:22Z</time>
      </trkpt>
      <trkpt lat="45.92317" lon="4.80534">
        <ele>169</ele>
        <time>2018-06-13T06:44:25Z</time>
      </trkpt>
      <trkpt lat="45.92317" lon="4.8053">
        <ele>169</ele>
        <time>2018-06-13T06:44:26Z</time>
      </trkpt>
      <trkpt lat="45.92318" lon="4.80522">
        <ele>169</ele>
        <time>2018-06-13T06:44:28Z</time>
      </trkpt>
      <trkpt lat="45.92319" lon="4.8051">
        <ele>169</ele>
        <time>2018-06-13T06:44:29Z</time>
      </trkpt>
      <trkpt lat="45.92322" lon="4.80498">
        <ele>170</ele>
        <time>2018-06-13T06:44:31Z</time>
      </trkpt>
      <trkpt lat="45.92323" lon="4.80493">
        <ele>170</ele>
        <time>2018-06-13T06:44:32Z</time>
      </trkpt>
      <trkpt lat="45.92326" lon="4.80482">
        <ele>169</ele>
        <time>2018-06-13T06:44:35Z</time>
      </trkpt>
      <trkpt lat="45.92327" lon="4.80479">
        <ele>169</ele>
        <time>2018-06-13T06:44:36Z</time>
      </trkpt>
      <trkpt lat="45.92329" lon="4.80469">
        <ele>169</ele>
        <time>2018-06-13T06:44:37Z</time>
      </trkpt>
      <trkpt lat="45.9233" lon="4.80463">
        <ele>169</ele>
        <time>2018-06-13T06:44:38Z</time>
      </trkpt>
      <trkpt lat="45.9233" lon="4.80457">
        <ele>169</ele>
        <time>2018-06-13T06:44:40Z</time>
      </trkpt>
      <trkpt lat="45.92331" lon="4.80447">
        <ele>169</ele>
        <time>2018-06-13T06:44:41Z</time>
      </trkpt>
      <trkpt lat="45.92333" lon="4.80439">
        <ele>169</ele>
        <time>2018-06-13T06:44:43Z</time>
      </trkpt>
      <trkpt lat="45.92335" lon="4.80431">
        <ele>169</ele>
        <time>2018-06-13T06:44:44Z</time>
      </trkpt>
      <trkpt lat="45.92337" lon="4.8042">
        <ele>169</ele>
        <time>2018-06-13T06:44:46Z</time>
      </trkpt>
      <trkpt lat="45.92337" lon="4.80418">
        <ele>169</ele>
        <time>2018-06-13T06:44:47Z</time>
      </trkpt>
      <trkpt lat="45.92338" lon="4.80409">
        <ele>170</ele>
        <time>2018-06-13T06:44:48Z</time>
      </trkpt>
      <trkpt lat="45.92339" lon="4.80401">
        <ele>170</ele>
        <time>2018-06-13T06:44:49Z</time>
      </trkpt>
      <trkpt lat="45.9234" lon="4.80389">
        <ele>171</ele>
        <time>2018-06-13T06:44:51Z</time>
      </trkpt>
      <trkpt lat="45.92341" lon="4.80387">
        <ele>171</ele>
        <time>2018-06-13T06:44:52Z</time>
      </trkpt>
      <trkpt lat="45.92344" lon="4.80376">
        <ele>171</ele>
        <time>2018-06-13T06:44:55Z</time>
      </trkpt>
      <trkpt lat="45.92344" lon="4.80372">
        <ele>171</ele>
        <time>2018-06-13T06:44:56Z</time>
      </trkpt>
      <trkpt lat="45.92346" lon="4.80363">
        <ele>171</ele>
        <time>2018-06-13T06:44:58Z</time>
      </trkpt>
      <trkpt lat="45.92347" lon="4.80359">
        <ele>171</ele>
        <time>2018-06-13T06:44:59Z</time>
      </trkpt>
      <trkpt lat="45.92349" lon="4.80347">
        <ele>172</ele>
        <time>2018-06-13T06:45:02Z</time>
      </trkpt>
      <trkpt lat="45.9235" lon="4.80343">
        <ele>172</ele>
        <time>2018-06-13T06:45:03Z</time>
      </trkpt>
      <trkpt lat="45.92352" lon="4.80331">
        <ele>172</ele>
        <time>2018-06-13T06:45:04Z</time>
      </trkpt>
      <trkpt lat="45.92354" lon="4.80325">
        <ele>172</ele>
        <time>2018-06-13T06:45:05Z</time>
      </trkpt>
      <trkpt lat="45.92356" lon="4.80316">
        <ele>172</ele>
        <time>2018-06-13T06:45:07Z</time>
      </trkpt>
      <trkpt lat="45.92357" lon="4.80313">
        <ele>172</ele>
        <time>2018-06-13T06:45:08Z</time>
      </trkpt>
      <trkpt lat="45.92358" lon="4.80303">
        <ele>172</ele>
        <time>2018-06-13T06:45:09Z</time>
      </trkpt>
      <trkpt lat="45.92359" lon="4.80296">
        <ele>172</ele>
        <time>2018-06-13T06:45:10Z</time>
      </trkpt>
      <trkpt lat="45.92361" lon="4.80286">
        <ele>173</ele>
        <time>2018-06-13T06:45:12Z</time>
      </trkpt>
      <trkpt lat="45.92361" lon="4.80283">
        <ele>173</ele>
        <time>2018-06-13T06:45:13Z</time>
      </trkpt>
      <trkpt lat="45.92361" lon="4.80272">
        <ele>173</ele>
        <time>2018-06-13T06:45:17Z</time>
      </trkpt>
      <trkpt lat="45.92361" lon="4.80269">
        <ele>173</ele>
        <time>2018-06-13T06:45:18Z</time>
      </trkpt>
      <trkpt lat="45.92362" lon="4.80265">
        <ele>173</ele>
        <time>2018-06-13T06:45:19Z</time>
      </trkpt>
      <trkpt lat="45.92363" lon="4.80251">
        <ele>173</ele>
        <time>2018-06-13T06:45:20Z</time>
      </trkpt>
      <trkpt lat="45.92365" lon="4.80241">
        <ele>171</ele>
        <time>2018-06-13T06:45:24Z</time>
      </trkpt>
      <trkpt lat="45.92366" lon="4.80237">
        <ele>171</ele>
        <time>2018-06-13T06:45:25Z</time>
      </trkpt>
      <trkpt lat="45.92369" lon="4.80226">
        <ele>171</ele>
        <time>2018-06-13T06:45:28Z</time>
      </trkpt>
      <trkpt lat="45.9237" lon="4.80221">
        <ele>171</ele>
        <time>2018-06-13T06:45:29Z</time>
      </trkpt>
      <trkpt lat="45.92371" lon="4.80211">
        <ele>171</ele>
        <time>2018-06-13T06:45:31Z</time>
      </trkpt>
      <trkpt lat="45.92372" lon="4.80205">
        <ele>170</ele>
        <time>2018-06-13T06:45:32Z</time>
      </trkpt>
      <trkpt lat="45.92374" lon="4.80191">
        <ele>170</ele>
        <time>2018-06-13T06:45:33Z</time>
      </trkpt>
      <trkpt lat="45.92375" lon="4.80181">
        <ele>170</ele>
        <time>2018-06-13T06:45:35Z</time>
      </trkpt>
      <trkpt lat="45.92376" lon="4.80178">
        <ele>170</ele>
        <time>2018-06-13T06:45:36Z</time>
      </trkpt>
      <trkpt lat="45.92376" lon="4.80167">
        <ele>170</ele>
        <time>2018-06-13T06:45:37Z</time>
      </trkpt>
      <trkpt lat="45.92376" lon="4.80161">
        <ele>170</ele>
        <time>2018-06-13T06:45:38Z</time>
      </trkpt>
      <trkpt lat="45.92378" lon="4.80149">
        <ele>170</ele>
        <time>2018-06-13T06:45:40Z</time>
      </trkpt>
      <trkpt lat="45.92378" lon="4.80146">
        <ele>170</ele>
        <time>2018-06-13T06:45:41Z</time>
      </trkpt>
      <trkpt lat="45.92379" lon="4.80134">
        <ele>171</ele>
        <time>2018-06-13T06:45:44Z</time>
      </trkpt>
      <trkpt lat="45.92379" lon="4.80121">
        <ele>171</ele>
        <time>2018-06-13T06:45:45Z</time>
      </trkpt>
      <trkpt lat="45.92379" lon="4.80114">
        <ele>171</ele>
        <time>2018-06-13T06:45:46Z</time>
      </trkpt>
      <trkpt lat="45.92378" lon="4.80105">
        <ele>172</ele>
        <time>2018-06-13T06:45:47Z</time>
      </trkpt>
      <trkpt lat="45.92378" lon="4.80098">
        <ele>172</ele>
        <time>2018-06-13T06:45:48Z</time>
      </trkpt>
      <trkpt lat="45.92378" lon="4.80092">
        <ele>172</ele>
        <time>2018-06-13T06:45:49Z</time>
      </trkpt>
      <trkpt lat="45.9238" lon="4.8008">
        <ele>172</ele>
        <time>2018-06-13T06:45:53Z</time>
      </trkpt>
      <trkpt lat="45.92379" lon="4.80069">
        <ele>172</ele>
        <time>2018-06-13T06:45:54Z</time>
      </trkpt>
      <trkpt lat="45.92377" lon="4.8006">
        <ele>172</ele>
        <time>2018-06-13T06:45:56Z</time>
      </trkpt>
      <trkpt lat="45.92377" lon="4.80053">
        <ele>172</ele>
        <time>2018-06-13T06:45:57Z</time>
      </trkpt>
      <trkpt lat="45.92376" lon="4.80042">
        <ele>172</ele>
        <time>2018-06-13T06:45:59Z</time>
      </trkpt>
      <trkpt lat="45.92376" lon="4.80039">
        <ele>171</ele>
        <time>2018-06-13T06:46:00Z</time>
      </trkpt>
      <trkpt lat="45.92375" lon="4.80027">
        <ele>171</ele>
        <time>2018-06-13T06:46:03Z</time>
      </trkpt>
      <trkpt lat="45.92374" lon="4.80023">
        <ele>171</ele>
        <time>2018-06-13T06:46:04Z</time>
      </trkpt>
      <trkpt lat="45.92374" lon="4.80019">
        <ele>171</ele>
        <time>2018-06-13T06:46:05Z</time>
      </trkpt>
      <trkpt lat="45.92373" lon="4.80005">
        <ele>171</ele>
        <time>2018-06-13T06:46:06Z</time>
      </trkpt>
      <trkpt lat="45.92372" lon="4.79994">
        <ele>170</ele>
        <time>2018-06-13T06:46:08Z</time>
      </trkpt>
      <trkpt lat="45.92371" lon="4.79988">
        <ele>170</ele>
        <time>2018-06-13T06:46:09Z</time>
      </trkpt>
      <trkpt lat="45.92371" lon="4.79981">
        <ele>170</ele>
        <time>2018-06-13T06:46:10Z</time>
      </trkpt>
      <trkpt lat="45.92369" lon="4.79974">
        <ele>170</ele>
        <time>2018-06-13T06:46:11Z</time>
      </trkpt>
      <trkpt lat="45.92368" lon="4.79968">
        <ele>170</ele>
        <time>2018-06-13T06:46:12Z</time>
      </trkpt>
      <trkpt lat="45.92367" lon="4.79961">
        <ele>170</ele>
        <time>2018-06-13T06:46:13Z</time>
      </trkpt>
      <trkpt lat="45.92367" lon="4.79954">
        <ele>170</ele>
        <time>2018-06-13T06:46:14Z</time>
      </trkpt>
      <trkpt lat="45.92367" lon="4.79947">
        <ele>170</ele>
        <time>2018-06-13T06:46:15Z</time>
      </trkpt>
      <trkpt lat="45.92366" lon="4.79934">
        <ele>170</ele>
        <time>2018-06-13T06:46:18Z</time>
      </trkpt>
      <trkpt lat="45.92366" lon="4.7993">
        <ele>170</ele>
        <time>2018-06-13T06:46:19Z</time>
      </trkpt>
      <trkpt lat="45.92366" lon="4.79923">
        <ele>170</ele>
        <time>2018-06-13T06:46:21Z</time>
      </trkpt>
      <trkpt lat="45.92365" lon="4.79912">
        <ele>170</ele>
        <time>2018-06-13T06:46:22Z</time>
      </trkpt>
      <trkpt lat="45.92365" lon="4.79901">
        <ele>171</ele>
        <time>2018-06-13T06:46:24Z</time>
      </trkpt>
      <trkpt lat="45.92365" lon="4.79896">
        <ele>171</ele>
        <time>2018-06-13T06:46:25Z</time>
      </trkpt>
      <trkpt lat="45.92364" lon="4.79884">
        <ele>171</ele>
        <time>2018-06-13T06:46:27Z</time>
      </trkpt>
      <trkpt lat="45.92363" lon="4.79878">
        <ele>171</ele>
        <time>2018-06-13T06:46:28Z</time>
      </trkpt>
      <trkpt lat="45.92363" lon="4.79872">
        <ele>171</ele>
        <time>2018-06-13T06:46:29Z</time>
      </trkpt>
      <trkpt lat="45.92363" lon="4.79865">
        <ele>171</ele>
        <time>2018-06-13T06:46:30Z</time>
      </trkpt>
      <trkpt lat="45.92363" lon="4.79858">
        <ele>170</ele>
        <time>2018-06-13T06:46:31Z</time>
      </trkpt>
      <trkpt lat="45.92362" lon="4.79851">
        <ele>170</ele>
        <time>2018-06-13T06:46:32Z</time>
      </trkpt>
      <trkpt lat="45.92362" lon="4.79844">
        <ele>170</ele>
        <time>2018-06-13T06:46:33Z</time>
      </trkpt>
      <trkpt lat="45.92362" lon="4.79838">
        <ele>170</ele>
        <time>2018-06-13T06:46:34Z</time>
      </trkpt>
      <trkpt lat="45.92362" lon="4.79831">
        <ele>171</ele>
        <time>2018-06-13T06:46:35Z</time>
      </trkpt>
      <trkpt lat="45.92361" lon="4.79825">
        <ele>171</ele>
        <time>2018-06-13T06:46:36Z</time>
      </trkpt>
      <trkpt lat="45.9236" lon="4.79813">
        <ele>171</ele>
        <time>2018-06-13T06:46:38Z</time>
      </trkpt>
      <trkpt lat="45.92359" lon="4.7981">
        <ele>171</ele>
        <time>2018-06-13T06:46:39Z</time>
      </trkpt>
      <trkpt lat="45.92358" lon="4.79799">
        <ele>171</ele>
        <time>2018-06-13T06:46:42Z</time>
      </trkpt>
      <trkpt lat="45.92357" lon="4.79796">
        <ele>171</ele>
        <time>2018-06-13T06:46:43Z</time>
      </trkpt>
      <trkpt lat="45.92356" lon="4.79785">
        <ele>171</ele>
        <time>2018-06-13T06:46:46Z</time>
      </trkpt>
      <trkpt lat="45.92355" lon="4.79781">
        <ele>171</ele>
        <time>2018-06-13T06:46:47Z</time>
      </trkpt>
      <trkpt lat="45.92354" lon="4.79777">
        <ele>171</ele>
        <time>2018-06-13T06:46:48Z</time>
      </trkpt>
      <trkpt lat="45.92353" lon="4.79764">
        <ele>171</ele>
        <time>2018-06-13T06:46:49Z</time>
      </trkpt>
      <trkpt lat="45.92353" lon="4.79755">
        <ele>171</ele>
        <time>2018-06-13T06:46:53Z</time>
      </trkpt>
      <trkpt lat="45.92352" lon="4.79744">
        <ele>171</ele>
        <time>2018-06-13T06:46:54Z</time>
      </trkpt>
      <trkpt lat="45.92351" lon="4.79737">
        <ele>171</ele>
        <time>2018-06-13T06:46:55Z</time>
      </trkpt>
      <trkpt lat="45.92351" lon="4.79731">
        <ele>171</ele>
        <time>2018-06-13T06:46:56Z</time>
      </trkpt>
      <trkpt lat="45.9235" lon="4.79719">
        <ele>171</ele>
        <time>2018-06-13T06:46:58Z</time>
      </trkpt>
      <trkpt lat="45.9235" lon="4.79716">
        <ele>171</ele>
        <time>2018-06-13T06:46:59Z</time>
      </trkpt>
      <trkpt lat="45.9235" lon="4.79705">
        <ele>171</ele>
        <time>2018-06-13T06:47:02Z</time>
      </trkpt>
      <trkpt lat="45.9235" lon="4.79692">
        <ele>171</ele>
        <time>2018-06-13T06:47:03Z</time>
      </trkpt>
      <trkpt lat="45.9235" lon="4.79681">
        <ele>171</ele>
        <time>2018-06-13T06:47:05Z</time>
      </trkpt>
      <trkpt lat="45.9235" lon="4.79678">
        <ele>171</ele>
        <time>2018-06-13T06:47:06Z</time>
      </trkpt>
      <trkpt lat="45.92348" lon="4.79668">
        <ele>170</ele>
        <time>2018-06-13T06:47:09Z</time>
      </trkpt>
      <trkpt lat="45.92347" lon="4.79664">
        <ele>170</ele>
        <time>2018-06-13T06:47:10Z</time>
      </trkpt>
      <trkpt lat="45.92346" lon="4.7966">
        <ele>170</ele>
        <time>2018-06-13T06:47:11Z</time>
      </trkpt>
      <trkpt lat="45.92343" lon="4.79648">
        <ele>171</ele>
        <time>2018-06-13T06:47:12Z</time>
      </trkpt>
      <trkpt lat="45.92342" lon="4.7964">
        <ele>171</ele>
        <time>2018-06-13T06:47:14Z</time>
      </trkpt>
      <trkpt lat="45.92341" lon="4.79629">
        <ele>171</ele>
        <time>2018-06-13T06:47:15Z</time>
      </trkpt>
      <trkpt lat="45.9234" lon="4.79623">
        <ele>171</ele>
        <time>2018-06-13T06:47:16Z</time>
      </trkpt>
      <trkpt lat="45.92339" lon="4.79616">
        <ele>171</ele>
        <time>2018-06-13T06:47:17Z</time>
      </trkpt>
      <trkpt lat="45.92337" lon="4.79603">
        <ele>171</ele>
        <time>2018-06-13T06:47:19Z</time>
      </trkpt>
      <trkpt lat="45.92337" lon="4.79601">
        <ele>171</ele>
        <time>2018-06-13T06:47:20Z</time>
      </trkpt>
      <trkpt lat="45.92336" lon="4.79589">
        <ele>171</ele>
        <time>2018-06-13T06:47:23Z</time>
      </trkpt>
      <trkpt lat="45.92336" lon="4.79586">
        <ele>171</ele>
        <time>2018-06-13T06:47:24Z</time>
      </trkpt>
      <trkpt lat="45.92335" lon="4.79582">
        <ele>171</ele>
        <time>2018-06-13T06:47:25Z</time>
      </trkpt>
      <trkpt lat="45.92334" lon="4.79569">
        <ele>172</ele>
        <time>2018-06-13T06:47:26Z</time>
      </trkpt>
      <trkpt lat="45.92333" lon="4.79557">
        <ele>170</ele>
        <time>2018-06-13T06:47:28Z</time>
      </trkpt>
      <trkpt lat="45.92332" lon="4.79552">
        <ele>170</ele>
        <time>2018-06-13T06:47:29Z</time>
      </trkpt>
      <trkpt lat="45.92331" lon="4.7954">
        <ele>170</ele>
        <time>2018-06-13T06:47:31Z</time>
      </trkpt>
      <trkpt lat="45.92331" lon="4.79534">
        <ele>170</ele>
        <time>2018-06-13T06:47:32Z</time>
      </trkpt>
      <trkpt lat="45.92331" lon="4.79523">
        <ele>170</ele>
        <time>2018-06-13T06:47:35Z</time>
      </trkpt>
      <trkpt lat="45.92331" lon="4.79514">
        <ele>171</ele>
        <time>2018-06-13T06:47:36Z</time>
      </trkpt>
      <trkpt lat="45.9233" lon="4.79501">
        <ele>172</ele>
        <time>2018-06-13T06:47:40Z</time>
      </trkpt>
      <trkpt lat="45.92329" lon="4.79497">
        <ele>171</ele>
        <time>2018-06-13T06:47:41Z</time>
      </trkpt>
      <trkpt lat="45.92326" lon="4.79486">
        <ele>170</ele>
        <time>2018-06-13T06:47:44Z</time>
      </trkpt>
      <trkpt lat="45.92325" lon="4.7948">
        <ele>170</ele>
        <time>2018-06-13T06:47:45Z</time>
      </trkpt>
      <trkpt lat="45.92324" lon="4.79471">
        <ele>170</ele>
        <time>2018-06-13T06:47:47Z</time>
      </trkpt>
      <trkpt lat="45.92323" lon="4.79467">
        <ele>170</ele>
        <time>2018-06-13T06:47:48Z</time>
      </trkpt>
      <trkpt lat="45.92321" lon="4.79456">
        <ele>170</ele>
        <time>2018-06-13T06:47:50Z</time>
      </trkpt>
      <trkpt lat="45.92321" lon="4.79451">
        <ele>170</ele>
        <time>2018-06-13T06:47:51Z</time>
      </trkpt>
      <trkpt lat="45.92319" lon="4.79436">
        <ele>170</ele>
        <time>2018-06-13T06:47:52Z</time>
      </trkpt>
      <trkpt lat="45.92318" lon="4.79425">
        <ele>170</ele>
        <time>2018-06-13T06:47:55Z</time>
      </trkpt>
      <trkpt lat="45.92319" lon="4.79413">
        <ele>170</ele>
        <time>2018-06-13T06:47:56Z</time>
      </trkpt>
      <trkpt lat="45.92319" lon="4.79407">
        <ele>170</ele>
        <time>2018-06-13T06:47:57Z</time>
      </trkpt>
      <trkpt lat="45.92319" lon="4.794">
        <ele>169</ele>
        <time>2018-06-13T06:47:58Z</time>
      </trkpt>
      <trkpt lat="45.9232" lon="4.7939">
        <ele>169</ele>
        <time>2018-06-13T06:48:01Z</time>
      </trkpt>
      <trkpt lat="45.9232" lon="4.79385">
        <ele>169</ele>
        <time>2018-06-13T06:48:02Z</time>
      </trkpt>
      <trkpt lat="45.92321" lon="4.79381">
        <ele>169</ele>
        <time>2018-06-13T06:48:03Z</time>
      </trkpt>
      <trkpt lat="45.92322" lon="4.79367">
        <ele>169</ele>
        <time>2018-06-13T06:48:04Z</time>
      </trkpt>
      <trkpt lat="45.92322" lon="4.79356">
        <ele>169</ele>
        <time>2018-06-13T06:48:07Z</time>
      </trkpt>
      <trkpt lat="45.92321" lon="4.79351">
        <ele>169</ele>
        <time>2018-06-13T06:48:08Z</time>
      </trkpt>
      <trkpt lat="45.9232" lon="4.79341">
        <ele>169</ele>
        <time>2018-06-13T06:48:10Z</time>
      </trkpt>
      <trkpt lat="45.92319" lon="4.79337">
        <ele>169</ele>
        <time>2018-06-13T06:48:11Z</time>
      </trkpt>
      <trkpt lat="45.92319" lon="4.79329">
        <ele>169</ele>
        <time>2018-06-13T06:48:13Z</time>
      </trkpt>
      <trkpt lat="45.92318" lon="4.79315">
        <ele>169</ele>
        <time>2018-06-13T06:48:14Z</time>
      </trkpt>
      <trkpt lat="45.92318" lon="4.79308">
        <ele>169</ele>
        <time>2018-06-13T06:48:15Z</time>
      </trkpt>
      <trkpt lat="45.92318" lon="4.79302">
        <ele>169</ele>
        <time>2018-06-13T06:48:16Z</time>
      </trkpt>
      <trkpt lat="45.92317" lon="4.7929">
        <ele>169</ele>
        <time>2018-06-13T06:48:19Z</time>
      </trkpt>
      <trkpt lat="45.92317" lon="4.79286">
        <ele>169</ele>
        <time>2018-06-13T06:48:20Z</time>
      </trkpt>
      <trkpt lat="45.92318" lon="4.79274">
        <ele>169</ele>
        <time>2018-06-13T06:48:23Z</time>
      </trkpt>
      <trkpt lat="45.92318" lon="4.7927">
        <ele>169</ele>
        <time>2018-06-13T06:48:24Z</time>
      </trkpt>
      <trkpt lat="45.92321" lon="4.79261">
        <ele>170</ele>
        <time>2018-06-13T06:48:26Z</time>
      </trkpt>
      <trkpt lat="45.92322" lon="4.79258">
        <ele>170</ele>
        <time>2018-06-13T06:48:27Z</time>
      </trkpt>
      <trkpt lat="45.92326" lon="4.79249">
        <ele>171</ele>
        <time>2018-06-13T06:48:30Z</time>
      </trkpt>
      <trkpt lat="45.92328" lon="4.79245">
        <ele>171</ele>
        <time>2018-06-13T06:48:31Z</time>
      </trkpt>
      <trkpt lat="45.9233" lon="4.79237">
        <ele>170</ele>
        <time>2018-06-13T06:48:33Z</time>
      </trkpt>
      <trkpt lat="45.92331" lon="4.79233">
        <ele>170</ele>
        <time>2018-06-13T06:48:34Z</time>
      </trkpt>
      <trkpt lat="45.92333" lon="4.79224">
        <ele>170</ele>
        <time>2018-06-13T06:48:36Z</time>
      </trkpt>
      <trkpt lat="45.92334" lon="4.7922">
        <ele>171</ele>
        <time>2018-06-13T06:48:37Z</time>
      </trkpt>
      <trkpt lat="45.92335" lon="4.79212">
        <ele>171</ele>
        <time>2018-06-13T06:48:39Z</time>
      </trkpt>
      <trkpt lat="45.92336" lon="4.79206">
        <ele>171</ele>
        <time>2018-06-13T06:48:40Z</time>
      </trkpt>
      <trkpt lat="45.92338" lon="4.79197">
        <ele>171</ele>
        <time>2018-06-13T06:48:42Z</time>
      </trkpt>
      <trkpt lat="45.9234" lon="4.79193">
        <ele>172</ele>
        <time>2018-06-13T06:48:43Z</time>
      </trkpt>
      <trkpt lat="45.92342" lon="4.79187">
        <ele>172</ele>
        <time>2018-06-13T06:48:44Z</time>
      </trkpt>
      <trkpt lat="45.92346" lon="4.79175">
        <ele>172</ele>
        <time>2018-06-13T06:48:45Z</time>
      </trkpt>
      <trkpt lat="45.9235" lon="4.79164">
        <ele>171</ele>
        <time>2018-06-13T06:48:48Z</time>
      </trkpt>
      <trkpt lat="45.92352" lon="4.79161">
        <ele>171</ele>
        <time>2018-06-13T06:48:49Z</time>
      </trkpt>
      <trkpt lat="45.92355" lon="4.79154">
        <ele>171</ele>
        <time>2018-06-13T06:48:51Z</time>
      </trkpt>
      <trkpt lat="45.92362" lon="4.79145">
        <ele>171</ele>
        <time>2018-06-13T06:48:52Z</time>
      </trkpt>
      <trkpt lat="45.92368" lon="4.79137">
        <ele>170</ele>
        <time>2018-06-13T06:48:55Z</time>
      </trkpt>
      <trkpt lat="45.9237" lon="4.79134">
        <ele>170</ele>
        <time>2018-06-13T06:48:56Z</time>
      </trkpt>
      <trkpt lat="45.92375" lon="4.79126">
        <ele>170</ele>
        <time>2018-06-13T06:48:58Z</time>
      </trkpt>
      <trkpt lat="45.9238" lon="4.79115">
        <ele>170</ele>
        <time>2018-06-13T06:48:59Z</time>
      </trkpt>
      <trkpt lat="45.92384" lon="4.79108">
        <ele>170</ele>
        <time>2018-06-13T06:49:01Z</time>
      </trkpt>
      <trkpt lat="45.92386" lon="4.79105">
        <ele>170</ele>
        <time>2018-06-13T06:49:02Z</time>
      </trkpt>
      <trkpt lat="45.92391" lon="4.79096">
        <ele>170</ele>
        <time>2018-06-13T06:49:05Z</time>
      </trkpt>
      <trkpt lat="45.92393" lon="4.79093">
        <ele>170</ele>
        <time>2018-06-13T06:49:06Z</time>
      </trkpt>
      <trkpt lat="45.92399" lon="4.79083">
        <ele>169</ele>
        <time>2018-06-13T06:49:07Z</time>
      </trkpt>
      <trkpt lat="45.92405" lon="4.79075">
        <ele>169</ele>
        <time>2018-06-13T06:49:10Z</time>
      </trkpt>
      <trkpt lat="45.92406" lon="4.79073">
        <ele>169</ele>
        <time>2018-06-13T06:49:11Z</time>
      </trkpt>
      <trkpt lat="45.92411" lon="4.79066">
        <ele>169</ele>
        <time>2018-06-13T06:49:12Z</time>
      </trkpt>
      <trkpt lat="45.92414" lon="4.79061">
        <ele>169</ele>
        <time>2018-06-13T06:49:13Z</time>
      </trkpt>
      <trkpt lat="45.92419" lon="4.79052">
        <ele>170</ele>
        <time>2018-06-13T06:49:15Z</time>
      </trkpt>
      <trkpt lat="45.92421" lon="4.79048">
        <ele>170</ele>
        <time>2018-06-13T06:49:16Z</time>
      </trkpt>
      <trkpt lat="45.92426" lon="4.79041">
        <ele>170</ele>
        <time>2018-06-13T06:49:19Z</time>
      </trkpt>
      <trkpt lat="45.92427" lon="4.79038">
        <ele>170</ele>
        <time>2018-06-13T06:49:20Z</time>
      </trkpt>
      <trkpt lat="45.92432" lon="4.79029">
        <ele>170</ele>
        <time>2018-06-13T06:49:23Z</time>
      </trkpt>
      <trkpt lat="45.92433" lon="4.79025">
        <ele>170</ele>
        <time>2018-06-13T06:49:24Z</time>
      </trkpt>
      <trkpt lat="45.92439" lon="4.79018">
        <ele>169</ele>
        <time>2018-06-13T06:49:27Z</time>
      </trkpt>
      <trkpt lat="45.92442" lon="4.79016">
        <ele>170</ele>
        <time>2018-06-13T06:49:28Z</time>
      </trkpt>
      <trkpt lat="45.9245" lon="4.79009">
        <ele>170</ele>
        <time>2018-06-13T06:49:29Z</time>
      </trkpt>
      <trkpt lat="45.92454" lon="4.79006">
        <ele>170</ele>
        <time>2018-06-13T06:49:30Z</time>
      </trkpt>
      <trkpt lat="45.92458" lon="4.79004">
        <ele>170</ele>
        <time>2018-06-13T06:49:31Z</time>
      </trkpt>
      <trkpt lat="45.92464" lon="4.78999">
        <ele>170</ele>
        <time>2018-06-13T06:49:33Z</time>
      </trkpt>
      <trkpt lat="45.92468" lon="4.78994">
        <ele>170</ele>
        <time>2018-06-13T06:49:34Z</time>
      </trkpt>
      <trkpt lat="45.92472" lon="4.78985">
        <ele>171</ele>
        <time>2018-06-13T06:49:37Z</time>
      </trkpt>
      <trkpt lat="45.92476" lon="4.78983">
        <ele>171</ele>
        <time>2018-06-13T06:49:38Z</time>
      </trkpt>
      <trkpt lat="45.92483" lon="4.78975">
        <ele>171</ele>
        <time>2018-06-13T06:49:41Z</time>
      </trkpt>
      <trkpt lat="45.92485" lon="4.78973">
        <ele>171</ele>
        <time>2018-06-13T06:49:42Z</time>
      </trkpt>
      <trkpt lat="45.92487" lon="4.78971">
        <ele>171</ele>
        <time>2018-06-13T06:49:43Z</time>
      </trkpt>
      <trkpt lat="45.92494" lon="4.78961">
        <ele>171</ele>
        <time>2018-06-13T06:49:44Z</time>
      </trkpt>
      <trkpt lat="45.925" lon="4.78955">
        <ele>171</ele>
        <time>2018-06-13T06:49:47Z</time>
      </trkpt>
      <trkpt lat="45.92503" lon="4.78953">
        <ele>173</ele>
        <time>2018-06-13T06:49:48Z</time>
      </trkpt>
      <trkpt lat="45.92509" lon="4.7895">
        <ele>173</ele>
        <time>2018-06-13T06:49:50Z</time>
      </trkpt>
      <trkpt lat="45.92511" lon="4.78948">
        <ele>173</ele>
        <time>2018-06-13T06:49:51Z</time>
      </trkpt>
      <trkpt lat="45.92514" lon="4.78947">
        <ele>173</ele>
        <time>2018-06-13T06:49:52Z</time>
      </trkpt>
      <trkpt lat="45.92523" lon="4.78941">
        <ele>173</ele>
        <time>2018-06-13T06:49:53Z</time>
      </trkpt>
      <trkpt lat="45.9253" lon="4.78936">
        <ele>173</ele>
        <time>2018-06-13T06:49:55Z</time>
      </trkpt>
      <trkpt lat="45.92531" lon="4.78934">
        <ele>173</ele>
        <time>2018-06-13T06:49:56Z</time>
      </trkpt>
      <trkpt lat="45.92534" lon="4.78932">
        <ele>173</ele>
        <time>2018-06-13T06:49:57Z</time>
      </trkpt>
      <trkpt lat="45.92541" lon="4.78928">
        <ele>173</ele>
        <time>2018-06-13T06:49:58Z</time>
      </trkpt>
      <trkpt lat="45.92547" lon="4.78921">
        <ele>172</ele>
        <time>2018-06-13T06:50:02Z</time>
      </trkpt>
      <trkpt lat="45.92549" lon="4.7892">
        <ele>172</ele>
        <time>2018-06-13T06:50:03Z</time>
      </trkpt>
      <trkpt lat="45.92553" lon="4.78919">
        <ele>172</ele>
        <time>2018-06-13T06:50:05Z</time>
      </trkpt>
      <trkpt lat="45.9256" lon="4.7892">
        <ele>172</ele>
        <time>2018-06-13T06:50:06Z</time>
      </trkpt>
      <trkpt lat="45.92568" lon="4.78913">
        <ele>170</ele>
        <time>2018-06-13T06:50:11Z</time>
      </trkpt>
      <trkpt lat="45.9257" lon="4.78912">
        <ele>170</ele>
        <time>2018-06-13T06:50:12Z</time>
      </trkpt>
      <trkpt lat="45.92576" lon="4.78907">
        <ele>170</ele>
        <time>2018-06-13T06:50:15Z</time>
      </trkpt>
      <trkpt lat="45.92578" lon="4.78905">
        <ele>170</ele>
        <time>2018-06-13T06:50:16Z</time>
      </trkpt>
      <trkpt lat="45.92583" lon="4.78901">
        <ele>170</ele>
        <time>2018-06-13T06:50:18Z</time>
      </trkpt>
      <trkpt lat="45.92586" lon="4.78899">
        <ele>169</ele>
        <time>2018-06-13T06:50:19Z</time>
      </trkpt>
      <trkpt lat="45.92594" lon="4.78896">
        <ele>169</ele>
        <time>2018-06-13T06:50:22Z</time>
      </trkpt>
      <trkpt lat="45.92598" lon="4.78895">
        <ele>169</ele>
        <time>2018-06-13T06:50:23Z</time>
      </trkpt>
      <trkpt lat="45.92605" lon="4.78893">
        <ele>169</ele>
        <time>2018-06-13T06:50:25Z</time>
      </trkpt>
      <trkpt lat="45.92609" lon="4.78892">
        <ele>169</ele>
        <time>2018-06-13T06:50:26Z</time>
      </trkpt>
      <trkpt lat="45.92615" lon="4.7889">
        <ele>168</ele>
        <time>2018-06-13T06:50:28Z</time>
      </trkpt>
      <trkpt lat="45.92617" lon="4.78888">
        <ele>168</ele>
        <time>2018-06-13T06:50:29Z</time>
      </trkpt>
      <trkpt lat="45.92625" lon="4.78885">
        <ele>168</ele>
        <time>2018-06-13T06:50:32Z</time>
      </trkpt>
      <trkpt lat="45.92628" lon="4.78883">
        <ele>168</ele>
        <time>2018-06-13T06:50:33Z</time>
      </trkpt>
      <trkpt lat="45.92631" lon="4.78882">
        <ele>168</ele>
        <time>2018-06-13T06:50:34Z</time>
      </trkpt>
      <trkpt lat="45.92641" lon="4.78878">
        <ele>168</ele>
        <time>2018-06-13T06:50:35Z</time>
      </trkpt>
      <trkpt lat="45.92645" lon="4.78876">
        <ele>168</ele>
        <time>2018-06-13T06:50:36Z</time>
      </trkpt>
      <trkpt lat="45.92649" lon="4.78873">
        <ele>168</ele>
        <time>2018-06-13T06:50:37Z</time>
      </trkpt>
      <trkpt lat="45.92657" lon="4.78868">
        <ele>168</ele>
        <time>2018-06-13T06:50:41Z</time>
      </trkpt>
      <trkpt lat="45.92659" lon="4.78866">
        <ele>168</ele>
        <time>2018-06-13T06:50:42Z</time>
      </trkpt>
      <trkpt lat="45.92665" lon="4.78859">
        <ele>167</ele>
        <time>2018-06-13T06:50:45Z</time>
      </trkpt>
      <trkpt lat="45.92667" lon="4.78858">
        <ele>169</ele>
        <time>2018-06-13T06:50:46Z</time>
      </trkpt>
      <trkpt lat="45.92672" lon="4.78855">
        <ele>169</ele>
        <time>2018-06-13T06:50:48Z</time>
      </trkpt>
      <trkpt lat="45.92682" lon="4.7885">
        <ele>169</ele>
        <time>2018-06-13T06:50:49Z</time>
      </trkpt>
      <trkpt lat="45.92689" lon="4.78847">
        <ele>169</ele>
        <time>2018-06-13T06:50:51Z</time>
      </trkpt>
      <trkpt lat="45.92696" lon="4.78844">
        <ele>169</ele>
        <time>2018-06-13T06:50:52Z</time>
      </trkpt>
      <trkpt lat="45.927" lon="4.78838">
        <ele>170</ele>
        <time>2018-06-13T06:50:54Z</time>
      </trkpt>
      <trkpt lat="45.92703" lon="4.78835">
        <ele>170</ele>
        <time>2018-06-13T06:50:55Z</time>
      </trkpt>
      <trkpt lat="45.9271" lon="4.78829">
        <ele>168</ele>
        <time>2018-06-13T06:50:58Z</time>
      </trkpt>
      <trkpt lat="45.92713" lon="4.78827">
        <ele>169</ele>
        <time>2018-06-13T06:50:59Z</time>
      </trkpt>
      <trkpt lat="45.92719" lon="4.78822">
        <ele>169</ele>
        <time>2018-06-13T06:51:01Z</time>
      </trkpt>
      <trkpt lat="45.92723" lon="4.7882">
        <ele>169</ele>
        <time>2018-06-13T06:51:02Z</time>
      </trkpt>
      <trkpt lat="45.92729" lon="4.78817">
        <ele>169</ele>
        <time>2018-06-13T06:51:04Z</time>
      </trkpt>
      <trkpt lat="45.92732" lon="4.78814">
        <ele>169</ele>
        <time>2018-06-13T06:51:05Z</time>
      </trkpt>
      <trkpt lat="45.92742" lon="4.78808">
        <ele>169</ele>
        <time>2018-06-13T06:51:06Z</time>
      </trkpt>
      <trkpt lat="45.92749" lon="4.78803">
        <ele>169</ele>
        <time>2018-06-13T06:51:10Z</time>
      </trkpt>
      <trkpt lat="45.92752" lon="4.78802">
        <ele>170</ele>
        <time>2018-06-13T06:51:11Z</time>
      </trkpt>
      <trkpt lat="45.92758" lon="4.78798">
        <ele>170</ele>
        <time>2018-06-13T06:51:13Z</time>
      </trkpt>
      <trkpt lat="45.92761" lon="4.78796">
        <ele>170</ele>
        <time>2018-06-13T06:51:14Z</time>
      </trkpt>
      <trkpt lat="45.92767" lon="4.78792">
        <ele>170</ele>
        <time>2018-06-13T06:51:16Z</time>
      </trkpt>
      <trkpt lat="45.9277" lon="4.78791">
        <ele>170</ele>
        <time>2018-06-13T06:51:17Z</time>
      </trkpt>
      <trkpt lat="45.92777" lon="4.78786">
        <ele>170</ele>
        <time>2018-06-13T06:51:20Z</time>
      </trkpt>
      <trkpt lat="45.92779" lon="4.78785">
        <ele>170</ele>
        <time>2018-06-13T06:51:21Z</time>
      </trkpt>
      <trkpt lat="45.92785" lon="4.7878">
        <ele>170</ele>
        <time>2018-06-13T06:51:24Z</time>
      </trkpt>
      <trkpt lat="45.92787" lon="4.78778">
        <ele>170</ele>
        <time>2018-06-13T06:51:25Z</time>
      </trkpt>
      <trkpt lat="45.92794" lon="4.78773">
        <ele>170</ele>
        <time>2018-06-13T06:51:28Z</time>
      </trkpt>
      <trkpt lat="45.92796" lon="4.78771">
        <ele>170</ele>
        <time>2018-06-13T06:51:29Z</time>
      </trkpt>
      <trkpt lat="45.92802" lon="4.78767">
        <ele>170</ele>
        <time>2018-06-13T06:51:32Z</time>
      </trkpt>
      <trkpt lat="45.92804" lon="4.78765">
        <ele>170</ele>
        <time>2018-06-13T06:51:33Z</time>
      </trkpt>
      <trkpt lat="45.92811" lon="4.78762">
        <ele>170</ele>
        <time>2018-06-13T06:51:36Z</time>
      </trkpt>
      <trkpt lat="45.92814" lon="4.78761">
        <ele>170</ele>
        <time>2018-06-13T06:51:37Z</time>
      </trkpt>
      <trkpt lat="45.92821" lon="4.78758">
        <ele>170</ele>
        <time>2018-06-13T06:51:39Z</time>
      </trkpt>
      <trkpt lat="45.92823" lon="4.78757">
        <ele>170</ele>
        <time>2018-06-13T06:51:40Z</time>
      </trkpt>
      <trkpt lat="45.92831" lon="4.78753">
        <ele>170</ele>
        <time>2018-06-13T06:51:43Z</time>
      </trkpt>
      <trkpt lat="45.92833" lon="4.78751">
        <ele>170</ele>
        <time>2018-06-13T06:51:44Z</time>
      </trkpt>
      <trkpt lat="45.92839" lon="4.78747">
        <ele>170</ele>
        <time>2018-06-13T06:51:47Z</time>
      </trkpt>
      <trkpt lat="45.92842" lon="4.78745">
        <ele>170</ele>
        <time>2018-06-13T06:51:48Z</time>
      </trkpt>
      <trkpt lat="45.92849" lon="4.7874">
        <ele>170</ele>
        <time>2018-06-13T06:51:51Z</time>
      </trkpt>
      <trkpt lat="45.92852" lon="4.78738">
        <ele>171</ele>
        <time>2018-06-13T06:51:52Z</time>
      </trkpt>
      <trkpt lat="45.92859" lon="4.78733">
        <ele>171</ele>
        <time>2018-06-13T06:51:55Z</time>
      </trkpt>
      <trkpt lat="45.92861" lon="4.78731">
        <ele>171</ele>
        <time>2018-06-13T06:51:56Z</time>
      </trkpt>
      <trkpt lat="45.92868" lon="4.78727">
        <ele>171</ele>
        <time>2018-06-13T06:51:58Z</time>
      </trkpt>
      <trkpt lat="45.92872" lon="4.78725">
        <ele>170</ele>
        <time>2018-06-13T06:51:59Z</time>
      </trkpt>
      <trkpt lat="45.9288" lon="4.7872">
        <ele>170</ele>
        <time>2018-06-13T06:52:01Z</time>
      </trkpt>
      <trkpt lat="45.92883" lon="4.78718">
        <ele>170</ele>
        <time>2018-06-13T06:52:02Z</time>
      </trkpt>
      <trkpt lat="45.92891" lon="4.78715">
        <ele>170</ele>
        <time>2018-06-13T06:52:05Z</time>
      </trkpt>
      <trkpt lat="45.92893" lon="4.78714">
        <ele>170</ele>
        <time>2018-06-13T06:52:06Z</time>
      </trkpt>
      <trkpt lat="45.92899" lon="4.78711">
        <ele>170</ele>
        <time>2018-06-13T06:52:08Z</time>
      </trkpt>
      <trkpt lat="45.92902" lon="4.78709">
        <ele>170</ele>
        <time>2018-06-13T06:52:09Z</time>
      </trkpt>
      <trkpt lat="45.92909" lon="4.78704">
        <ele>170</ele>
        <time>2018-06-13T06:52:12Z</time>
      </trkpt>
      <trkpt lat="45.92911" lon="4.78703">
        <ele>170</ele>
        <time>2018-06-13T06:52:13Z</time>
      </trkpt>
      <trkpt lat="45.92919" lon="4.78698">
        <ele>168</ele>
        <time>2018-06-13T06:52:16Z</time>
      </trkpt>
      <trkpt lat="45.92929" lon="4.78691">
        <ele>168</ele>
        <time>2018-06-13T06:52:17Z</time>
      </trkpt>
      <trkpt lat="45.92935" lon="4.78685">
        <ele>168</ele>
        <time>2018-06-13T06:52:20Z</time>
      </trkpt>
      <trkpt lat="45.92936" lon="4.78684">
        <ele>168</ele>
        <time>2018-06-13T06:52:21Z</time>
      </trkpt>
      <trkpt lat="45.92943" lon="4.78676">
        <ele>168</ele>
        <time>2018-06-13T06:52:27Z</time>
      </trkpt>
      <trkpt lat="45.92944" lon="4.78674">
        <ele>168</ele>
        <time>2018-06-13T06:52:28Z</time>
      </trkpt>
      <trkpt lat="45.92949" lon="4.78665">
        <ele>168</ele>
        <time>2018-06-13T06:52:41Z</time>
      </trkpt>
      <trkpt lat="45.9295" lon="4.78664">
        <ele>168</ele>
        <time>2018-06-13T06:52:42Z</time>
      </trkpt>
      <trkpt lat="45.92956" lon="4.78655">
        <ele>168</ele>
        <time>2018-06-13T06:52:52Z</time>
      </trkpt>
      <trkpt lat="45.92957" lon="4.78655">
        <ele>168</ele>
        <time>2018-06-13T06:52:53Z</time>
      </trkpt>
      <trkpt lat="45.92965" lon="4.78651">
        <ele>168</ele>
        <time>2018-06-13T06:53:12Z</time>
      </trkpt>
      <trkpt lat="45.92965" lon="4.78651">
        <ele>168</ele>
        <time>2018-06-13T06:53:13Z</time>
      </trkpt>
      <trkpt lat="45.92966" lon="4.7865">
        <ele>168</ele>
        <time>2018-06-13T06:54:39Z</time>
      </trkpt>
      <trkpt lat="45.92966" lon="4.7865">
        <ele>168</ele>
        <time>2018-06-13T06:54:40Z</time>
      </trkpt>
      <trkpt lat="45.92966" lon="4.78649">
        <ele>168</ele>
        <time>2018-06-13T06:54:41Z</time>
      </trkpt>
      <trkpt lat="45.92966" lon="4.78649">
        <ele>168</ele>
        <time>2018-06-13T06:54:42Z</time>
      </trkpt>
      <trkpt lat="45.92974" lon="4.78647">
        <ele>168</ele>
        <time>2018-06-13T06:55:14Z</time>
      </trkpt>
      <trkpt lat="45.92976" lon="4.78646">
        <ele>168</ele>
        <time>2018-06-13T06:55:15Z</time>
      </trkpt>
      <trkpt lat="45.92981" lon="4.78642">
        <ele>168</ele>
        <time>2018-06-13T06:55:17Z</time>
      </trkpt>
      <trkpt lat="45.92984" lon="4.78639">
        <ele>168</ele>
        <time>2018-06-13T06:55:18Z</time>
      </trkpt>
      <trkpt lat="45.92989" lon="4.78635">
        <ele>168</ele>
        <time>2018-06-13T06:55:20Z</time>
      </trkpt>
      <trkpt lat="45.92993" lon="4.78633">
        <ele>168</ele>
        <time>2018-06-13T06:55:21Z</time>
      </trkpt>
      <trkpt lat="45.92999" lon="4.78629">
        <ele>168</ele>
        <time>2018-06-13T06:55:23Z</time>
      </trkpt>
      <trkpt lat="45.93008" lon="4.78624">
        <ele>169</ele>
        <time>2018-06-13T06:55:24Z</time>
      </trkpt>
      <trkpt lat="45.93014" lon="4.78619">
        <ele>169</ele>
        <time>2018-06-13T06:55:27Z</time>
      </trkpt>
      <trkpt lat="45.93016" lon="4.78616">
        <ele>169</ele>
        <time>2018-06-13T06:55:28Z</time>
      </trkpt>
      <trkpt lat="45.93018" lon="4.78614">
        <ele>169</ele>
        <time>2018-06-13T06:55:29Z</time>
      </trkpt>
      <trkpt lat="45.93026" lon="4.78607">
        <ele>169</ele>
        <time>2018-06-13T06:55:30Z</time>
      </trkpt>
      <trkpt lat="45.93032" lon="4.786">
        <ele>169</ele>
        <time>2018-06-13T06:55:34Z</time>
      </trkpt>
      <trkpt lat="45.93034" lon="4.78598">
        <ele>169</ele>
        <time>2018-06-13T06:55:35Z</time>
      </trkpt>
      <trkpt lat="45.93039" lon="4.78591">
        <ele>169</ele>
        <time>2018-06-13T06:55:37Z</time>
      </trkpt>
      <trkpt lat="45.93041" lon="4.78588">
        <ele>169</ele>
        <time>2018-06-13T06:55:38Z</time>
      </trkpt>
      <trkpt lat="45.93048" lon="4.78583">
        <ele>168</ele>
        <time>2018-06-13T06:55:40Z</time>
      </trkpt>
      <trkpt lat="45.93051" lon="4.78581">
        <ele>168</ele>
        <time>2018-06-13T06:55:41Z</time>
      </trkpt>
      <trkpt lat="45.93055" lon="4.7858">
        <ele>168</ele>
        <time>2018-06-13T06:55:42Z</time>
      </trkpt>
      <trkpt lat="45.93064" lon="4.78576">
        <ele>168</ele>
        <time>2018-06-13T06:55:43Z</time>
      </trkpt>
      <trkpt lat="45.9307" lon="4.78572">
        <ele>168</ele>
        <time>2018-06-13T06:55:46Z</time>
      </trkpt>
      <trkpt lat="45.93073" lon="4.7857">
        <ele>168</ele>
        <time>2018-06-13T06:55:47Z</time>
      </trkpt>
      <trkpt lat="45.93075" lon="4.78569">
        <ele>168</ele>
        <time>2018-06-13T06:55:48Z</time>
      </trkpt>
      <trkpt lat="45.93084" lon="4.78563">
        <ele>168</ele>
        <time>2018-06-13T06:55:49Z</time>
      </trkpt>
      <trkpt lat="45.9309" lon="4.78558">
        <ele>167</ele>
        <time>2018-06-13T06:55:51Z</time>
      </trkpt>
      <trkpt lat="45.93092" lon="4.78556">
        <ele>167</ele>
        <time>2018-06-13T06:55:52Z</time>
      </trkpt>
      <trkpt lat="45.93094" lon="4.78555">
        <ele>167</ele>
        <time>2018-06-13T06:55:53Z</time>
      </trkpt>
      <trkpt lat="45.93102" lon="4.7855">
        <ele>167</ele>
        <time>2018-06-13T06:55:54Z</time>
      </trkpt>
      <trkpt lat="45.93109" lon="4.78544">
        <ele>167</ele>
        <time>2018-06-13T06:55:56Z</time>
      </trkpt>
      <trkpt lat="45.93113" lon="4.78541">
        <ele>167</ele>
        <time>2018-06-13T06:55:57Z</time>
      </trkpt>
      <trkpt lat="45.9312" lon="4.78537">
        <ele>167</ele>
        <time>2018-06-13T06:55:59Z</time>
      </trkpt>
      <trkpt lat="45.93122" lon="4.78535">
        <ele>167</ele>
        <time>2018-06-13T06:56:00Z</time>
      </trkpt>
      <trkpt lat="45.93127" lon="4.78532">
        <ele>167</ele>
        <time>2018-06-13T06:56:02Z</time>
      </trkpt>
      <trkpt lat="45.9313" lon="4.78529">
        <ele>167</ele>
        <time>2018-06-13T06:56:03Z</time>
      </trkpt>
      <trkpt lat="45.93135" lon="4.78525">
        <ele>167</ele>
        <time>2018-06-13T06:56:05Z</time>
      </trkpt>
      <trkpt lat="45.93138" lon="4.78523">
        <ele>167</ele>
        <time>2018-06-13T06:56:06Z</time>
      </trkpt>
      <trkpt lat="45.93144" lon="4.78518">
        <ele>167</ele>
        <time>2018-06-13T06:56:08Z</time>
      </trkpt>
      <trkpt lat="45.93146" lon="4.78516">
        <ele>167</ele>
        <time>2018-06-13T06:56:09Z</time>
      </trkpt>
      <trkpt lat="45.93152" lon="4.78509">
        <ele>167</ele>
        <time>2018-06-13T06:56:12Z</time>
      </trkpt>
      <trkpt lat="45.93159" lon="4.78502">
        <ele>167</ele>
        <time>2018-06-13T06:56:13Z</time>
      </trkpt>
      <trkpt lat="45.93163" lon="4.78498">
        <ele>167</ele>
        <time>2018-06-13T06:56:14Z</time>
      </trkpt>
      <trkpt lat="45.93167" lon="4.78496">
        <ele>167</ele>
        <time>2018-06-13T06:56:15Z</time>
      </trkpt>
      <trkpt lat="45.93173" lon="4.78491">
        <ele>167</ele>
        <time>2018-06-13T06:56:17Z</time>
      </trkpt>
      <trkpt lat="45.93176" lon="4.78489">
        <ele>167</ele>
        <time>2018-06-13T06:56:18Z</time>
      </trkpt>
      <trkpt lat="45.93181" lon="4.78485">
        <ele>168</ele>
        <time>2018-06-13T06:56:21Z</time>
      </trkpt>
      <trkpt lat="45.93191" lon="4.78477">
        <ele>168</ele>
        <time>2018-06-13T06:56:22Z</time>
      </trkpt>
      <trkpt lat="45.93196" lon="4.78471">
        <ele>168</ele>
        <time>2018-06-13T06:56:24Z</time>
      </trkpt>
      <trkpt lat="45.93201" lon="4.78467">
        <ele>168</ele>
        <time>2018-06-13T06:56:25Z</time>
      </trkpt>
      <trkpt lat="45.93205" lon="4.78464">
        <ele>168</ele>
        <time>2018-06-13T06:56:26Z</time>
      </trkpt>
      <trkpt lat="45.93209" lon="4.78461">
        <ele>168</ele>
        <time>2018-06-13T06:56:27Z</time>
      </trkpt>
      <trkpt lat="45.93214" lon="4.78459">
        <ele>168</ele>
        <time>2018-06-13T06:56:28Z</time>
      </trkpt>
      <trkpt lat="45.93218" lon="4.78457">
        <ele>168</ele>
        <time>2018-06-13T06:56:29Z</time>
      </trkpt>
      <trkpt lat="45.93222" lon="4.78454">
        <ele>168</ele>
        <time>2018-06-13T06:56:30Z</time>
      </trkpt>
      <trkpt lat="45.93227" lon="4.78452">
        <ele>168</ele>
        <time>2018-06-13T06:56:31Z</time>
      </trkpt>
      <trkpt lat="45.93233" lon="4.78448">
        <ele>168</ele>
        <time>2018-06-13T06:56:33Z</time>
      </trkpt>
      <trkpt lat="45.93235" lon="4.78447">
        <ele>169</ele>
        <time>2018-06-13T06:56:34Z</time>
      </trkpt>
      <trkpt lat="45.93242" lon="4.78444">
        <ele>169</ele>
        <time>2018-06-13T06:56:36Z</time>
      </trkpt>
      <trkpt lat="45.93244" lon="4.78442">
        <ele>169</ele>
        <time>2018-06-13T06:56:37Z</time>
      </trkpt>
      <trkpt lat="45.9325" lon="4.78439">
        <ele>169</ele>
        <time>2018-06-13T06:56:39Z</time>
      </trkpt>
      <trkpt lat="45.93253" lon="4.78437">
        <ele>170</ele>
        <time>2018-06-13T06:56:40Z</time>
      </trkpt>
      <trkpt lat="45.93259" lon="4.78433">
        <ele>170</ele>
        <time>2018-06-13T06:56:42Z</time>
      </trkpt>
      <trkpt lat="45.93262" lon="4.78431">
        <ele>170</ele>
        <time>2018-06-13T06:56:43Z</time>
      </trkpt>
      <trkpt lat="45.93265" lon="4.78429">
        <ele>170</ele>
        <time>2018-06-13T06:56:44Z</time>
      </trkpt>
      <trkpt lat="45.93275" lon="4.78423">
        <ele>170</ele>
        <time>2018-06-13T06:56:45Z</time>
      </trkpt>
      <trkpt lat="45.93282" lon="4.78419">
        <ele>170</ele>
        <time>2018-06-13T06:56:47Z</time>
      </trkpt>
      <trkpt lat="45.93286" lon="4.78417">
        <ele>170</ele>
        <time>2018-06-13T06:56:48Z</time>
      </trkpt>
      <trkpt lat="45.93291" lon="4.78414">
        <ele>169</ele>
        <time>2018-06-13T06:56:50Z</time>
      </trkpt>
      <trkpt lat="45.93296" lon="4.78411">
        <ele>169</ele>
        <time>2018-06-13T06:56:51Z</time>
      </trkpt>
      <trkpt lat="45.93301" lon="4.78407">
        <ele>169</ele>
        <time>2018-06-13T06:56:53Z</time>
      </trkpt>
      <trkpt lat="45.93305" lon="4.78404">
        <ele>169</ele>
        <time>2018-06-13T06:56:54Z</time>
      </trkpt>
      <trkpt lat="45.93312" lon="4.78402">
        <ele>169</ele>
        <time>2018-06-13T06:56:56Z</time>
      </trkpt>
      <trkpt lat="45.93315" lon="4.78399">
        <ele>169</ele>
        <time>2018-06-13T06:56:57Z</time>
      </trkpt>
      <trkpt lat="45.9332" lon="4.78394">
        <ele>169</ele>
        <time>2018-06-13T06:56:59Z</time>
      </trkpt>
      <trkpt lat="45.93323" lon="4.78392">
        <ele>169</ele>
        <time>2018-06-13T06:57:00Z</time>
      </trkpt>
      <trkpt lat="45.9333" lon="4.78387">
        <ele>169</ele>
        <time>2018-06-13T06:57:03Z</time>
      </trkpt>
      <trkpt lat="45.93333" lon="4.78385">
        <ele>169</ele>
        <time>2018-06-13T06:57:04Z</time>
      </trkpt>
      <trkpt lat="45.93336" lon="4.78383">
        <ele>170</ele>
        <time>2018-06-13T06:57:05Z</time>
      </trkpt>
      <trkpt lat="45.93344" lon="4.78377">
        <ele>170</ele>
        <time>2018-06-13T06:57:06Z</time>
      </trkpt>
      <trkpt lat="45.93351" lon="4.78372">
        <ele>170</ele>
        <time>2018-06-13T06:57:08Z</time>
      </trkpt>
      <trkpt lat="45.93355" lon="4.78369">
        <ele>170</ele>
        <time>2018-06-13T06:57:09Z</time>
      </trkpt>
      <trkpt lat="45.93363" lon="4.78364">
        <ele>171</ele>
        <time>2018-06-13T06:57:11Z</time>
      </trkpt>
      <trkpt lat="45.93367" lon="4.78361">
        <ele>171</ele>
        <time>2018-06-13T06:57:12Z</time>
      </trkpt>
      <trkpt lat="45.93371" lon="4.78358">
        <ele>171</ele>
        <time>2018-06-13T06:57:13Z</time>
      </trkpt>
      <trkpt lat="45.93375" lon="4.78355">
        <ele>171</ele>
        <time>2018-06-13T06:57:14Z</time>
      </trkpt>
      <trkpt lat="45.93382" lon="4.78352">
        <ele>171</ele>
        <time>2018-06-13T06:57:15Z</time>
      </trkpt>
      <trkpt lat="45.93387" lon="4.78349">
        <ele>171</ele>
        <time>2018-06-13T06:57:16Z</time>
      </trkpt>
      <trkpt lat="45.93394" lon="4.78344">
        <ele>171</ele>
        <time>2018-06-13T06:57:18Z</time>
      </trkpt>
      <trkpt lat="45.93397" lon="4.78341">
        <ele>171</ele>
        <time>2018-06-13T06:57:19Z</time>
      </trkpt>
      <trkpt lat="45.934" lon="4.78339">
        <ele>171</ele>
        <time>2018-06-13T06:57:21Z</time>
      </trkpt>
      <trkpt lat="45.93406" lon="4.78334">
        <ele>172</ele>
        <time>2018-06-13T06:57:22Z</time>
      </trkpt>
      <trkpt lat="45.93414" lon="4.78331">
        <ele>172</ele>
        <time>2018-06-13T06:57:24Z</time>
      </trkpt>
      <trkpt lat="45.93417" lon="4.78328">
        <ele>171</ele>
        <time>2018-06-13T06:57:25Z</time>
      </trkpt>
      <trkpt lat="45.93424" lon="4.78323">
        <ele>172</ele>
        <time>2018-06-13T06:57:27Z</time>
      </trkpt>
      <trkpt lat="45.93427" lon="4.78321">
        <ele>172</ele>
        <time>2018-06-13T06:57:28Z</time>
      </trkpt>
      <trkpt lat="45.93435" lon="4.78316">
        <ele>172</ele>
        <time>2018-06-13T06:57:30Z</time>
      </trkpt>
      <trkpt lat="45.93439" lon="4.78314">
        <ele>172</ele>
        <time>2018-06-13T06:57:31Z</time>
      </trkpt>
      <trkpt lat="45.93446" lon="4.78309">
        <ele>172</ele>
        <time>2018-06-13T06:57:34Z</time>
      </trkpt>
      <trkpt lat="45.93448" lon="4.78307">
        <ele>172</ele>
        <time>2018-06-13T06:57:35Z</time>
      </trkpt>
      <trkpt lat="45.93453" lon="4.78302">
        <ele>172</ele>
        <time>2018-06-13T06:57:38Z</time>
      </trkpt>
      <trkpt lat="45.93455" lon="4.78299">
        <ele>172</ele>
        <time>2018-06-13T06:57:39Z</time>
      </trkpt>
      <trkpt lat="45.93462" lon="4.78292">
        <ele>172</ele>
        <time>2018-06-13T06:57:40Z</time>
      </trkpt>
      <trkpt lat="45.93465" lon="4.7829">
        <ele>172</ele>
        <time>2018-06-13T06:57:41Z</time>
      </trkpt>
      <trkpt lat="45.93472" lon="4.78285">
        <ele>172</ele>
        <time>2018-06-13T06:57:44Z</time>
      </trkpt>
      <trkpt lat="45.93474" lon="4.78283">
        <ele>172</ele>
        <time>2018-06-13T06:57:45Z</time>
      </trkpt>
      <trkpt lat="45.93481" lon="4.78276">
        <ele>172</ele>
        <time>2018-06-13T06:57:48Z</time>
      </trkpt>
      <trkpt lat="45.93489" lon="4.78268">
        <ele>172</ele>
        <time>2018-06-13T06:57:49Z</time>
      </trkpt>
      <trkpt lat="45.93494" lon="4.78261">
        <ele>172</ele>
        <time>2018-06-13T06:57:52Z</time>
      </trkpt>
      <trkpt lat="45.935" lon="4.78255">
        <ele>173</ele>
        <time>2018-06-13T06:57:53Z</time>
      </trkpt>
      <trkpt lat="45.93509" lon="4.7825">
        <ele>173</ele>
        <time>2018-06-13T06:57:55Z</time>
      </trkpt>
      <trkpt lat="45.9351" lon="4.78248">
        <ele>172</ele>
        <time>2018-06-13T06:57:56Z</time>
      </trkpt>
      <trkpt lat="45.93515" lon="4.78242">
        <ele>172</ele>
        <time>2018-06-13T06:57:59Z</time>
      </trkpt>
      <trkpt lat="45.93521" lon="4.78234">
        <ele>171</ele>
        <time>2018-06-13T06:58:00Z</time>
      </trkpt>
      <trkpt lat="45.93524" lon="4.78231">
        <ele>171</ele>
        <time>2018-06-13T06:58:02Z</time>
      </trkpt>
      <trkpt lat="45.93531" lon="4.78225">
        <ele>171</ele>
        <time>2018-06-13T06:58:03Z</time>
      </trkpt>
      <trkpt lat="45.93536" lon="4.78219">
        <ele>171</ele>
        <time>2018-06-13T06:58:05Z</time>
      </trkpt>
      <trkpt lat="45.93539" lon="4.78216">
        <ele>171</ele>
        <time>2018-06-13T06:58:06Z</time>
      </trkpt>
      <trkpt lat="45.93544" lon="4.78212">
        <ele>171</ele>
        <time>2018-06-13T06:58:08Z</time>
      </trkpt>
      <trkpt lat="45.93549" lon="4.78208">
        <ele>171</ele>
        <time>2018-06-13T06:58:09Z</time>
      </trkpt>
      <trkpt lat="45.93557" lon="4.78204">
        <ele>171</ele>
        <time>2018-06-13T06:58:11Z</time>
      </trkpt>
      <trkpt lat="45.93559" lon="4.78203">
        <ele>171</ele>
        <time>2018-06-13T06:58:12Z</time>
      </trkpt>
      <trkpt lat="45.93567" lon="4.78199">
        <ele>171</ele>
        <time>2018-06-13T06:58:15Z</time>
      </trkpt>
      <trkpt lat="45.93569" lon="4.78198">
        <ele>171</ele>
        <time>2018-06-13T06:58:16Z</time>
      </trkpt>
      <trkpt lat="45.93575" lon="4.78196">
        <ele>171</ele>
        <time>2018-06-13T06:58:18Z</time>
      </trkpt>
      <trkpt lat="45.93584" lon="4.78192">
        <ele>172</ele>
        <time>2018-06-13T06:58:19Z</time>
      </trkpt>
      <trkpt lat="45.93592" lon="4.78188">
        <ele>172</ele>
        <time>2018-06-13T06:58:21Z</time>
      </trkpt>
      <trkpt lat="45.93595" lon="4.78185">
        <ele>172</ele>
        <time>2018-06-13T06:58:22Z</time>
      </trkpt>
      <trkpt lat="45.93602" lon="4.78181">
        <ele>172</ele>
        <time>2018-06-13T06:58:25Z</time>
      </trkpt>
      <trkpt lat="45.93604" lon="4.78179">
        <ele>172</ele>
        <time>2018-06-13T06:58:26Z</time>
      </trkpt>
      <trkpt lat="45.93611" lon="4.78174">
        <ele>173</ele>
        <time>2018-06-13T06:58:27Z</time>
      </trkpt>
      <trkpt lat="45.93613" lon="4.78173">
        <ele>173</ele>
        <time>2018-06-13T06:58:28Z</time>
      </trkpt>
      <trkpt lat="45.93621" lon="4.78169">
        <ele>173</ele>
        <time>2018-06-13T06:58:31Z</time>
      </trkpt>
      <trkpt lat="45.93623" lon="4.78167">
        <ele>173</ele>
        <time>2018-06-13T06:58:32Z</time>
      </trkpt>
      <trkpt lat="45.93629" lon="4.78164">
        <ele>170</ele>
        <time>2018-06-13T06:58:34Z</time>
      </trkpt>
      <trkpt lat="45.93637" lon="4.7816">
        <ele>171</ele>
        <time>2018-06-13T06:58:35Z</time>
      </trkpt>
      <trkpt lat="45.93645" lon="4.78157">
        <ele>171</ele>
        <time>2018-06-13T06:58:37Z</time>
      </trkpt>
      <trkpt lat="45.93648" lon="4.78156">
        <ele>171</ele>
        <time>2018-06-13T06:58:38Z</time>
      </trkpt>
      <trkpt lat="45.93655" lon="4.78152">
        <ele>171</ele>
        <time>2018-06-13T06:58:40Z</time>
      </trkpt>
      <trkpt lat="45.93657" lon="4.78151">
        <ele>171</ele>
        <time>2018-06-13T06:58:41Z</time>
      </trkpt>
      <trkpt lat="45.93665" lon="4.78148">
        <ele>171</ele>
        <time>2018-06-13T06:58:43Z</time>
      </trkpt>
      <trkpt lat="45.93669" lon="4.78145">
        <ele>173</ele>
        <time>2018-06-13T06:58:44Z</time>
      </trkpt>
      <trkpt lat="45.93676" lon="4.78138">
        <ele>173</ele>
        <time>2018-06-13T06:58:46Z</time>
      </trkpt>
      <trkpt lat="45.9368" lon="4.78134">
        <ele>173</ele>
        <time>2018-06-13T06:58:47Z</time>
      </trkpt>
      <trkpt lat="45.93687" lon="4.78129">
        <ele>173</ele>
        <time>2018-06-13T06:58:50Z</time>
      </trkpt>
      <trkpt lat="45.93689" lon="4.78127">
        <ele>173</ele>
        <time>2018-06-13T06:58:51Z</time>
      </trkpt>
      <trkpt lat="45.93696" lon="4.78121">
        <ele>173</ele>
        <time>2018-06-13T06:58:54Z</time>
      </trkpt>
      <trkpt lat="45.93698" lon="4.78119">
        <ele>173</ele>
        <time>2018-06-13T06:58:55Z</time>
      </trkpt>
      <trkpt lat="45.93703" lon="4.78114">
        <ele>173</ele>
        <time>2018-06-13T06:58:57Z</time>
      </trkpt>
      <trkpt lat="45.9371" lon="4.78106">
        <ele>173</ele>
        <time>2018-06-13T06:58:58Z</time>
      </trkpt>
      <trkpt lat="45.93716" lon="4.78098">
        <ele>173</ele>
        <time>2018-06-13T06:59:00Z</time>
      </trkpt>
      <trkpt lat="45.93719" lon="4.78095">
        <ele>173</ele>
        <time>2018-06-13T06:59:01Z</time>
      </trkpt>
      <trkpt lat="45.93726" lon="4.78087">
        <ele>173</ele>
        <time>2018-06-13T06:59:03Z</time>
      </trkpt>
      <trkpt lat="45.93729" lon="4.78084">
        <ele>174</ele>
        <time>2018-06-13T06:59:04Z</time>
      </trkpt>
      <trkpt lat="45.93736" lon="4.78076">
        <ele>172</ele>
        <time>2018-06-13T06:59:06Z</time>
      </trkpt>
      <trkpt lat="45.93737" lon="4.78074">
        <ele>172</ele>
        <time>2018-06-13T06:59:07Z</time>
      </trkpt>
      <trkpt lat="45.93739" lon="4.78072">
        <ele>172</ele>
        <time>2018-06-13T06:59:08Z</time>
      </trkpt>
      <trkpt lat="45.93743" lon="4.78065">
        <ele>171</ele>
        <time>2018-06-13T06:59:09Z</time>
      </trkpt>
      <trkpt lat="45.93749" lon="4.78058">
        <ele>171</ele>
        <time>2018-06-13T06:59:11Z</time>
      </trkpt>
      <trkpt lat="45.93753" lon="4.78054">
        <ele>174</ele>
        <time>2018-06-13T06:59:12Z</time>
      </trkpt>
      <trkpt lat="45.93759" lon="4.78047">
        <ele>174</ele>
        <time>2018-06-13T06:59:14Z</time>
      </trkpt>
      <trkpt lat="45.9376" lon="4.78044">
        <ele>174</ele>
        <time>2018-06-13T06:59:15Z</time>
      </trkpt>
      <trkpt lat="45.93763" lon="4.78039">
        <ele>173</ele>
        <time>2018-06-13T06:59:17Z</time>
      </trkpt>
      <trkpt lat="45.93767" lon="4.7803">
        <ele>173</ele>
        <time>2018-06-13T06:59:18Z</time>
      </trkpt>
      <trkpt lat="45.93772" lon="4.78021">
        <ele>173</ele>
        <time>2018-06-13T06:59:20Z</time>
      </trkpt>
      <trkpt lat="45.93774" lon="4.78016">
        <ele>172</ele>
        <time>2018-06-13T06:59:21Z</time>
      </trkpt>
      <trkpt lat="45.93781" lon="4.78009">
        <ele>173</ele>
        <time>2018-06-13T06:59:23Z</time>
      </trkpt>
      <trkpt lat="45.93785" lon="4.78006">
        <ele>173</ele>
        <time>2018-06-13T06:59:24Z</time>
      </trkpt>
      <trkpt lat="45.9379" lon="4.78001">
        <ele>174</ele>
        <time>2018-06-13T06:59:27Z</time>
      </trkpt>
      <trkpt lat="45.93793" lon="4.77999">
        <ele>171</ele>
        <time>2018-06-13T06:59:28Z</time>
      </trkpt>
      <trkpt lat="45.93799" lon="4.77992">
        <ele>171</ele>
        <time>2018-06-13T06:59:29Z</time>
      </trkpt>
      <trkpt lat="45.93802" lon="4.77989">
        <ele>171</ele>
        <time>2018-06-13T06:59:30Z</time>
      </trkpt>
      <trkpt lat="45.93808" lon="4.77982">
        <ele>172</ele>
        <time>2018-06-13T06:59:32Z</time>
      </trkpt>
      <trkpt lat="45.93811" lon="4.77979">
        <ele>172</ele>
        <time>2018-06-13T06:59:33Z</time>
      </trkpt>
      <trkpt lat="45.93818" lon="4.77972">
        <ele>171</ele>
        <time>2018-06-13T06:59:35Z</time>
      </trkpt>
      <trkpt lat="45.93821" lon="4.77968">
        <ele>171</ele>
        <time>2018-06-13T06:59:36Z</time>
      </trkpt>
      <trkpt lat="45.93827" lon="4.7796">
        <ele>171</ele>
        <time>2018-06-13T06:59:38Z</time>
      </trkpt>
      <trkpt lat="45.93828" lon="4.77958">
        <ele>170</ele>
        <time>2018-06-13T06:59:39Z</time>
      </trkpt>
      <trkpt lat="45.93833" lon="4.7795">
        <ele>170</ele>
        <time>2018-06-13T06:59:42Z</time>
      </trkpt>
      <trkpt lat="45.93837" lon="4.77941">
        <ele>174</ele>
        <time>2018-06-13T06:59:43Z</time>
      </trkpt>
      <trkpt lat="45.93842" lon="4.77933">
        <ele>173</ele>
        <time>2018-06-13T06:59:45Z</time>
      </trkpt>
      <trkpt lat="45.93844" lon="4.77929">
        <ele>172</ele>
        <time>2018-06-13T06:59:46Z</time>
      </trkpt>
      <trkpt lat="45.93849" lon="4.77919">
        <ele>172</ele>
        <time>2018-06-13T06:59:48Z</time>
      </trkpt>
      <trkpt lat="45.93852" lon="4.77915">
        <ele>170</ele>
        <time>2018-06-13T06:59:49Z</time>
      </trkpt>
      <trkpt lat="45.93858" lon="4.77906">
        <ele>172</ele>
        <time>2018-06-13T06:59:53Z</time>
      </trkpt>
      <trkpt lat="45.9386" lon="4.77903">
        <ele>172</ele>
        <time>2018-06-13T06:59:54Z</time>
      </trkpt>
      <trkpt lat="45.93865" lon="4.77894">
        <ele>173</ele>
        <time>2018-06-13T06:59:57Z</time>
      </trkpt>
      <trkpt lat="45.93867" lon="4.77892">
        <ele>173</ele>
        <time>2018-06-13T06:59:58Z</time>
      </trkpt>
      <trkpt lat="45.93872" lon="4.77884">
        <ele>173</ele>
        <time>2018-06-13T07:00:01Z</time>
      </trkpt>
      <trkpt lat="45.93873" lon="4.77881">
        <ele>173</ele>
        <time>2018-06-13T07:00:02Z</time>
      </trkpt>
      <trkpt lat="45.93879" lon="4.77872">
        <ele>174</ele>
        <time>2018-06-13T07:00:05Z</time>
      </trkpt>
      <trkpt lat="45.93881" lon="4.7787">
        <ele>174</ele>
        <time>2018-06-13T07:00:06Z</time>
      </trkpt>
      <trkpt lat="45.93886" lon="4.77863">
        <ele>174</ele>
        <time>2018-06-13T07:00:09Z</time>
      </trkpt>
      <trkpt lat="45.93887" lon="4.77861">
        <ele>174</ele>
        <time>2018-06-13T07:00:10Z</time>
      </trkpt>
      <trkpt lat="45.93891" lon="4.77854">
        <ele>175</ele>
        <time>2018-06-13T07:00:12Z</time>
      </trkpt>
      <trkpt lat="45.93896" lon="4.77843">
        <ele>175</ele>
        <time>2018-06-13T07:00:13Z</time>
      </trkpt>
      <trkpt lat="45.93897" lon="4.77837">
        <ele>175</ele>
        <time>2018-06-13T07:00:15Z</time>
      </trkpt>
      <trkpt lat="45.93899" lon="4.77829">
        <ele>173</ele>
        <time>2018-06-13T07:00:16Z</time>
      </trkpt>
      <trkpt lat="45.93902" lon="4.77819">
        <ele>173</ele>
        <time>2018-06-13T07:00:18Z</time>
      </trkpt>
      <trkpt lat="45.93904" lon="4.77815">
        <ele>172</ele>
        <time>2018-06-13T07:00:19Z</time>
      </trkpt>
      <trkpt lat="45.93907" lon="4.77804">
        <ele>171</ele>
        <time>2018-06-13T07:00:22Z</time>
      </trkpt>
      <trkpt lat="45.93908" lon="4.77802">
        <ele>171</ele>
        <time>2018-06-13T07:00:23Z</time>
      </trkpt>
      <trkpt lat="45.93912" lon="4.7779">
        <ele>170</ele>
        <time>2018-06-13T07:00:25Z</time>
      </trkpt>
      <trkpt lat="45.93915" lon="4.77783">
        <ele>169</ele>
        <time>2018-06-13T07:00:26Z</time>
      </trkpt>
      <trkpt lat="45.93919" lon="4.77773">
        <ele>176</ele>
        <time>2018-06-13T07:00:28Z</time>
      </trkpt>
      <trkpt lat="45.9392" lon="4.77771">
        <ele>175</ele>
        <time>2018-06-13T07:00:29Z</time>
      </trkpt>
      <trkpt lat="45.93924" lon="4.77762">
        <ele>173</ele>
        <time>2018-06-13T07:00:31Z</time>
      </trkpt>
      <trkpt lat="45.93925" lon="4.77759">
        <ele>172</ele>
        <time>2018-06-13T07:00:32Z</time>
      </trkpt>
      <trkpt lat="45.9393" lon="4.77748">
        <ele>171</ele>
        <time>2018-06-13T07:00:35Z</time>
      </trkpt>
      <trkpt lat="45.93934" lon="4.77738">
        <ele>173</ele>
        <time>2018-06-13T07:00:36Z</time>
      </trkpt>
      <trkpt lat="45.93938" lon="4.77729">
        <ele>175</ele>
        <time>2018-06-13T07:00:38Z</time>
      </trkpt>
      <trkpt lat="45.9394" lon="4.77724">
        <ele>175</ele>
        <time>2018-06-13T07:00:39Z</time>
      </trkpt>
      <trkpt lat="45.93944" lon="4.77714">
        <ele>176</ele>
        <time>2018-06-13T07:00:41Z</time>
      </trkpt>
      <trkpt lat="45.93946" lon="4.77709">
        <ele>176</ele>
        <time>2018-06-13T07:00:42Z</time>
      </trkpt>
      <trkpt lat="45.93949" lon="4.777">
        <ele>177</ele>
        <time>2018-06-13T07:00:44Z</time>
      </trkpt>
      <trkpt lat="45.9395" lon="4.77697">
        <ele>177</ele>
        <time>2018-06-13T07:00:45Z</time>
      </trkpt>
      <trkpt lat="45.93953" lon="4.77688">
        <ele>177</ele>
        <time>2018-06-13T07:00:48Z</time>
      </trkpt>
      <trkpt lat="45.93956" lon="4.77679">
        <ele>177</ele>
        <time>2018-06-13T07:00:49Z</time>
      </trkpt>
      <trkpt lat="45.9396" lon="4.77668">
        <ele>178</ele>
        <time>2018-06-13T07:00:51Z</time>
      </trkpt>
      <trkpt lat="45.93961" lon="4.77663">
        <ele>178</ele>
        <time>2018-06-13T07:00:52Z</time>
      </trkpt>
      <trkpt lat="45.93964" lon="4.77652">
        <ele>178</ele>
        <time>2018-06-13T07:00:54Z</time>
      </trkpt>
      <trkpt lat="45.93966" lon="4.77647">
        <ele>178</ele>
        <time>2018-06-13T07:00:55Z</time>
      </trkpt>
      <trkpt lat="45.93969" lon="4.77636">
        <ele>179</ele>
        <time>2018-06-13T07:00:57Z</time>
      </trkpt>
      <trkpt lat="45.9397" lon="4.77631">
        <ele>179</ele>
        <time>2018-06-13T07:00:58Z</time>
      </trkpt>
      <trkpt lat="45.93973" lon="4.7762">
        <ele>179</ele>
        <time>2018-06-13T07:01:00Z</time>
      </trkpt>
      <trkpt lat="45.93974" lon="4.77615">
        <ele>179</ele>
        <time>2018-06-13T07:01:01Z</time>
      </trkpt>
      <trkpt lat="45.93976" lon="4.77603">
        <ele>180</ele>
        <time>2018-06-13T07:01:04Z</time>
      </trkpt>
      <trkpt lat="45.93977" lon="4.776">
        <ele>180</ele>
        <time>2018-06-13T07:01:05Z</time>
      </trkpt>
      <trkpt lat="45.93977" lon="4.77596">
        <ele>180</ele>
        <time>2018-06-13T07:01:06Z</time>
      </trkpt>
      <trkpt lat="45.93979" lon="4.77586">
        <ele>181</ele>
        <time>2018-06-13T07:01:07Z</time>
      </trkpt>
      <trkpt lat="45.93981" lon="4.77575">
        <ele>180</ele>
        <time>2018-06-13T07:01:09Z</time>
      </trkpt>
      <trkpt lat="45.93981" lon="4.77569">
        <ele>180</ele>
        <time>2018-06-13T07:01:10Z</time>
      </trkpt>
      <trkpt lat="45.93983" lon="4.77559">
        <ele>179</ele>
        <time>2018-06-13T07:01:13Z</time>
      </trkpt>
      <trkpt lat="45.93984" lon="4.77556">
        <ele>179</ele>
        <time>2018-06-13T07:01:14Z</time>
      </trkpt>
      <trkpt lat="45.93985" lon="4.77546">
        <ele>178</ele>
        <time>2018-06-13T07:01:15Z</time>
      </trkpt>
      <trkpt lat="45.93986" lon="4.77543">
        <ele>178</ele>
        <time>2018-06-13T07:01:16Z</time>
      </trkpt>
      <trkpt lat="45.93987" lon="4.77535">
        <ele>178</ele>
        <time>2018-06-13T07:01:17Z</time>
      </trkpt>
      <trkpt lat="45.93988" lon="4.7753">
        <ele>178</ele>
        <time>2018-06-13T07:01:18Z</time>
      </trkpt>
      <trkpt lat="45.9399" lon="4.77519">
        <ele>179</ele>
        <time>2018-06-13T07:01:20Z</time>
      </trkpt>
      <trkpt lat="45.93991" lon="4.77513">
        <ele>180</ele>
        <time>2018-06-13T07:01:21Z</time>
      </trkpt>
      <trkpt lat="45.93993" lon="4.77502">
        <ele>181</ele>
        <time>2018-06-13T07:01:23Z</time>
      </trkpt>
      <trkpt lat="45.93994" lon="4.77497">
        <ele>180</ele>
        <time>2018-06-13T07:01:24Z</time>
      </trkpt>
      <trkpt lat="45.93996" lon="4.77487">
        <ele>179</ele>
        <time>2018-06-13T07:01:27Z</time>
      </trkpt>
      <trkpt lat="45.93997" lon="4.77483">
        <ele>178</ele>
        <time>2018-06-13T07:01:28Z</time>
      </trkpt>
      <trkpt lat="45.93999" lon="4.77471">
        <ele>176</ele>
        <time>2018-06-13T07:01:29Z</time>
      </trkpt>
      <trkpt lat="45.94" lon="4.77466">
        <ele>176</ele>
        <time>2018-06-13T07:01:30Z</time>
      </trkpt>
      <trkpt lat="45.94001" lon="4.77459">
        <ele>185</ele>
        <time>2018-06-13T07:01:31Z</time>
      </trkpt>
      <trkpt lat="45.94002" lon="4.77453">
        <ele>184</ele>
        <time>2018-06-13T07:01:32Z</time>
      </trkpt>
      <trkpt lat="45.94004" lon="4.77441">
        <ele>183</ele>
        <time>2018-06-13T07:01:35Z</time>
      </trkpt>
      <trkpt lat="45.94005" lon="4.77437">
        <ele>182</ele>
        <time>2018-06-13T07:01:36Z</time>
      </trkpt>
      <trkpt lat="45.94005" lon="4.77428">
        <ele>181</ele>
        <time>2018-06-13T07:01:38Z</time>
      </trkpt>
      <trkpt lat="45.94006" lon="4.77423">
        <ele>180</ele>
        <time>2018-06-13T07:01:39Z</time>
      </trkpt>
      <trkpt lat="45.94007" lon="4.77418">
        <ele>179</ele>
        <time>2018-06-13T07:01:40Z</time>
      </trkpt>
      <trkpt lat="45.94008" lon="4.77406">
        <ele>178</ele>
        <time>2018-06-13T07:01:41Z</time>
      </trkpt>
      <trkpt lat="45.94009" lon="4.77396">
        <ele>179</ele>
        <time>2018-06-13T07:01:43Z</time>
      </trkpt>
      <trkpt lat="45.94009" lon="4.77391">
        <ele>179</ele>
        <time>2018-06-13T07:01:44Z</time>
      </trkpt>
      <trkpt lat="45.9401" lon="4.7738">
        <ele>179</ele>
        <time>2018-06-13T07:01:48Z</time>
      </trkpt>
      <trkpt lat="45.9401" lon="4.77377">
        <ele>179</ele>
        <time>2018-06-13T07:01:49Z</time>
      </trkpt>
      <trkpt lat="45.94007" lon="4.77367">
        <ele>178</ele>
        <time>2018-06-13T07:01:52Z</time>
      </trkpt>
      <trkpt lat="45.94006" lon="4.77364">
        <ele>178</ele>
        <time>2018-06-13T07:01:53Z</time>
      </trkpt>
      <trkpt lat="45.94003" lon="4.77355">
        <ele>177</ele>
        <time>2018-06-13T07:01:56Z</time>
      </trkpt>
      <trkpt lat="45.94003" lon="4.7735">
        <ele>176</ele>
        <time>2018-06-13T07:01:57Z</time>
      </trkpt>
      <trkpt lat="45.94004" lon="4.77338">
        <ele>174</ele>
        <time>2018-06-13T07:01:58Z</time>
      </trkpt>
      <trkpt lat="45.94005" lon="4.77332">
        <ele>173</ele>
        <time>2018-06-13T07:01:59Z</time>
      </trkpt>
      <trkpt lat="45.94006" lon="4.77322">
        <ele>174</ele>
        <time>2018-06-13T07:02:02Z</time>
      </trkpt>
      <trkpt lat="45.94006" lon="4.77318">
        <ele>174</ele>
        <time>2018-06-13T07:02:03Z</time>
      </trkpt>
      <trkpt lat="45.94008" lon="4.77307">
        <ele>175</ele>
        <time>2018-06-13T07:02:06Z</time>
      </trkpt>
      <trkpt lat="45.94009" lon="4.77304">
        <ele>175</ele>
        <time>2018-06-13T07:02:07Z</time>
      </trkpt>
      <trkpt lat="45.94007" lon="4.77292">
        <ele>175</ele>
        <time>2018-06-13T07:02:11Z</time>
      </trkpt>
      <trkpt lat="45.94007" lon="4.77288">
        <ele>175</ele>
        <time>2018-06-13T07:02:12Z</time>
      </trkpt>
      <trkpt lat="45.94007" lon="4.77279">
        <ele>175</ele>
        <time>2018-06-13T07:02:14Z</time>
      </trkpt>
      <trkpt lat="45.94007" lon="4.77275">
        <ele>174</ele>
        <time>2018-06-13T07:02:15Z</time>
      </trkpt>
      <trkpt lat="45.94007" lon="4.77266">
        <ele>173</ele>
        <time>2018-06-13T07:02:17Z</time>
      </trkpt>
      <trkpt lat="45.94006" lon="4.77262">
        <ele>173</ele>
        <time>2018-06-13T07:02:18Z</time>
      </trkpt>
      <trkpt lat="45.94004" lon="4.7725">
        <ele>171</ele>
        <time>2018-06-13T07:02:21Z</time>
      </trkpt>
      <trkpt lat="45.94004" lon="4.77247">
        <ele>171</ele>
        <time>2018-06-13T07:02:22Z</time>
      </trkpt>
      <trkpt lat="45.94005" lon="4.77235">
        <ele>172</ele>
        <time>2018-06-13T07:02:23Z</time>
      </trkpt>
      <trkpt lat="45.94005" lon="4.77229">
        <ele>173</ele>
        <time>2018-06-13T07:02:24Z</time>
      </trkpt>
      <trkpt lat="45.94007" lon="4.77218">
        <ele>174</ele>
        <time>2018-06-13T07:02:26Z</time>
      </trkpt>
      <trkpt lat="45.94008" lon="4.77213">
        <ele>174</ele>
        <time>2018-06-13T07:02:27Z</time>
      </trkpt>
      <trkpt lat="45.94007" lon="4.77204">
        <ele>174</ele>
        <time>2018-06-13T07:02:30Z</time>
      </trkpt>
      <trkpt lat="45.94006" lon="4.772">
        <ele>174</ele>
        <time>2018-06-13T07:02:31Z</time>
      </trkpt>
      <trkpt lat="45.94003" lon="4.7719">
        <ele>174</ele>
        <time>2018-06-13T07:02:32Z</time>
      </trkpt>
      <trkpt lat="45.94002" lon="4.77185">
        <ele>173</ele>
        <time>2018-06-13T07:02:33Z</time>
      </trkpt>
      <trkpt lat="45.94002" lon="4.77175">
        <ele>173</ele>
        <time>2018-06-13T07:02:35Z</time>
      </trkpt>
      <trkpt lat="45.94002" lon="4.77169">
        <ele>172</ele>
        <time>2018-06-13T07:02:36Z</time>
      </trkpt>
      <trkpt lat="45.94001" lon="4.77157">
        <ele>173</ele>
        <time>2018-06-13T07:02:38Z</time>
      </trkpt>
      <trkpt lat="45.93999" lon="4.77149">
        <ele>171</ele>
        <time>2018-06-13T07:02:39Z</time>
      </trkpt>
      <trkpt lat="45.93997" lon="4.77137">
        <ele>170</ele>
        <time>2018-06-13T07:02:41Z</time>
      </trkpt>
      <trkpt lat="45.93996" lon="4.77131">
        <ele>170</ele>
        <time>2018-06-13T07:02:42Z</time>
      </trkpt>
      <trkpt lat="45.93993" lon="4.7712">
        <ele>170</ele>
        <time>2018-06-13T07:02:44Z</time>
      </trkpt>
      <trkpt lat="45.93992" lon="4.77115">
        <ele>170</ele>
        <time>2018-06-13T07:02:45Z</time>
      </trkpt>
      <trkpt lat="45.9399" lon="4.77103">
        <ele>170</ele>
        <time>2018-06-13T07:02:47Z</time>
      </trkpt>
      <trkpt lat="45.93988" lon="4.77096">
        <ele>170</ele>
        <time>2018-06-13T07:02:48Z</time>
      </trkpt>
      <trkpt lat="45.93986" lon="4.77091">
        <ele>171</ele>
        <time>2018-06-13T07:02:49Z</time>
      </trkpt>
      <trkpt lat="45.93985" lon="4.77083">
        <ele>170</ele>
        <time>2018-06-13T07:02:50Z</time>
      </trkpt>
      <trkpt lat="45.93981" lon="4.77071">
        <ele>170</ele>
        <time>2018-06-13T07:02:52Z</time>
      </trkpt>
      <trkpt lat="45.9398" lon="4.77066">
        <ele>170</ele>
        <time>2018-06-13T07:02:53Z</time>
      </trkpt>
      <trkpt lat="45.93978" lon="4.77056">
        <ele>170</ele>
        <time>2018-06-13T07:02:55Z</time>
      </trkpt>
      <trkpt lat="45.93976" lon="4.77051">
        <ele>169</ele>
        <time>2018-06-13T07:02:56Z</time>
      </trkpt>
      <trkpt lat="45.93973" lon="4.77041">
        <ele>169</ele>
        <time>2018-06-13T07:02:58Z</time>
      </trkpt>
      <trkpt lat="45.93972" lon="4.77035">
        <ele>169</ele>
        <time>2018-06-13T07:02:59Z</time>
      </trkpt>
      <trkpt lat="45.93969" lon="4.77024">
        <ele>169</ele>
        <time>2018-06-13T07:03:01Z</time>
      </trkpt>
      <trkpt lat="45.93967" lon="4.77018">
        <ele>169</ele>
        <time>2018-06-13T07:03:02Z</time>
      </trkpt>
      <trkpt lat="45.93963" lon="4.77007">
        <ele>169</ele>
        <time>2018-06-13T07:03:04Z</time>
      </trkpt>
      <trkpt lat="45.93962" lon="4.77002">
        <ele>169</ele>
        <time>2018-06-13T07:03:05Z</time>
      </trkpt>
      <trkpt lat="45.93959" lon="4.76992">
        <ele>170</ele>
        <time>2018-06-13T07:03:07Z</time>
      </trkpt>
      <trkpt lat="45.93958" lon="4.76988">
        <ele>170</ele>
        <time>2018-06-13T07:03:08Z</time>
      </trkpt>
      <trkpt lat="45.93954" lon="4.76977">
        <ele>170</ele>
        <time>2018-06-13T07:03:10Z</time>
      </trkpt>
      <trkpt lat="45.93952" lon="4.76972">
        <ele>170</ele>
        <time>2018-06-13T07:03:11Z</time>
      </trkpt>
      <trkpt lat="45.93949" lon="4.76962">
        <ele>170</ele>
        <time>2018-06-13T07:03:13Z</time>
      </trkpt>
      <trkpt lat="45.93948" lon="4.7696">
        <ele>170</ele>
        <time>2018-06-13T07:03:14Z</time>
      </trkpt>
      <trkpt lat="45.93945" lon="4.7695">
        <ele>170</ele>
        <time>2018-06-13T07:03:17Z</time>
      </trkpt>
      <trkpt lat="45.93944" lon="4.76946">
        <ele>170</ele>
        <time>2018-06-13T07:03:18Z</time>
      </trkpt>
      <trkpt lat="45.93942" lon="4.76942">
        <ele>171</ele>
        <time>2018-06-13T07:03:19Z</time>
      </trkpt>
      <trkpt lat="45.9394" lon="4.76931">
        <ele>171</ele>
        <time>2018-06-13T07:03:20Z</time>
      </trkpt>
      <trkpt lat="45.93941" lon="4.76919">
        <ele>171</ele>
        <time>2018-06-13T07:03:24Z</time>
      </trkpt>
      <trkpt lat="45.93942" lon="4.76914">
        <ele>172</ele>
        <time>2018-06-13T07:03:25Z</time>
      </trkpt>
      <trkpt lat="45.93943" lon="4.7691">
        <ele>172</ele>
        <time>2018-06-13T07:03:26Z</time>
      </trkpt>
      <trkpt lat="45.93942" lon="4.76897">
        <ele>172</ele>
        <time>2018-06-13T07:03:27Z</time>
      </trkpt>
      <trkpt lat="45.93939" lon="4.76887">
        <ele>172</ele>
        <time>2018-06-13T07:03:29Z</time>
      </trkpt>
      <trkpt lat="45.93936" lon="4.76883">
        <ele>172</ele>
        <time>2018-06-13T07:03:30Z</time>
      </trkpt>
      <trkpt lat="45.93931" lon="4.76874">
        <ele>172</ele>
        <time>2018-06-13T07:03:33Z</time>
      </trkpt>
      <trkpt lat="45.93929" lon="4.76871">
        <ele>172</ele>
        <time>2018-06-13T07:03:34Z</time>
      </trkpt>
      <trkpt lat="45.93927" lon="4.76868">
        <ele>172</ele>
        <time>2018-06-13T07:03:35Z</time>
      </trkpt>
      <trkpt lat="45.93922" lon="4.76861">
        <ele>172</ele>
        <time>2018-06-13T07:03:36Z</time>
      </trkpt>
      <trkpt lat="45.93916" lon="4.76854">
        <ele>171</ele>
        <time>2018-06-13T07:03:38Z</time>
      </trkpt>
      <trkpt lat="45.93915" lon="4.76852">
        <ele>171</ele>
        <time>2018-06-13T07:03:39Z</time>
      </trkpt>
      <trkpt lat="45.93913" lon="4.76849">
        <ele>171</ele>
        <time>2018-06-13T07:03:40Z</time>
      </trkpt>
      <trkpt lat="45.93909" lon="4.76842">
        <ele>172</ele>
        <time>2018-06-13T07:03:41Z</time>
      </trkpt>
      <trkpt lat="45.93903" lon="4.76833">
        <ele>172</ele>
        <time>2018-06-13T07:03:43Z</time>
      </trkpt>
      <trkpt lat="45.93901" lon="4.76828">
        <ele>172</ele>
        <time>2018-06-13T07:03:44Z</time>
      </trkpt>
      <trkpt lat="45.93896" lon="4.76818">
        <ele>171</ele>
        <time>2018-06-13T07:03:46Z</time>
      </trkpt>
      <trkpt lat="45.93894" lon="4.76814">
        <ele>171</ele>
        <time>2018-06-13T07:03:47Z</time>
      </trkpt>
      <trkpt lat="45.93888" lon="4.76805">
        <ele>171</ele>
        <time>2018-06-13T07:03:49Z</time>
      </trkpt>
      <trkpt lat="45.93887" lon="4.76803">
        <ele>171</ele>
        <time>2018-06-13T07:03:50Z</time>
      </trkpt>
      <trkpt lat="45.93881" lon="4.76795">
        <ele>171</ele>
        <time>2018-06-13T07:03:53Z</time>
      </trkpt>
      <trkpt lat="45.93876" lon="4.76788">
        <ele>171</ele>
        <time>2018-06-13T07:03:54Z</time>
      </trkpt>
      <trkpt lat="45.93871" lon="4.7678">
        <ele>171</ele>
        <time>2018-06-13T07:03:56Z</time>
      </trkpt>
      <trkpt lat="45.93869" lon="4.76776">
        <ele>171</ele>
        <time>2018-06-13T07:03:57Z</time>
      </trkpt>
      <trkpt lat="45.93866" lon="4.7677">
        <ele>171</ele>
        <time>2018-06-13T07:03:59Z</time>
      </trkpt>
      <trkpt lat="45.93862" lon="4.76764">
        <ele>171</ele>
        <time>2018-06-13T07:04:00Z</time>
      </trkpt>
      <trkpt lat="45.93857" lon="4.76755">
        <ele>172</ele>
        <time>2018-06-13T07:04:02Z</time>
      </trkpt>
      <trkpt lat="45.93854" lon="4.76751">
        <ele>172</ele>
        <time>2018-06-13T07:04:03Z</time>
      </trkpt>
      <trkpt lat="45.93852" lon="4.76745">
        <ele>173</ele>
        <time>2018-06-13T07:04:04Z</time>
      </trkpt>
      <trkpt lat="45.9385" lon="4.76738">
        <ele>173</ele>
        <time>2018-06-13T07:04:05Z</time>
      </trkpt>
      <trkpt lat="45.93845" lon="4.76728">
        <ele>172</ele>
        <time>2018-06-13T07:04:07Z</time>
      </trkpt>
      <trkpt lat="45.93842" lon="4.76722">
        <ele>172</ele>
        <time>2018-06-13T07:04:08Z</time>
      </trkpt>
      <trkpt lat="45.93836" lon="4.76713">
        <ele>172</ele>
        <time>2018-06-13T07:04:10Z</time>
      </trkpt>
      <trkpt lat="45.93834" lon="4.76709">
        <ele>172</ele>
        <time>2018-06-13T07:04:11Z</time>
      </trkpt>
      <trkpt lat="45.9383" lon="4.767">
        <ele>170</ele>
        <time>2018-06-13T07:04:14Z</time>
      </trkpt>
      <trkpt lat="45.93829" lon="4.76697">
        <ele>170</ele>
        <time>2018-06-13T07:04:15Z</time>
      </trkpt>
      <trkpt lat="45.93824" lon="4.76688">
        <ele>170</ele>
        <time>2018-06-13T07:04:19Z</time>
      </trkpt>
      <trkpt lat="45.93824" lon="4.76686">
        <ele>170</ele>
        <time>2018-06-13T07:04:20Z</time>
      </trkpt>
      <trkpt lat="45.93819" lon="4.76675">
        <ele>170</ele>
        <time>2018-06-13T07:06:20Z</time>
      </trkpt>
      <trkpt lat="45.93818" lon="4.76673">
        <ele>170</ele>
        <time>2018-06-13T07:06:21Z</time>
      </trkpt>
      <trkpt lat="45.93813" lon="4.76663">
        <ele>170</ele>
        <time>2018-06-13T07:06:24Z</time>
      </trkpt>
      <trkpt lat="45.93811" lon="4.7666">
        <ele>170</ele>
        <time>2018-06-13T07:06:25Z</time>
      </trkpt>
      <trkpt lat="45.93806" lon="4.7665">
        <ele>170</ele>
        <time>2018-06-13T07:06:28Z</time>
      </trkpt>
      <trkpt lat="45.938" lon="4.76639">
        <ele>169</ele>
        <time>2018-06-13T07:06:29Z</time>
      </trkpt>
      <trkpt lat="45.93796" lon="4.76629">
        <ele>169</ele>
        <time>2018-06-13T07:06:31Z</time>
      </trkpt>
      <trkpt lat="45.93794" lon="4.76623">
        <ele>169</ele>
        <time>2018-06-13T07:06:32Z</time>
      </trkpt>
      <trkpt lat="45.93791" lon="4.76617">
        <ele>169</ele>
        <time>2018-06-13T07:06:33Z</time>
      </trkpt>
      <trkpt lat="45.9379" lon="4.7661">
        <ele>169</ele>
        <time>2018-06-13T07:06:34Z</time>
      </trkpt>
      <trkpt lat="45.93787" lon="4.76601">
        <ele>169</ele>
        <time>2018-06-13T07:06:36Z</time>
      </trkpt>
      <trkpt lat="45.93786" lon="4.76596">
        <ele>169</ele>
        <time>2018-06-13T07:06:37Z</time>
      </trkpt>
      <trkpt lat="45.93782" lon="4.76585">
        <ele>169</ele>
        <time>2018-06-13T07:06:39Z</time>
      </trkpt>
      <trkpt lat="45.9378" lon="4.7658">
        <ele>170</ele>
        <time>2018-06-13T07:06:40Z</time>
      </trkpt>
      <trkpt lat="45.93777" lon="4.76575">
        <ele>170</ele>
        <time>2018-06-13T07:06:41Z</time>
      </trkpt>
      <trkpt lat="45.93775" lon="4.76569">
        <ele>170</ele>
        <time>2018-06-13T07:06:42Z</time>
      </trkpt>
      <trkpt lat="45.93773" lon="4.76563">
        <ele>170</ele>
        <time>2018-06-13T07:06:43Z</time>
      </trkpt>
      <trkpt lat="45.93771" lon="4.76556">
        <ele>170</ele>
        <time>2018-06-13T07:06:44Z</time>
      </trkpt>
      <trkpt lat="45.93769" lon="4.7655">
        <ele>170</ele>
        <time>2018-06-13T07:06:45Z</time>
      </trkpt>
      <trkpt lat="45.93767" lon="4.76543">
        <ele>170</ele>
        <time>2018-06-13T07:06:46Z</time>
      </trkpt>
      <trkpt lat="45.93763" lon="4.76532">
        <ele>170</ele>
        <time>2018-06-13T07:06:48Z</time>
      </trkpt>
      <trkpt lat="45.93761" lon="4.76527">
        <ele>170</ele>
        <time>2018-06-13T07:06:49Z</time>
      </trkpt>
      <trkpt lat="45.93757" lon="4.76519">
        <ele>170</ele>
        <time>2018-06-13T07:06:51Z</time>
      </trkpt>
      <trkpt lat="45.93755" lon="4.76514">
        <ele>170</ele>
        <time>2018-06-13T07:06:52Z</time>
      </trkpt>
      <trkpt lat="45.93752" lon="4.76503">
        <ele>170</ele>
        <time>2018-06-13T07:06:54Z</time>
      </trkpt>
      <trkpt lat="45.93751" lon="4.76498">
        <ele>170</ele>
        <time>2018-06-13T07:06:55Z</time>
      </trkpt>
      <trkpt lat="45.93747" lon="4.76487">
        <ele>169</ele>
        <time>2018-06-13T07:06:57Z</time>
      </trkpt>
      <trkpt lat="45.93745" lon="4.76481">
        <ele>169</ele>
        <time>2018-06-13T07:06:58Z</time>
      </trkpt>
      <trkpt lat="45.9374" lon="4.7647">
        <ele>169</ele>
        <time>2018-06-13T07:07:00Z</time>
      </trkpt>
      <trkpt lat="45.9374" lon="4.76468">
        <ele>169</ele>
        <time>2018-06-13T07:07:01Z</time>
      </trkpt>
      <trkpt lat="45.93737" lon="4.76457">
        <ele>169</ele>
        <time>2018-06-13T07:07:04Z</time>
      </trkpt>
      <trkpt lat="45.93735" lon="4.76447">
        <ele>169</ele>
        <time>2018-06-13T07:07:05Z</time>
      </trkpt>
      <trkpt lat="45.93731" lon="4.76437">
        <ele>169</ele>
        <time>2018-06-13T07:07:07Z</time>
      </trkpt>
      <trkpt lat="45.93729" lon="4.76432">
        <ele>169</ele>
        <time>2018-06-13T07:07:08Z</time>
      </trkpt>
      <trkpt lat="45.93725" lon="4.76423">
        <ele>169</ele>
        <time>2018-06-13T07:07:10Z</time>
      </trkpt>
      <trkpt lat="45.93723" lon="4.76418">
        <ele>169</ele>
        <time>2018-06-13T07:07:11Z</time>
      </trkpt>
      <trkpt lat="45.93719" lon="4.76408">
        <ele>169</ele>
        <time>2018-06-13T07:07:13Z</time>
      </trkpt>
      <trkpt lat="45.93717" lon="4.76403">
        <ele>169</ele>
        <time>2018-06-13T07:07:14Z</time>
      </trkpt>
      <trkpt lat="45.93714" lon="4.76392">
        <ele>169</ele>
        <time>2018-06-13T07:07:16Z</time>
      </trkpt>
      <trkpt lat="45.93712" lon="4.76386">
        <ele>169</ele>
        <time>2018-06-13T07:07:17Z</time>
      </trkpt>
      <trkpt lat="45.9371" lon="4.76381">
        <ele>169</ele>
        <time>2018-06-13T07:07:18Z</time>
      </trkpt>
      <trkpt lat="45.93708" lon="4.76374">
        <ele>169</ele>
        <time>2018-06-13T07:07:19Z</time>
      </trkpt>
      <trkpt lat="45.93703" lon="4.76367">
        <ele>169</ele>
        <time>2018-06-13T07:07:22Z</time>
      </trkpt>
      <trkpt lat="45.93702" lon="4.76364">
        <ele>169</ele>
        <time>2018-06-13T07:07:23Z</time>
      </trkpt>
      <trkpt lat="45.937" lon="4.76355">
        <ele>169</ele>
        <time>2018-06-13T07:07:25Z</time>
      </trkpt>
      <trkpt lat="45.93696" lon="4.76344">
        <ele>169</ele>
        <time>2018-06-13T07:07:26Z</time>
      </trkpt>
      <trkpt lat="45.93694" lon="4.76334">
        <ele>169</ele>
        <time>2018-06-13T07:07:28Z</time>
      </trkpt>
      <trkpt lat="45.93693" lon="4.76331">
        <ele>170</ele>
        <time>2018-06-13T07:07:29Z</time>
      </trkpt>
      <trkpt lat="45.93689" lon="4.76322">
        <ele>170</ele>
        <time>2018-06-13T07:07:31Z</time>
      </trkpt>
      <trkpt lat="45.93688" lon="4.76319">
        <ele>170</ele>
        <time>2018-06-13T07:07:32Z</time>
      </trkpt>
      <trkpt lat="45.93688" lon="4.76315">
        <ele>170</ele>
        <time>2018-06-13T07:07:33Z</time>
      </trkpt>
      <trkpt lat="45.93686" lon="4.76305">
        <ele>170</ele>
        <time>2018-06-13T07:07:34Z</time>
      </trkpt>
      <trkpt lat="45.93682" lon="4.76294">
        <ele>170</ele>
        <time>2018-06-13T07:07:37Z</time>
      </trkpt>
      <trkpt lat="45.9368" lon="4.76291">
        <ele>170</ele>
        <time>2018-06-13T07:07:38Z</time>
      </trkpt>
      <trkpt lat="45.93676" lon="4.76281">
        <ele>170</ele>
        <time>2018-06-13T07:07:41Z</time>
      </trkpt>
      <trkpt lat="45.93675" lon="4.76277">
        <ele>170</ele>
        <time>2018-06-13T07:07:42Z</time>
      </trkpt>
      <trkpt lat="45.93672" lon="4.76269">
        <ele>170</ele>
        <time>2018-06-13T07:07:44Z</time>
      </trkpt>
      <trkpt lat="45.93668" lon="4.76256">
        <ele>170</ele>
        <time>2018-06-13T07:07:45Z</time>
      </trkpt>
      <trkpt lat="45.93664" lon="4.76245">
        <ele>170</ele>
        <time>2018-06-13T07:07:47Z</time>
      </trkpt>
      <trkpt lat="45.93663" lon="4.7624">
        <ele>170</ele>
        <time>2018-06-13T07:07:48Z</time>
      </trkpt>
      <trkpt lat="45.9366" lon="4.76231">
        <ele>169</ele>
        <time>2018-06-13T07:07:50Z</time>
      </trkpt>
      <trkpt lat="45.93658" lon="4.76226">
        <ele>169</ele>
        <time>2018-06-13T07:07:51Z</time>
      </trkpt>
      <trkpt lat="45.93655" lon="4.76215">
        <ele>169</ele>
        <time>2018-06-13T07:07:53Z</time>
      </trkpt>
      <trkpt lat="45.93654" lon="4.76209">
        <ele>169</ele>
        <time>2018-06-13T07:07:54Z</time>
      </trkpt>
      <trkpt lat="45.9365" lon="4.76198">
        <ele>169</ele>
        <time>2018-06-13T07:07:56Z</time>
      </trkpt>
      <trkpt lat="45.93648" lon="4.76192">
        <ele>169</ele>
        <time>2018-06-13T07:07:57Z</time>
      </trkpt>
      <trkpt lat="45.93645" lon="4.76181">
        <ele>170</ele>
        <time>2018-06-13T07:07:59Z</time>
      </trkpt>
      <trkpt lat="45.93644" lon="4.76176">
        <ele>170</ele>
        <time>2018-06-13T07:08:00Z</time>
      </trkpt>
      <trkpt lat="45.9364" lon="4.76166">
        <ele>170</ele>
        <time>2018-06-13T07:08:02Z</time>
      </trkpt>
      <trkpt lat="45.93637" lon="4.76161">
        <ele>170</ele>
        <time>2018-06-13T07:08:03Z</time>
      </trkpt>
      <trkpt lat="45.93633" lon="4.76151">
        <ele>170</ele>
        <time>2018-06-13T07:08:05Z</time>
      </trkpt>
      <trkpt lat="45.93632" lon="4.76149">
        <ele>170</ele>
        <time>2018-06-13T07:08:06Z</time>
      </trkpt>
      <trkpt lat="45.93631" lon="4.76146">
        <ele>170</ele>
        <time>2018-06-13T07:08:07Z</time>
      </trkpt>
      <trkpt lat="45.93629" lon="4.76137">
        <ele>170</ele>
        <time>2018-06-13T07:08:08Z</time>
      </trkpt>
      <trkpt lat="45.93626" lon="4.76126">
        <ele>170</ele>
        <time>2018-06-13T07:08:10Z</time>
      </trkpt>
      <trkpt lat="45.93624" lon="4.76121">
        <ele>170</ele>
        <time>2018-06-13T07:08:11Z</time>
      </trkpt>
      <trkpt lat="45.9362" lon="4.76111">
        <ele>170</ele>
        <time>2018-06-13T07:08:13Z</time>
      </trkpt>
      <trkpt lat="45.93618" lon="4.76106">
        <ele>170</ele>
        <time>2018-06-13T07:08:14Z</time>
      </trkpt>
      <trkpt lat="45.93615" lon="4.76095">
        <ele>170</ele>
        <time>2018-06-13T07:08:17Z</time>
      </trkpt>
      <trkpt lat="45.93614" lon="4.76091">
        <ele>170</ele>
        <time>2018-06-13T07:08:18Z</time>
      </trkpt>
      <trkpt lat="45.93611" lon="4.76082">
        <ele>170</ele>
        <time>2018-06-13T07:08:19Z</time>
      </trkpt>
      <trkpt lat="45.93609" lon="4.76077">
        <ele>170</ele>
        <time>2018-06-13T07:08:20Z</time>
      </trkpt>
      <trkpt lat="45.93606" lon="4.76069">
        <ele>170</ele>
        <time>2018-06-13T07:08:23Z</time>
      </trkpt>
      <trkpt lat="45.93604" lon="4.76065">
        <ele>170</ele>
        <time>2018-06-13T07:08:24Z</time>
      </trkpt>
      <trkpt lat="45.93603" lon="4.76061">
        <ele>170</ele>
        <time>2018-06-13T07:08:25Z</time>
      </trkpt>
      <trkpt lat="45.936" lon="4.7605">
        <ele>170</ele>
        <time>2018-06-13T07:08:26Z</time>
      </trkpt>
      <trkpt lat="45.93597" lon="4.76039">
        <ele>170</ele>
        <time>2018-06-13T07:08:28Z</time>
      </trkpt>
      <trkpt lat="45.93595" lon="4.76034">
        <ele>170</ele>
        <time>2018-06-13T07:08:29Z</time>
      </trkpt>
      <trkpt lat="45.93592" lon="4.76022">
        <ele>171</ele>
        <time>2018-06-13T07:08:31Z</time>
      </trkpt>
      <trkpt lat="45.9359" lon="4.76014">
        <ele>171</ele>
        <time>2018-06-13T07:08:32Z</time>
      </trkpt>
      <trkpt lat="45.93585" lon="4.76004">
        <ele>172</ele>
        <time>2018-06-13T07:08:34Z</time>
      </trkpt>
      <trkpt lat="45.93584" lon="4.76001">
        <ele>172</ele>
        <time>2018-06-13T07:08:35Z</time>
      </trkpt>
      <trkpt lat="45.93581" lon="4.75994">
        <ele>171</ele>
        <time>2018-06-13T07:08:36Z</time>
      </trkpt>
      <trkpt lat="45.9358" lon="4.75989">
        <ele>171</ele>
        <time>2018-06-13T07:08:37Z</time>
      </trkpt>
      <trkpt lat="45.93576" lon="4.75977">
        <ele>170</ele>
        <time>2018-06-13T07:08:39Z</time>
      </trkpt>
      <trkpt lat="45.93575" lon="4.75972">
        <ele>170</ele>
        <time>2018-06-13T07:08:40Z</time>
      </trkpt>
      <trkpt lat="45.93571" lon="4.75961">
        <ele>169</ele>
        <time>2018-06-13T07:08:43Z</time>
      </trkpt>
      <trkpt lat="45.93569" lon="4.75954">
        <ele>169</ele>
        <time>2018-06-13T07:08:44Z</time>
      </trkpt>
      <trkpt lat="45.93566" lon="4.75943">
        <ele>169</ele>
        <time>2018-06-13T07:08:46Z</time>
      </trkpt>
      <trkpt lat="45.93564" lon="4.75938">
        <ele>169</ele>
        <time>2018-06-13T07:08:47Z</time>
      </trkpt>
      <trkpt lat="45.93561" lon="4.75927">
        <ele>169</ele>
        <time>2018-06-13T07:08:49Z</time>
      </trkpt>
      <trkpt lat="45.9356" lon="4.75925">
        <ele>169</ele>
        <time>2018-06-13T07:08:50Z</time>
      </trkpt>
      <trkpt lat="45.93557" lon="4.75914">
        <ele>169</ele>
        <time>2018-06-13T07:08:52Z</time>
      </trkpt>
      <trkpt lat="45.93556" lon="4.75909">
        <ele>169</ele>
        <time>2018-06-13T07:08:53Z</time>
      </trkpt>
      <trkpt lat="45.93553" lon="4.75899">
        <ele>169</ele>
        <time>2018-06-13T07:08:55Z</time>
      </trkpt>
      <trkpt lat="45.93551" lon="4.75895">
        <ele>169</ele>
        <time>2018-06-13T07:08:56Z</time>
      </trkpt>
      <trkpt lat="45.93547" lon="4.75884">
        <ele>169</ele>
        <time>2018-06-13T07:08:58Z</time>
      </trkpt>
      <trkpt lat="45.93545" lon="4.7588">
        <ele>169</ele>
        <time>2018-06-13T07:08:59Z</time>
      </trkpt>
      <trkpt lat="45.93542" lon="4.75869">
        <ele>169</ele>
        <time>2018-06-13T07:09:01Z</time>
      </trkpt>
      <trkpt lat="45.93541" lon="4.75864">
        <ele>169</ele>
        <time>2018-06-13T07:09:02Z</time>
      </trkpt>
      <trkpt lat="45.9354" lon="4.75857">
        <ele>169</ele>
        <time>2018-06-13T07:09:03Z</time>
      </trkpt>
      <trkpt lat="45.93539" lon="4.75852">
        <ele>169</ele>
        <time>2018-06-13T07:09:04Z</time>
      </trkpt>
      <trkpt lat="45.93536" lon="4.75841">
        <ele>169</ele>
        <time>2018-06-13T07:09:06Z</time>
      </trkpt>
      <trkpt lat="45.93536" lon="4.75836">
        <ele>169</ele>
        <time>2018-06-13T07:09:07Z</time>
      </trkpt>
      <trkpt lat="45.93535" lon="4.75825">
        <ele>169</ele>
        <time>2018-06-13T07:09:09Z</time>
      </trkpt>
      <trkpt lat="45.93534" lon="4.75819">
        <ele>169</ele>
        <time>2018-06-13T07:09:10Z</time>
      </trkpt>
      <trkpt lat="45.93534" lon="4.75808">
        <ele>169</ele>
        <time>2018-06-13T07:09:12Z</time>
      </trkpt>
      <trkpt lat="45.93533" lon="4.75802">
        <ele>169</ele>
        <time>2018-06-13T07:09:13Z</time>
      </trkpt>
      <trkpt lat="45.93533" lon="4.7579">
        <ele>169</ele>
        <time>2018-06-13T07:09:15Z</time>
      </trkpt>
      <trkpt lat="45.93533" lon="4.75783">
        <ele>169</ele>
        <time>2018-06-13T07:09:16Z</time>
      </trkpt>
      <trkpt lat="45.93534" lon="4.75777">
        <ele>169</ele>
        <time>2018-06-13T07:09:17Z</time>
      </trkpt>
      <trkpt lat="45.93537" lon="4.75769">
        <ele>170</ele>
        <time>2018-06-13T07:09:18Z</time>
      </trkpt>
      <trkpt lat="45.93538" lon="4.75757">
        <ele>170</ele>
        <time>2018-06-13T07:09:20Z</time>
      </trkpt>
      <trkpt lat="45.93538" lon="4.7575">
        <ele>170</ele>
        <time>2018-06-13T07:09:21Z</time>
      </trkpt>
      <trkpt lat="45.93537" lon="4.75738">
        <ele>170</ele>
        <time>2018-06-13T07:09:24Z</time>
      </trkpt>
      <trkpt lat="45.93536" lon="4.7573">
        <ele>170</ele>
        <time>2018-06-13T07:09:25Z</time>
      </trkpt>
      <trkpt lat="45.93538" lon="4.7572">
        <ele>170</ele>
        <time>2018-06-13T07:09:29Z</time>
      </trkpt>
      <trkpt lat="45.93539" lon="4.75711">
        <ele>170</ele>
        <time>2018-06-13T07:09:30Z</time>
      </trkpt>
      <trkpt lat="45.93542" lon="4.75699">
        <ele>170</ele>
        <time>2018-06-13T07:09:33Z</time>
      </trkpt>
      <trkpt lat="45.93543" lon="4.75692">
        <ele>170</ele>
        <time>2018-06-13T07:09:34Z</time>
      </trkpt>
      <trkpt lat="45.93545" lon="4.75683">
        <ele>170</ele>
        <time>2018-06-13T07:09:35Z</time>
      </trkpt>
      <trkpt lat="45.93546" lon="4.75675">
        <ele>170</ele>
        <time>2018-06-13T07:09:36Z</time>
      </trkpt>
      <trkpt lat="45.93546" lon="4.75666">
        <ele>170</ele>
        <time>2018-06-13T07:09:38Z</time>
      </trkpt>
      <trkpt lat="45.93548" lon="4.75661">
        <ele>170</ele>
        <time>2018-06-13T07:09:39Z</time>
      </trkpt>
      <trkpt lat="45.93549" lon="4.75648">
        <ele>170</ele>
        <time>2018-06-13T07:09:42Z</time>
      </trkpt>
      <trkpt lat="45.9355" lon="4.75641">
        <ele>170</ele>
        <time>2018-06-13T07:09:43Z</time>
      </trkpt>
      <trkpt lat="45.93552" lon="4.75629">
        <ele>170</ele>
        <time>2018-06-13T07:09:45Z</time>
      </trkpt>
      <trkpt lat="45.93553" lon="4.75624">
        <ele>170</ele>
        <time>2018-06-13T07:09:46Z</time>
      </trkpt>
      <trkpt lat="45.93553" lon="4.75612">
        <ele>170</ele>
        <time>2018-06-13T07:09:48Z</time>
      </trkpt>
      <trkpt lat="45.93553" lon="4.75609">
        <ele>170</ele>
        <time>2018-06-13T07:09:49Z</time>
      </trkpt>
      <trkpt lat="45.93554" lon="4.75602">
        <ele>170</ele>
        <time>2018-06-13T07:09:50Z</time>
      </trkpt>
      <trkpt lat="45.93555" lon="4.75596">
        <ele>170</ele>
        <time>2018-06-13T07:09:51Z</time>
      </trkpt>
      <trkpt lat="45.93558" lon="4.75587">
        <ele>170</ele>
        <time>2018-06-13T07:09:54Z</time>
      </trkpt>
      <trkpt lat="45.93561" lon="4.75576">
        <ele>170</ele>
        <time>2018-06-13T07:09:55Z</time>
      </trkpt>
      <trkpt lat="45.93563" lon="4.75565">
        <ele>170</ele>
        <time>2018-06-13T07:09:57Z</time>
      </trkpt>
      <trkpt lat="45.93565" lon="4.7556">
        <ele>170</ele>
        <time>2018-06-13T07:09:58Z</time>
      </trkpt>
      <trkpt lat="45.93567" lon="4.75549">
        <ele>169</ele>
        <time>2018-06-13T07:10:00Z</time>
      </trkpt>
      <trkpt lat="45.93568" lon="4.75543">
        <ele>169</ele>
        <time>2018-06-13T07:10:01Z</time>
      </trkpt>
      <trkpt lat="45.9357" lon="4.75533">
        <ele>169</ele>
        <time>2018-06-13T07:10:03Z</time>
      </trkpt>
      <trkpt lat="45.93571" lon="4.75527">
        <ele>169</ele>
        <time>2018-06-13T07:10:04Z</time>
      </trkpt>
      <trkpt lat="45.93573" lon="4.75515">
        <ele>169</ele>
        <time>2018-06-13T07:10:06Z</time>
      </trkpt>
      <trkpt lat="45.93575" lon="4.75505">
        <ele>170</ele>
        <time>2018-06-13T07:10:07Z</time>
      </trkpt>
      <trkpt lat="45.93577" lon="4.75494">
        <ele>169</ele>
        <time>2018-06-13T07:10:09Z</time>
      </trkpt>
      <trkpt lat="45.93578" lon="4.75492">
        <ele>169</ele>
        <time>2018-06-13T07:10:10Z</time>
      </trkpt>
      <trkpt lat="45.9358" lon="4.75482">
        <ele>169</ele>
        <time>2018-06-13T07:10:13Z</time>
      </trkpt>
      <trkpt lat="45.93581" lon="4.75471">
        <ele>168</ele>
        <time>2018-06-13T07:10:14Z</time>
      </trkpt>
      <trkpt lat="45.93582" lon="4.75459">
        <ele>168</ele>
        <time>2018-06-13T07:10:16Z</time>
      </trkpt>
      <trkpt lat="45.93583" lon="4.75453">
        <ele>169</ele>
        <time>2018-06-13T07:10:17Z</time>
      </trkpt>
      <trkpt lat="45.93585" lon="4.75446">
        <ele>169</ele>
        <time>2018-06-13T07:10:18Z</time>
      </trkpt>
      <trkpt lat="45.93587" lon="4.75438">
        <ele>169</ele>
        <time>2018-06-13T07:10:19Z</time>
      </trkpt>
      <trkpt lat="45.93588" lon="4.75432">
        <ele>169</ele>
        <time>2018-06-13T07:10:20Z</time>
      </trkpt>
      <trkpt lat="45.93589" lon="4.75423">
        <ele>168</ele>
        <time>2018-06-13T07:10:21Z</time>
      </trkpt>
      <trkpt lat="45.93589" lon="4.75416">
        <ele>168</ele>
        <time>2018-06-13T07:10:22Z</time>
      </trkpt>
      <trkpt lat="45.93592" lon="4.75411">
        <ele>168</ele>
        <time>2018-06-13T07:10:23Z</time>
      </trkpt>
      <trkpt lat="45.93592" lon="4.754">
        <ele>169</ele>
        <time>2018-06-13T07:10:25Z</time>
      </trkpt>
      <trkpt lat="45.93594" lon="4.75393">
        <ele>169</ele>
        <time>2018-06-13T07:10:26Z</time>
      </trkpt>
      <trkpt lat="45.93593" lon="4.75385">
        <ele>169</ele>
        <time>2018-06-13T07:10:29Z</time>
      </trkpt>
      <trkpt lat="45.93596" lon="4.75376">
        <ele>169</ele>
        <time>2018-06-13T07:10:30Z</time>
      </trkpt>
      <trkpt lat="45.93596" lon="4.75368">
        <ele>169</ele>
        <time>2018-06-13T07:10:34Z</time>
      </trkpt>
      <trkpt lat="45.93598" lon="4.75355">
        <ele>169</ele>
        <time>2018-06-13T07:10:35Z</time>
      </trkpt>
      <trkpt lat="45.936" lon="4.75344">
        <ele>169</ele>
        <time>2018-06-13T07:10:37Z</time>
      </trkpt>
      <trkpt lat="45.936" lon="4.75338">
        <ele>169</ele>
        <time>2018-06-13T07:10:38Z</time>
      </trkpt>
      <trkpt lat="45.93601" lon="4.75327">
        <ele>169</ele>
        <time>2018-06-13T07:10:40Z</time>
      </trkpt>
      <trkpt lat="45.93602" lon="4.75324">
        <ele>169</ele>
        <time>2018-06-13T07:10:41Z</time>
      </trkpt>
      <trkpt lat="45.93604" lon="4.75315">
        <ele>169</ele>
        <time>2018-06-13T07:10:42Z</time>
      </trkpt>
      <trkpt lat="45.93605" lon="4.75309">
        <ele>169</ele>
        <time>2018-06-13T07:10:43Z</time>
      </trkpt>
      <trkpt lat="45.93606" lon="4.75303">
        <ele>168</ele>
        <time>2018-06-13T07:10:44Z</time>
      </trkpt>
      <trkpt lat="45.93608" lon="4.75295">
        <ele>168</ele>
        <time>2018-06-13T07:10:45Z</time>
      </trkpt>
      <trkpt lat="45.93611" lon="4.75285">
        <ele>168</ele>
        <time>2018-06-13T07:10:47Z</time>
      </trkpt>
      <trkpt lat="45.93611" lon="4.75282">
        <ele>168</ele>
        <time>2018-06-13T07:10:48Z</time>
      </trkpt>
      <trkpt lat="45.93613" lon="4.75272">
        <ele>168</ele>
        <time>2018-06-13T07:10:49Z</time>
      </trkpt>
      <trkpt lat="45.93614" lon="4.75266">
        <ele>168</ele>
        <time>2018-06-13T07:10:50Z</time>
      </trkpt>
      <trkpt lat="45.93615" lon="4.75257">
        <ele>168</ele>
        <time>2018-06-13T07:10:52Z</time>
      </trkpt>
      <trkpt lat="45.93616" lon="4.75251">
        <ele>168</ele>
        <time>2018-06-13T07:10:53Z</time>
      </trkpt>
      <trkpt lat="45.93617" lon="4.75244">
        <ele>167</ele>
        <time>2018-06-13T07:10:56Z</time>
      </trkpt>
      <trkpt lat="45.93622" lon="4.75234">
        <ele>167</ele>
        <time>2018-06-13T07:10:57Z</time>
      </trkpt>
      <trkpt lat="45.93626" lon="4.75225">
        <ele>167</ele>
        <time>2018-06-13T07:11:00Z</time>
      </trkpt>
      <trkpt lat="45.93628" lon="4.75222">
        <ele>167</ele>
        <time>2018-06-13T07:11:01Z</time>
      </trkpt>
      <trkpt lat="45.93631" lon="4.75214">
        <ele>168</ele>
        <time>2018-06-13T07:11:02Z</time>
      </trkpt>
      <trkpt lat="45.93633" lon="4.75209">
        <ele>168</ele>
        <time>2018-06-13T07:11:03Z</time>
      </trkpt>
      <trkpt lat="45.93636" lon="4.75198">
        <ele>168</ele>
        <time>2018-06-13T07:11:05Z</time>
      </trkpt>
      <trkpt lat="45.93637" lon="4.75192">
        <ele>168</ele>
        <time>2018-06-13T07:11:06Z</time>
      </trkpt>
      <trkpt lat="45.9364" lon="4.75182">
        <ele>168</ele>
        <time>2018-06-13T07:11:08Z</time>
      </trkpt>
      <trkpt lat="45.93641" lon="4.7518">
        <ele>168</ele>
        <time>2018-06-13T07:11:09Z</time>
      </trkpt>
      <trkpt lat="45.93643" lon="4.75168">
        <ele>168</ele>
        <time>2018-06-13T07:11:11Z</time>
      </trkpt>
      <trkpt lat="45.93645" lon="4.75165">
        <ele>168</ele>
        <time>2018-06-13T07:11:12Z</time>
      </trkpt>
      <trkpt lat="45.93649" lon="4.75157">
        <ele>168</ele>
        <time>2018-06-13T07:11:15Z</time>
      </trkpt>
      <trkpt lat="45.93655" lon="4.75142">
        <ele>168</ele>
        <time>2018-06-13T07:11:16Z</time>
      </trkpt>
      <trkpt lat="45.9366" lon="4.75132">
        <ele>168</ele>
        <time>2018-06-13T07:11:18Z</time>
      </trkpt>
      <trkpt lat="45.9366" lon="4.7513">
        <ele>168</ele>
        <time>2018-06-13T07:11:19Z</time>
      </trkpt>
      <trkpt lat="45.93664" lon="4.75121">
        <ele>168</ele>
        <time>2018-06-13T07:11:22Z</time>
      </trkpt>
      <trkpt lat="45.93669" lon="4.7511">
        <ele>168</ele>
        <time>2018-06-13T07:11:23Z</time>
      </trkpt>
      <trkpt lat="45.93671" lon="4.75102">
        <ele>168</ele>
        <time>2018-06-13T07:11:25Z</time>
      </trkpt>
      <trkpt lat="45.93674" lon="4.75094">
        <ele>168</ele>
        <time>2018-06-13T07:11:26Z</time>
      </trkpt>
      <trkpt lat="45.93678" lon="4.75084">
        <ele>167</ele>
        <time>2018-06-13T07:11:28Z</time>
      </trkpt>
      <trkpt lat="45.93679" lon="4.75083">
        <ele>167</ele>
        <time>2018-06-13T07:11:29Z</time>
      </trkpt>
      <trkpt lat="45.93681" lon="4.75075">
        <ele>167</ele>
        <time>2018-06-13T07:11:30Z</time>
      </trkpt>
      <trkpt lat="45.93683" lon="4.75069">
        <ele>167</ele>
        <time>2018-06-13T07:11:31Z</time>
      </trkpt>
      <trkpt lat="45.93684" lon="4.75067">
        <ele>167</ele>
        <time>2018-06-13T07:11:33Z</time>
      </trkpt>
      <trkpt lat="45.93687" lon="4.75058">
        <ele>167</ele>
        <time>2018-06-13T07:11:34Z</time>
      </trkpt>
      <trkpt lat="45.93692" lon="4.75049">
        <ele>167</ele>
        <time>2018-06-13T07:11:36Z</time>
      </trkpt>
      <trkpt lat="45.93695" lon="4.75044">
        <ele>167</ele>
        <time>2018-06-13T07:11:37Z</time>
      </trkpt>
      <trkpt lat="45.937" lon="4.75035">
        <ele>167</ele>
        <time>2018-06-13T07:11:39Z</time>
      </trkpt>
      <trkpt lat="45.93702" lon="4.75031">
        <ele>167</ele>
        <time>2018-06-13T07:11:40Z</time>
      </trkpt>
      <trkpt lat="45.93706" lon="4.75022">
        <ele>167</ele>
        <time>2018-06-13T07:11:43Z</time>
      </trkpt>
      <trkpt lat="45.93707" lon="4.75018">
        <ele>167</ele>
        <time>2018-06-13T07:11:44Z</time>
      </trkpt>
      <trkpt lat="45.93711" lon="4.75009">
        <ele>167</ele>
        <time>2018-06-13T07:11:45Z</time>
      </trkpt>
      <trkpt lat="45.93712" lon="4.75003">
        <ele>167</ele>
        <time>2018-06-13T07:11:46Z</time>
      </trkpt>
      <trkpt lat="45.93717" lon="4.74993">
        <ele>168</ele>
        <time>2018-06-13T07:11:48Z</time>
      </trkpt>
      <trkpt lat="45.93721" lon="4.74988">
        <ele>168</ele>
        <time>2018-06-13T07:11:49Z</time>
      </trkpt>
      <trkpt lat="45.93725" lon="4.74978">
        <ele>168</ele>
        <time>2018-06-13T07:11:53Z</time>
      </trkpt>
      <trkpt lat="45.9373" lon="4.74968">
        <ele>168</ele>
        <time>2018-06-13T07:11:54Z</time>
      </trkpt>
      <trkpt lat="45.93734" lon="4.74958">
        <ele>169</ele>
        <time>2018-06-13T07:11:56Z</time>
      </trkpt>
      <trkpt lat="45.93737" lon="4.74954">
        <ele>169</ele>
        <time>2018-06-13T07:11:57Z</time>
      </trkpt>
      <trkpt lat="45.93741" lon="4.74947">
        <ele>169</ele>
        <time>2018-06-13T07:11:59Z</time>
      </trkpt>
      <trkpt lat="45.93743" lon="4.74941">
        <ele>169</ele>
        <time>2018-06-13T07:12:00Z</time>
      </trkpt>
      <trkpt lat="45.93747" lon="4.74929">
        <ele>170</ele>
        <time>2018-06-13T07:12:02Z</time>
      </trkpt>
      <trkpt lat="45.93749" lon="4.74924">
        <ele>170</ele>
        <time>2018-06-13T07:12:03Z</time>
      </trkpt>
      <trkpt lat="45.93752" lon="4.74918">
        <ele>171</ele>
        <time>2018-06-13T07:12:04Z</time>
      </trkpt>
      <trkpt lat="45.93755" lon="4.74913">
        <ele>170</ele>
        <time>2018-06-13T07:12:05Z</time>
      </trkpt>
      <trkpt lat="45.9376" lon="4.74904">
        <ele>170</ele>
        <time>2018-06-13T07:12:07Z</time>
      </trkpt>
      <trkpt lat="45.93763" lon="4.74899">
        <ele>169</ele>
        <time>2018-06-13T07:12:08Z</time>
      </trkpt>
      <trkpt lat="45.93768" lon="4.7489">
        <ele>169</ele>
        <time>2018-06-13T07:12:10Z</time>
      </trkpt>
      <trkpt lat="45.93772" lon="4.74884">
        <ele>169</ele>
        <time>2018-06-13T07:12:11Z</time>
      </trkpt>
      <trkpt lat="45.93777" lon="4.74875">
        <ele>169</ele>
        <time>2018-06-13T07:12:13Z</time>
      </trkpt>
      <trkpt lat="45.9378" lon="4.74871">
        <ele>168</ele>
        <time>2018-06-13T07:12:14Z</time>
      </trkpt>
      <trkpt lat="45.93785" lon="4.74863">
        <ele>168</ele>
        <time>2018-06-13T07:12:16Z</time>
      </trkpt>
      <trkpt lat="45.93789" lon="4.7486">
        <ele>168</ele>
        <time>2018-06-13T07:12:17Z</time>
      </trkpt>
      <trkpt lat="45.93795" lon="4.74851">
        <ele>168</ele>
        <time>2018-06-13T07:12:19Z</time>
      </trkpt>
      <trkpt lat="45.93797" lon="4.74847">
        <ele>168</ele>
        <time>2018-06-13T07:12:20Z</time>
      </trkpt>
      <trkpt lat="45.93802" lon="4.74838">
        <ele>168</ele>
        <time>2018-06-13T07:12:22Z</time>
      </trkpt>
      <trkpt lat="45.93804" lon="4.74833">
        <ele>167</ele>
        <time>2018-06-13T07:12:23Z</time>
      </trkpt>
      <trkpt lat="45.93807" lon="4.74824">
        <ele>167</ele>
        <time>2018-06-13T07:12:25Z</time>
      </trkpt>
      <trkpt lat="45.93809" lon="4.74819">
        <ele>167</ele>
        <time>2018-06-13T07:12:26Z</time>
      </trkpt>
      <trkpt lat="45.93813" lon="4.74809">
        <ele>167</ele>
        <time>2018-06-13T07:12:28Z</time>
      </trkpt>
      <trkpt lat="45.93815" lon="4.74804">
        <ele>167</ele>
        <time>2018-06-13T07:12:29Z</time>
      </trkpt>
      <trkpt lat="45.93821" lon="4.74795">
        <ele>167</ele>
        <time>2018-06-13T07:12:31Z</time>
      </trkpt>
      <trkpt lat="45.93822" lon="4.74794">
        <ele>167</ele>
        <time>2018-06-13T07:12:32Z</time>
      </trkpt>
      <trkpt lat="45.93825" lon="4.74788">
        <ele>167</ele>
        <time>2018-06-13T07:12:34Z</time>
      </trkpt>
      <trkpt lat="45.93829" lon="4.74778">
        <ele>167</ele>
        <time>2018-06-13T07:12:35Z</time>
      </trkpt>
      <trkpt lat="45.93833" lon="4.7477">
        <ele>168</ele>
        <time>2018-06-13T07:12:37Z</time>
      </trkpt>
      <trkpt lat="45.93836" lon="4.74763">
        <ele>168</ele>
        <time>2018-06-13T07:12:38Z</time>
      </trkpt>
      <trkpt lat="45.9384" lon="4.74755">
        <ele>168</ele>
        <time>2018-06-13T07:12:40Z</time>
      </trkpt>
      <trkpt lat="45.93844" lon="4.7475">
        <ele>168</ele>
        <time>2018-06-13T07:12:41Z</time>
      </trkpt>
      <trkpt lat="45.93848" lon="4.7474">
        <ele>169</ele>
        <time>2018-06-13T07:12:44Z</time>
      </trkpt>
      <trkpt lat="45.93851" lon="4.74729">
        <ele>169</ele>
        <time>2018-06-13T07:12:45Z</time>
      </trkpt>
      <trkpt lat="45.93856" lon="4.7472">
        <ele>169</ele>
        <time>2018-06-13T07:12:47Z</time>
      </trkpt>
      <trkpt lat="45.93857" lon="4.74715">
        <ele>169</ele>
        <time>2018-06-13T07:12:48Z</time>
      </trkpt>
      <trkpt lat="45.93859" lon="4.74708">
        <ele>169</ele>
        <time>2018-06-13T07:12:49Z</time>
      </trkpt>
      <trkpt lat="45.93861" lon="4.74703">
        <ele>169</ele>
        <time>2018-06-13T07:12:50Z</time>
      </trkpt>
      <trkpt lat="45.93863" lon="4.74698">
        <ele>169</ele>
        <time>2018-06-13T07:12:51Z</time>
      </trkpt>
      <trkpt lat="45.93867" lon="4.74692">
        <ele>170</ele>
        <time>2018-06-13T07:12:52Z</time>
      </trkpt>
      <trkpt lat="45.93871" lon="4.74684">
        <ele>170</ele>
        <time>2018-06-13T07:12:54Z</time>
      </trkpt>
      <trkpt lat="45.93872" lon="4.74681">
        <ele>170</ele>
        <time>2018-06-13T07:12:55Z</time>
      </trkpt>
      <trkpt lat="45.93875" lon="4.7467">
        <ele>170</ele>
        <time>2018-06-13T07:12:58Z</time>
      </trkpt>
      <trkpt lat="45.93877" lon="4.74666">
        <ele>170</ele>
        <time>2018-06-13T07:12:59Z</time>
      </trkpt>
      <trkpt lat="45.93881" lon="4.74655">
        <ele>170</ele>
        <time>2018-06-13T07:13:00Z</time>
      </trkpt>
      <trkpt lat="45.93882" lon="4.7465">
        <ele>170</ele>
        <time>2018-06-13T07:13:01Z</time>
      </trkpt>
      <trkpt lat="45.93886" lon="4.74639">
        <ele>170</ele>
        <time>2018-06-13T07:13:03Z</time>
      </trkpt>
      <trkpt lat="45.93887" lon="4.74634">
        <ele>170</ele>
        <time>2018-06-13T07:13:04Z</time>
      </trkpt>
      <trkpt lat="45.9389" lon="4.74624">
        <ele>170</ele>
        <time>2018-06-13T07:13:06Z</time>
      </trkpt>
      <trkpt lat="45.93891" lon="4.74619">
        <ele>170</ele>
        <time>2018-06-13T07:13:07Z</time>
      </trkpt>
      <trkpt lat="45.93895" lon="4.74608">
        <ele>170</ele>
        <time>2018-06-13T07:13:09Z</time>
      </trkpt>
      <trkpt lat="45.93897" lon="4.74602">
        <ele>170</ele>
        <time>2018-06-13T07:13:10Z</time>
      </trkpt>
      <trkpt lat="45.93899" lon="4.74592">
        <ele>170</ele>
        <time>2018-06-13T07:13:12Z</time>
      </trkpt>
      <trkpt lat="45.939" lon="4.74586">
        <ele>170</ele>
        <time>2018-06-13T07:13:13Z</time>
      </trkpt>
      <trkpt lat="45.93902" lon="4.74576">
        <ele>170</ele>
        <time>2018-06-13T07:13:16Z</time>
      </trkpt>
      <trkpt lat="45.93904" lon="4.74568">
        <ele>170</ele>
        <time>2018-06-13T07:13:17Z</time>
      </trkpt>
      <trkpt lat="45.93906" lon="4.74556">
        <ele>170</ele>
        <time>2018-06-13T07:13:19Z</time>
      </trkpt>
      <trkpt lat="45.93907" lon="4.7455">
        <ele>170</ele>
        <time>2018-06-13T07:13:20Z</time>
      </trkpt>
      <trkpt lat="45.93908" lon="4.7454">
        <ele>170</ele>
        <time>2018-06-13T07:13:23Z</time>
      </trkpt>
      <trkpt lat="45.93909" lon="4.74537">
        <ele>170</ele>
        <time>2018-06-13T07:13:24Z</time>
      </trkpt>
      <trkpt lat="45.93909" lon="4.74533">
        <ele>170</ele>
        <time>2018-06-13T07:13:25Z</time>
      </trkpt>
      <trkpt lat="45.9391" lon="4.74521">
        <ele>170</ele>
        <time>2018-06-13T07:13:26Z</time>
      </trkpt>
      <trkpt lat="45.9391" lon="4.7451">
        <ele>170</ele>
        <time>2018-06-13T07:13:28Z</time>
      </trkpt>
      <trkpt lat="45.93911" lon="4.74504">
        <ele>170</ele>
        <time>2018-06-13T07:13:29Z</time>
      </trkpt>
      <trkpt lat="45.93911" lon="4.74499">
        <ele>170</ele>
        <time>2018-06-13T07:13:31Z</time>
      </trkpt>
      <trkpt lat="45.93912" lon="4.7449">
        <ele>170</ele>
        <time>2018-06-13T07:13:32Z</time>
      </trkpt>
      <trkpt lat="45.93912" lon="4.74479">
        <ele>171</ele>
        <time>2018-06-13T07:13:34Z</time>
      </trkpt>
      <trkpt lat="45.93913" lon="4.74473">
        <ele>171</ele>
        <time>2018-06-13T07:13:35Z</time>
      </trkpt>
      <trkpt lat="45.93914" lon="4.74463">
        <ele>171</ele>
        <time>2018-06-13T07:13:38Z</time>
      </trkpt>
      <trkpt lat="45.93915" lon="4.74452">
        <ele>171</ele>
        <time>2018-06-13T07:13:39Z</time>
      </trkpt>
      <trkpt lat="45.93914" lon="4.7444">
        <ele>171</ele>
        <time>2018-06-13T07:13:41Z</time>
      </trkpt>
      <trkpt lat="45.93914" lon="4.74433">
        <ele>171</ele>
        <time>2018-06-13T07:13:42Z</time>
      </trkpt>
      <trkpt lat="45.93913" lon="4.74421">
        <ele>171</ele>
        <time>2018-06-13T07:13:44Z</time>
      </trkpt>
      <trkpt lat="45.93912" lon="4.74419">
        <ele>171</ele>
        <time>2018-06-13T07:13:45Z</time>
      </trkpt>
      <trkpt lat="45.93912" lon="4.74411">
        <ele>171</ele>
        <time>2018-06-13T07:13:46Z</time>
      </trkpt>
      <trkpt lat="45.93911" lon="4.74405">
        <ele>171</ele>
        <time>2018-06-13T07:13:47Z</time>
      </trkpt>
      <trkpt lat="45.9391" lon="4.74394">
        <ele>171</ele>
        <time>2018-06-13T07:13:49Z</time>
      </trkpt>
      <trkpt lat="45.93909" lon="4.74388">
        <ele>171</ele>
        <time>2018-06-13T07:13:50Z</time>
      </trkpt>
      <trkpt lat="45.93908" lon="4.74377">
        <ele>171</ele>
        <time>2018-06-13T07:13:52Z</time>
      </trkpt>
      <trkpt lat="45.93907" lon="4.74375">
        <ele>171</ele>
        <time>2018-06-13T07:13:53Z</time>
      </trkpt>
      <trkpt lat="45.93906" lon="4.74367">
        <ele>171</ele>
        <time>2018-06-13T07:13:55Z</time>
      </trkpt>
      <trkpt lat="45.93906" lon="4.74357">
        <ele>171</ele>
        <time>2018-06-13T07:13:56Z</time>
      </trkpt>
      <trkpt lat="45.93905" lon="4.74345">
        <ele>171</ele>
        <time>2018-06-13T07:13:58Z</time>
      </trkpt>
      <trkpt lat="45.93905" lon="4.74338">
        <ele>170</ele>
        <time>2018-06-13T07:13:59Z</time>
      </trkpt>
      <trkpt lat="45.93905" lon="4.74332">
        <ele>170</ele>
        <time>2018-06-13T07:14:00Z</time>
      </trkpt>
      <trkpt lat="45.93906" lon="4.74324">
        <ele>170</ele>
        <time>2018-06-13T07:14:01Z</time>
      </trkpt>
      <trkpt lat="45.93906" lon="4.74317">
        <ele>170</ele>
        <time>2018-06-13T07:14:02Z</time>
      </trkpt>
      <trkpt lat="45.93907" lon="4.74309">
        <ele>170</ele>
        <time>2018-06-13T07:14:03Z</time>
      </trkpt>
      <trkpt lat="45.93907" lon="4.74302">
        <ele>170</ele>
        <time>2018-06-13T07:14:04Z</time>
      </trkpt>
      <trkpt lat="45.93907" lon="4.74296">
        <ele>170</ele>
        <time>2018-06-13T07:14:05Z</time>
      </trkpt>
      <trkpt lat="45.93908" lon="4.74283">
        <ele>170</ele>
        <time>2018-06-13T07:14:07Z</time>
      </trkpt>
      <trkpt lat="45.93907" lon="4.74278">
        <ele>170</ele>
        <time>2018-06-13T07:14:08Z</time>
      </trkpt>
      <trkpt lat="45.93908" lon="4.74272">
        <ele>170</ele>
        <time>2018-06-13T07:14:10Z</time>
      </trkpt>
      <trkpt lat="45.93908" lon="4.74264">
        <ele>170</ele>
        <time>2018-06-13T07:14:11Z</time>
      </trkpt>
      <trkpt lat="45.93908" lon="4.74258">
        <ele>170</ele>
        <time>2018-06-13T07:14:13Z</time>
      </trkpt>
      <trkpt lat="45.93909" lon="4.74248">
        <ele>170</ele>
        <time>2018-06-13T07:14:14Z</time>
      </trkpt>
      <trkpt lat="45.9391" lon="4.74236">
        <ele>170</ele>
        <time>2018-06-13T07:14:16Z</time>
      </trkpt>
      <trkpt lat="45.9391" lon="4.7423">
        <ele>170</ele>
        <time>2018-06-13T07:14:17Z</time>
      </trkpt>
      <trkpt lat="45.93911" lon="4.7422">
        <ele>169</ele>
        <time>2018-06-13T07:14:19Z</time>
      </trkpt>
      <trkpt lat="45.93911" lon="4.74214">
        <ele>169</ele>
        <time>2018-06-13T07:14:20Z</time>
      </trkpt>
      <trkpt lat="45.93912" lon="4.74202">
        <ele>169</ele>
        <time>2018-06-13T07:14:22Z</time>
      </trkpt>
      <trkpt lat="45.93913" lon="4.74196">
        <ele>169</ele>
        <time>2018-06-13T07:14:23Z</time>
      </trkpt>
      <trkpt lat="45.93915" lon="4.74183">
        <ele>169</ele>
        <time>2018-06-13T07:14:25Z</time>
      </trkpt>
      <trkpt lat="45.93915" lon="4.7418">
        <ele>169</ele>
        <time>2018-06-13T07:14:26Z</time>
      </trkpt>
      <trkpt lat="45.93916" lon="4.74169">
        <ele>168</ele>
        <time>2018-06-13T07:14:29Z</time>
      </trkpt>
      <trkpt lat="45.93916" lon="4.74165">
        <ele>168</ele>
        <time>2018-06-13T07:14:30Z</time>
      </trkpt>
      <trkpt lat="45.93917" lon="4.74157">
        <ele>168</ele>
        <time>2018-06-13T07:14:32Z</time>
      </trkpt>
      <trkpt lat="45.93918" lon="4.74144">
        <ele>168</ele>
        <time>2018-06-13T07:14:33Z</time>
      </trkpt>
      <trkpt lat="45.93919" lon="4.74133">
        <ele>169</ele>
        <time>2018-06-13T07:14:35Z</time>
      </trkpt>
      <trkpt lat="45.93919" lon="4.74128">
        <ele>169</ele>
        <time>2018-06-13T07:14:36Z</time>
      </trkpt>
      <trkpt lat="45.9392" lon="4.74119">
        <ele>169</ele>
        <time>2018-06-13T07:14:39Z</time>
      </trkpt>
      <trkpt lat="45.93921" lon="4.74115">
        <ele>169</ele>
        <time>2018-06-13T07:14:40Z</time>
      </trkpt>
      <trkpt lat="45.93923" lon="4.74104">
        <ele>169</ele>
        <time>2018-06-13T07:14:41Z</time>
      </trkpt>
      <trkpt lat="45.93923" lon="4.74098">
        <ele>169</ele>
        <time>2018-06-13T07:14:42Z</time>
      </trkpt>
      <trkpt lat="45.93924" lon="4.74086">
        <ele>170</ele>
        <time>2018-06-13T07:14:45Z</time>
      </trkpt>
      <trkpt lat="45.93924" lon="4.74083">
        <ele>170</ele>
        <time>2018-06-13T07:14:46Z</time>
      </trkpt>
      <trkpt lat="45.93924" lon="4.74075">
        <ele>170</ele>
        <time>2018-06-13T07:14:48Z</time>
      </trkpt>
      <trkpt lat="45.93925" lon="4.74063">
        <ele>170</ele>
        <time>2018-06-13T07:14:49Z</time>
      </trkpt>
      <trkpt lat="45.93925" lon="4.74052">
        <ele>171</ele>
        <time>2018-06-13T07:14:51Z</time>
      </trkpt>
      <trkpt lat="45.93926" lon="4.74046">
        <ele>171</ele>
        <time>2018-06-13T07:14:52Z</time>
      </trkpt>
      <trkpt lat="45.93926" lon="4.74034">
        <ele>171</ele>
        <time>2018-06-13T07:14:54Z</time>
      </trkpt>
      <trkpt lat="45.93926" lon="4.74031">
        <ele>171</ele>
        <time>2018-06-13T07:14:55Z</time>
      </trkpt>
      <trkpt lat="45.93927" lon="4.7402">
        <ele>171</ele>
        <time>2018-06-13T07:14:58Z</time>
      </trkpt>
      <trkpt lat="45.93927" lon="4.74009">
        <ele>171</ele>
        <time>2018-06-13T07:14:59Z</time>
      </trkpt>
      <trkpt lat="45.93928" lon="4.73997">
        <ele>172</ele>
        <time>2018-06-13T07:15:02Z</time>
      </trkpt>
      <trkpt lat="45.93928" lon="4.73993">
        <ele>172</ele>
        <time>2018-06-13T07:15:03Z</time>
      </trkpt>
      <trkpt lat="45.9393" lon="4.73981">
        <ele>172</ele>
        <time>2018-06-13T07:15:06Z</time>
      </trkpt>
      <trkpt lat="45.93931" lon="4.73967">
        <ele>172</ele>
        <time>2018-06-13T07:15:07Z</time>
      </trkpt>
      <trkpt lat="45.93932" lon="4.73955">
        <ele>172</ele>
        <time>2018-06-13T07:15:10Z</time>
      </trkpt>
      <trkpt lat="45.93932" lon="4.73951">
        <ele>172</ele>
        <time>2018-06-13T07:15:11Z</time>
      </trkpt>
      <trkpt lat="45.93933" lon="4.7394">
        <ele>172</ele>
        <time>2018-06-13T07:15:14Z</time>
      </trkpt>
      <trkpt lat="45.93933" lon="4.73936">
        <ele>172</ele>
        <time>2018-06-13T07:15:15Z</time>
      </trkpt>
      <trkpt lat="45.93934" lon="4.73932">
        <ele>172</ele>
        <time>2018-06-13T07:15:16Z</time>
      </trkpt>
      <trkpt lat="45.93936" lon="4.73919">
        <ele>171</ele>
        <time>2018-06-13T07:15:17Z</time>
      </trkpt>
      <trkpt lat="45.93937" lon="4.73907">
        <ele>172</ele>
        <time>2018-06-13T07:15:19Z</time>
      </trkpt>
      <trkpt lat="45.93938" lon="4.73902">
        <ele>172</ele>
        <time>2018-06-13T07:15:20Z</time>
      </trkpt>
      <trkpt lat="45.93939" lon="4.73892">
        <ele>172</ele>
        <time>2018-06-13T07:15:23Z</time>
      </trkpt>
      <trkpt lat="45.93939" lon="4.73888">
        <ele>172</ele>
        <time>2018-06-13T07:15:24Z</time>
      </trkpt>
      <trkpt lat="45.93941" lon="4.73876">
        <ele>172</ele>
        <time>2018-06-13T07:15:27Z</time>
      </trkpt>
      <trkpt lat="45.93942" lon="4.73872">
        <ele>172</ele>
        <time>2018-06-13T07:15:28Z</time>
      </trkpt>
      <trkpt lat="45.93943" lon="4.7386">
        <ele>172</ele>
        <time>2018-06-13T07:15:29Z</time>
      </trkpt>
      <trkpt lat="45.93943" lon="4.73855">
        <ele>172</ele>
        <time>2018-06-13T07:15:30Z</time>
      </trkpt>
      <trkpt lat="45.93945" lon="4.73843">
        <ele>172</ele>
        <time>2018-06-13T07:15:32Z</time>
      </trkpt>
      <trkpt lat="45.93945" lon="4.73837">
        <ele>172</ele>
        <time>2018-06-13T07:15:33Z</time>
      </trkpt>
      <trkpt lat="45.93947" lon="4.73826">
        <ele>172</ele>
        <time>2018-06-13T07:15:36Z</time>
      </trkpt>
      <trkpt lat="45.93947" lon="4.73822">
        <ele>172</ele>
        <time>2018-06-13T07:15:37Z</time>
      </trkpt>
      <trkpt lat="45.93947" lon="4.73819">
        <ele>172</ele>
        <time>2018-06-13T07:15:38Z</time>
      </trkpt>
      <trkpt lat="45.93949" lon="4.73808">
        <ele>172</ele>
        <time>2018-06-13T07:15:39Z</time>
      </trkpt>
      <trkpt lat="45.93951" lon="4.73797">
        <ele>172</ele>
        <time>2018-06-13T07:15:41Z</time>
      </trkpt>
      <trkpt lat="45.93951" lon="4.73791">
        <ele>172</ele>
        <time>2018-06-13T07:15:42Z</time>
      </trkpt>
      <trkpt lat="45.93952" lon="4.7378">
        <ele>172</ele>
        <time>2018-06-13T07:15:44Z</time>
      </trkpt>
      <trkpt lat="45.93953" lon="4.73775">
        <ele>172</ele>
        <time>2018-06-13T07:15:45Z</time>
      </trkpt>
      <trkpt lat="45.93954" lon="4.73765">
        <ele>172</ele>
        <time>2018-06-13T07:15:48Z</time>
      </trkpt>
      <trkpt lat="45.93954" lon="4.73762">
        <ele>172</ele>
        <time>2018-06-13T07:15:49Z</time>
      </trkpt>
      <trkpt lat="45.93955" lon="4.73752">
        <ele>172</ele>
        <time>2018-06-13T07:15:50Z</time>
      </trkpt>
      <trkpt lat="45.93956" lon="4.73747">
        <ele>172</ele>
        <time>2018-06-13T07:15:51Z</time>
      </trkpt>
      <trkpt lat="45.93957" lon="4.73736">
        <ele>172</ele>
        <time>2018-06-13T07:15:53Z</time>
      </trkpt>
      <trkpt lat="45.93958" lon="4.7373">
        <ele>172</ele>
        <time>2018-06-13T07:15:54Z</time>
      </trkpt>
      <trkpt lat="45.93958" lon="4.73719">
        <ele>172</ele>
        <time>2018-06-13T07:15:56Z</time>
      </trkpt>
      <trkpt lat="45.93958" lon="4.73716">
        <ele>172</ele>
        <time>2018-06-13T07:15:57Z</time>
      </trkpt>
      <trkpt lat="45.93958" lon="4.73706">
        <ele>172</ele>
        <time>2018-06-13T07:16:00Z</time>
      </trkpt>
      <trkpt lat="45.93958" lon="4.73702">
        <ele>172</ele>
        <time>2018-06-13T07:16:01Z</time>
      </trkpt>
      <trkpt lat="45.93959" lon="4.73698">
        <ele>172</ele>
        <time>2018-06-13T07:16:02Z</time>
      </trkpt>
      <trkpt lat="45.93962" lon="4.73687">
        <ele>172</ele>
        <time>2018-06-13T07:16:03Z</time>
      </trkpt>
      <trkpt lat="45.93965" lon="4.73676">
        <ele>172</ele>
        <time>2018-06-13T07:16:05Z</time>
      </trkpt>
      <trkpt lat="45.93966" lon="4.7367">
        <ele>172</ele>
        <time>2018-06-13T07:16:06Z</time>
      </trkpt>
      <trkpt lat="45.93969" lon="4.73659">
        <ele>171</ele>
        <time>2018-06-13T07:16:08Z</time>
      </trkpt>
      <trkpt lat="45.93969" lon="4.73656">
        <ele>171</ele>
        <time>2018-06-13T07:16:09Z</time>
      </trkpt>
      <trkpt lat="45.9397" lon="4.73652">
        <ele>171</ele>
        <time>2018-06-13T07:16:10Z</time>
      </trkpt>
      <trkpt lat="45.93972" lon="4.73643">
        <ele>170</ele>
        <time>2018-06-13T07:16:11Z</time>
      </trkpt>
      <trkpt lat="45.93975" lon="4.73631">
        <ele>170</ele>
        <time>2018-06-13T07:16:13Z</time>
      </trkpt>
      <trkpt lat="45.93977" lon="4.73625">
        <ele>170</ele>
        <time>2018-06-13T07:16:14Z</time>
      </trkpt>
      <trkpt lat="45.93979" lon="4.73619">
        <ele>170</ele>
        <time>2018-06-13T07:16:15Z</time>
      </trkpt>
      <trkpt lat="45.93981" lon="4.73612">
        <ele>170</ele>
        <time>2018-06-13T07:16:16Z</time>
      </trkpt>
      <trkpt lat="45.93983" lon="4.73601">
        <ele>169</ele>
        <time>2018-06-13T07:16:18Z</time>
      </trkpt>
      <trkpt lat="45.93985" lon="4.73595">
        <ele>169</ele>
        <time>2018-06-13T07:16:19Z</time>
      </trkpt>
      <trkpt lat="45.93987" lon="4.73584">
        <ele>169</ele>
        <time>2018-06-13T07:16:22Z</time>
      </trkpt>
      <trkpt lat="45.93988" lon="4.73581">
        <ele>168</ele>
        <time>2018-06-13T07:16:23Z</time>
      </trkpt>
      <trkpt lat="45.93989" lon="4.73578">
        <ele>168</ele>
        <time>2018-06-13T07:16:24Z</time>
      </trkpt>
      <trkpt lat="45.93992" lon="4.73568">
        <ele>168</ele>
        <time>2018-06-13T07:16:25Z</time>
      </trkpt>
      <trkpt lat="45.93995" lon="4.73557">
        <ele>168</ele>
        <time>2018-06-13T07:16:27Z</time>
      </trkpt>
      <trkpt lat="45.93997" lon="4.73552">
        <ele>168</ele>
        <time>2018-06-13T07:16:28Z</time>
      </trkpt>
      <trkpt lat="45.94001" lon="4.73542">
        <ele>171</ele>
        <time>2018-06-13T07:16:30Z</time>
      </trkpt>
      <trkpt lat="45.94003" lon="4.73537">
        <ele>171</ele>
        <time>2018-06-13T07:16:31Z</time>
      </trkpt>
      <trkpt lat="45.94006" lon="4.73531">
        <ele>171</ele>
        <time>2018-06-13T07:16:33Z</time>
      </trkpt>
      <trkpt lat="45.94009" lon="4.73525">
        <ele>171</ele>
        <time>2018-06-13T07:16:34Z</time>
      </trkpt>
      <trkpt lat="45.94012" lon="4.73516">
        <ele>171</ele>
        <time>2018-06-13T07:16:36Z</time>
      </trkpt>
      <trkpt lat="45.94015" lon="4.73512">
        <ele>171</ele>
        <time>2018-06-13T07:16:37Z</time>
      </trkpt>
      <trkpt lat="45.9402" lon="4.73503">
        <ele>171</ele>
        <time>2018-06-13T07:16:39Z</time>
      </trkpt>
      <trkpt lat="45.94022" lon="4.73498">
        <ele>170</ele>
        <time>2018-06-13T07:16:40Z</time>
      </trkpt>
      <trkpt lat="45.94026" lon="4.73489">
        <ele>171</ele>
        <time>2018-06-13T07:16:42Z</time>
      </trkpt>
      <trkpt lat="45.94028" lon="4.73485">
        <ele>171</ele>
        <time>2018-06-13T07:16:43Z</time>
      </trkpt>
      <trkpt lat="45.94034" lon="4.73476">
        <ele>171</ele>
        <time>2018-06-13T07:16:45Z</time>
      </trkpt>
      <trkpt lat="45.94037" lon="4.73472">
        <ele>171</ele>
        <time>2018-06-13T07:16:46Z</time>
      </trkpt>
      <trkpt lat="45.94042" lon="4.73463">
        <ele>171</ele>
        <time>2018-06-13T07:16:48Z</time>
      </trkpt>
      <trkpt lat="45.94043" lon="4.73461">
        <ele>171</ele>
        <time>2018-06-13T07:16:49Z</time>
      </trkpt>
      <trkpt lat="45.94047" lon="4.73453">
        <ele>171</ele>
        <time>2018-06-13T07:16:52Z</time>
      </trkpt>
      <trkpt lat="45.94051" lon="4.73444">
        <ele>172</ele>
        <time>2018-06-13T07:16:53Z</time>
      </trkpt>
      <trkpt lat="45.94056" lon="4.73436">
        <ele>172</ele>
        <time>2018-06-13T07:16:55Z</time>
      </trkpt>
      <trkpt lat="45.94059" lon="4.73431">
        <ele>172</ele>
        <time>2018-06-13T07:16:56Z</time>
      </trkpt>
      <trkpt lat="45.94064" lon="4.73423">
        <ele>172</ele>
        <time>2018-06-13T07:16:58Z</time>
      </trkpt>
      <trkpt lat="45.94065" lon="4.73419">
        <ele>172</ele>
        <time>2018-06-13T07:16:59Z</time>
      </trkpt>
      <trkpt lat="45.94072" lon="4.73411">
        <ele>172</ele>
        <time>2018-06-13T07:17:01Z</time>
      </trkpt>
      <trkpt lat="45.94074" lon="4.73406">
        <ele>172</ele>
        <time>2018-06-13T07:17:02Z</time>
      </trkpt>
      <trkpt lat="45.9408" lon="4.73397">
        <ele>171</ele>
        <time>2018-06-13T07:17:04Z</time>
      </trkpt>
      <trkpt lat="45.94084" lon="4.73393">
        <ele>174</ele>
        <time>2018-06-13T07:17:05Z</time>
      </trkpt>
      <trkpt lat="45.94087" lon="4.73388">
        <ele>174</ele>
        <time>2018-06-13T07:17:06Z</time>
      </trkpt>
      <trkpt lat="45.9409" lon="4.73384">
        <ele>174</ele>
        <time>2018-06-13T07:17:07Z</time>
      </trkpt>
      <trkpt lat="45.94096" lon="4.73375">
        <ele>174</ele>
        <time>2018-06-13T07:17:09Z</time>
      </trkpt>
      <trkpt lat="45.94098" lon="4.7337">
        <ele>173</ele>
        <time>2018-06-13T07:17:10Z</time>
      </trkpt>
      <trkpt lat="45.94101" lon="4.73363">
        <ele>173</ele>
        <time>2018-06-13T07:17:13Z</time>
      </trkpt>
      <trkpt lat="45.94104" lon="4.7336">
        <ele>173</ele>
        <time>2018-06-13T07:17:14Z</time>
      </trkpt>
      <trkpt lat="45.94106" lon="4.73357">
        <ele>173</ele>
        <time>2018-06-13T07:17:15Z</time>
      </trkpt>
      <trkpt lat="45.94112" lon="4.73348">
        <ele>173</ele>
        <time>2018-06-13T07:17:16Z</time>
      </trkpt>
      <trkpt lat="45.94117" lon="4.73339">
        <ele>173</ele>
        <time>2018-06-13T07:17:18Z</time>
      </trkpt>
      <trkpt lat="45.9412" lon="4.73335">
        <ele>173</ele>
        <time>2018-06-13T07:17:19Z</time>
      </trkpt>
      <trkpt lat="45.94125" lon="4.73327">
        <ele>171</ele>
        <time>2018-06-13T07:17:21Z</time>
      </trkpt>
      <trkpt lat="45.94127" lon="4.73325">
        <ele>171</ele>
        <time>2018-06-13T07:17:22Z</time>
      </trkpt>
      <trkpt lat="45.94131" lon="4.7332">
        <ele>171</ele>
        <time>2018-06-13T07:17:24Z</time>
      </trkpt>
      <trkpt lat="45.94136" lon="4.73313">
        <ele>171</ele>
        <time>2018-06-13T07:17:25Z</time>
      </trkpt>
      <trkpt lat="45.94139" lon="4.73309">
        <ele>171</ele>
        <time>2018-06-13T07:17:27Z</time>
      </trkpt>
      <trkpt lat="45.94143" lon="4.73301">
        <ele>171</ele>
        <time>2018-06-13T07:17:28Z</time>
      </trkpt>
      <trkpt lat="45.94148" lon="4.73294">
        <ele>170</ele>
        <time>2018-06-13T07:17:31Z</time>
      </trkpt>
      <trkpt lat="45.9415" lon="4.73291">
        <ele>170</ele>
        <time>2018-06-13T07:17:32Z</time>
      </trkpt>
      <trkpt lat="45.94155" lon="4.73285">
        <ele>170</ele>
        <time>2018-06-13T07:17:34Z</time>
      </trkpt>
      <trkpt lat="45.94158" lon="4.73282">
        <ele>170</ele>
        <time>2018-06-13T07:17:35Z</time>
      </trkpt>
      <trkpt lat="45.94166" lon="4.73273">
        <ele>170</ele>
        <time>2018-06-13T07:17:36Z</time>
      </trkpt>
      <trkpt lat="45.94173" lon="4.73266">
        <ele>171</ele>
        <time>2018-06-13T07:17:38Z</time>
      </trkpt>
      <trkpt lat="45.94176" lon="4.73263">
        <ele>171</ele>
        <time>2018-06-13T07:17:39Z</time>
      </trkpt>
      <trkpt lat="45.94183" lon="4.73257">
        <ele>172</ele>
        <time>2018-06-13T07:17:43Z</time>
      </trkpt>
      <trkpt lat="45.94186" lon="4.73254">
        <ele>172</ele>
        <time>2018-06-13T07:17:44Z</time>
      </trkpt>
      <trkpt lat="45.94188" lon="4.73252">
        <ele>172</ele>
        <time>2018-06-13T07:17:45Z</time>
      </trkpt>
      <trkpt lat="45.94195" lon="4.73245">
        <ele>169</ele>
        <time>2018-06-13T07:17:46Z</time>
      </trkpt>
      <trkpt lat="45.94201" lon="4.73238">
        <ele>169</ele>
        <time>2018-06-13T07:17:48Z</time>
      </trkpt>
      <trkpt lat="45.94204" lon="4.73235">
        <ele>169</ele>
        <time>2018-06-13T07:17:49Z</time>
      </trkpt>
      <trkpt lat="45.9421" lon="4.7323">
        <ele>169</ele>
        <time>2018-06-13T07:17:52Z</time>
      </trkpt>
      <trkpt lat="45.94212" lon="4.73228">
        <ele>169</ele>
        <time>2018-06-13T07:17:53Z</time>
      </trkpt>
      <trkpt lat="45.94217" lon="4.73224">
        <ele>169</ele>
        <time>2018-06-13T07:17:55Z</time>
      </trkpt>
      <trkpt lat="45.94224" lon="4.73218">
        <ele>169</ele>
        <time>2018-06-13T07:17:56Z</time>
      </trkpt>
      <trkpt lat="45.94232" lon="4.73212">
        <ele>169</ele>
        <time>2018-06-13T07:17:58Z</time>
      </trkpt>
      <trkpt lat="45.94235" lon="4.73209">
        <ele>169</ele>
        <time>2018-06-13T07:17:59Z</time>
      </trkpt>
      <trkpt lat="45.94242" lon="4.73204">
        <ele>168</ele>
        <time>2018-06-13T07:18:01Z</time>
      </trkpt>
      <trkpt lat="45.94246" lon="4.73201">
        <ele>168</ele>
        <time>2018-06-13T07:18:02Z</time>
      </trkpt>
      <trkpt lat="45.94253" lon="4.73195">
        <ele>169</ele>
        <time>2018-06-13T07:18:04Z</time>
      </trkpt>
      <trkpt lat="45.94255" lon="4.73194">
        <ele>169</ele>
        <time>2018-06-13T07:18:05Z</time>
      </trkpt>
      <trkpt lat="45.94261" lon="4.73187">
        <ele>169</ele>
        <time>2018-06-13T07:18:08Z</time>
      </trkpt>
      <trkpt lat="45.94264" lon="4.73185">
        <ele>169</ele>
        <time>2018-06-13T07:18:09Z</time>
      </trkpt>
      <trkpt lat="45.94271" lon="4.73178">
        <ele>169</ele>
        <time>2018-06-13T07:18:12Z</time>
      </trkpt>
      <trkpt lat="45.94273" lon="4.73177">
        <ele>169</ele>
        <time>2018-06-13T07:18:13Z</time>
      </trkpt>
      <trkpt lat="45.94281" lon="4.73176">
        <ele>169</ele>
        <time>2018-06-13T07:18:18Z</time>
      </trkpt>
      <trkpt lat="45.94283" lon="4.73174">
        <ele>170</ele>
        <time>2018-06-13T07:18:19Z</time>
      </trkpt>
      <trkpt lat="45.94289" lon="4.73168">
        <ele>170</ele>
        <time>2018-06-13T07:18:22Z</time>
      </trkpt>
      <trkpt lat="45.94292" lon="4.73165">
        <ele>167</ele>
        <time>2018-06-13T07:18:23Z</time>
      </trkpt>
      <trkpt lat="45.94296" lon="4.73159">
        <ele>168</ele>
        <time>2018-06-13T07:18:25Z</time>
      </trkpt>
      <trkpt lat="45.94299" lon="4.73157">
        <ele>168</ele>
        <time>2018-06-13T07:18:26Z</time>
      </trkpt>
      <trkpt lat="45.94305" lon="4.73151">
        <ele>168</ele>
        <time>2018-06-13T07:18:29Z</time>
      </trkpt>
      <trkpt lat="45.94314" lon="4.73146">
        <ele>168</ele>
        <time>2018-06-13T07:18:30Z</time>
      </trkpt>
      <trkpt lat="45.94321" lon="4.73141">
        <ele>168</ele>
        <time>2018-06-13T07:18:32Z</time>
      </trkpt>
      <trkpt lat="45.94324" lon="4.73138">
        <ele>168</ele>
        <time>2018-06-13T07:18:33Z</time>
      </trkpt>
      <trkpt lat="45.94332" lon="4.73132">
        <ele>168</ele>
        <time>2018-06-13T07:18:35Z</time>
      </trkpt>
      <trkpt lat="45.94336" lon="4.7313">
        <ele>169</ele>
        <time>2018-06-13T07:18:36Z</time>
      </trkpt>
      <trkpt lat="45.94343" lon="4.73125">
        <ele>169</ele>
        <time>2018-06-13T07:18:39Z</time>
      </trkpt>
      <trkpt lat="45.94345" lon="4.73123">
        <ele>169</ele>
        <time>2018-06-13T07:18:40Z</time>
      </trkpt>
      <trkpt lat="45.94351" lon="4.73118">
        <ele>169</ele>
        <time>2018-06-13T07:18:43Z</time>
      </trkpt>
      <trkpt lat="45.94357" lon="4.73111">
        <ele>169</ele>
        <time>2018-06-13T07:18:44Z</time>
      </trkpt>
      <trkpt lat="45.94364" lon="4.73105">
        <ele>169</ele>
        <time>2018-06-13T07:18:46Z</time>
      </trkpt>
      <trkpt lat="45.94367" lon="4.73102">
        <ele>169</ele>
        <time>2018-06-13T07:18:47Z</time>
      </trkpt>
      <trkpt lat="45.94373" lon="4.73097">
        <ele>169</ele>
        <time>2018-06-13T07:18:50Z</time>
      </trkpt>
      <trkpt lat="45.94375" lon="4.73095">
        <ele>169</ele>
        <time>2018-06-13T07:18:51Z</time>
      </trkpt>
      <trkpt lat="45.9438" lon="4.73091">
        <ele>169</ele>
        <time>2018-06-13T07:18:53Z</time>
      </trkpt>
      <trkpt lat="45.94388" lon="4.73083">
        <ele>167</ele>
        <time>2018-06-13T07:18:54Z</time>
      </trkpt>
      <trkpt lat="45.94393" lon="4.73077">
        <ele>168</ele>
        <time>2018-06-13T07:18:57Z</time>
      </trkpt>
      <trkpt lat="45.94396" lon="4.73075">
        <ele>168</ele>
        <time>2018-06-13T07:18:58Z</time>
      </trkpt>
      <trkpt lat="45.94398" lon="4.73073">
        <ele>168</ele>
        <time>2018-06-13T07:18:59Z</time>
      </trkpt>
      <trkpt lat="45.94405" lon="4.73066">
        <ele>168</ele>
        <time>2018-06-13T07:19:00Z</time>
      </trkpt>
      <trkpt lat="45.94409" lon="4.73062">
        <ele>168</ele>
        <time>2018-06-13T07:19:01Z</time>
      </trkpt>
      <trkpt lat="45.94413" lon="4.73058">
        <ele>168</ele>
        <time>2018-06-13T07:19:02Z</time>
      </trkpt>
      <trkpt lat="45.94419" lon="4.73051">
        <ele>169</ele>
        <time>2018-06-13T07:19:05Z</time>
      </trkpt>
      <trkpt lat="45.94421" lon="4.73048">
        <ele>169</ele>
        <time>2018-06-13T07:19:06Z</time>
      </trkpt>
      <trkpt lat="45.94429" lon="4.73044">
        <ele>169</ele>
        <time>2018-06-13T07:19:30Z</time>
      </trkpt>
      <trkpt lat="45.9443" lon="4.73044">
        <ele>169</ele>
        <time>2018-06-13T07:19:31Z</time>
      </trkpt>
      <trkpt lat="45.9443" lon="4.73042">
        <ele>169</ele>
        <time>2018-06-13T07:20:40Z</time>
      </trkpt>
      <trkpt lat="45.9443" lon="4.73041">
        <ele>169</ele>
        <time>2018-06-13T07:20:41Z</time>
      </trkpt>
      <trkpt lat="45.9443" lon="4.73041">
        <ele>169</ele>
        <time>2018-06-13T07:20:53Z</time>
      </trkpt>
      <trkpt lat="45.9443" lon="4.73041">
        <ele>169</ele>
        <time>2018-06-13T07:20:54Z</time>
      </trkpt>
      <trkpt lat="45.94435" lon="4.73032">
        <ele>169</ele>
        <time>2018-06-13T07:20:59Z</time>
      </trkpt>
      <trkpt lat="45.94438" lon="4.73029">
        <ele>169</ele>
        <time>2018-06-13T07:21:00Z</time>
      </trkpt>
      <trkpt lat="45.94444" lon="4.73022">
        <ele>169</ele>
        <time>2018-06-13T07:21:01Z</time>
      </trkpt>
      <trkpt lat="45.94448" lon="4.73018">
        <ele>169</ele>
        <time>2018-06-13T07:21:02Z</time>
      </trkpt>
      <trkpt lat="45.94452" lon="4.73016">
        <ele>169</ele>
        <time>2018-06-13T07:21:04Z</time>
      </trkpt>
      <trkpt lat="45.94458" lon="4.73013">
        <ele>169</ele>
        <time>2018-06-13T07:21:05Z</time>
      </trkpt>
      <trkpt lat="45.94465" lon="4.73012">
        <ele>169</ele>
        <time>2018-06-13T07:21:07Z</time>
      </trkpt>
      <trkpt lat="45.94469" lon="4.73013">
        <ele>170</ele>
        <time>2018-06-13T07:21:08Z</time>
      </trkpt>
      <trkpt lat="45.94478" lon="4.73011">
        <ele>170</ele>
        <time>2018-06-13T07:21:10Z</time>
      </trkpt>
      <trkpt lat="45.94481" lon="4.73011">
        <ele>170</ele>
        <time>2018-06-13T07:21:11Z</time>
      </trkpt>
      <trkpt lat="45.9449" lon="4.73011">
        <ele>170</ele>
        <time>2018-06-13T07:21:14Z</time>
      </trkpt>
      <trkpt lat="45.94492" lon="4.7301">
        <ele>170</ele>
        <time>2018-06-13T07:21:15Z</time>
      </trkpt>
      <trkpt lat="45.94501" lon="4.7301">
        <ele>171</ele>
        <time>2018-06-13T07:21:18Z</time>
      </trkpt>
      <trkpt lat="45.94505" lon="4.7301">
        <ele>171</ele>
        <time>2018-06-13T07:21:19Z</time>
      </trkpt>
      <trkpt lat="45.94514" lon="4.73009">
        <ele>171</ele>
        <time>2018-06-13T07:21:22Z</time>
      </trkpt>
      <trkpt lat="45.94516" lon="4.73009">
        <ele>171</ele>
        <time>2018-06-13T07:21:23Z</time>
      </trkpt>
      <trkpt lat="45.94523" lon="4.73011">
        <ele>171</ele>
        <time>2018-06-13T07:21:26Z</time>
      </trkpt>
      <trkpt lat="45.94526" lon="4.73012">
        <ele>171</ele>
        <time>2018-06-13T07:21:27Z</time>
      </trkpt>
      <trkpt lat="45.94533" lon="4.73013">
        <ele>171</ele>
        <time>2018-06-13T07:21:31Z</time>
      </trkpt>
      <trkpt lat="45.94535" lon="4.73013">
        <ele>171</ele>
        <time>2018-06-13T07:21:32Z</time>
      </trkpt>
      <trkpt lat="45.94541" lon="4.73015">
        <ele>171</ele>
        <time>2018-06-13T07:21:35Z</time>
      </trkpt>
      <trkpt lat="45.94543" lon="4.73017">
        <ele>171</ele>
        <time>2018-06-13T07:21:36Z</time>
      </trkpt>
      <trkpt lat="45.94549" lon="4.73024">
        <ele>171</ele>
        <time>2018-06-13T07:21:39Z</time>
      </trkpt>
      <trkpt lat="45.9455" lon="4.73027">
        <ele>171</ele>
        <time>2018-06-13T07:21:40Z</time>
      </trkpt>
      <trkpt lat="45.94554" lon="4.73035">
        <ele>171</ele>
        <time>2018-06-13T07:21:43Z</time>
      </trkpt>
      <trkpt lat="45.94554" lon="4.73039">
        <ele>171</ele>
        <time>2018-06-13T07:21:44Z</time>
      </trkpt>
      <trkpt lat="45.94555" lon="4.73051">
        <ele>172</ele>
        <time>2018-06-13T07:21:45Z</time>
      </trkpt>
      <trkpt lat="45.94556" lon="4.73057">
        <ele>172</ele>
        <time>2018-06-13T07:21:46Z</time>
      </trkpt>
      <trkpt lat="45.94556" lon="4.73067">
        <ele>172</ele>
        <time>2018-06-13T07:21:48Z</time>
      </trkpt>
      <trkpt lat="45.94556" lon="4.73072">
        <ele>172</ele>
        <time>2018-06-13T07:21:49Z</time>
      </trkpt>
      <trkpt lat="45.94556" lon="4.73083">
        <ele>172</ele>
        <time>2018-06-13T07:21:51Z</time>
      </trkpt>
      <trkpt lat="45.94556" lon="4.73089">
        <ele>172</ele>
        <time>2018-06-13T07:21:52Z</time>
      </trkpt>
      <trkpt lat="45.94557" lon="4.73101">
        <ele>173</ele>
        <time>2018-06-13T07:21:56Z</time>
      </trkpt>
      <trkpt lat="45.94557" lon="4.73103">
        <ele>173</ele>
        <time>2018-06-13T07:21:57Z</time>
      </trkpt>
      <trkpt lat="45.9455" lon="4.73111">
        <ele>173</ele>
        <time>2018-06-13T07:22:00Z</time>
      </trkpt>
      <trkpt lat="45.94547" lon="4.73111">
        <ele>173</ele>
        <time>2018-06-13T07:22:01Z</time>
      </trkpt>
      <trkpt lat="45.94545" lon="4.7311">
        <ele>173</ele>
        <time>2018-06-13T07:22:02Z</time>
      </trkpt>
      <trkpt lat="45.94537" lon="4.73107">
        <ele>173</ele>
        <time>2018-06-13T07:22:03Z</time>
      </trkpt>
      <trkpt lat="45.94529" lon="4.73103">
        <ele>173</ele>
        <time>2018-06-13T07:22:05Z</time>
      </trkpt>
      <trkpt lat="45.94527" lon="4.73102">
        <ele>173</ele>
        <time>2018-06-13T07:22:06Z</time>
      </trkpt>
      <trkpt lat="45.94519" lon="4.73099">
        <ele>172</ele>
        <time>2018-06-13T07:22:09Z</time>
      </trkpt>
      <trkpt lat="45.94517" lon="4.73098">
        <ele>172</ele>
        <time>2018-06-13T07:22:10Z</time>
      </trkpt>
      <trkpt lat="45.9451" lon="4.73096">
        <ele>172</ele>
        <time>2018-06-13T07:22:12Z</time>
      </trkpt>
      <trkpt lat="45.94502" lon="4.73091">
        <ele>172</ele>
        <time>2018-06-13T07:22:13Z</time>
      </trkpt>
      <trkpt lat="45.94498" lon="4.73089">
        <ele>172</ele>
        <time>2018-06-13T07:22:15Z</time>
      </trkpt>
      <trkpt lat="45.94491" lon="4.73085">
        <ele>172</ele>
        <time>2018-06-13T07:22:16Z</time>
      </trkpt>
      <trkpt lat="45.94484" lon="4.73079">
        <ele>171</ele>
        <time>2018-06-13T07:22:20Z</time>
      </trkpt>
      <trkpt lat="45.94482" lon="4.73078">
        <ele>171</ele>
        <time>2018-06-13T07:22:21Z</time>
      </trkpt>
      <trkpt lat="45.94476" lon="4.73072">
        <ele>170</ele>
        <time>2018-06-13T07:22:24Z</time>
      </trkpt>
      <trkpt lat="45.94474" lon="4.7307">
        <ele>170</ele>
        <time>2018-06-13T07:22:25Z</time>
      </trkpt>
      <trkpt lat="45.94469" lon="4.73063">
        <ele>170</ele>
        <time>2018-06-13T07:22:28Z</time>
      </trkpt>
      <trkpt lat="45.94468" lon="4.7306">
        <ele>170</ele>
        <time>2018-06-13T07:22:29Z</time>
      </trkpt>
      <trkpt lat="45.94463" lon="4.73052">
        <ele>170</ele>
        <time>2018-06-13T07:22:32Z</time>
      </trkpt>
      <trkpt lat="45.94462" lon="4.73048">
        <ele>170</ele>
        <time>2018-06-13T07:22:33Z</time>
      </trkpt>
      <trkpt lat="45.9446" lon="4.73036">
        <ele>169</ele>
        <time>2018-06-13T07:22:36Z</time>
      </trkpt>
      <trkpt lat="45.9446" lon="4.73032">
        <ele>169</ele>
        <time>2018-06-13T07:22:37Z</time>
      </trkpt>
      <trkpt lat="45.94458" lon="4.73023">
        <ele>169</ele>
        <time>2018-06-13T07:22:39Z</time>
      </trkpt>
      <trkpt lat="45.94458" lon="4.73019">
        <ele>169</ele>
        <time>2018-06-13T07:22:40Z</time>
      </trkpt>
      <trkpt lat="45.94457" lon="4.7301">
        <ele>169</ele>
        <time>2018-06-13T07:22:42Z</time>
      </trkpt>
      <trkpt lat="45.94456" lon="4.73005">
        <ele>169</ele>
        <time>2018-06-13T07:22:43Z</time>
      </trkpt>
      <trkpt lat="45.94455" lon="4.72996">
        <ele>168</ele>
        <time>2018-06-13T07:22:45Z</time>
      </trkpt>
      <trkpt lat="45.94455" lon="4.72991">
        <ele>168</ele>
        <time>2018-06-13T07:22:46Z</time>
      </trkpt>
      <trkpt lat="45.94454" lon="4.72982">
        <ele>167</ele>
        <time>2018-06-13T07:22:48Z</time>
      </trkpt>
      <trkpt lat="45.94453" lon="4.72978">
        <ele>167</ele>
        <time>2018-06-13T07:22:49Z</time>
      </trkpt>
      <trkpt lat="45.94452" lon="4.72969">
        <ele>167</ele>
        <time>2018-06-13T07:22:51Z</time>
      </trkpt>
      <trkpt lat="45.94452" lon="4.72964">
        <ele>167</ele>
        <time>2018-06-13T07:22:52Z</time>
      </trkpt>
      <trkpt lat="45.94451" lon="4.72954">
        <ele>167</ele>
        <time>2018-06-13T07:22:54Z</time>
      </trkpt>
      <trkpt lat="45.94451" lon="4.72949">
        <ele>167</ele>
        <time>2018-06-13T07:22:55Z</time>
      </trkpt>
      <trkpt lat="45.9445" lon="4.72939">
        <ele>167</ele>
        <time>2018-06-13T07:22:57Z</time>
      </trkpt>
      <trkpt lat="45.94449" lon="4.72934">
        <ele>167</ele>
        <time>2018-06-13T07:22:58Z</time>
      </trkpt>
      <trkpt lat="45.94448" lon="4.72923">
        <ele>167</ele>
        <time>2018-06-13T07:23:00Z</time>
      </trkpt>
      <trkpt lat="45.94447" lon="4.72919">
        <ele>167</ele>
        <time>2018-06-13T07:23:01Z</time>
      </trkpt>
      <trkpt lat="45.94446" lon="4.72906">
        <ele>166</ele>
        <time>2018-06-13T07:23:02Z</time>
      </trkpt>
      <trkpt lat="45.94444" lon="4.72893">
        <ele>166</ele>
        <time>2018-06-13T07:23:04Z</time>
      </trkpt>
      <trkpt lat="45.94444" lon="4.72887">
        <ele>166</ele>
        <time>2018-06-13T07:23:05Z</time>
      </trkpt>
      <trkpt lat="45.94443" lon="4.72881">
        <ele>166</ele>
        <time>2018-06-13T07:23:06Z</time>
      </trkpt>
      <trkpt lat="45.94442" lon="4.72874">
        <ele>166</ele>
        <time>2018-06-13T07:23:07Z</time>
      </trkpt>
      <trkpt lat="45.94441" lon="4.72862">
        <ele>166</ele>
        <time>2018-06-13T07:23:09Z</time>
      </trkpt>
      <trkpt lat="45.9444" lon="4.72856">
        <ele>166</ele>
        <time>2018-06-13T07:23:10Z</time>
      </trkpt>
      <trkpt lat="45.9444" lon="4.72848">
        <ele>166</ele>
        <time>2018-06-13T07:23:11Z</time>
      </trkpt>
      <trkpt lat="45.94439" lon="4.72842">
        <ele>166</ele>
        <time>2018-06-13T07:23:12Z</time>
      </trkpt>
      <trkpt lat="45.94436" lon="4.7283">
        <ele>167</ele>
        <time>2018-06-13T07:23:14Z</time>
      </trkpt>
      <trkpt lat="45.94436" lon="4.72822">
        <ele>167</ele>
        <time>2018-06-13T07:23:15Z</time>
      </trkpt>
      <trkpt lat="45.94436" lon="4.72815">
        <ele>167</ele>
        <time>2018-06-13T07:23:16Z</time>
      </trkpt>
      <trkpt lat="45.94435" lon="4.72808">
        <ele>167</ele>
        <time>2018-06-13T07:23:17Z</time>
      </trkpt>
      <trkpt lat="45.94434" lon="4.72801">
        <ele>167</ele>
        <time>2018-06-13T07:23:18Z</time>
      </trkpt>
      <trkpt lat="45.94433" lon="4.72793">
        <ele>168</ele>
        <time>2018-06-13T07:23:19Z</time>
      </trkpt>
      <trkpt lat="45.94432" lon="4.72788">
        <ele>168</ele>
        <time>2018-06-13T07:23:20Z</time>
      </trkpt>
      <trkpt lat="45.94431" lon="4.72781">
        <ele>168</ele>
        <time>2018-06-13T07:23:21Z</time>
      </trkpt>
      <trkpt lat="45.94429" lon="4.72774">
        <ele>168</ele>
        <time>2018-06-13T07:23:22Z</time>
      </trkpt>
      <trkpt lat="45.94428" lon="4.72767">
        <ele>169</ele>
        <time>2018-06-13T07:23:23Z</time>
      </trkpt>
      <trkpt lat="45.94429" lon="4.72759">
        <ele>169</ele>
        <time>2018-06-13T07:23:24Z</time>
      </trkpt>
      <trkpt lat="45.94428" lon="4.72753">
        <ele>170</ele>
        <time>2018-06-13T07:23:25Z</time>
      </trkpt>
      <trkpt lat="45.94427" lon="4.72746">
        <ele>171</ele>
        <time>2018-06-13T07:23:26Z</time>
      </trkpt>
      <trkpt lat="45.94427" lon="4.72739">
        <ele>171</ele>
        <time>2018-06-13T07:23:27Z</time>
      </trkpt>
      <trkpt lat="45.94425" lon="4.72732">
        <ele>171</ele>
        <time>2018-06-13T07:23:28Z</time>
      </trkpt>
      <trkpt lat="45.94424" lon="4.72725">
        <ele>171</ele>
        <time>2018-06-13T07:23:29Z</time>
      </trkpt>
      <trkpt lat="45.94423" lon="4.72714">
        <ele>172</ele>
        <time>2018-06-13T07:23:31Z</time>
      </trkpt>
      <trkpt lat="45.94422" lon="4.72706">
        <ele>172</ele>
        <time>2018-06-13T07:23:32Z</time>
      </trkpt>
      <trkpt lat="45.94421" lon="4.72699">
        <ele>172</ele>
        <time>2018-06-13T07:23:33Z</time>
      </trkpt>
      <trkpt lat="45.9442" lon="4.72692">
        <ele>172</ele>
        <time>2018-06-13T07:23:34Z</time>
      </trkpt>
      <trkpt lat="45.94419" lon="4.72685">
        <ele>173</ele>
        <time>2018-06-13T07:23:35Z</time>
      </trkpt>
      <trkpt lat="45.94418" lon="4.72679">
        <ele>173</ele>
        <time>2018-06-13T07:23:36Z</time>
      </trkpt>
      <trkpt lat="45.94416" lon="4.72667">
        <ele>174</ele>
        <time>2018-06-13T07:23:38Z</time>
      </trkpt>
      <trkpt lat="45.94417" lon="4.72661">
        <ele>174</ele>
        <time>2018-06-13T07:23:39Z</time>
      </trkpt>
      <trkpt lat="45.94415" lon="4.72653">
        <ele>174</ele>
        <time>2018-06-13T07:23:40Z</time>
      </trkpt>
      <trkpt lat="45.94415" lon="4.72646">
        <ele>174</ele>
        <time>2018-06-13T07:23:41Z</time>
      </trkpt>
      <trkpt lat="45.94414" lon="4.72634">
        <ele>174</ele>
        <time>2018-06-13T07:23:44Z</time>
      </trkpt>
      <trkpt lat="45.94414" lon="4.72629">
        <ele>174</ele>
        <time>2018-06-13T07:23:45Z</time>
      </trkpt>
      <trkpt lat="45.94413" lon="4.72616">
        <ele>173</ele>
        <time>2018-06-13T07:23:49Z</time>
      </trkpt>
      <trkpt lat="45.94412" lon="4.72613">
        <ele>173</ele>
        <time>2018-06-13T07:23:50Z</time>
      </trkpt>
      <trkpt lat="45.94412" lon="4.72609">
        <ele>173</ele>
        <time>2018-06-13T07:23:51Z</time>
      </trkpt>
      <trkpt lat="45.9441" lon="4.72599">
        <ele>173</ele>
        <time>2018-06-13T07:23:52Z</time>
      </trkpt>
      <trkpt lat="45.94407" lon="4.72588">
        <ele>173</ele>
        <time>2018-06-13T07:23:54Z</time>
      </trkpt>
      <trkpt lat="45.94406" lon="4.72582">
        <ele>173</ele>
        <time>2018-06-13T07:23:55Z</time>
      </trkpt>
      <trkpt lat="45.94405" lon="4.72576">
        <ele>173</ele>
        <time>2018-06-13T07:23:56Z</time>
      </trkpt>
      <trkpt lat="45.94404" lon="4.72569">
        <ele>173</ele>
        <time>2018-06-13T07:23:57Z</time>
      </trkpt>
      <trkpt lat="45.94402" lon="4.72557">
        <ele>173</ele>
        <time>2018-06-13T07:23:59Z</time>
      </trkpt>
      <trkpt lat="45.94401" lon="4.72551">
        <ele>173</ele>
        <time>2018-06-13T07:24:00Z</time>
      </trkpt>
      <trkpt lat="45.94399" lon="4.7254">
        <ele>174</ele>
        <time>2018-06-13T07:24:02Z</time>
      </trkpt>
      <trkpt lat="45.94396" lon="4.72536">
        <ele>174</ele>
        <time>2018-06-13T07:24:03Z</time>
      </trkpt>
      <trkpt lat="45.94393" lon="4.72526">
        <ele>174</ele>
        <time>2018-06-13T07:24:05Z</time>
      </trkpt>
      <trkpt lat="45.94392" lon="4.72521">
        <ele>174</ele>
        <time>2018-06-13T07:24:06Z</time>
      </trkpt>
      <trkpt lat="45.94388" lon="4.7251">
        <ele>174</ele>
        <time>2018-06-13T07:24:08Z</time>
      </trkpt>
      <trkpt lat="45.94387" lon="4.72504">
        <ele>174</ele>
        <time>2018-06-13T07:24:09Z</time>
      </trkpt>
      <trkpt lat="45.94385" lon="4.72498">
        <ele>173</ele>
        <time>2018-06-13T07:24:10Z</time>
      </trkpt>
      <trkpt lat="45.94383" lon="4.72491">
        <ele>173</ele>
        <time>2018-06-13T07:24:11Z</time>
      </trkpt>
      <trkpt lat="45.94379" lon="4.7248">
        <ele>173</ele>
        <time>2018-06-13T07:24:13Z</time>
      </trkpt>
      <trkpt lat="45.94376" lon="4.72475">
        <ele>173</ele>
        <time>2018-06-13T07:24:14Z</time>
      </trkpt>
      <trkpt lat="45.94373" lon="4.72465">
        <ele>173</ele>
        <time>2018-06-13T07:24:16Z</time>
      </trkpt>
      <trkpt lat="45.9437" lon="4.7246">
        <ele>173</ele>
        <time>2018-06-13T07:24:17Z</time>
      </trkpt>
      <trkpt lat="45.94367" lon="4.72449">
        <ele>173</ele>
        <time>2018-06-13T07:24:19Z</time>
      </trkpt>
      <trkpt lat="45.94365" lon="4.72444">
        <ele>173</ele>
        <time>2018-06-13T07:24:20Z</time>
      </trkpt>
      <trkpt lat="45.94363" lon="4.72437">
        <ele>173</ele>
        <time>2018-06-13T07:24:21Z</time>
      </trkpt>
      <trkpt lat="45.94361" lon="4.72432">
        <ele>173</ele>
        <time>2018-06-13T07:24:22Z</time>
      </trkpt>
      <trkpt lat="45.94357" lon="4.72426">
        <ele>173</ele>
        <time>2018-06-13T07:24:23Z</time>
      </trkpt>
      <trkpt lat="45.94355" lon="4.7242">
        <ele>173</ele>
        <time>2018-06-13T07:24:24Z</time>
      </trkpt>
      <trkpt lat="45.94353" lon="4.72414">
        <ele>172</ele>
        <time>2018-06-13T07:24:25Z</time>
      </trkpt>
      <trkpt lat="45.9435" lon="4.72408">
        <ele>172</ele>
        <time>2018-06-13T07:24:26Z</time>
      </trkpt>
      <trkpt lat="45.94345" lon="4.72398">
        <ele>172</ele>
        <time>2018-06-13T07:24:28Z</time>
      </trkpt>
      <trkpt lat="45.94343" lon="4.72392">
        <ele>172</ele>
        <time>2018-06-13T07:24:29Z</time>
      </trkpt>
      <trkpt lat="45.9434" lon="4.72385">
        <ele>172</ele>
        <time>2018-06-13T07:24:30Z</time>
      </trkpt>
      <trkpt lat="45.94338" lon="4.72378">
        <ele>172</ele>
        <time>2018-06-13T07:24:31Z</time>
      </trkpt>
      <trkpt lat="45.94335" lon="4.72371">
        <ele>172</ele>
        <time>2018-06-13T07:24:32Z</time>
      </trkpt>
      <trkpt lat="45.94333" lon="4.72366">
        <ele>172</ele>
        <time>2018-06-13T07:24:33Z</time>
      </trkpt>
      <trkpt lat="45.94329" lon="4.7236">
        <ele>172</ele>
        <time>2018-06-13T07:24:34Z</time>
      </trkpt>
      <trkpt lat="45.94326" lon="4.72353">
        <ele>172</ele>
        <time>2018-06-13T07:24:35Z</time>
      </trkpt>
      <trkpt lat="45.94324" lon="4.72347">
        <ele>172</ele>
        <time>2018-06-13T07:24:36Z</time>
      </trkpt>
      <trkpt lat="45.9432" lon="4.72341">
        <ele>172</ele>
        <time>2018-06-13T07:24:37Z</time>
      </trkpt>
      <trkpt lat="45.94317" lon="4.72335">
        <ele>172</ele>
        <time>2018-06-13T07:24:38Z</time>
      </trkpt>
      <trkpt lat="45.94313" lon="4.72329">
        <ele>172</ele>
        <time>2018-06-13T07:24:39Z</time>
      </trkpt>
      <trkpt lat="45.94309" lon="4.72323">
        <ele>171</ele>
        <time>2018-06-13T07:24:40Z</time>
      </trkpt>
      <trkpt lat="45.94306" lon="4.72315">
        <ele>171</ele>
        <time>2018-06-13T07:24:41Z</time>
      </trkpt>
      <trkpt lat="45.94303" lon="4.72308">
        <ele>171</ele>
        <time>2018-06-13T07:24:42Z</time>
      </trkpt>
      <trkpt lat="45.943" lon="4.72301">
        <ele>171</ele>
        <time>2018-06-13T07:24:43Z</time>
      </trkpt>
      <trkpt lat="45.94298" lon="4.72293">
        <ele>171</ele>
        <time>2018-06-13T07:24:44Z</time>
      </trkpt>
      <trkpt lat="45.94295" lon="4.72286">
        <ele>171</ele>
        <time>2018-06-13T07:24:45Z</time>
      </trkpt>
      <trkpt lat="45.94292" lon="4.7228">
        <ele>171</ele>
        <time>2018-06-13T07:24:46Z</time>
      </trkpt>
      <trkpt lat="45.94291" lon="4.72272">
        <ele>171</ele>
        <time>2018-06-13T07:24:47Z</time>
      </trkpt>
      <trkpt lat="45.94289" lon="4.72267">
        <ele>171</ele>
        <time>2018-06-13T07:24:48Z</time>
      </trkpt>
      <trkpt lat="45.94286" lon="4.72261">
        <ele>171</ele>
        <time>2018-06-13T07:24:49Z</time>
      </trkpt>
      <trkpt lat="45.94281" lon="4.72253">
        <ele>171</ele>
        <time>2018-06-13T07:24:51Z</time>
      </trkpt>
      <trkpt lat="45.94276" lon="4.72255">
        <ele>171</ele>
        <time>2018-06-13T07:24:52Z</time>
      </trkpt>
      <trkpt lat="45.94268" lon="4.72256">
        <ele>171</ele>
        <time>2018-06-13T07:24:54Z</time>
      </trkpt>
      <trkpt lat="45.94262" lon="4.72262">
        <ele>171</ele>
        <time>2018-06-13T07:24:55Z</time>
      </trkpt>
      <trkpt lat="45.94258" lon="4.72265">
        <ele>171</ele>
        <time>2018-06-13T07:24:56Z</time>
      </trkpt>
      <trkpt lat="45.94253" lon="4.72266">
        <ele>171</ele>
        <time>2018-06-13T07:24:57Z</time>
      </trkpt>
      <trkpt lat="45.94245" lon="4.72268">
        <ele>171</ele>
        <time>2018-06-13T07:24:59Z</time>
      </trkpt>
      <trkpt lat="45.9424" lon="4.72271">
        <ele>171</ele>
        <time>2018-06-13T07:25:00Z</time>
      </trkpt>
      <trkpt lat="45.94235" lon="4.72275">
        <ele>171</ele>
        <time>2018-06-13T07:25:01Z</time>
      </trkpt>
      <trkpt lat="45.94231" lon="4.72277">
        <ele>171</ele>
        <time>2018-06-13T07:25:02Z</time>
      </trkpt>
      <trkpt lat="45.94222" lon="4.72277">
        <ele>171</ele>
        <time>2018-06-13T07:25:04Z</time>
      </trkpt>
      <trkpt lat="45.94217" lon="4.72277">
        <ele>171</ele>
        <time>2018-06-13T07:25:05Z</time>
      </trkpt>
      <trkpt lat="45.94211" lon="4.72278">
        <ele>171</ele>
        <time>2018-06-13T07:25:06Z</time>
      </trkpt>
      <trkpt lat="45.94206" lon="4.72279">
        <ele>171</ele>
        <time>2018-06-13T07:25:07Z</time>
      </trkpt>
      <trkpt lat="45.94201" lon="4.72279">
        <ele>171</ele>
        <time>2018-06-13T07:25:08Z</time>
      </trkpt>
      <trkpt lat="45.94196" lon="4.7228">
        <ele>171</ele>
        <time>2018-06-13T07:25:09Z</time>
      </trkpt>
      <trkpt lat="45.94191" lon="4.72279">
        <ele>171</ele>
        <time>2018-06-13T07:25:10Z</time>
      </trkpt>
      <trkpt lat="45.94186" lon="4.72278">
        <ele>171</ele>
        <time>2018-06-13T07:25:11Z</time>
      </trkpt>
      <trkpt lat="45.94178" lon="4.72278">
        <ele>171</ele>
        <time>2018-06-13T07:25:13Z</time>
      </trkpt>
      <trkpt lat="45.94173" lon="4.72279">
        <ele>171</ele>
        <time>2018-06-13T07:25:14Z</time>
      </trkpt>
      <trkpt lat="45.94165" lon="4.72277">
        <ele>171</ele>
        <time>2018-06-13T07:25:16Z</time>
      </trkpt>
      <trkpt lat="45.94161" lon="4.72276">
        <ele>171</ele>
        <time>2018-06-13T07:25:17Z</time>
      </trkpt>
      <trkpt lat="45.94152" lon="4.72274">
        <ele>171</ele>
        <time>2018-06-13T07:25:19Z</time>
      </trkpt>
      <trkpt lat="45.94148" lon="4.72272">
        <ele>171</ele>
        <time>2018-06-13T07:25:20Z</time>
      </trkpt>
      <trkpt lat="45.9414" lon="4.72268">
        <ele>171</ele>
        <time>2018-06-13T07:25:22Z</time>
      </trkpt>
      <trkpt lat="45.94135" lon="4.72266">
        <ele>171</ele>
        <time>2018-06-13T07:25:23Z</time>
      </trkpt>
      <trkpt lat="45.9413" lon="4.72264">
        <ele>171</ele>
        <time>2018-06-13T07:25:24Z</time>
      </trkpt>
      <trkpt lat="45.94124" lon="4.72262">
        <ele>171</ele>
        <time>2018-06-13T07:25:25Z</time>
      </trkpt>
      <trkpt lat="45.94116" lon="4.72261">
        <ele>171</ele>
        <time>2018-06-13T07:25:27Z</time>
      </trkpt>
      <trkpt lat="45.94112" lon="4.72261">
        <ele>171</ele>
        <time>2018-06-13T07:25:28Z</time>
      </trkpt>
      <trkpt lat="45.94108" lon="4.72261">
        <ele>171</ele>
        <time>2018-06-13T07:25:29Z</time>
      </trkpt>
      <trkpt lat="45.94103" lon="4.72259">
        <ele>171</ele>
        <time>2018-06-13T07:25:30Z</time>
      </trkpt>
      <trkpt lat="45.94098" lon="4.7226">
        <ele>171</ele>
        <time>2018-06-13T07:25:31Z</time>
      </trkpt>
      <trkpt lat="45.94093" lon="4.72262">
        <ele>171</ele>
        <time>2018-06-13T07:25:32Z</time>
      </trkpt>
      <trkpt lat="45.94087" lon="4.72264">
        <ele>171</ele>
        <time>2018-06-13T07:25:33Z</time>
      </trkpt>
      <trkpt lat="45.94083" lon="4.72265">
        <ele>171</ele>
        <time>2018-06-13T07:25:34Z</time>
      </trkpt>
      <trkpt lat="45.94078" lon="4.72268">
        <ele>171</ele>
        <time>2018-06-13T07:25:35Z</time>
      </trkpt>
      <trkpt lat="45.94073" lon="4.72273">
        <ele>171</ele>
        <time>2018-06-13T07:25:36Z</time>
      </trkpt>
      <trkpt lat="45.94069" lon="4.72278">
        <ele>171</ele>
        <time>2018-06-13T07:25:37Z</time>
      </trkpt>
      <trkpt lat="45.94065" lon="4.72283">
        <ele>171</ele>
        <time>2018-06-13T07:25:38Z</time>
      </trkpt>
      <trkpt lat="45.94061" lon="4.72288">
        <ele>171</ele>
        <time>2018-06-13T07:25:39Z</time>
      </trkpt>
      <trkpt lat="45.94057" lon="4.72293">
        <ele>171</ele>
        <time>2018-06-13T07:25:40Z</time>
      </trkpt>
      <trkpt lat="45.94052" lon="4.72297">
        <ele>171</ele>
        <time>2018-06-13T07:25:41Z</time>
      </trkpt>
      <trkpt lat="45.94049" lon="4.72302">
        <ele>171</ele>
        <time>2018-06-13T07:25:42Z</time>
      </trkpt>
      <trkpt lat="45.94045" lon="4.72306">
        <ele>171</ele>
        <time>2018-06-13T07:25:43Z</time>
      </trkpt>
      <trkpt lat="45.94042" lon="4.7231">
        <ele>171</ele>
        <time>2018-06-13T07:25:44Z</time>
      </trkpt>
      <trkpt lat="45.94035" lon="4.72319">
        <ele>171</ele>
        <time>2018-06-13T07:25:46Z</time>
      </trkpt>
      <trkpt lat="45.9403" lon="4.72325">
        <ele>171</ele>
        <time>2018-06-13T07:25:47Z</time>
      </trkpt>
      <trkpt lat="45.94026" lon="4.72331">
        <ele>171</ele>
        <time>2018-06-13T07:25:48Z</time>
      </trkpt>
      <trkpt lat="45.94021" lon="4.72336">
        <ele>171</ele>
        <time>2018-06-13T07:25:49Z</time>
      </trkpt>
      <trkpt lat="45.94018" lon="4.72342">
        <ele>171</ele>
        <time>2018-06-13T07:25:50Z</time>
      </trkpt>
      <trkpt lat="45.94012" lon="4.72348">
        <ele>171</ele>
        <time>2018-06-13T07:25:51Z</time>
      </trkpt>
      <trkpt lat="45.94007" lon="4.72353">
        <ele>171</ele>
        <time>2018-06-13T07:25:52Z</time>
      </trkpt>
      <trkpt lat="45.94003" lon="4.72359">
        <ele>171</ele>
        <time>2018-06-13T07:25:53Z</time>
      </trkpt>
      <trkpt lat="45.93999" lon="4.72364">
        <ele>171</ele>
        <time>2018-06-13T07:25:54Z</time>
      </trkpt>
      <trkpt lat="45.93995" lon="4.7237">
        <ele>171</ele>
        <time>2018-06-13T07:25:55Z</time>
      </trkpt>
      <trkpt lat="45.93992" lon="4.72375">
        <ele>171</ele>
        <time>2018-06-13T07:25:56Z</time>
      </trkpt>
      <trkpt lat="45.93988" lon="4.7238">
        <ele>171</ele>
        <time>2018-06-13T07:25:57Z</time>
      </trkpt>
      <trkpt lat="45.93981" lon="4.72387">
        <ele>171</ele>
        <time>2018-06-13T07:25:59Z</time>
      </trkpt>
      <trkpt lat="45.93979" lon="4.7239">
        <ele>171</ele>
        <time>2018-06-13T07:26:00Z</time>
      </trkpt>
      <trkpt lat="45.93972" lon="4.72398">
        <ele>171</ele>
        <time>2018-06-13T07:26:02Z</time>
      </trkpt>
      <trkpt lat="45.93969" lon="4.72402">
        <ele>171</ele>
        <time>2018-06-13T07:26:03Z</time>
      </trkpt>
      <trkpt lat="45.93966" lon="4.72407">
        <ele>171</ele>
        <time>2018-06-13T07:26:04Z</time>
      </trkpt>
      <trkpt lat="45.93961" lon="4.72411">
        <ele>171</ele>
        <time>2018-06-13T07:26:05Z</time>
      </trkpt>
      <trkpt lat="45.93957" lon="4.72419">
        <ele>171</ele>
        <time>2018-06-13T07:26:07Z</time>
      </trkpt>
      <trkpt lat="45.93953" lon="4.72423">
        <ele>171</ele>
        <time>2018-06-13T07:26:08Z</time>
      </trkpt>
      <trkpt lat="45.93946" lon="4.7243">
        <ele>171</ele>
        <time>2018-06-13T07:26:09Z</time>
      </trkpt>
      <trkpt lat="45.93942" lon="4.72434">
        <ele>171</ele>
        <time>2018-06-13T07:26:10Z</time>
      </trkpt>
      <trkpt lat="45.93935" lon="4.72442">
        <ele>171</ele>
        <time>2018-06-13T07:26:12Z</time>
      </trkpt>
      <trkpt lat="45.93932" lon="4.72447">
        <ele>171</ele>
        <time>2018-06-13T07:26:13Z</time>
      </trkpt>
      <trkpt lat="45.93926" lon="4.72457">
        <ele>171</ele>
        <time>2018-06-13T07:26:15Z</time>
      </trkpt>
      <trkpt lat="45.93923" lon="4.72461">
        <ele>171</ele>
        <time>2018-06-13T07:26:16Z</time>
      </trkpt>
      <trkpt lat="45.93916" lon="4.72469">
        <ele>172</ele>
        <time>2018-06-13T07:26:18Z</time>
      </trkpt>
      <trkpt lat="45.93912" lon="4.72474">
        <ele>172</ele>
        <time>2018-06-13T07:26:19Z</time>
      </trkpt>
      <trkpt lat="45.93906" lon="4.72481">
        <ele>172</ele>
        <time>2018-06-13T07:26:21Z</time>
      </trkpt>
      <trkpt lat="45.93899" lon="4.72486">
        <ele>172</ele>
        <time>2018-06-13T07:26:22Z</time>
      </trkpt>
      <trkpt lat="45.93894" lon="4.72492">
        <ele>172</ele>
        <time>2018-06-13T07:26:23Z</time>
      </trkpt>
      <trkpt lat="45.93892" lon="4.72497">
        <ele>172</ele>
        <time>2018-06-13T07:26:24Z</time>
      </trkpt>
      <trkpt lat="45.93888" lon="4.72501">
        <ele>173</ele>
        <time>2018-06-13T07:26:25Z</time>
      </trkpt>
      <trkpt lat="45.93884" lon="4.72505">
        <ele>173</ele>
        <time>2018-06-13T07:26:26Z</time>
      </trkpt>
      <trkpt lat="45.93876" lon="4.7251">
        <ele>173</ele>
        <time>2018-06-13T07:26:28Z</time>
      </trkpt>
      <trkpt lat="45.93871" lon="4.7251">
        <ele>173</ele>
        <time>2018-06-13T07:26:29Z</time>
      </trkpt>
      <trkpt lat="45.93865" lon="4.72509">
        <ele>173</ele>
        <time>2018-06-13T07:26:30Z</time>
      </trkpt>
      <trkpt lat="45.93861" lon="4.72506">
        <ele>173</ele>
        <time>2018-06-13T07:26:31Z</time>
      </trkpt>
      <trkpt lat="45.93856" lon="4.72503">
        <ele>173</ele>
        <time>2018-06-13T07:26:33Z</time>
      </trkpt>
      <trkpt lat="45.9385" lon="4.725">
        <ele>173</ele>
        <time>2018-06-13T07:26:34Z</time>
      </trkpt>
      <trkpt lat="45.93843" lon="4.72496">
        <ele>173</ele>
        <time>2018-06-13T07:26:36Z</time>
      </trkpt>
      <trkpt lat="45.9384" lon="4.72493">
        <ele>173</ele>
        <time>2018-06-13T07:26:37Z</time>
      </trkpt>
      <trkpt lat="45.93835" lon="4.72488">
        <ele>173</ele>
        <time>2018-06-13T07:26:40.178Z</time>
      </trkpt>
      <trkpt lat="45.93828" lon="4.72486">
        <ele>173</ele>
        <time>2018-06-13T07:26:40Z</time>
      </trkpt>
      <trkpt lat="45.93825" lon="4.72483">
        <ele>173</ele>
        <time>2018-06-13T07:26:41Z</time>
      </trkpt>
      <trkpt lat="45.93819" lon="4.72482">
        <ele>173</ele>
        <time>2018-06-13T07:26:42Z</time>
      </trkpt>
      <trkpt lat="45.93815" lon="4.72476">
        <ele>172</ele>
        <time>2018-06-13T07:26:43Z</time>
      </trkpt>
      <trkpt lat="45.93812" lon="4.72469">
        <ele>172</ele>
        <time>2018-06-13T07:26:44Z</time>
      </trkpt>
      <trkpt lat="45.93808" lon="4.72468">
        <ele>172</ele>
        <time>2018-06-13T07:26:45Z</time>
      </trkpt>
      <trkpt lat="45.93804" lon="4.72461">
        <ele>172</ele>
        <time>2018-06-13T07:26:46Z</time>
      </trkpt>
      <trkpt lat="45.938" lon="4.72456">
        <ele>172</ele>
        <time>2018-06-13T07:26:47Z</time>
      </trkpt>
      <trkpt lat="45.93795" lon="4.72452">
        <ele>172</ele>
        <time>2018-06-13T07:26:48Z</time>
      </trkpt>
      <trkpt lat="45.93791" lon="4.72444">
        <ele>172</ele>
        <time>2018-06-13T07:26:49Z</time>
      </trkpt>
      <trkpt lat="45.93787" lon="4.72442">
        <ele>172</ele>
        <time>2018-06-13T07:26:50Z</time>
      </trkpt>
      <trkpt lat="45.93782" lon="4.72437">
        <ele>172</ele>
        <time>2018-06-13T07:26:51Z</time>
      </trkpt>
      <trkpt lat="45.93779" lon="4.72433">
        <ele>172</ele>
        <time>2018-06-13T07:26:52Z</time>
      </trkpt>
      <trkpt lat="45.93773" lon="4.72426">
        <ele>171</ele>
        <time>2018-06-13T07:26:54Z</time>
      </trkpt>
      <trkpt lat="45.9377" lon="4.72422">
        <ele>171</ele>
        <time>2018-06-13T07:26:55Z</time>
      </trkpt>
      <trkpt lat="45.93766" lon="4.72419">
        <ele>171</ele>
        <time>2018-06-13T07:26:56Z</time>
      </trkpt>
      <trkpt lat="45.93762" lon="4.72415">
        <ele>171</ele>
        <time>2018-06-13T07:26:57Z</time>
      </trkpt>
      <trkpt lat="45.93758" lon="4.72408">
        <ele>171</ele>
        <time>2018-06-13T07:26:58Z</time>
      </trkpt>
      <trkpt lat="45.93755" lon="4.72404">
        <ele>171</ele>
        <time>2018-06-13T07:26:59Z</time>
      </trkpt>
      <trkpt lat="45.93747" lon="4.72396">
        <ele>171</ele>
        <time>2018-06-13T07:27:01Z</time>
      </trkpt>
      <trkpt lat="45.93743" lon="4.72393">
        <ele>171</ele>
        <time>2018-06-13T07:27:02Z</time>
      </trkpt>
      <trkpt lat="45.93737" lon="4.72389">
        <ele>171</ele>
        <time>2018-06-13T07:27:04Z</time>
      </trkpt>
      <trkpt lat="45.93733" lon="4.72383">
        <ele>171</ele>
        <time>2018-06-13T07:27:05Z</time>
      </trkpt>
      <trkpt lat="45.93729" lon="4.72379">
        <ele>171</ele>
        <time>2018-06-13T07:27:06Z</time>
      </trkpt>
      <trkpt lat="45.93725" lon="4.72374">
        <ele>172</ele>
        <time>2018-06-13T07:27:07Z</time>
      </trkpt>
      <trkpt lat="45.93721" lon="4.7237">
        <ele>172</ele>
        <time>2018-06-13T07:27:08Z</time>
      </trkpt>
      <trkpt lat="45.93717" lon="4.72366">
        <ele>172</ele>
        <time>2018-06-13T07:27:09Z</time>
      </trkpt>
      <trkpt lat="45.93713" lon="4.72363">
        <ele>172</ele>
        <time>2018-06-13T07:27:10Z</time>
      </trkpt>
      <trkpt lat="45.9371" lon="4.72357">
        <ele>172</ele>
        <time>2018-06-13T07:27:11Z</time>
      </trkpt>
      <trkpt lat="45.93704" lon="4.72356">
        <ele>171</ele>
        <time>2018-06-13T07:27:12Z</time>
      </trkpt>
      <trkpt lat="45.93701" lon="4.72352">
        <ele>171</ele>
        <time>2018-06-13T07:27:13Z</time>
      </trkpt>
      <trkpt lat="45.93695" lon="4.72346">
        <ele>171</ele>
        <time>2018-06-13T07:27:15Z</time>
      </trkpt>
      <trkpt lat="45.9369" lon="4.72343">
        <ele>171</ele>
        <time>2018-06-13T07:27:16Z</time>
      </trkpt>
      <trkpt lat="45.93684" lon="4.72337">
        <ele>171</ele>
        <time>2018-06-13T07:27:18Z</time>
      </trkpt>
      <trkpt lat="45.93681" lon="4.72331">
        <ele>171</ele>
        <time>2018-06-13T07:27:19Z</time>
      </trkpt>
      <trkpt lat="45.93678" lon="4.72325">
        <ele>171</ele>
        <time>2018-06-13T07:27:20Z</time>
      </trkpt>
      <trkpt lat="45.93676" lon="4.7232">
        <ele>171</ele>
        <time>2018-06-13T07:27:21Z</time>
      </trkpt>
      <trkpt lat="45.93672" lon="4.72317">
        <ele>172</ele>
        <time>2018-06-13T07:27:22Z</time>
      </trkpt>
      <trkpt lat="45.93667" lon="4.72315">
        <ele>172</ele>
        <time>2018-06-13T07:27:23Z</time>
      </trkpt>
      <trkpt lat="45.9366" lon="4.72308">
        <ele>172</ele>
        <time>2018-06-13T07:27:26Z</time>
      </trkpt>
      <trkpt lat="45.93654" lon="4.72304">
        <ele>172</ele>
        <time>2018-06-13T07:27:27Z</time>
      </trkpt>
      <trkpt lat="45.93648" lon="4.72298">
        <ele>172</ele>
        <time>2018-06-13T07:27:29Z</time>
      </trkpt>
      <trkpt lat="45.93644" lon="4.72296">
        <ele>172</ele>
        <time>2018-06-13T07:27:30Z</time>
      </trkpt>
      <trkpt lat="45.93637" lon="4.72289">
        <ele>172</ele>
        <time>2018-06-13T07:27:32Z</time>
      </trkpt>
      <trkpt lat="45.93633" lon="4.72286">
        <ele>172</ele>
        <time>2018-06-13T07:27:33Z</time>
      </trkpt>
      <trkpt lat="45.93629" lon="4.72281">
        <ele>172</ele>
        <time>2018-06-13T07:27:34Z</time>
      </trkpt>
      <trkpt lat="45.93625" lon="4.72277">
        <ele>172</ele>
        <time>2018-06-13T07:27:35Z</time>
      </trkpt>
      <trkpt lat="45.93619" lon="4.7227">
        <ele>172</ele>
        <time>2018-06-13T07:27:37Z</time>
      </trkpt>
      <trkpt lat="45.93615" lon="4.72266">
        <ele>172</ele>
        <time>2018-06-13T07:27:38Z</time>
      </trkpt>
      <trkpt lat="45.93608" lon="4.72261">
        <ele>173</ele>
        <time>2018-06-13T07:27:40Z</time>
      </trkpt>
      <trkpt lat="45.93605" lon="4.72256">
        <ele>173</ele>
        <time>2018-06-13T07:27:41Z</time>
      </trkpt>
      <trkpt lat="45.93599" lon="4.72251">
        <ele>173</ele>
        <time>2018-06-13T07:27:45Z</time>
      </trkpt>
      <trkpt lat="45.93596" lon="4.72249">
        <ele>173</ele>
        <time>2018-06-13T07:27:46Z</time>
      </trkpt>
      <trkpt lat="45.93588" lon="4.72245">
        <ele>173</ele>
        <time>2018-06-13T07:27:50Z</time>
      </trkpt>
      <trkpt lat="45.93586" lon="4.72245">
        <ele>173</ele>
        <time>2018-06-13T07:27:51Z</time>
      </trkpt>
      <trkpt lat="45.93579" lon="4.72244">
        <ele>173</ele>
        <time>2018-06-13T07:27:54Z</time>
      </trkpt>
      <trkpt lat="45.93572" lon="4.7224">
        <ele>173</ele>
        <time>2018-06-13T07:27:55Z</time>
      </trkpt>
      <trkpt lat="45.93566" lon="4.72232">
        <ele>173</ele>
        <time>2018-06-13T07:27:57Z</time>
      </trkpt>
      <trkpt lat="45.93562" lon="4.72231">
        <ele>173</ele>
        <time>2018-06-13T07:27:58Z</time>
      </trkpt>
      <trkpt lat="45.93554" lon="4.72236">
        <ele>173</ele>
        <time>2018-06-13T07:28:02Z</time>
      </trkpt>
      <trkpt lat="45.93553" lon="4.72239">
        <ele>172</ele>
        <time>2018-06-13T07:28:03Z</time>
      </trkpt>
      <trkpt lat="45.93549" lon="4.72246">
        <ele>172</ele>
        <time>2018-06-13T07:28:05Z</time>
      </trkpt>
      <trkpt lat="45.93545" lon="4.72256">
        <ele>172</ele>
        <time>2018-06-13T07:28:06Z</time>
      </trkpt>
      <trkpt lat="45.93542" lon="4.72266">
        <ele>172</ele>
        <time>2018-06-13T07:28:08Z</time>
      </trkpt>
      <trkpt lat="45.9354" lon="4.72271">
        <ele>172</ele>
        <time>2018-06-13T07:28:09Z</time>
      </trkpt>
      <trkpt lat="45.93537" lon="4.7228">
        <ele>172</ele>
        <time>2018-06-13T07:28:11Z</time>
      </trkpt>
      <trkpt lat="45.93535" lon="4.72286">
        <ele>172</ele>
        <time>2018-06-13T07:28:12Z</time>
      </trkpt>
      <trkpt lat="45.9353" lon="4.72296">
        <ele>172</ele>
        <time>2018-06-13T07:28:14Z</time>
      </trkpt>
      <trkpt lat="45.93529" lon="4.72298">
        <ele>172</ele>
        <time>2018-06-13T07:28:15Z</time>
      </trkpt>
      <trkpt lat="45.93525" lon="4.72307">
        <ele>173</ele>
        <time>2018-06-13T07:28:18Z</time>
      </trkpt>
      <trkpt lat="45.93523" lon="4.7231">
        <ele>173</ele>
        <time>2018-06-13T07:28:19Z</time>
      </trkpt>
      <trkpt lat="45.93521" lon="4.72317">
        <ele>173</ele>
        <time>2018-06-13T07:28:21Z</time>
      </trkpt>
      <trkpt lat="45.93518" lon="4.7233">
        <ele>173</ele>
        <time>2018-06-13T07:28:22Z</time>
      </trkpt>
      <trkpt lat="45.93519" lon="4.72338">
        <ele>173</ele>
        <time>2018-06-13T07:28:23Z</time>
      </trkpt>
      <trkpt lat="45.93521" lon="4.72345">
        <ele>173</ele>
        <time>2018-06-13T07:28:24Z</time>
      </trkpt>
      <trkpt lat="45.93525" lon="4.72349">
        <ele>173</ele>
        <time>2018-06-13T07:28:25Z</time>
      </trkpt>
      <trkpt lat="45.93527" lon="4.72355">
        <ele>173</ele>
        <time>2018-06-13T07:28:26Z</time>
      </trkpt>
      <trkpt lat="45.9353" lon="4.72361">
        <ele>173</ele>
        <time>2018-06-13T07:28:27Z</time>
      </trkpt>
      <trkpt lat="45.93533" lon="4.72367">
        <ele>173</ele>
        <time>2018-06-13T07:28:28Z</time>
      </trkpt>
      <trkpt lat="45.93535" lon="4.72372">
        <ele>173</ele>
        <time>2018-06-13T07:28:29Z</time>
      </trkpt>
      <trkpt lat="45.93538" lon="4.72377">
        <ele>173</ele>
        <time>2018-06-13T07:28:30Z</time>
      </trkpt>
      <trkpt lat="45.93543" lon="4.72387">
        <ele>173</ele>
        <time>2018-06-13T07:28:32Z</time>
      </trkpt>
      <trkpt lat="45.93544" lon="4.72393">
        <ele>173</ele>
        <time>2018-06-13T07:28:33Z</time>
      </trkpt>
      <trkpt lat="45.93547" lon="4.72404">
        <ele>173</ele>
        <time>2018-06-13T07:28:35Z</time>
      </trkpt>
      <trkpt lat="45.93547" lon="4.72409">
        <ele>173</ele>
        <time>2018-06-13T07:28:36Z</time>
      </trkpt>
      <trkpt lat="45.93548" lon="4.72414">
        <ele>173</ele>
        <time>2018-06-13T07:28:37Z</time>
      </trkpt>
      <trkpt lat="45.93549" lon="4.72421">
        <ele>172</ele>
        <time>2018-06-13T07:28:38Z</time>
      </trkpt>
      <trkpt lat="45.9355" lon="4.72433">
        <ele>172</ele>
        <time>2018-06-13T07:28:40Z</time>
      </trkpt>
      <trkpt lat="45.93549" lon="4.72438">
        <ele>172</ele>
        <time>2018-06-13T07:28:41Z</time>
      </trkpt>
      <trkpt lat="45.93548" lon="4.7245">
        <ele>172</ele>
        <time>2018-06-13T07:28:43Z</time>
      </trkpt>
      <trkpt lat="45.93548" lon="4.72455">
        <ele>172</ele>
        <time>2018-06-13T07:28:44Z</time>
      </trkpt>
      <trkpt lat="45.93547" lon="4.72464">
        <ele>172</ele>
        <time>2018-06-13T07:28:46Z</time>
      </trkpt>
      <trkpt lat="45.93548" lon="4.72471">
        <ele>172</ele>
        <time>2018-06-13T07:28:47Z</time>
      </trkpt>
      <trkpt lat="45.93551" lon="4.72482">
        <ele>172</ele>
        <time>2018-06-13T07:28:49Z</time>
      </trkpt>
      <trkpt lat="45.93553" lon="4.72489">
        <ele>172</ele>
        <time>2018-06-13T07:28:50Z</time>
      </trkpt>
      <trkpt lat="45.93555" lon="4.72495">
        <ele>172</ele>
        <time>2018-06-13T07:28:51Z</time>
      </trkpt>
      <trkpt lat="45.93558" lon="4.72502">
        <ele>172</ele>
        <time>2018-06-13T07:28:52Z</time>
      </trkpt>
      <trkpt lat="45.93563" lon="4.72511">
        <ele>172</ele>
        <time>2018-06-13T07:28:54Z</time>
      </trkpt>
      <trkpt lat="45.93565" lon="4.72515">
        <ele>172</ele>
        <time>2018-06-13T07:28:55Z</time>
      </trkpt>
      <trkpt lat="45.93568" lon="4.72526">
        <ele>172</ele>
        <time>2018-06-13T07:28:57Z</time>
      </trkpt>
      <trkpt lat="45.93571" lon="4.72531">
        <ele>172</ele>
        <time>2018-06-13T07:28:58Z</time>
      </trkpt>
      <trkpt lat="45.93575" lon="4.72535">
        <ele>172</ele>
        <time>2018-06-13T07:28:59Z</time>
      </trkpt>
      <trkpt lat="45.93576" lon="4.72541">
        <ele>172</ele>
        <time>2018-06-13T07:29:00Z</time>
      </trkpt>
      <trkpt lat="45.93582" lon="4.72551">
        <ele>173</ele>
        <time>2018-06-13T07:29:02Z</time>
      </trkpt>
      <trkpt lat="45.93587" lon="4.7256">
        <ele>173</ele>
        <time>2018-06-13T07:29:04Z</time>
      </trkpt>
      <trkpt lat="45.93596" lon="4.72559">
        <ele>173</ele>
        <time>2018-06-13T07:29:07Z</time>
      </trkpt>
      <trkpt lat="45.93598" lon="4.72558">
        <ele>172</ele>
        <time>2018-06-13T07:29:08Z</time>
      </trkpt>
      <trkpt lat="45.93603" lon="4.72554">
        <ele>172</ele>
        <time>2018-06-13T07:29:10Z</time>
      </trkpt>
      <trkpt lat="45.93609" lon="4.72546">
        <ele>172</ele>
        <time>2018-06-13T07:29:11Z</time>
      </trkpt>
      <trkpt lat="45.93614" lon="4.72537">
        <ele>172</ele>
        <time>2018-06-13T07:29:13Z</time>
      </trkpt>
      <trkpt lat="45.93617" lon="4.72532">
        <ele>172</ele>
        <time>2018-06-13T07:29:14Z</time>
      </trkpt>
      <trkpt lat="45.93621" lon="4.72522">
        <ele>172</ele>
        <time>2018-06-13T07:29:16Z</time>
      </trkpt>
      <trkpt lat="45.93624" lon="4.72517">
        <ele>172</ele>
        <time>2018-06-13T07:29:17Z</time>
      </trkpt>
      <trkpt lat="45.93626" lon="4.72512">
        <ele>172</ele>
        <time>2018-06-13T07:29:18Z</time>
      </trkpt>
      <trkpt lat="45.9363" lon="4.72507">
        <ele>172</ele>
        <time>2018-06-13T07:29:19Z</time>
      </trkpt>
      <trkpt lat="45.93632" lon="4.72501">
        <ele>172</ele>
        <time>2018-06-13T07:29:20Z</time>
      </trkpt>
      <trkpt lat="45.93639" lon="4.72497">
        <ele>172</ele>
        <time>2018-06-13T07:29:21Z</time>
      </trkpt>
      <trkpt lat="45.93643" lon="4.72487">
        <ele>172</ele>
        <time>2018-06-13T07:29:25Z</time>
      </trkpt>
      <trkpt lat="45.93649" lon="4.7248">
        <ele>172</ele>
        <time>2018-06-13T07:29:26Z</time>
      </trkpt>
      <trkpt lat="45.93651" lon="4.72472">
        <ele>172</ele>
        <time>2018-06-13T07:29:28Z</time>
      </trkpt>
      <trkpt lat="45.93654" lon="4.72467">
        <ele>172</ele>
        <time>2018-06-13T07:29:29Z</time>
      </trkpt>
      <trkpt lat="45.93659" lon="4.72456">
        <ele>172</ele>
        <time>2018-06-13T07:29:32Z</time>
      </trkpt>
      <trkpt lat="45.93661" lon="4.72455">
        <ele>172</ele>
        <time>2018-06-13T07:29:33Z</time>
      </trkpt>
      <trkpt lat="45.93668" lon="4.72453">
        <ele>171</ele>
        <time>2018-06-13T07:29:34Z</time>
      </trkpt>
      <trkpt lat="45.93673" lon="4.72455">
        <ele>171</ele>
        <time>2018-06-13T07:29:35Z</time>
      </trkpt>
      <trkpt lat="45.93679" lon="4.72459">
        <ele>171</ele>
        <time>2018-06-13T07:29:36Z</time>
      </trkpt>
      <trkpt lat="45.93682" lon="4.72463">
        <ele>171</ele>
        <time>2018-06-13T07:29:37Z</time>
      </trkpt>
      <trkpt lat="45.93686" lon="4.72466">
        <ele>171</ele>
        <time>2018-06-13T07:29:38Z</time>
      </trkpt>
      <trkpt lat="45.9369" lon="4.72469">
        <ele>171</ele>
        <time>2018-06-13T07:29:39Z</time>
      </trkpt>
      <trkpt lat="45.93697" lon="4.72477">
        <ele>171</ele>
        <time>2018-06-13T07:29:41Z</time>
      </trkpt>
      <trkpt lat="45.937" lon="4.72478">
        <ele>171</ele>
        <time>2018-06-13T07:29:42Z</time>
      </trkpt>
      <trkpt lat="45.93705" lon="4.72483">
        <ele>171</ele>
        <time>2018-06-13T07:29:44Z</time>
      </trkpt>
      <trkpt lat="45.9371" lon="4.72487">
        <ele>171</ele>
        <time>2018-06-13T07:29:45Z</time>
      </trkpt>
      <trkpt lat="45.93717" lon="4.72495">
        <ele>171</ele>
        <time>2018-06-13T07:29:47Z</time>
      </trkpt>
      <trkpt lat="45.93721" lon="4.72498">
        <ele>171</ele>
        <time>2018-06-13T07:29:48Z</time>
      </trkpt>
      <trkpt lat="45.93724" lon="4.72501">
        <ele>171</ele>
        <time>2018-06-13T07:29:49Z</time>
      </trkpt>
      <trkpt lat="45.9373" lon="4.72503">
        <ele>171</ele>
        <time>2018-06-13T07:29:50Z</time>
      </trkpt>
      <trkpt lat="45.93734" lon="4.72507">
        <ele>171</ele>
        <time>2018-06-13T07:29:51Z</time>
      </trkpt>
      <trkpt lat="45.93738" lon="4.7251">
        <ele>171</ele>
        <time>2018-06-13T07:29:52Z</time>
      </trkpt>
      <trkpt lat="45.93743" lon="4.72515">
        <ele>171</ele>
        <time>2018-06-13T07:29:53Z</time>
      </trkpt>
      <trkpt lat="45.93747" lon="4.7252">
        <ele>171</ele>
        <time>2018-06-13T07:29:54Z</time>
      </trkpt>
      <trkpt lat="45.93751" lon="4.72527">
        <ele>172</ele>
        <time>2018-06-13T07:29:56Z</time>
      </trkpt>
      <trkpt lat="45.93756" lon="4.7253">
        <ele>172</ele>
        <time>2018-06-13T07:29:57Z</time>
      </trkpt>
      <trkpt lat="45.93759" lon="4.72532">
        <ele>173</ele>
        <time>2018-06-13T07:29:59Z</time>
      </trkpt>
      <trkpt lat="45.93766" lon="4.72537">
        <ele>173</ele>
        <time>2018-06-13T07:30:00Z</time>
      </trkpt>
      <trkpt lat="45.9377" lon="4.72544">
        <ele>173</ele>
        <time>2018-06-13T07:30:02Z</time>
      </trkpt>
      <trkpt lat="45.93775" lon="4.72547">
        <ele>173</ele>
        <time>2018-06-13T07:30:03Z</time>
      </trkpt>
      <trkpt lat="45.93775" lon="4.72547">
        <ele>173</ele>
        <time>2018-06-13T07:30:05Z</time>
      </trkpt>
      <trkpt lat="45.93814" lon="4.72561">
        <ele>174</ele>
        <time>2018-06-13T07:30:12Z</time>
      </trkpt>
      <trkpt lat="45.93818" lon="4.72571">
        <ele>174</ele>
        <time>2018-06-13T07:30:15Z</time>
      </trkpt>
      <trkpt lat="45.93818" lon="4.72574">
        <ele>174</ele>
        <time>2018-06-13T07:30:16Z</time>
      </trkpt>
      <trkpt lat="45.93816" lon="4.7259">
        <ele>174</ele>
        <time>2018-06-13T07:30:17Z</time>
      </trkpt>
      <trkpt lat="45.93815" lon="4.72602">
        <ele>173</ele>
        <time>2018-06-13T07:30:20Z</time>
      </trkpt>
      <trkpt lat="45.9381" lon="4.72613">
        <ele>173</ele>
        <time>2018-06-13T07:30:21Z</time>
      </trkpt>
      <trkpt lat="45.93806" lon="4.72618">
        <ele>173</ele>
        <time>2018-06-13T07:30:22Z</time>
      </trkpt>
      <trkpt lat="45.93803" lon="4.72623">
        <ele>173</ele>
        <time>2018-06-13T07:30:23Z</time>
      </trkpt>
      <trkpt lat="45.93798" lon="4.72631">
        <ele>173</ele>
        <time>2018-06-13T07:30:25Z</time>
      </trkpt>
      <trkpt lat="45.93794" lon="4.72636">
        <ele>173</ele>
        <time>2018-06-13T07:30:26Z</time>
      </trkpt>
      <trkpt lat="45.93791" lon="4.72642">
        <ele>173</ele>
        <time>2018-06-13T07:30:27Z</time>
      </trkpt>
      <trkpt lat="45.93787" lon="4.72647">
        <ele>173</ele>
        <time>2018-06-13T07:30:28Z</time>
      </trkpt>
      <trkpt lat="45.93783" lon="4.72653">
        <ele>173</ele>
        <time>2018-06-13T07:30:30Z</time>
      </trkpt>
      <trkpt lat="45.93779" lon="4.72655">
        <ele>173</ele>
        <time>2018-06-13T07:30:31Z</time>
      </trkpt>
      <trkpt lat="45.93772" lon="4.72663">
        <ele>173</ele>
        <time>2018-06-13T07:30:34Z</time>
      </trkpt>
      <trkpt lat="45.93767" lon="4.7267">
        <ele>173</ele>
        <time>2018-06-13T07:30:35Z</time>
      </trkpt>
      <trkpt lat="45.93761" lon="4.72677">
        <ele>173</ele>
        <time>2018-06-13T07:30:37Z</time>
      </trkpt>
      <trkpt lat="45.93757" lon="4.72681">
        <ele>173</ele>
        <time>2018-06-13T07:30:38Z</time>
      </trkpt>
      <trkpt lat="45.93751" lon="4.72688">
        <ele>173</ele>
        <time>2018-06-13T07:30:40Z</time>
      </trkpt>
      <trkpt lat="45.93747" lon="4.72692">
        <ele>173</ele>
        <time>2018-06-13T07:30:41Z</time>
      </trkpt>
      <trkpt lat="45.93741" lon="4.72699">
        <ele>173</ele>
        <time>2018-06-13T07:30:43Z</time>
      </trkpt>
      <trkpt lat="45.93737" lon="4.72703">
        <ele>173</ele>
        <time>2018-06-13T07:30:44Z</time>
      </trkpt>
      <trkpt lat="45.93731" lon="4.7271">
        <ele>173</ele>
        <time>2018-06-13T07:30:46Z</time>
      </trkpt>
      <trkpt lat="45.93729" lon="4.72711">
        <ele>173</ele>
        <time>2018-06-13T07:30:47Z</time>
      </trkpt>
      <trkpt lat="45.93724" lon="4.72716">
        <ele>173</ele>
        <time>2018-06-13T07:30:48Z</time>
      </trkpt>
      <trkpt lat="45.93721" lon="4.7272">
        <ele>173</ele>
        <time>2018-06-13T07:30:49Z</time>
      </trkpt>
      <trkpt lat="45.93714" lon="4.72727">
        <ele>173</ele>
        <time>2018-06-13T07:30:51Z</time>
      </trkpt>
      <trkpt lat="45.93711" lon="4.7273">
        <ele>173</ele>
        <time>2018-06-13T07:30:52Z</time>
      </trkpt>
      <trkpt lat="45.93705" lon="4.72736">
        <ele>173</ele>
        <time>2018-06-13T07:30:54Z</time>
      </trkpt>
      <trkpt lat="45.93701" lon="4.7274">
        <ele>173</ele>
        <time>2018-06-13T07:30:55Z</time>
      </trkpt>
      <trkpt lat="45.93695" lon="4.72746">
        <ele>173</ele>
        <time>2018-06-13T07:30:57Z</time>
      </trkpt>
      <trkpt lat="45.93692" lon="4.72748">
        <ele>173</ele>
        <time>2018-06-13T07:30:58Z</time>
      </trkpt>
      <trkpt lat="45.93685" lon="4.72753">
        <ele>173</ele>
        <time>2018-06-13T07:31:00Z</time>
      </trkpt>
      <trkpt lat="45.93681" lon="4.72757">
        <ele>173</ele>
        <time>2018-06-13T07:31:01Z</time>
      </trkpt>
      <trkpt lat="45.93674" lon="4.72764">
        <ele>173</ele>
        <time>2018-06-13T07:31:03Z</time>
      </trkpt>
      <trkpt lat="45.9367" lon="4.72767">
        <ele>173</ele>
        <time>2018-06-13T07:31:04Z</time>
      </trkpt>
      <trkpt lat="45.93666" lon="4.7277">
        <ele>174</ele>
        <time>2018-06-13T07:31:05Z</time>
      </trkpt>
      <trkpt lat="45.93662" lon="4.72772">
        <ele>174</ele>
        <time>2018-06-13T07:31:06Z</time>
      </trkpt>
      <trkpt lat="45.93658" lon="4.72775">
        <ele>174</ele>
        <time>2018-06-13T07:31:07Z</time>
      </trkpt>
      <trkpt lat="45.93651" lon="4.7278">
        <ele>174</ele>
        <time>2018-06-13T07:31:08Z</time>
      </trkpt>
      <trkpt lat="45.93646" lon="4.72783">
        <ele>174</ele>
        <time>2018-06-13T07:31:09Z</time>
      </trkpt>
      <trkpt lat="45.93641" lon="4.72786">
        <ele>174</ele>
        <time>2018-06-13T07:31:10Z</time>
      </trkpt>
      <trkpt lat="45.93634" lon="4.72792">
        <ele>173</ele>
        <time>2018-06-13T07:31:12Z</time>
      </trkpt>
      <trkpt lat="45.93631" lon="4.72794">
        <ele>173</ele>
        <time>2018-06-13T07:31:13Z</time>
      </trkpt>
      <trkpt lat="45.93626" lon="4.72798">
        <ele>173</ele>
        <time>2018-06-13T07:31:15Z</time>
      </trkpt>
      <trkpt lat="45.93623" lon="4.72801">
        <ele>173</ele>
        <time>2018-06-13T07:31:16Z</time>
      </trkpt>
      <trkpt lat="45.93619" lon="4.72804">
        <ele>173</ele>
        <time>2018-06-13T07:31:17Z</time>
      </trkpt>
      <trkpt lat="45.93614" lon="4.72808">
        <ele>173</ele>
        <time>2018-06-13T07:31:18Z</time>
      </trkpt>
      <trkpt lat="45.9361" lon="4.72812">
        <ele>173</ele>
        <time>2018-06-13T07:31:19Z</time>
      </trkpt>
      <trkpt lat="45.93605" lon="4.72815">
        <ele>173</ele>
        <time>2018-06-13T07:31:20Z</time>
      </trkpt>
      <trkpt lat="45.93601" lon="4.72819">
        <ele>173</ele>
        <time>2018-06-13T07:31:21Z</time>
      </trkpt>
      <trkpt lat="45.93597" lon="4.72823">
        <ele>173</ele>
        <time>2018-06-13T07:31:22Z</time>
      </trkpt>
      <trkpt lat="45.93589" lon="4.72827">
        <ele>172</ele>
        <time>2018-06-13T07:31:24Z</time>
      </trkpt>
      <trkpt lat="45.93585" lon="4.7283">
        <ele>172</ele>
        <time>2018-06-13T07:31:25Z</time>
      </trkpt>
      <trkpt lat="45.93581" lon="4.72835">
        <ele>172</ele>
        <time>2018-06-13T07:31:26Z</time>
      </trkpt>
      <trkpt lat="45.93577" lon="4.72838">
        <ele>172</ele>
        <time>2018-06-13T07:31:27Z</time>
      </trkpt>
      <trkpt lat="45.93573" lon="4.72842">
        <ele>172</ele>
        <time>2018-06-13T07:31:28Z</time>
      </trkpt>
      <trkpt lat="45.93569" lon="4.72847">
        <ele>172</ele>
        <time>2018-06-13T07:31:29Z</time>
      </trkpt>
      <trkpt lat="45.93566" lon="4.72849">
        <ele>172</ele>
        <time>2018-06-13T07:31:30Z</time>
      </trkpt>
      <trkpt lat="45.93561" lon="4.72855">
        <ele>172</ele>
        <time>2018-06-13T07:31:31Z</time>
      </trkpt>
      <trkpt lat="45.93556" lon="4.72859">
        <ele>172</ele>
        <time>2018-06-13T07:31:32Z</time>
      </trkpt>
      <trkpt lat="45.93553" lon="4.72862">
        <ele>172</ele>
        <time>2018-06-13T07:31:33Z</time>
      </trkpt>
      <trkpt lat="45.93546" lon="4.7287">
        <ele>173</ele>
        <time>2018-06-13T07:31:35Z</time>
      </trkpt>
      <trkpt lat="45.93543" lon="4.72874">
        <ele>173</ele>
        <time>2018-06-13T07:31:36Z</time>
      </trkpt>
      <trkpt lat="45.93536" lon="4.7288">
        <ele>172</ele>
        <time>2018-06-13T07:31:38Z</time>
      </trkpt>
      <trkpt lat="45.93531" lon="4.72885">
        <ele>172</ele>
        <time>2018-06-13T07:31:39Z</time>
      </trkpt>
      <trkpt lat="45.93528" lon="4.72888">
        <ele>172</ele>
        <time>2018-06-13T07:31:40Z</time>
      </trkpt>
      <trkpt lat="45.93523" lon="4.72893">
        <ele>172</ele>
        <time>2018-06-13T07:31:41Z</time>
      </trkpt>
      <trkpt lat="45.93516" lon="4.729">
        <ele>172</ele>
        <time>2018-06-13T07:31:43Z</time>
      </trkpt>
      <trkpt lat="45.93513" lon="4.72904">
        <ele>172</ele>
        <time>2018-06-13T07:31:44Z</time>
      </trkpt>
      <trkpt lat="45.93507" lon="4.72911">
        <ele>172</ele>
        <time>2018-06-13T07:31:46Z</time>
      </trkpt>
      <trkpt lat="45.93504" lon="4.72914">
        <ele>172</ele>
        <time>2018-06-13T07:31:47Z</time>
      </trkpt>
      <trkpt lat="45.93499" lon="4.7292">
        <ele>172</ele>
        <time>2018-06-13T07:31:50Z</time>
      </trkpt>
      <trkpt lat="45.93496" lon="4.72928">
        <ele>172</ele>
        <time>2018-06-13T07:31:51Z</time>
      </trkpt>
      <trkpt lat="45.93494" lon="4.72938">
        <ele>172</ele>
        <time>2018-06-13T07:31:53Z</time>
      </trkpt>
      <trkpt lat="45.93493" lon="4.72944">
        <ele>171</ele>
        <time>2018-06-13T07:31:54Z</time>
      </trkpt>
      <trkpt lat="45.93492" lon="4.72956">
        <ele>171</ele>
        <time>2018-06-13T07:31:56Z</time>
      </trkpt>
      <trkpt lat="45.9349" lon="4.72961">
        <ele>171</ele>
        <time>2018-06-13T07:31:57Z</time>
      </trkpt>
      <trkpt lat="45.93487" lon="4.72972">
        <ele>171</ele>
        <time>2018-06-13T07:31:59Z</time>
      </trkpt>
      <trkpt lat="45.93486" lon="4.72977">
        <ele>171</ele>
        <time>2018-06-13T07:32:00Z</time>
      </trkpt>
      <trkpt lat="45.93484" lon="4.72989">
        <ele>170</ele>
        <time>2018-06-13T07:32:02Z</time>
      </trkpt>
      <trkpt lat="45.93487" lon="4.72994">
        <ele>170</ele>
        <time>2018-06-13T07:32:03Z</time>
      </trkpt>
      <trkpt lat="45.93486" lon="4.73001">
        <ele>170</ele>
        <time>2018-06-13T07:32:04Z</time>
      </trkpt>
      <trkpt lat="45.93486" lon="4.73009">
        <ele>170</ele>
        <time>2018-06-13T07:32:05Z</time>
      </trkpt>
      <trkpt lat="45.93484" lon="4.73021">
        <ele>170</ele>
        <time>2018-06-13T07:32:07Z</time>
      </trkpt>
      <trkpt lat="45.93484" lon="4.73027">
        <ele>170</ele>
        <time>2018-06-13T07:32:08Z</time>
      </trkpt>
      <trkpt lat="45.93484" lon="4.73034">
        <ele>170</ele>
        <time>2018-06-13T07:32:09Z</time>
      </trkpt>
      <trkpt lat="45.93484" lon="4.7304">
        <ele>170</ele>
        <time>2018-06-13T07:32:10Z</time>
      </trkpt>
      <trkpt lat="45.93484" lon="4.73052">
        <ele>170</ele>
        <time>2018-06-13T07:32:12Z</time>
      </trkpt>
      <trkpt lat="45.93484" lon="4.73058">
        <ele>170</ele>
        <time>2018-06-13T07:32:13Z</time>
      </trkpt>
      <trkpt lat="45.93484" lon="4.7307">
        <ele>170</ele>
        <time>2018-06-13T07:32:15Z</time>
      </trkpt>
      <trkpt lat="45.93485" lon="4.73075">
        <ele>170</ele>
        <time>2018-06-13T07:32:16Z</time>
      </trkpt>
      <trkpt lat="45.93483" lon="4.73086">
        <ele>170</ele>
        <time>2018-06-13T07:32:18Z</time>
      </trkpt>
      <trkpt lat="45.93483" lon="4.73092">
        <ele>170</ele>
        <time>2018-06-13T07:32:19Z</time>
      </trkpt>
      <trkpt lat="45.93484" lon="4.73103">
        <ele>170</ele>
        <time>2018-06-13T07:32:21Z</time>
      </trkpt>
      <trkpt lat="45.93486" lon="4.73108">
        <ele>170</ele>
        <time>2018-06-13T07:32:22Z</time>
      </trkpt>
      <trkpt lat="45.93488" lon="4.73118">
        <ele>170</ele>
        <time>2018-06-13T07:32:24Z</time>
      </trkpt>
      <trkpt lat="45.93489" lon="4.73124">
        <ele>170</ele>
        <time>2018-06-13T07:32:25Z</time>
      </trkpt>
      <trkpt lat="45.9349" lon="4.73135">
        <ele>170</ele>
        <time>2018-06-13T07:32:27Z</time>
      </trkpt>
      <trkpt lat="45.9349" lon="4.73141">
        <ele>170</ele>
        <time>2018-06-13T07:32:28Z</time>
      </trkpt>
      <trkpt lat="45.93492" lon="4.73152">
        <ele>170</ele>
        <time>2018-06-13T07:32:30Z</time>
      </trkpt>
      <trkpt lat="45.93494" lon="4.7316">
        <ele>170</ele>
        <time>2018-06-13T07:32:31Z</time>
      </trkpt>
      <trkpt lat="45.93496" lon="4.73169">
        <ele>170</ele>
        <time>2018-06-13T07:32:33Z</time>
      </trkpt>
      <trkpt lat="45.93499" lon="4.73176">
        <ele>170</ele>
        <time>2018-06-13T07:32:34Z</time>
      </trkpt>
      <trkpt lat="45.93501" lon="4.73187">
        <ele>169</ele>
        <time>2018-06-13T07:32:37Z</time>
      </trkpt>
      <trkpt lat="45.93504" lon="4.73197">
        <ele>169</ele>
        <time>2018-06-13T07:32:38Z</time>
      </trkpt>
      <trkpt lat="45.93507" lon="4.73208">
        <ele>169</ele>
        <time>2018-06-13T07:32:40Z</time>
      </trkpt>
      <trkpt lat="45.93509" lon="4.73213">
        <ele>169</ele>
        <time>2018-06-13T07:32:41Z</time>
      </trkpt>
      <trkpt lat="45.93509" lon="4.7322">
        <ele>169</ele>
        <time>2018-06-13T07:32:42Z</time>
      </trkpt>
      <trkpt lat="45.93511" lon="4.73226">
        <ele>169</ele>
        <time>2018-06-13T07:32:43Z</time>
      </trkpt>
      <trkpt lat="45.93512" lon="4.73233">
        <ele>169</ele>
        <time>2018-06-13T07:32:44Z</time>
      </trkpt>
      <trkpt lat="45.93514" lon="4.7324">
        <ele>169</ele>
        <time>2018-06-13T07:32:45Z</time>
      </trkpt>
      <trkpt lat="45.93516" lon="4.73247">
        <ele>169</ele>
        <time>2018-06-13T07:32:46Z</time>
      </trkpt>
      <trkpt lat="45.93517" lon="4.73252">
        <ele>169</ele>
        <time>2018-06-13T07:32:47Z</time>
      </trkpt>
      <trkpt lat="45.93518" lon="4.73259">
        <ele>169</ele>
        <time>2018-06-13T07:32:48Z</time>
      </trkpt>
      <trkpt lat="45.93519" lon="4.73265">
        <ele>169</ele>
        <time>2018-06-13T07:32:49Z</time>
      </trkpt>
      <trkpt lat="45.9352" lon="4.73275">
        <ele>169</ele>
        <time>2018-06-13T07:32:51Z</time>
      </trkpt>
      <trkpt lat="45.93521" lon="4.73278">
        <ele>169</ele>
        <time>2018-06-13T07:32:52Z</time>
      </trkpt>
      <trkpt lat="45.93523" lon="4.73286">
        <ele>169</ele>
        <time>2018-06-13T07:32:53Z</time>
      </trkpt>
      <trkpt lat="45.93524" lon="4.73293">
        <ele>169</ele>
        <time>2018-06-13T07:32:54Z</time>
      </trkpt>
      <trkpt lat="45.93525" lon="4.733">
        <ele>169</ele>
        <time>2018-06-13T07:32:55Z</time>
      </trkpt>
      <trkpt lat="45.93526" lon="4.73306">
        <ele>169</ele>
        <time>2018-06-13T07:32:56Z</time>
      </trkpt>
      <trkpt lat="45.93528" lon="4.73314">
        <ele>169</ele>
        <time>2018-06-13T07:32:57Z</time>
      </trkpt>
      <trkpt lat="45.93529" lon="4.7332">
        <ele>169</ele>
        <time>2018-06-13T07:32:58Z</time>
      </trkpt>
      <trkpt lat="45.9353" lon="4.73327">
        <ele>169</ele>
        <time>2018-06-13T07:32:59Z</time>
      </trkpt>
      <trkpt lat="45.93531" lon="4.73334">
        <ele>169</ele>
        <time>2018-06-13T07:33:00Z</time>
      </trkpt>
      <trkpt lat="45.93532" lon="4.7334">
        <ele>169</ele>
        <time>2018-06-13T07:33:01Z</time>
      </trkpt>
      <trkpt lat="45.93533" lon="4.73347">
        <ele>169</ele>
        <time>2018-06-13T07:33:02Z</time>
      </trkpt>
      <trkpt lat="45.93536" lon="4.73358">
        <ele>169</ele>
        <time>2018-06-13T07:33:04Z</time>
      </trkpt>
      <trkpt lat="45.93537" lon="4.73364">
        <ele>169</ele>
        <time>2018-06-13T07:33:05Z</time>
      </trkpt>
      <trkpt lat="45.93539" lon="4.73375">
        <ele>169</ele>
        <time>2018-06-13T07:33:08Z</time>
      </trkpt>
      <trkpt lat="45.93541" lon="4.73384">
        <ele>169</ele>
        <time>2018-06-13T07:33:09Z</time>
      </trkpt>
      <trkpt lat="45.93543" lon="4.73395">
        <ele>169</ele>
        <time>2018-06-13T07:33:11Z</time>
      </trkpt>
      <trkpt lat="45.93544" lon="4.73402">
        <ele>169</ele>
        <time>2018-06-13T07:33:12Z</time>
      </trkpt>
      <trkpt lat="45.93546" lon="4.73413">
        <ele>169</ele>
        <time>2018-06-13T07:33:14Z</time>
      </trkpt>
      <trkpt lat="45.93547" lon="4.73419">
        <ele>169</ele>
        <time>2018-06-13T07:33:15Z</time>
      </trkpt>
      <trkpt lat="45.93549" lon="4.7343">
        <ele>169</ele>
        <time>2018-06-13T07:33:17Z</time>
      </trkpt>
      <trkpt lat="45.9355" lon="4.73436">
        <ele>169</ele>
        <time>2018-06-13T07:33:18Z</time>
      </trkpt>
      <trkpt lat="45.93553" lon="4.73446">
        <ele>169</ele>
        <time>2018-06-13T07:33:20Z</time>
      </trkpt>
      <trkpt lat="45.93555" lon="4.73451">
        <ele>169</ele>
        <time>2018-06-13T07:33:21Z</time>
      </trkpt>
      <trkpt lat="45.93557" lon="4.73463">
        <ele>169</ele>
        <time>2018-06-13T07:33:23Z</time>
      </trkpt>
      <trkpt lat="45.93558" lon="4.73468">
        <ele>169</ele>
        <time>2018-06-13T07:33:24Z</time>
      </trkpt>
      <trkpt lat="45.93561" lon="4.73477">
        <ele>169</ele>
        <time>2018-06-13T07:33:26Z</time>
      </trkpt>
      <trkpt lat="45.93563" lon="4.73483">
        <ele>169</ele>
        <time>2018-06-13T07:33:27Z</time>
      </trkpt>
      <trkpt lat="45.93564" lon="4.7349">
        <ele>169</ele>
        <time>2018-06-13T07:33:28Z</time>
      </trkpt>
      <trkpt lat="45.93565" lon="4.73496">
        <ele>169</ele>
        <time>2018-06-13T07:33:29Z</time>
      </trkpt>
      <trkpt lat="45.93567" lon="4.73503">
        <ele>168</ele>
        <time>2018-06-13T07:33:30Z</time>
      </trkpt>
      <trkpt lat="45.93569" lon="4.73509">
        <ele>168</ele>
        <time>2018-06-13T07:33:31Z</time>
      </trkpt>
      <trkpt lat="45.9357" lon="4.73515">
        <ele>168</ele>
        <time>2018-06-13T07:33:32Z</time>
      </trkpt>
      <trkpt lat="45.93574" lon="4.73521">
        <ele>168</ele>
        <time>2018-06-13T07:33:33Z</time>
      </trkpt>
      <trkpt lat="45.93577" lon="4.73533">
        <ele>168</ele>
        <time>2018-06-13T07:33:35Z</time>
      </trkpt>
      <trkpt lat="45.93579" lon="4.73539">
        <ele>168</ele>
        <time>2018-06-13T07:33:36Z</time>
      </trkpt>
      <trkpt lat="45.9358" lon="4.73545">
        <ele>168</ele>
        <time>2018-06-13T07:33:37Z</time>
      </trkpt>
      <trkpt lat="45.9358" lon="4.73553">
        <ele>168</ele>
        <time>2018-06-13T07:33:38Z</time>
      </trkpt>
      <trkpt lat="45.9358" lon="4.73559">
        <ele>168</ele>
        <time>2018-06-13T07:33:39Z</time>
      </trkpt>
      <trkpt lat="45.93581" lon="4.73566">
        <ele>168</ele>
        <time>2018-06-13T07:33:40Z</time>
      </trkpt>
      <trkpt lat="45.93581" lon="4.73573">
        <ele>168</ele>
        <time>2018-06-13T07:33:41Z</time>
      </trkpt>
      <trkpt lat="45.93582" lon="4.7358">
        <ele>168</ele>
        <time>2018-06-13T07:33:42Z</time>
      </trkpt>
      <trkpt lat="45.93584" lon="4.73586">
        <ele>168</ele>
        <time>2018-06-13T07:33:43Z</time>
      </trkpt>
      <trkpt lat="45.93584" lon="4.73594">
        <ele>168</ele>
        <time>2018-06-13T07:33:44Z</time>
      </trkpt>
      <trkpt lat="45.93584" lon="4.73604">
        <ele>168</ele>
        <time>2018-06-13T07:33:46Z</time>
      </trkpt>
      <trkpt lat="45.93585" lon="4.73609">
        <ele>168</ele>
        <time>2018-06-13T07:33:47Z</time>
      </trkpt>
      <trkpt lat="45.93586" lon="4.73619">
        <ele>168</ele>
        <time>2018-06-13T07:33:49Z</time>
      </trkpt>
      <trkpt lat="45.93587" lon="4.73624">
        <ele>168</ele>
        <time>2018-06-13T07:33:50Z</time>
      </trkpt>
      <trkpt lat="45.93588" lon="4.73636">
        <ele>168</ele>
        <time>2018-06-13T07:33:52Z</time>
      </trkpt>
      <trkpt lat="45.93588" lon="4.73643">
        <ele>168</ele>
        <time>2018-06-13T07:33:53Z</time>
      </trkpt>
      <trkpt lat="45.9359" lon="4.73655">
        <ele>168</ele>
        <time>2018-06-13T07:33:55Z</time>
      </trkpt>
      <trkpt lat="45.9359" lon="4.73661">
        <ele>168</ele>
        <time>2018-06-13T07:33:56Z</time>
      </trkpt>
      <trkpt lat="45.93592" lon="4.73672">
        <ele>168</ele>
        <time>2018-06-13T07:33:58Z</time>
      </trkpt>
      <trkpt lat="45.93592" lon="4.73677">
        <ele>169</ele>
        <time>2018-06-13T07:33:59Z</time>
      </trkpt>
      <trkpt lat="45.93593" lon="4.73688">
        <ele>169</ele>
        <time>2018-06-13T07:34:01Z</time>
      </trkpt>
      <trkpt lat="45.93593" lon="4.73694">
        <ele>169</ele>
        <time>2018-06-13T07:34:02Z</time>
      </trkpt>
      <trkpt lat="45.93591" lon="4.73705">
        <ele>169</ele>
        <time>2018-06-13T07:34:04Z</time>
      </trkpt>
      <trkpt lat="45.93589" lon="4.73711">
        <ele>169</ele>
        <time>2018-06-13T07:34:05Z</time>
      </trkpt>
      <trkpt lat="45.93585" lon="4.73721">
        <ele>169</ele>
        <time>2018-06-13T07:34:07Z</time>
      </trkpt>
      <trkpt lat="45.93581" lon="4.73724">
        <ele>169</ele>
        <time>2018-06-13T07:34:08Z</time>
      </trkpt>
      <trkpt lat="45.93575" lon="4.7373">
        <ele>169</ele>
        <time>2018-06-13T07:34:10Z</time>
      </trkpt>
      <trkpt lat="45.93571" lon="4.73734">
        <ele>169</ele>
        <time>2018-06-13T07:34:11Z</time>
      </trkpt>
      <trkpt lat="45.93564" lon="4.73741">
        <ele>169</ele>
        <time>2018-06-13T07:34:13Z</time>
      </trkpt>
      <trkpt lat="45.9356" lon="4.73744">
        <ele>169</ele>
        <time>2018-06-13T07:34:14Z</time>
      </trkpt>
      <trkpt lat="45.93554" lon="4.7375">
        <ele>169</ele>
        <time>2018-06-13T07:34:16Z</time>
      </trkpt>
      <trkpt lat="45.93551" lon="4.73754">
        <ele>169</ele>
        <time>2018-06-13T07:34:17Z</time>
      </trkpt>
      <trkpt lat="45.93545" lon="4.7376">
        <ele>169</ele>
        <time>2018-06-13T07:34:19Z</time>
      </trkpt>
      <trkpt lat="45.93543" lon="4.73761">
        <ele>169</ele>
        <time>2018-06-13T07:34:20Z</time>
      </trkpt>
      <trkpt lat="45.93537" lon="4.73767">
        <ele>169</ele>
        <time>2018-06-13T07:34:22Z</time>
      </trkpt>
      <trkpt lat="45.93535" lon="4.73769">
        <ele>169</ele>
        <time>2018-06-13T07:34:23Z</time>
      </trkpt>
      <trkpt lat="45.9353" lon="4.73774">
        <ele>169</ele>
        <time>2018-06-13T07:34:24Z</time>
      </trkpt>
      <trkpt lat="45.93527" lon="4.73777">
        <ele>169</ele>
        <time>2018-06-13T07:34:25Z</time>
      </trkpt>
      <trkpt lat="45.9352" lon="4.73784">
        <ele>169</ele>
        <time>2018-06-13T07:34:28Z</time>
      </trkpt>
      <trkpt lat="45.93515" lon="4.7379">
        <ele>169</ele>
        <time>2018-06-13T07:34:29Z</time>
      </trkpt>
      <trkpt lat="45.93509" lon="4.73796">
        <ele>169</ele>
        <time>2018-06-13T07:34:31Z</time>
      </trkpt>
      <trkpt lat="45.93505" lon="4.73797">
        <ele>169</ele>
        <time>2018-06-13T07:34:32Z</time>
      </trkpt>
      <trkpt lat="45.93498" lon="4.73804">
        <ele>169</ele>
        <time>2018-06-13T07:34:34Z</time>
      </trkpt>
      <trkpt lat="45.93492" lon="4.73807">
        <ele>169</ele>
        <time>2018-06-13T07:34:35Z</time>
      </trkpt>
      <trkpt lat="45.93485" lon="4.73811">
        <ele>169</ele>
        <time>2018-06-13T07:34:37Z</time>
      </trkpt>
      <trkpt lat="45.93482" lon="4.73812">
        <ele>169</ele>
        <time>2018-06-13T07:34:38Z</time>
      </trkpt>
      <trkpt lat="45.93474" lon="4.73816">
        <ele>169</ele>
        <time>2018-06-13T07:34:40Z</time>
      </trkpt>
      <trkpt lat="45.9347" lon="4.73817">
        <ele>169</ele>
        <time>2018-06-13T07:34:41Z</time>
      </trkpt>
      <trkpt lat="45.93465" lon="4.73819">
        <ele>169</ele>
        <time>2018-06-13T07:34:42Z</time>
      </trkpt>
      <trkpt lat="45.93459" lon="4.73821">
        <ele>169</ele>
        <time>2018-06-13T07:34:43Z</time>
      </trkpt>
      <trkpt lat="45.93455" lon="4.73823">
        <ele>169</ele>
        <time>2018-06-13T07:34:44Z</time>
      </trkpt>
      <trkpt lat="45.93449" lon="4.73825">
        <ele>169</ele>
        <time>2018-06-13T07:34:45Z</time>
      </trkpt>
      <trkpt lat="45.93442" lon="4.7383">
        <ele>169</ele>
        <time>2018-06-13T07:34:47Z</time>
      </trkpt>
      <trkpt lat="45.93438" lon="4.73831">
        <ele>169</ele>
        <time>2018-06-13T07:34:48Z</time>
      </trkpt>
      <trkpt lat="45.93431" lon="4.73834">
        <ele>169</ele>
        <time>2018-06-13T07:34:51Z</time>
      </trkpt>
      <trkpt lat="45.93425" lon="4.73837">
        <ele>169</ele>
        <time>2018-06-13T07:34:52Z</time>
      </trkpt>
      <trkpt lat="45.93417" lon="4.73841">
        <ele>169</ele>
        <time>2018-06-13T07:34:54Z</time>
      </trkpt>
      <trkpt lat="45.93414" lon="4.73843">
        <ele>169</ele>
        <time>2018-06-13T07:34:55Z</time>
      </trkpt>
      <trkpt lat="45.93405" lon="4.73848">
        <ele>169</ele>
        <time>2018-06-13T07:34:57Z</time>
      </trkpt>
      <trkpt lat="45.93401" lon="4.7385">
        <ele>169</ele>
        <time>2018-06-13T07:34:58Z</time>
      </trkpt>
      <trkpt lat="45.93397" lon="4.73853">
        <ele>169</ele>
        <time>2018-06-13T07:34:59Z</time>
      </trkpt>
      <trkpt lat="45.93393" lon="4.73857">
        <ele>169</ele>
        <time>2018-06-13T07:35:00Z</time>
      </trkpt>
      <trkpt lat="45.93386" lon="4.73863">
        <ele>169</ele>
        <time>2018-06-13T07:35:02Z</time>
      </trkpt>
      <trkpt lat="45.93384" lon="4.73864">
        <ele>169</ele>
        <time>2018-06-13T07:35:03Z</time>
      </trkpt>
      <trkpt lat="45.93377" lon="4.73871">
        <ele>169</ele>
        <time>2018-06-13T07:35:05Z</time>
      </trkpt>
      <trkpt lat="45.93374" lon="4.73873">
        <ele>169</ele>
        <time>2018-06-13T07:35:06Z</time>
      </trkpt>
      <trkpt lat="45.93367" lon="4.73879">
        <ele>168</ele>
        <time>2018-06-13T07:35:08Z</time>
      </trkpt>
      <trkpt lat="45.93366" lon="4.73881">
        <ele>168</ele>
        <time>2018-06-13T07:35:09Z</time>
      </trkpt>
      <trkpt lat="45.93364" lon="4.73883">
        <ele>168</ele>
        <time>2018-06-13T07:35:10Z</time>
      </trkpt>
      <trkpt lat="45.93358" lon="4.73888">
        <ele>168</ele>
        <time>2018-06-13T07:35:11Z</time>
      </trkpt>
      <trkpt lat="45.93352" lon="4.73896">
        <ele>168</ele>
        <time>2018-06-13T07:35:13Z</time>
      </trkpt>
      <trkpt lat="45.93349" lon="4.739">
        <ele>168</ele>
        <time>2018-06-13T07:35:14Z</time>
      </trkpt>
      <trkpt lat="45.93346" lon="4.73906">
        <ele>168</ele>
        <time>2018-06-13T07:35:15Z</time>
      </trkpt>
      <trkpt lat="45.93343" lon="4.73911">
        <ele>168</ele>
        <time>2018-06-13T07:35:16Z</time>
      </trkpt>
      <trkpt lat="45.93338" lon="4.73918">
        <ele>168</ele>
        <time>2018-06-13T07:35:18Z</time>
      </trkpt>
      <trkpt lat="45.93336" lon="4.73921">
        <ele>168</ele>
        <time>2018-06-13T07:35:19Z</time>
      </trkpt>
      <trkpt lat="45.93332" lon="4.73928">
        <ele>168</ele>
        <time>2018-06-13T07:35:20Z</time>
      </trkpt>
      <trkpt lat="45.93329" lon="4.73932">
        <ele>168</ele>
        <time>2018-06-13T07:35:21Z</time>
      </trkpt>
      <trkpt lat="45.93325" lon="4.73942">
        <ele>168</ele>
        <time>2018-06-13T07:35:23Z</time>
      </trkpt>
      <trkpt lat="45.93323" lon="4.73947">
        <ele>168</ele>
        <time>2018-06-13T07:35:24Z</time>
      </trkpt>
      <trkpt lat="45.93318" lon="4.73956">
        <ele>168</ele>
        <time>2018-06-13T07:35:26Z</time>
      </trkpt>
      <trkpt lat="45.93316" lon="4.73961">
        <ele>168</ele>
        <time>2018-06-13T07:35:27Z</time>
      </trkpt>
      <trkpt lat="45.93313" lon="4.73967">
        <ele>168</ele>
        <time>2018-06-13T07:35:29Z</time>
      </trkpt>
      <trkpt lat="45.93309" lon="4.73974">
        <ele>168</ele>
        <time>2018-06-13T07:35:30Z</time>
      </trkpt>
      <trkpt lat="45.93305" lon="4.73981">
        <ele>168</ele>
        <time>2018-06-13T07:35:33Z</time>
      </trkpt>
      <trkpt lat="45.933" lon="4.7399">
        <ele>168</ele>
        <time>2018-06-13T07:35:34Z</time>
      </trkpt>
      <trkpt lat="45.93295" lon="4.73999">
        <ele>168</ele>
        <time>2018-06-13T07:35:36Z</time>
      </trkpt>
      <trkpt lat="45.93293" lon="4.74004">
        <ele>168</ele>
        <time>2018-06-13T07:35:37Z</time>
      </trkpt>
      <trkpt lat="45.93288" lon="4.74014">
        <ele>168</ele>
        <time>2018-06-13T07:35:39Z</time>
      </trkpt>
      <trkpt lat="45.93286" lon="4.74018">
        <ele>168</ele>
        <time>2018-06-13T07:35:40Z</time>
      </trkpt>
      <trkpt lat="45.93282" lon="4.74025">
        <ele>168</ele>
        <time>2018-06-13T07:35:43Z</time>
      </trkpt>
      <trkpt lat="45.9328" lon="4.74029">
        <ele>168</ele>
        <time>2018-06-13T07:35:44Z</time>
      </trkpt>
      <trkpt lat="45.93276" lon="4.74038">
        <ele>168</ele>
        <time>2018-06-13T07:35:45Z</time>
      </trkpt>
      <trkpt lat="45.93274" lon="4.74043">
        <ele>168</ele>
        <time>2018-06-13T07:35:46Z</time>
      </trkpt>
      <trkpt lat="45.93269" lon="4.74051">
        <ele>168</ele>
        <time>2018-06-13T07:35:48Z</time>
      </trkpt>
      <trkpt lat="45.93266" lon="4.74057">
        <ele>168</ele>
        <time>2018-06-13T07:35:49Z</time>
      </trkpt>
      <trkpt lat="45.93261" lon="4.74065">
        <ele>167</ele>
        <time>2018-06-13T07:35:51Z</time>
      </trkpt>
      <trkpt lat="45.93258" lon="4.74069">
        <ele>167</ele>
        <time>2018-06-13T07:35:52Z</time>
      </trkpt>
      <trkpt lat="45.93253" lon="4.74079">
        <ele>167</ele>
        <time>2018-06-13T07:35:55Z</time>
      </trkpt>
      <trkpt lat="45.93251" lon="4.74083">
        <ele>167</ele>
        <time>2018-06-13T07:35:56Z</time>
      </trkpt>
      <trkpt lat="45.93248" lon="4.74087">
        <ele>167</ele>
        <time>2018-06-13T07:35:57Z</time>
      </trkpt>
      <trkpt lat="45.93244" lon="4.74097">
        <ele>167</ele>
        <time>2018-06-13T07:35:58Z</time>
      </trkpt>
      <trkpt lat="45.93237" lon="4.74105">
        <ele>167</ele>
        <time>2018-06-13T07:36:01Z</time>
      </trkpt>
      <trkpt lat="45.93235" lon="4.74107">
        <ele>167</ele>
        <time>2018-06-13T07:36:02Z</time>
      </trkpt>
      <trkpt lat="45.93229" lon="4.74111">
        <ele>167</ele>
        <time>2018-06-13T07:36:05Z</time>
      </trkpt>
      <trkpt lat="45.93226" lon="4.74112">
        <ele>167</ele>
        <time>2018-06-13T07:36:06Z</time>
      </trkpt>
      <trkpt lat="45.93223" lon="4.74112">
        <ele>167</ele>
        <time>2018-06-13T07:36:07Z</time>
      </trkpt>
      <trkpt lat="45.93216" lon="4.7411">
        <ele>167</ele>
        <time>2018-06-13T07:36:08Z</time>
      </trkpt>
      <trkpt lat="45.93212" lon="4.74107">
        <ele>167</ele>
        <time>2018-06-13T07:36:10Z</time>
      </trkpt>
      <trkpt lat="45.93207" lon="4.74103">
        <ele>167</ele>
        <time>2018-06-13T07:36:11Z</time>
      </trkpt>
      <trkpt lat="45.932" lon="4.74096">
        <ele>167</ele>
        <time>2018-06-13T07:36:13Z</time>
      </trkpt>
      <trkpt lat="45.93197" lon="4.74093">
        <ele>167</ele>
        <time>2018-06-13T07:36:14Z</time>
      </trkpt>
      <trkpt lat="45.93191" lon="4.74086">
        <ele>168</ele>
        <time>2018-06-13T07:36:16Z</time>
      </trkpt>
      <trkpt lat="45.93188" lon="4.74082">
        <ele>168</ele>
        <time>2018-06-13T07:36:17Z</time>
      </trkpt>
      <trkpt lat="45.93184" lon="4.74079">
        <ele>168</ele>
        <time>2018-06-13T07:36:19Z</time>
      </trkpt>
      <trkpt lat="45.93179" lon="4.74074">
        <ele>168</ele>
        <time>2018-06-13T07:36:20Z</time>
      </trkpt>
      <trkpt lat="45.93173" lon="4.74068">
        <ele>168</ele>
        <time>2018-06-13T07:36:22Z</time>
      </trkpt>
      <trkpt lat="45.9317" lon="4.74065">
        <ele>168</ele>
        <time>2018-06-13T07:36:23Z</time>
      </trkpt>
      <trkpt lat="45.93163" lon="4.74058">
        <ele>168</ele>
        <time>2018-06-13T07:36:25Z</time>
      </trkpt>
      <trkpt lat="45.9316" lon="4.74054">
        <ele>168</ele>
        <time>2018-06-13T07:36:26Z</time>
      </trkpt>
      <trkpt lat="45.93153" lon="4.74046">
        <ele>168</ele>
        <time>2018-06-13T07:36:28Z</time>
      </trkpt>
      <trkpt lat="45.93152" lon="4.74044">
        <ele>168</ele>
        <time>2018-06-13T07:36:29Z</time>
      </trkpt>
      <trkpt lat="45.93145" lon="4.74038">
        <ele>168</ele>
        <time>2018-06-13T07:36:32Z</time>
      </trkpt>
      <trkpt lat="45.93142" lon="4.74035">
        <ele>168</ele>
        <time>2018-06-13T07:36:33Z</time>
      </trkpt>
      <trkpt lat="45.93136" lon="4.74031">
        <ele>168</ele>
        <time>2018-06-13T07:36:35Z</time>
      </trkpt>
      <trkpt lat="45.93134" lon="4.74029">
        <ele>168</ele>
        <time>2018-06-13T07:36:36Z</time>
      </trkpt>
      <trkpt lat="45.93126" lon="4.74025">
        <ele>168</ele>
        <time>2018-06-13T07:36:37Z</time>
      </trkpt>
      <trkpt lat="45.93123" lon="4.74023">
        <ele>168</ele>
        <time>2018-06-13T07:36:38Z</time>
      </trkpt>
      <trkpt lat="45.93115" lon="4.74022">
        <ele>168</ele>
        <time>2018-06-13T07:36:40Z</time>
      </trkpt>
      <trkpt lat="45.9311" lon="4.74021">
        <ele>168</ele>
        <time>2018-06-13T07:36:41Z</time>
      </trkpt>
      <trkpt lat="45.93105" lon="4.7402">
        <ele>168</ele>
        <time>2018-06-13T07:36:42Z</time>
      </trkpt>
      <trkpt lat="45.93101" lon="4.74019">
        <ele>168</ele>
        <time>2018-06-13T07:36:43Z</time>
      </trkpt>
      <trkpt lat="45.93096" lon="4.74018">
        <ele>168</ele>
        <time>2018-06-13T07:36:44Z</time>
      </trkpt>
      <trkpt lat="45.93091" lon="4.74016">
        <ele>168</ele>
        <time>2018-06-13T07:36:45Z</time>
      </trkpt>
      <trkpt lat="45.93087" lon="4.74016">
        <ele>168</ele>
        <time>2018-06-13T07:36:46Z</time>
      </trkpt>
      <trkpt lat="45.93082" lon="4.74014">
        <ele>169</ele>
        <time>2018-06-13T07:36:47Z</time>
      </trkpt>
      <trkpt lat="45.93073" lon="4.74012">
        <ele>169</ele>
        <time>2018-06-13T07:36:49Z</time>
      </trkpt>
      <trkpt lat="45.93069" lon="4.7401">
        <ele>169</ele>
        <time>2018-06-13T07:36:50Z</time>
      </trkpt>
      <trkpt lat="45.93061" lon="4.74005">
        <ele>169</ele>
        <time>2018-06-13T07:36:52Z</time>
      </trkpt>
      <trkpt lat="45.93057" lon="4.74002">
        <ele>169</ele>
        <time>2018-06-13T07:36:53Z</time>
      </trkpt>
      <trkpt lat="45.9305" lon="4.73998">
        <ele>169</ele>
        <time>2018-06-13T07:36:55Z</time>
      </trkpt>
      <trkpt lat="45.93046" lon="4.73996">
        <ele>169</ele>
        <time>2018-06-13T07:36:56Z</time>
      </trkpt>
      <trkpt lat="45.93039" lon="4.73993">
        <ele>169</ele>
        <time>2018-06-13T07:36:59Z</time>
      </trkpt>
      <trkpt lat="45.93032" lon="4.7399">
        <ele>169</ele>
        <time>2018-06-13T07:37:00Z</time>
      </trkpt>
      <trkpt lat="45.93025" lon="4.7399">
        <ele>169</ele>
        <time>2018-06-13T07:37:02Z</time>
      </trkpt>
      <trkpt lat="45.93021" lon="4.7399">
        <ele>169</ele>
        <time>2018-06-13T07:37:03Z</time>
      </trkpt>
      <trkpt lat="45.93013" lon="4.73996">
        <ele>170</ele>
        <time>2018-06-13T07:37:05Z</time>
      </trkpt>
      <trkpt lat="45.9301" lon="4.74">
        <ele>170</ele>
        <time>2018-06-13T07:37:06Z</time>
      </trkpt>
      <trkpt lat="45.93008" lon="4.7401">
        <ele>170</ele>
        <time>2018-06-13T07:37:07Z</time>
      </trkpt>
      <trkpt lat="45.93005" lon="4.74015">
        <ele>170</ele>
        <time>2018-06-13T07:37:08Z</time>
      </trkpt>
      <trkpt lat="45.93002" lon="4.74021">
        <ele>170</ele>
        <time>2018-06-13T07:37:09Z</time>
      </trkpt>
      <trkpt lat="45.93001" lon="4.74028">
        <ele>170</ele>
        <time>2018-06-13T07:37:10Z</time>
      </trkpt>
      <trkpt lat="45.93" lon="4.74035">
        <ele>170</ele>
        <time>2018-06-13T07:37:12Z</time>
      </trkpt>
      <trkpt lat="45.92998" lon="4.74045">
        <ele>171</ele>
        <time>2018-06-13T07:37:13Z</time>
      </trkpt>
      <trkpt lat="45.92999" lon="4.74057">
        <ele>171</ele>
        <time>2018-06-13T07:37:15Z</time>
      </trkpt>
      <trkpt lat="45.92999" lon="4.74063">
        <ele>171</ele>
        <time>2018-06-13T07:37:16Z</time>
      </trkpt>
      <trkpt lat="45.93" lon="4.7407">
        <ele>171</ele>
        <time>2018-06-13T07:37:17Z</time>
      </trkpt>
      <trkpt lat="45.93" lon="4.74076">
        <ele>171</ele>
        <time>2018-06-13T07:37:18Z</time>
      </trkpt>
      <trkpt lat="45.93" lon="4.74089">
        <ele>171</ele>
        <time>2018-06-13T07:37:20Z</time>
      </trkpt>
      <trkpt lat="45.93" lon="4.74095">
        <ele>171</ele>
        <time>2018-06-13T07:37:21Z</time>
      </trkpt>
      <trkpt lat="45.92999" lon="4.74103">
        <ele>171</ele>
        <time>2018-06-13T07:37:23Z</time>
      </trkpt>
      <trkpt lat="45.92998" lon="4.74111">
        <ele>171</ele>
        <time>2018-06-13T07:37:24Z</time>
      </trkpt>
      <trkpt lat="45.92995" lon="4.74119">
        <ele>171</ele>
        <time>2018-06-13T07:37:26Z</time>
      </trkpt>
      <trkpt lat="45.92993" lon="4.74126">
        <ele>171</ele>
        <time>2018-06-13T07:37:27Z</time>
      </trkpt>
      <trkpt lat="45.92991" lon="4.74135">
        <ele>171</ele>
        <time>2018-06-13T07:37:30Z</time>
      </trkpt>
      <trkpt lat="45.9299" lon="4.74138">
        <ele>171</ele>
        <time>2018-06-13T07:37:31Z</time>
      </trkpt>
      <trkpt lat="45.92986" lon="4.74149">
        <ele>170</ele>
        <time>2018-06-13T07:37:34Z</time>
      </trkpt>
      <trkpt lat="45.92984" lon="4.74153">
        <ele>170</ele>
        <time>2018-06-13T07:37:35Z</time>
      </trkpt>
      <trkpt lat="45.9298" lon="4.74164">
        <ele>170</ele>
        <time>2018-06-13T07:37:38Z</time>
      </trkpt>
      <trkpt lat="45.92979" lon="4.74168">
        <ele>170</ele>
        <time>2018-06-13T07:37:39Z</time>
      </trkpt>
      <trkpt lat="45.92976" lon="4.74176">
        <ele>170</ele>
        <time>2018-06-13T07:37:41Z</time>
      </trkpt>
      <trkpt lat="45.92975" lon="4.7418">
        <ele>170</ele>
        <time>2018-06-13T07:37:42Z</time>
      </trkpt>
      <trkpt lat="45.92972" lon="4.74188">
        <ele>170</ele>
        <time>2018-06-13T07:37:44Z</time>
      </trkpt>
      <trkpt lat="45.92966" lon="4.74201">
        <ele>170</ele>
        <time>2018-06-13T07:37:45Z</time>
      </trkpt>
      <trkpt lat="45.9296" lon="4.74206">
        <ele>170</ele>
        <time>2018-06-13T07:37:47Z</time>
      </trkpt>
      <trkpt lat="45.92957" lon="4.74208">
        <ele>170</ele>
        <time>2018-06-13T07:37:48Z</time>
      </trkpt>
      <trkpt lat="45.9295" lon="4.7421">
        <ele>170</ele>
        <time>2018-06-13T07:37:50Z</time>
      </trkpt>
      <trkpt lat="45.92946" lon="4.7421">
        <ele>170</ele>
        <time>2018-06-13T07:37:51Z</time>
      </trkpt>
      <trkpt lat="45.9294" lon="4.74206">
        <ele>170</ele>
        <time>2018-06-13T07:37:53Z</time>
      </trkpt>
      <trkpt lat="45.92938" lon="4.74203">
        <ele>170</ele>
        <time>2018-06-13T07:37:54Z</time>
      </trkpt>
      <trkpt lat="45.92933" lon="4.74198">
        <ele>170</ele>
        <time>2018-06-13T07:37:57Z</time>
      </trkpt>
      <trkpt lat="45.9293" lon="4.74195">
        <ele>170</ele>
        <time>2018-06-13T07:37:58Z</time>
      </trkpt>
      <trkpt lat="45.92924" lon="4.74189">
        <ele>171</ele>
        <time>2018-06-13T07:37:59Z</time>
      </trkpt>
      <trkpt lat="45.92921" lon="4.74186">
        <ele>171</ele>
        <time>2018-06-13T07:38:00Z</time>
      </trkpt>
      <trkpt lat="45.92914" lon="4.74181">
        <ele>172</ele>
        <time>2018-06-13T07:38:03Z</time>
      </trkpt>
      <trkpt lat="45.92911" lon="4.7418">
        <ele>172</ele>
        <time>2018-06-13T07:38:04Z</time>
      </trkpt>
      <trkpt lat="45.92903" lon="4.74176">
        <ele>172</ele>
        <time>2018-06-13T07:38:07Z</time>
      </trkpt>
      <trkpt lat="45.929" lon="4.74174">
        <ele>172</ele>
        <time>2018-06-13T07:38:08Z</time>
      </trkpt>
      <trkpt lat="45.92897" lon="4.74172">
        <ele>172</ele>
        <time>2018-06-13T07:38:09Z</time>
      </trkpt>
      <trkpt lat="45.9289" lon="4.74165">
        <ele>172</ele>
        <time>2018-06-13T07:38:10Z</time>
      </trkpt>
      <trkpt lat="45.92886" lon="4.74156">
        <ele>172</ele>
        <time>2018-06-13T07:38:12Z</time>
      </trkpt>
      <trkpt lat="45.92884" lon="4.7415">
        <ele>172</ele>
        <time>2018-06-13T07:38:13Z</time>
      </trkpt>
      <trkpt lat="45.92883" lon="4.74137">
        <ele>172</ele>
        <time>2018-06-13T07:38:15Z</time>
      </trkpt>
      <trkpt lat="45.92887" lon="4.74129">
        <ele>172</ele>
        <time>2018-06-13T07:38:16Z</time>
      </trkpt>
      <trkpt lat="45.92889" lon="4.74124">
        <ele>172</ele>
        <time>2018-06-13T07:38:17Z</time>
      </trkpt>
      <trkpt lat="45.92893" lon="4.74117">
        <ele>172</ele>
        <time>2018-06-13T07:38:18Z</time>
      </trkpt>
      <trkpt lat="45.92895" lon="4.7411">
        <ele>172</ele>
        <time>2018-06-13T07:38:19Z</time>
      </trkpt>
      <trkpt lat="45.92899" lon="4.74104">
        <ele>172</ele>
        <time>2018-06-13T07:38:20Z</time>
      </trkpt>
      <trkpt lat="45.92904" lon="4.74098">
        <ele>172</ele>
        <time>2018-06-13T07:38:21Z</time>
      </trkpt>
      <trkpt lat="45.92906" lon="4.74091">
        <ele>172</ele>
        <time>2018-06-13T07:38:22Z</time>
      </trkpt>
      <trkpt lat="45.92908" lon="4.74083">
        <ele>173</ele>
        <time>2018-06-13T07:38:23Z</time>
      </trkpt>
      <trkpt lat="45.9291" lon="4.74074">
        <ele>173</ele>
        <time>2018-06-13T07:38:24Z</time>
      </trkpt>
      <trkpt lat="45.9291" lon="4.74065">
        <ele>173</ele>
        <time>2018-06-13T07:38:25Z</time>
      </trkpt>
      <trkpt lat="45.92912" lon="4.74056">
        <ele>172</ele>
        <time>2018-06-13T07:38:26Z</time>
      </trkpt>
      <trkpt lat="45.92913" lon="4.74048">
        <ele>172</ele>
        <time>2018-06-13T07:38:27Z</time>
      </trkpt>
      <trkpt lat="45.92913" lon="4.74041">
        <ele>172</ele>
        <time>2018-06-13T07:38:28Z</time>
      </trkpt>
      <trkpt lat="45.92917" lon="4.74032">
        <ele>172</ele>
        <time>2018-06-13T07:38:30Z</time>
      </trkpt>
      <trkpt lat="45.92918" lon="4.74026">
        <ele>172</ele>
        <time>2018-06-13T07:38:31Z</time>
      </trkpt>
      <trkpt lat="45.92918" lon="4.74019">
        <ele>172</ele>
        <time>2018-06-13T07:38:32Z</time>
      </trkpt>
      <trkpt lat="45.92916" lon="4.74012">
        <ele>172</ele>
        <time>2018-06-13T07:38:33Z</time>
      </trkpt>
      <trkpt lat="45.92914" lon="4.74007">
        <ele>172</ele>
        <time>2018-06-13T07:38:34Z</time>
      </trkpt>
      <trkpt lat="45.92913" lon="4.74">
        <ele>172</ele>
        <time>2018-06-13T07:38:35Z</time>
      </trkpt>
      <trkpt lat="45.92905" lon="4.73992">
        <ele>172</ele>
        <time>2018-06-13T07:38:37Z</time>
      </trkpt>
      <trkpt lat="45.92901" lon="4.73988">
        <ele>172</ele>
        <time>2018-06-13T07:38:38Z</time>
      </trkpt>
      <trkpt lat="45.92897" lon="4.73985">
        <ele>172</ele>
        <time>2018-06-13T07:38:39Z</time>
      </trkpt>
      <trkpt lat="45.92893" lon="4.73981">
        <ele>172</ele>
        <time>2018-06-13T07:38:40Z</time>
      </trkpt>
      <trkpt lat="45.92891" lon="4.73974">
        <ele>172</ele>
        <time>2018-06-13T07:38:41Z</time>
      </trkpt>
      <trkpt lat="45.92888" lon="4.7397">
        <ele>172</ele>
        <time>2018-06-13T07:38:42Z</time>
      </trkpt>
      <trkpt lat="45.92887" lon="4.73964">
        <ele>172</ele>
        <time>2018-06-13T07:38:43Z</time>
      </trkpt>
      <trkpt lat="45.92886" lon="4.73957">
        <ele>172</ele>
        <time>2018-06-13T07:38:44Z</time>
      </trkpt>
      <trkpt lat="45.92885" lon="4.73951">
        <ele>172</ele>
        <time>2018-06-13T07:38:45Z</time>
      </trkpt>
      <trkpt lat="45.92885" lon="4.73943">
        <ele>172</ele>
        <time>2018-06-13T07:38:46Z</time>
      </trkpt>
      <trkpt lat="45.92885" lon="4.73936">
        <ele>172</ele>
        <time>2018-06-13T07:38:47Z</time>
      </trkpt>
      <trkpt lat="45.92884" lon="4.73926">
        <ele>172</ele>
        <time>2018-06-13T07:38:48Z</time>
      </trkpt>
      <trkpt lat="45.92883" lon="4.73917">
        <ele>172</ele>
        <time>2018-06-13T07:38:49Z</time>
      </trkpt>
      <trkpt lat="45.92885" lon="4.73908">
        <ele>173</ele>
        <time>2018-06-13T07:38:50Z</time>
      </trkpt>
      <trkpt lat="45.92883" lon="4.73901">
        <ele>173</ele>
        <time>2018-06-13T07:38:51Z</time>
      </trkpt>
      <trkpt lat="45.92882" lon="4.73894">
        <ele>173</ele>
        <time>2018-06-13T07:38:52Z</time>
      </trkpt>
      <trkpt lat="45.92884" lon="4.73883">
        <ele>173</ele>
        <time>2018-06-13T07:38:53Z</time>
      </trkpt>
      <trkpt lat="45.92882" lon="4.73876">
        <ele>173</ele>
        <time>2018-06-13T07:38:54Z</time>
      </trkpt>
      <trkpt lat="45.9288" lon="4.73868">
        <ele>173</ele>
        <time>2018-06-13T07:38:55Z</time>
      </trkpt>
      <trkpt lat="45.92878" lon="4.73861">
        <ele>173</ele>
        <time>2018-06-13T07:38:56Z</time>
      </trkpt>
      <trkpt lat="45.92877" lon="4.73852">
        <ele>173</ele>
        <time>2018-06-13T07:38:57Z</time>
      </trkpt>
      <trkpt lat="45.92873" lon="4.73843">
        <ele>173</ele>
        <time>2018-06-13T07:38:58Z</time>
      </trkpt>
      <trkpt lat="45.92872" lon="4.73835">
        <ele>173</ele>
        <time>2018-06-13T07:38:59Z</time>
      </trkpt>
      <trkpt lat="45.92868" lon="4.73828">
        <ele>173</ele>
        <time>2018-06-13T07:39:00Z</time>
      </trkpt>
      <trkpt lat="45.92866" lon="4.7382">
        <ele>173</ele>
        <time>2018-06-13T07:39:01Z</time>
      </trkpt>
      <trkpt lat="45.92864" lon="4.73811">
        <ele>173</ele>
        <time>2018-06-13T07:39:02Z</time>
      </trkpt>
      <trkpt lat="45.92861" lon="4.73804">
        <ele>173</ele>
        <time>2018-06-13T07:39:03Z</time>
      </trkpt>
      <trkpt lat="45.92859" lon="4.73798">
        <ele>173</ele>
        <time>2018-06-13T07:39:04Z</time>
      </trkpt>
      <trkpt lat="45.92856" lon="4.73793">
        <ele>173</ele>
        <time>2018-06-13T07:39:05Z</time>
      </trkpt>
      <trkpt lat="45.92853" lon="4.73787">
        <ele>173</ele>
        <time>2018-06-13T07:39:06Z</time>
      </trkpt>
      <trkpt lat="45.92849" lon="4.73784">
        <ele>173</ele>
        <time>2018-06-13T07:39:07Z</time>
      </trkpt>
      <trkpt lat="45.92845" lon="4.7378">
        <ele>173</ele>
        <time>2018-06-13T07:39:08Z</time>
      </trkpt>
      <trkpt lat="45.92836" lon="4.73777">
        <ele>172</ele>
        <time>2018-06-13T07:39:10Z</time>
      </trkpt>
      <trkpt lat="45.92833" lon="4.73775">
        <ele>173</ele>
        <time>2018-06-13T07:39:11Z</time>
      </trkpt>
      <trkpt lat="45.92826" lon="4.73768">
        <ele>172</ele>
        <time>2018-06-13T07:39:13Z</time>
      </trkpt>
      <trkpt lat="45.92822" lon="4.73765">
        <ele>172</ele>
        <time>2018-06-13T07:39:14Z</time>
      </trkpt>
      <trkpt lat="45.92815" lon="4.7376">
        <ele>172</ele>
        <time>2018-06-13T07:39:16Z</time>
      </trkpt>
      <trkpt lat="45.92811" lon="4.73758">
        <ele>173</ele>
        <time>2018-06-13T07:39:17Z</time>
      </trkpt>
      <trkpt lat="45.92802" lon="4.73755">
        <ele>173</ele>
        <time>2018-06-13T07:39:19Z</time>
      </trkpt>
      <trkpt lat="45.92799" lon="4.73752">
        <ele>173</ele>
        <time>2018-06-13T07:39:20Z</time>
      </trkpt>
      <trkpt lat="45.92793" lon="4.73749">
        <ele>172</ele>
        <time>2018-06-13T07:39:22Z</time>
      </trkpt>
      <trkpt lat="45.9279" lon="4.73744">
        <ele>172</ele>
        <time>2018-06-13T07:39:23Z</time>
      </trkpt>
      <trkpt lat="45.92785" lon="4.73738">
        <ele>172</ele>
        <time>2018-06-13T07:39:26Z</time>
      </trkpt>
      <trkpt lat="45.92777" lon="4.73733">
        <ele>172</ele>
        <time>2018-06-13T07:39:27Z</time>
      </trkpt>
      <trkpt lat="45.9277" lon="4.7373">
        <ele>172</ele>
        <time>2018-06-13T07:39:30Z</time>
      </trkpt>
      <trkpt lat="45.92768" lon="4.73729">
        <ele>172</ele>
        <time>2018-06-13T07:39:31Z</time>
      </trkpt>
      <trkpt lat="45.92761" lon="4.73726">
        <ele>172</ele>
        <time>2018-06-13T07:39:32Z</time>
      </trkpt>
      <trkpt lat="45.92757" lon="4.73724">
        <ele>172</ele>
        <time>2018-06-13T07:39:33Z</time>
      </trkpt>
      <trkpt lat="45.92755" lon="4.73722">
        <ele>172</ele>
        <time>2018-06-13T07:39:34Z</time>
      </trkpt>
      <trkpt lat="45.92747" lon="4.73721">
        <ele>173</ele>
        <time>2018-06-13T07:39:35Z</time>
      </trkpt>
      <trkpt lat="45.92739" lon="4.73721">
        <ele>173</ele>
        <time>2018-06-13T07:39:37Z</time>
      </trkpt>
      <trkpt lat="45.92734" lon="4.7372">
        <ele>173</ele>
        <time>2018-06-13T07:39:38Z</time>
      </trkpt>
      <trkpt lat="45.92727" lon="4.73718">
        <ele>173</ele>
        <time>2018-06-13T07:39:40Z</time>
      </trkpt>
      <trkpt lat="45.92723" lon="4.73717">
        <ele>173</ele>
        <time>2018-06-13T07:39:41Z</time>
      </trkpt>
      <trkpt lat="45.92717" lon="4.73715">
        <ele>173</ele>
        <time>2018-06-13T07:39:42Z</time>
      </trkpt>
      <trkpt lat="45.92714" lon="4.73714">
        <ele>173</ele>
        <time>2018-06-13T07:39:43Z</time>
      </trkpt>
      <trkpt lat="45.92709" lon="4.73714">
        <ele>173</ele>
        <time>2018-06-13T07:39:44Z</time>
      </trkpt>
      <trkpt lat="45.92704" lon="4.73712">
        <ele>173</ele>
        <time>2018-06-13T07:39:45Z</time>
      </trkpt>
      <trkpt lat="45.92695" lon="4.7371">
        <ele>173</ele>
        <time>2018-06-13T07:39:47Z</time>
      </trkpt>
      <trkpt lat="45.92692" lon="4.73709">
        <ele>173</ele>
        <time>2018-06-13T07:39:48Z</time>
      </trkpt>
      <trkpt lat="45.92688" lon="4.73708">
        <ele>173</ele>
        <time>2018-06-13T07:39:49Z</time>
      </trkpt>
      <trkpt lat="45.92683" lon="4.73705">
        <ele>173</ele>
        <time>2018-06-13T07:39:50Z</time>
      </trkpt>
      <trkpt lat="45.92675" lon="4.73703">
        <ele>174</ele>
        <time>2018-06-13T07:39:53Z</time>
      </trkpt>
      <trkpt lat="45.92668" lon="4.737">
        <ele>174</ele>
        <time>2018-06-13T07:39:54Z</time>
      </trkpt>
      <trkpt lat="45.92664" lon="4.73697">
        <ele>173</ele>
        <time>2018-06-13T07:39:55Z</time>
      </trkpt>
      <trkpt lat="45.9266" lon="4.73694">
        <ele>173</ele>
        <time>2018-06-13T07:39:56Z</time>
      </trkpt>
      <trkpt lat="45.92655" lon="4.73689">
        <ele>173</ele>
        <time>2018-06-13T07:39:57Z</time>
      </trkpt>
      <trkpt lat="45.92651" lon="4.73684">
        <ele>173</ele>
        <time>2018-06-13T07:39:58Z</time>
      </trkpt>
      <trkpt lat="45.92644" lon="4.73676">
        <ele>173</ele>
        <time>2018-06-13T07:40:00Z</time>
      </trkpt>
      <trkpt lat="45.92641" lon="4.7367">
        <ele>173</ele>
        <time>2018-06-13T07:40:01Z</time>
      </trkpt>
      <trkpt lat="45.92636" lon="4.73661">
        <ele>173</ele>
        <time>2018-06-13T07:40:03Z</time>
      </trkpt>
      <trkpt lat="45.92634" lon="4.73654">
        <ele>173</ele>
        <time>2018-06-13T07:40:04Z</time>
      </trkpt>
      <trkpt lat="45.92631" lon="4.73648">
        <ele>173</ele>
        <time>2018-06-13T07:40:05Z</time>
      </trkpt>
      <trkpt lat="45.92628" lon="4.73642">
        <ele>173</ele>
        <time>2018-06-13T07:40:06Z</time>
      </trkpt>
      <trkpt lat="45.92625" lon="4.73635">
        <ele>173</ele>
        <time>2018-06-13T07:40:07Z</time>
      </trkpt>
      <trkpt lat="45.92621" lon="4.7363">
        <ele>173</ele>
        <time>2018-06-13T07:40:08Z</time>
      </trkpt>
      <trkpt lat="45.92614" lon="4.73623">
        <ele>173</ele>
        <time>2018-06-13T07:40:10Z</time>
      </trkpt>
      <trkpt lat="45.92611" lon="4.7362">
        <ele>173</ele>
        <time>2018-06-13T07:40:11Z</time>
      </trkpt>
      <trkpt lat="45.92605" lon="4.73615">
        <ele>173</ele>
        <time>2018-06-13T07:40:13Z</time>
      </trkpt>
      <trkpt lat="45.926" lon="4.73614">
        <ele>173</ele>
        <time>2018-06-13T07:40:14Z</time>
      </trkpt>
      <trkpt lat="45.92592" lon="4.73619">
        <ele>173</ele>
        <time>2018-06-13T07:40:16Z</time>
      </trkpt>
      <trkpt lat="45.92588" lon="4.7362">
        <ele>173</ele>
        <time>2018-06-13T07:40:17Z</time>
      </trkpt>
      <trkpt lat="45.92581" lon="4.73622">
        <ele>173</ele>
        <time>2018-06-13T07:40:19Z</time>
      </trkpt>
      <trkpt lat="45.92575" lon="4.73623">
        <ele>173</ele>
        <time>2018-06-13T07:40:20Z</time>
      </trkpt>
      <trkpt lat="45.92571" lon="4.73624">
        <ele>173</ele>
        <time>2018-06-13T07:40:21Z</time>
      </trkpt>
      <trkpt lat="45.92566" lon="4.73626">
        <ele>173</ele>
        <time>2018-06-13T07:40:22Z</time>
      </trkpt>
      <trkpt lat="45.9256" lon="4.73627">
        <ele>173</ele>
        <time>2018-06-13T07:40:23Z</time>
      </trkpt>
      <trkpt lat="45.92556" lon="4.73628">
        <ele>173</ele>
        <time>2018-06-13T07:40:24Z</time>
      </trkpt>
      <trkpt lat="45.92551" lon="4.73629">
        <ele>173</ele>
        <time>2018-06-13T07:40:25Z</time>
      </trkpt>
      <trkpt lat="45.92545" lon="4.73629">
        <ele>173</ele>
        <time>2018-06-13T07:40:26Z</time>
      </trkpt>
      <trkpt lat="45.92539" lon="4.7363">
        <ele>173</ele>
        <time>2018-06-13T07:40:27Z</time>
      </trkpt>
      <trkpt lat="45.92535" lon="4.73631">
        <ele>173</ele>
        <time>2018-06-13T07:40:28Z</time>
      </trkpt>
      <trkpt lat="45.92529" lon="4.73632">
        <ele>173</ele>
        <time>2018-06-13T07:40:29Z</time>
      </trkpt>
      <trkpt lat="45.92525" lon="4.73633">
        <ele>173</ele>
        <time>2018-06-13T07:40:30Z</time>
      </trkpt>
      <trkpt lat="45.92516" lon="4.73633">
        <ele>173</ele>
        <time>2018-06-13T07:40:32Z</time>
      </trkpt>
      <trkpt lat="45.9251" lon="4.73633">
        <ele>173</ele>
        <time>2018-06-13T07:40:33Z</time>
      </trkpt>
      <trkpt lat="45.92503" lon="4.73632">
        <ele>173</ele>
        <time>2018-06-13T07:40:35Z</time>
      </trkpt>
      <trkpt lat="45.92501" lon="4.73632">
        <ele>174</ele>
        <time>2018-06-13T07:40:36Z</time>
      </trkpt>
      <trkpt lat="45.92498" lon="4.73633">
        <ele>174</ele>
        <time>2018-06-13T07:40:37Z</time>
      </trkpt>
      <trkpt lat="45.9249" lon="4.73635">
        <ele>174</ele>
        <time>2018-06-13T07:40:38Z</time>
      </trkpt>
      <trkpt lat="45.92486" lon="4.73637">
        <ele>174</ele>
        <time>2018-06-13T07:40:40Z</time>
      </trkpt>
      <trkpt lat="45.92481" lon="4.73639">
        <ele>174</ele>
        <time>2018-06-13T07:40:41Z</time>
      </trkpt>
      <trkpt lat="45.92475" lon="4.73648">
        <ele>174</ele>
        <time>2018-06-13T07:40:44Z</time>
      </trkpt>
      <trkpt lat="45.92473" lon="4.73657">
        <ele>174</ele>
        <time>2018-06-13T07:40:45Z</time>
      </trkpt>
      <trkpt lat="45.92473" lon="4.73668">
        <ele>174</ele>
        <time>2018-06-13T07:40:47Z</time>
      </trkpt>
      <trkpt lat="45.92472" lon="4.73674">
        <ele>174</ele>
        <time>2018-06-13T07:40:48Z</time>
      </trkpt>
      <trkpt lat="45.92471" lon="4.73685">
        <ele>174</ele>
        <time>2018-06-13T07:40:50Z</time>
      </trkpt>
      <trkpt lat="45.92471" lon="4.73691">
        <ele>174</ele>
        <time>2018-06-13T07:40:51Z</time>
      </trkpt>
      <trkpt lat="45.9247" lon="4.73703">
        <ele>174</ele>
        <time>2018-06-13T07:40:55Z</time>
      </trkpt>
      <trkpt lat="45.92469" lon="4.73705">
        <ele>174</ele>
        <time>2018-06-13T07:40:56Z</time>
      </trkpt>
      <trkpt lat="45.92461" lon="4.73701">
        <ele>174</ele>
        <time>2018-06-13T07:41:17Z</time>
      </trkpt>
      <trkpt lat="45.9246" lon="4.73701">
        <ele>174</ele>
        <time>2018-06-13T07:41:18Z</time>
      </trkpt>
      <trkpt lat="45.92456" lon="4.73704">
        <ele>174</ele>
        <time>2018-06-13T07:41:25Z</time>
      </trkpt>
      <trkpt lat="45.92455" lon="4.73704">
        <ele>174</ele>
        <time>2018-06-13T07:41:26Z</time>
      </trkpt>
      <trkpt lat="45.92455" lon="4.73705">
        <ele>174</ele>
        <time>2018-06-13T07:41:27Z</time>
      </trkpt>
      <trkpt lat="45.92451" lon="4.73703">
        <ele>174</ele>
        <time>2018-06-13T07:44:58.938Z</time>
      </trkpt>
    </trkseg>
  </trk>
</gpx>